<?xml version="1.0" encoding="UTF-8" standalone="no" ?>
<gpx xmlns="http://www.topografix.com/GPX/1/1" xmlns:xsi="http://www.w3.org/2001/XMLSchema-instance" xsi:schemaLocation="http://www.topografix.com/GPX/1/1 http://www.topografix.com/GPX/1/1/gpx.xsd" version="1.1" creator="VisuGPX - https://www.visugpx.com">
  <metadata>
    <name>Vtt Savigneux 11/09/16</name>
    <desc><![CDATA[Quelques poussettes et gros cailloux en descente]]></desc>
  </metadata>
  <trk>
    <name><![CDATA[Savigneux VTT avec Keke]]></name>
    <trkseg>
      <trkpt lat="45.60753" lon="4.08911">
        <ele>383.20001220703</ele>
        <time>2016-09-11T06:33:31.000Z</time>
      </trkpt>
      <trkpt lat="45.60755" lon="4.08906">
        <ele>383.20001220703</ele>
        <time>2016-09-11T06:33:33.000Z</time>
      </trkpt>
      <trkpt lat="45.60758" lon="4.08898">
        <ele>383.20001220703</ele>
        <time>2016-09-11T06:33:35.000Z</time>
      </trkpt>
      <trkpt lat="45.60757" lon="4.08873">
        <ele>384.39999389648</ele>
        <time>2016-09-11T06:33:42.000Z</time>
      </trkpt>
      <trkpt lat="45.60766" lon="4.08848">
        <ele>385</ele>
        <time>2016-09-11T06:33:52.000Z</time>
      </trkpt>
      <trkpt lat="45.60769" lon="4.08846">
        <ele>385</ele>
        <time>2016-09-11T06:33:53.000Z</time>
      </trkpt>
      <trkpt lat="45.60787" lon="4.08839">
        <ele>385.20001220703</ele>
        <time>2016-09-11T06:34:00.000Z</time>
      </trkpt>
      <trkpt lat="45.60812" lon="4.08838">
        <ele>384.79998779297</ele>
        <time>2016-09-11T06:34:06.000Z</time>
      </trkpt>
      <trkpt lat="45.60826" lon="4.08821">
        <ele>384.39999389648</ele>
        <time>2016-09-11T06:34:11.000Z</time>
      </trkpt>
      <trkpt lat="45.60822" lon="4.08792">
        <ele>385.20001220703</ele>
        <time>2016-09-11T06:34:16.000Z</time>
      </trkpt>
      <trkpt lat="45.6082" lon="4.08786">
        <ele>385.39999389648</ele>
        <time>2016-09-11T06:34:17.000Z</time>
      </trkpt>
      <trkpt lat="45.60818" lon="4.0878">
        <ele>385.39999389648</ele>
        <time>2016-09-11T06:34:18.000Z</time>
      </trkpt>
      <trkpt lat="45.60813" lon="4.08762">
        <ele>385.79998779297</ele>
        <time>2016-09-11T06:34:21.000Z</time>
      </trkpt>
      <trkpt lat="45.6081" lon="4.08752">
        <ele>386</ele>
        <time>2016-09-11T06:34:23.000Z</time>
      </trkpt>
      <trkpt lat="45.60802" lon="4.08724">
        <ele>386.39999389648</ele>
        <time>2016-09-11T06:34:28.000Z</time>
      </trkpt>
      <trkpt lat="45.60796" lon="4.08709">
        <ele>386.20001220703</ele>
        <time>2016-09-11T06:34:31.000Z</time>
      </trkpt>
      <trkpt lat="45.60793" lon="4.08699">
        <ele>386</ele>
        <time>2016-09-11T06:34:33.000Z</time>
      </trkpt>
      <trkpt lat="45.60787" lon="4.08678">
        <ele>385.79998779297</ele>
        <time>2016-09-11T06:34:37.000Z</time>
      </trkpt>
      <trkpt lat="45.60783" lon="4.08663">
        <ele>385.60000610352</ele>
        <time>2016-09-11T06:34:40.000Z</time>
      </trkpt>
      <trkpt lat="45.60778" lon="4.08648">
        <ele>385.20001220703</ele>
        <time>2016-09-11T06:34:43.000Z</time>
      </trkpt>
      <trkpt lat="45.60772" lon="4.08621">
        <ele>384.60000610352</ele>
        <time>2016-09-11T06:34:48.000Z</time>
      </trkpt>
      <trkpt lat="45.60766" lon="4.08595">
        <ele>384.20001220703</ele>
        <time>2016-09-11T06:34:53.000Z</time>
      </trkpt>
      <trkpt lat="45.60764" lon="4.0859">
        <ele>384.20001220703</ele>
        <time>2016-09-11T06:34:54.000Z</time>
      </trkpt>
      <trkpt lat="45.60762" lon="4.08585">
        <ele>384.20001220703</ele>
        <time>2016-09-11T06:34:55.000Z</time>
      </trkpt>
      <trkpt lat="45.60756" lon="4.0856">
        <ele>384</ele>
        <time>2016-09-11T06:35:00.000Z</time>
      </trkpt>
      <trkpt lat="45.60755" lon="4.08555">
        <ele>384</ele>
        <time>2016-09-11T06:35:01.000Z</time>
      </trkpt>
      <trkpt lat="45.60747" lon="4.08527">
        <ele>384.39999389648</ele>
        <time>2016-09-11T06:35:07.000Z</time>
      </trkpt>
      <trkpt lat="45.6074" lon="4.08503">
        <ele>384.60000610352</ele>
        <time>2016-09-11T06:35:12.000Z</time>
      </trkpt>
      <trkpt lat="45.60735" lon="4.08488">
        <ele>384.60000610352</ele>
        <time>2016-09-11T06:35:15.000Z</time>
      </trkpt>
      <trkpt lat="45.60734" lon="4.08483">
        <ele>384.79998779297</ele>
        <time>2016-09-11T06:35:16.000Z</time>
      </trkpt>
      <trkpt lat="45.60725" lon="4.08454">
        <ele>385</ele>
        <time>2016-09-11T06:35:21.000Z</time>
      </trkpt>
      <trkpt lat="45.60723" lon="4.08448">
        <ele>385</ele>
        <time>2016-09-11T06:35:22.000Z</time>
      </trkpt>
      <trkpt lat="45.60718" lon="4.0843">
        <ele>385</ele>
        <time>2016-09-11T06:35:25.000Z</time>
      </trkpt>
      <trkpt lat="45.60714" lon="4.08412">
        <ele>385</ele>
        <time>2016-09-11T06:35:28.000Z</time>
      </trkpt>
      <trkpt lat="45.60706" lon="4.08387">
        <ele>385</ele>
        <time>2016-09-11T06:35:32.000Z</time>
      </trkpt>
      <trkpt lat="45.60705" lon="4.08381">
        <ele>385</ele>
        <time>2016-09-11T06:35:33.000Z</time>
      </trkpt>
      <trkpt lat="45.60703" lon="4.08375">
        <ele>385</ele>
        <time>2016-09-11T06:35:34.000Z</time>
      </trkpt>
      <trkpt lat="45.60698" lon="4.08356">
        <ele>385</ele>
        <time>2016-09-11T06:35:37.000Z</time>
      </trkpt>
      <trkpt lat="45.60692" lon="4.08331">
        <ele>385.20001220703</ele>
        <time>2016-09-11T06:35:41.000Z</time>
      </trkpt>
      <trkpt lat="45.60686" lon="4.08306">
        <ele>385.20001220703</ele>
        <time>2016-09-11T06:35:45.000Z</time>
      </trkpt>
      <trkpt lat="45.60684" lon="4.083">
        <ele>385.20001220703</ele>
        <time>2016-09-11T06:35:46.000Z</time>
      </trkpt>
      <trkpt lat="45.60683" lon="4.08294">
        <ele>385</ele>
        <time>2016-09-11T06:35:47.000Z</time>
      </trkpt>
      <trkpt lat="45.60678" lon="4.08278">
        <ele>385</ele>
        <time>2016-09-11T06:35:50.000Z</time>
      </trkpt>
      <trkpt lat="45.60673" lon="4.08257">
        <ele>385</ele>
        <time>2016-09-11T06:35:54.000Z</time>
      </trkpt>
      <trkpt lat="45.60668" lon="4.08237">
        <ele>385.20001220703</ele>
        <time>2016-09-11T06:35:58.000Z</time>
      </trkpt>
      <trkpt lat="45.60665" lon="4.08228">
        <ele>385.20001220703</ele>
        <time>2016-09-11T06:36:00.000Z</time>
      </trkpt>
      <trkpt lat="45.60662" lon="4.08214">
        <ele>385.39999389648</ele>
        <time>2016-09-11T06:36:04.000Z</time>
      </trkpt>
      <trkpt lat="45.60661" lon="4.08209">
        <ele>385.39999389648</ele>
        <time>2016-09-11T06:36:06.000Z</time>
      </trkpt>
      <trkpt lat="45.60661" lon="4.08196">
        <ele>385.60000610352</ele>
        <time>2016-09-11T06:36:16.000Z</time>
      </trkpt>
      <trkpt lat="45.60659" lon="4.08185">
        <ele>385.79998779297</ele>
        <time>2016-09-11T06:36:20.000Z</time>
      </trkpt>
      <trkpt lat="45.60653" lon="4.08161">
        <ele>385.79998779297</ele>
        <time>2016-09-11T06:36:26.000Z</time>
      </trkpt>
      <trkpt lat="45.60648" lon="4.08148">
        <ele>385.79998779297</ele>
        <time>2016-09-11T06:36:29.000Z</time>
      </trkpt>
      <trkpt lat="45.60645" lon="4.08137">
        <ele>385.79998779297</ele>
        <time>2016-09-11T06:36:31.000Z</time>
      </trkpt>
      <trkpt lat="45.60638" lon="4.08108">
        <ele>386</ele>
        <time>2016-09-11T06:36:36.000Z</time>
      </trkpt>
      <trkpt lat="45.60632" lon="4.08083">
        <ele>385.60000610352</ele>
        <time>2016-09-11T06:36:40.000Z</time>
      </trkpt>
      <trkpt lat="45.6063" lon="4.08077">
        <ele>385.60000610352</ele>
        <time>2016-09-11T06:36:41.000Z</time>
      </trkpt>
      <trkpt lat="45.60626" lon="4.08059">
        <ele>385.39999389648</ele>
        <time>2016-09-11T06:36:44.000Z</time>
      </trkpt>
      <trkpt lat="45.60624" lon="4.08038">
        <ele>385</ele>
        <time>2016-09-11T06:36:47.000Z</time>
      </trkpt>
      <trkpt lat="45.60623" lon="4.08008">
        <ele>384.20001220703</ele>
        <time>2016-09-11T06:36:51.000Z</time>
      </trkpt>
      <trkpt lat="45.60623" lon="4.08001">
        <ele>383.79998779297</ele>
        <time>2016-09-11T06:36:52.000Z</time>
      </trkpt>
      <trkpt lat="45.60625" lon="4.07977">
        <ele>382.39999389648</ele>
        <time>2016-09-11T06:36:55.000Z</time>
      </trkpt>
      <trkpt lat="45.60625" lon="4.0796">
        <ele>381.60000610352</ele>
        <time>2016-09-11T06:36:57.000Z</time>
      </trkpt>
      <trkpt lat="45.60626" lon="4.07927">
        <ele>380.39999389648</ele>
        <time>2016-09-11T06:37:01.000Z</time>
      </trkpt>
      <trkpt lat="45.60626" lon="4.07901">
        <ele>380.39999389648</ele>
        <time>2016-09-11T06:37:04.000Z</time>
      </trkpt>
      <trkpt lat="45.60625" lon="4.07884">
        <ele>380.39999389648</ele>
        <time>2016-09-11T06:37:06.000Z</time>
      </trkpt>
      <trkpt lat="45.60625" lon="4.07858">
        <ele>380.39999389648</ele>
        <time>2016-09-11T06:37:09.000Z</time>
      </trkpt>
      <trkpt lat="45.60627" lon="4.07825">
        <ele>380.39999389648</ele>
        <time>2016-09-11T06:37:13.000Z</time>
      </trkpt>
      <trkpt lat="45.60627" lon="4.07793">
        <ele>380.39999389648</ele>
        <time>2016-09-11T06:37:17.000Z</time>
      </trkpt>
      <trkpt lat="45.60627" lon="4.07785">
        <ele>380.39999389648</ele>
        <time>2016-09-11T06:37:18.000Z</time>
      </trkpt>
      <trkpt lat="45.60626" lon="4.07778">
        <ele>380.39999389648</ele>
        <time>2016-09-11T06:37:19.000Z</time>
      </trkpt>
      <trkpt lat="45.60625" lon="4.07756">
        <ele>380</ele>
        <time>2016-09-11T06:37:22.000Z</time>
      </trkpt>
      <trkpt lat="45.60625" lon="4.07726">
        <ele>379.20001220703</ele>
        <time>2016-09-11T06:37:26.000Z</time>
      </trkpt>
      <trkpt lat="45.60625" lon="4.07718">
        <ele>379</ele>
        <time>2016-09-11T06:37:27.000Z</time>
      </trkpt>
      <trkpt lat="45.60626" lon="4.07704">
        <ele>378.60000610352</ele>
        <time>2016-09-11T06:37:29.000Z</time>
      </trkpt>
      <trkpt lat="45.60623" lon="4.07702">
        <ele>378.79998779297</ele>
        <time>2016-09-11T06:37:36.000Z</time>
      </trkpt>
      <trkpt lat="45.60612" lon="4.07725">
        <ele>379.79998779297</ele>
        <time>2016-09-11T06:37:41.000Z</time>
      </trkpt>
      <trkpt lat="45.60593" lon="4.07734">
        <ele>381</ele>
        <time>2016-09-11T06:37:46.000Z</time>
      </trkpt>
      <trkpt lat="45.6058" lon="4.07739">
        <ele>381.60000610352</ele>
        <time>2016-09-11T06:37:50.000Z</time>
      </trkpt>
      <trkpt lat="45.60577" lon="4.0774">
        <ele>381.60000610352</ele>
        <time>2016-09-11T06:37:51.000Z</time>
      </trkpt>
      <trkpt lat="45.60563" lon="4.07745">
        <ele>382.20001220703</ele>
        <time>2016-09-11T06:37:55.000Z</time>
      </trkpt>
      <trkpt lat="45.6056" lon="4.07747">
        <ele>382.39999389648</ele>
        <time>2016-09-11T06:37:56.000Z</time>
      </trkpt>
      <trkpt lat="45.60541" lon="4.07754">
        <ele>382.79998779297</ele>
        <time>2016-09-11T06:38:02.000Z</time>
      </trkpt>
      <trkpt lat="45.60523" lon="4.0776">
        <ele>383.60000610352</ele>
        <time>2016-09-11T06:38:07.000Z</time>
      </trkpt>
      <trkpt lat="45.60508" lon="4.07767">
        <ele>384.60000610352</ele>
        <time>2016-09-11T06:38:11.000Z</time>
      </trkpt>
      <trkpt lat="45.60504" lon="4.07768">
        <ele>384.79998779297</ele>
        <time>2016-09-11T06:38:12.000Z</time>
      </trkpt>
      <trkpt lat="45.60486" lon="4.07773">
        <ele>386</ele>
        <time>2016-09-11T06:38:17.000Z</time>
      </trkpt>
      <trkpt lat="45.60468" lon="4.07783">
        <ele>387</ele>
        <time>2016-09-11T06:38:22.000Z</time>
      </trkpt>
      <trkpt lat="45.60447" lon="4.07791">
        <ele>387.79998779297</ele>
        <time>2016-09-11T06:38:27.000Z</time>
      </trkpt>
      <trkpt lat="45.60427" lon="4.07791">
        <ele>388.39999389648</ele>
        <time>2016-09-11T06:38:31.000Z</time>
      </trkpt>
      <trkpt lat="45.60417" lon="4.07789">
        <ele>388.79998779297</ele>
        <time>2016-09-11T06:38:33.000Z</time>
      </trkpt>
      <trkpt lat="45.60412" lon="4.07787">
        <ele>389</ele>
        <time>2016-09-11T06:38:34.000Z</time>
      </trkpt>
      <trkpt lat="45.60399" lon="4.07784">
        <ele>389.39999389648</ele>
        <time>2016-09-11T06:38:37.000Z</time>
      </trkpt>
      <trkpt lat="45.60391" lon="4.07782">
        <ele>389.79998779297</ele>
        <time>2016-09-11T06:38:39.000Z</time>
      </trkpt>
      <trkpt lat="45.60384" lon="4.07782">
        <ele>390</ele>
        <time>2016-09-11T06:38:41.000Z</time>
      </trkpt>
      <trkpt lat="45.60362" lon="4.07786">
        <ele>391</ele>
        <time>2016-09-11T06:38:47.000Z</time>
      </trkpt>
      <trkpt lat="45.60345" lon="4.07797">
        <ele>391.60000610352</ele>
        <time>2016-09-11T06:38:51.000Z</time>
      </trkpt>
      <trkpt lat="45.60328" lon="4.0781">
        <ele>392.20001220703</ele>
        <time>2016-09-11T06:38:55.000Z</time>
      </trkpt>
      <trkpt lat="45.60312" lon="4.07825">
        <ele>392.39999389648</ele>
        <time>2016-09-11T06:39:00.000Z</time>
      </trkpt>
      <trkpt lat="45.60295" lon="4.07839">
        <ele>392.60000610352</ele>
        <time>2016-09-11T06:39:04.000Z</time>
      </trkpt>
      <trkpt lat="45.60292" lon="4.07843">
        <ele>392.60000610352</ele>
        <time>2016-09-11T06:39:05.000Z</time>
      </trkpt>
      <trkpt lat="45.60277" lon="4.07858">
        <ele>392.60000610352</ele>
        <time>2016-09-11T06:39:09.000Z</time>
      </trkpt>
      <trkpt lat="45.60272" lon="4.07861">
        <ele>392.60000610352</ele>
        <time>2016-09-11T06:39:10.000Z</time>
      </trkpt>
      <trkpt lat="45.60252" lon="4.07871">
        <ele>393</ele>
        <time>2016-09-11T06:39:15.000Z</time>
      </trkpt>
      <trkpt lat="45.60232" lon="4.07868">
        <ele>393.60000610352</ele>
        <time>2016-09-11T06:39:20.000Z</time>
      </trkpt>
      <trkpt lat="45.6021" lon="4.07871">
        <ele>393.79998779297</ele>
        <time>2016-09-11T06:39:25.000Z</time>
      </trkpt>
      <trkpt lat="45.60202" lon="4.07866">
        <ele>394.20001220703</ele>
        <time>2016-09-11T06:39:27.000Z</time>
      </trkpt>
      <trkpt lat="45.60197" lon="4.07863">
        <ele>394.39999389648</ele>
        <time>2016-09-11T06:39:28.000Z</time>
      </trkpt>
      <trkpt lat="45.6018" lon="4.07856">
        <ele>395</ele>
        <time>2016-09-11T06:39:32.000Z</time>
      </trkpt>
      <trkpt lat="45.60175" lon="4.07853">
        <ele>395.20001220703</ele>
        <time>2016-09-11T06:39:33.000Z</time>
      </trkpt>
      <trkpt lat="45.60167" lon="4.07849">
        <ele>395.39999389648</ele>
        <time>2016-09-11T06:39:35.000Z</time>
      </trkpt>
      <trkpt lat="45.60149" lon="4.0784">
        <ele>395.79998779297</ele>
        <time>2016-09-11T06:39:39.000Z</time>
      </trkpt>
      <trkpt lat="45.60128" lon="4.07829">
        <ele>396.60000610352</ele>
        <time>2016-09-11T06:39:44.000Z</time>
      </trkpt>
      <trkpt lat="45.60124" lon="4.07827">
        <ele>396.60000610352</ele>
        <time>2016-09-11T06:39:45.000Z</time>
      </trkpt>
      <trkpt lat="45.60119" lon="4.07825">
        <ele>396.79998779297</ele>
        <time>2016-09-11T06:39:46.000Z</time>
      </trkpt>
      <trkpt lat="45.60102" lon="4.07815">
        <ele>397.39999389648</ele>
        <time>2016-09-11T06:39:50.000Z</time>
      </trkpt>
      <trkpt lat="45.60084" lon="4.07805">
        <ele>397.79998779297</ele>
        <time>2016-09-11T06:39:54.000Z</time>
      </trkpt>
      <trkpt lat="45.60075" lon="4.078">
        <ele>398.20001220703</ele>
        <time>2016-09-11T06:39:56.000Z</time>
      </trkpt>
      <trkpt lat="45.60057" lon="4.0779">
        <ele>398.79998779297</ele>
        <time>2016-09-11T06:40:00.000Z</time>
      </trkpt>
      <trkpt lat="45.60049" lon="4.07785">
        <ele>399</ele>
        <time>2016-09-11T06:40:02.000Z</time>
      </trkpt>
      <trkpt lat="45.60032" lon="4.07775">
        <ele>399.20001220703</ele>
        <time>2016-09-11T06:40:06.000Z</time>
      </trkpt>
      <trkpt lat="45.60012" lon="4.07762">
        <ele>399.39999389648</ele>
        <time>2016-09-11T06:40:11.000Z</time>
      </trkpt>
      <trkpt lat="45.60004" lon="4.07757">
        <ele>399.60000610352</ele>
        <time>2016-09-11T06:40:13.000Z</time>
      </trkpt>
      <trkpt lat="45.59988" lon="4.07745">
        <ele>399.79998779297</ele>
        <time>2016-09-11T06:40:17.000Z</time>
      </trkpt>
      <trkpt lat="45.59976" lon="4.07737">
        <ele>400</ele>
        <time>2016-09-11T06:40:20.000Z</time>
      </trkpt>
      <trkpt lat="45.59968" lon="4.07731">
        <ele>400</ele>
        <time>2016-09-11T06:40:22.000Z</time>
      </trkpt>
      <trkpt lat="45.5995" lon="4.0772">
        <ele>399.79998779297</ele>
        <time>2016-09-11T06:40:26.000Z</time>
      </trkpt>
      <trkpt lat="45.59945" lon="4.07717">
        <ele>399.79998779297</ele>
        <time>2016-09-11T06:40:27.000Z</time>
      </trkpt>
      <trkpt lat="45.59932" lon="4.07708">
        <ele>399.60000610352</ele>
        <time>2016-09-11T06:40:30.000Z</time>
      </trkpt>
      <trkpt lat="45.59913" lon="4.07696">
        <ele>399.39999389648</ele>
        <time>2016-09-11T06:40:34.000Z</time>
      </trkpt>
      <trkpt lat="45.59908" lon="4.07693">
        <ele>399.20001220703</ele>
        <time>2016-09-11T06:40:35.000Z</time>
      </trkpt>
      <trkpt lat="45.59891" lon="4.07681">
        <ele>399</ele>
        <time>2016-09-11T06:40:39.000Z</time>
      </trkpt>
      <trkpt lat="45.59887" lon="4.07679">
        <ele>399</ele>
        <time>2016-09-11T06:40:40.000Z</time>
      </trkpt>
      <trkpt lat="45.59882" lon="4.07676">
        <ele>399</ele>
        <time>2016-09-11T06:40:41.000Z</time>
      </trkpt>
      <trkpt lat="45.59863" lon="4.07663">
        <ele>399</ele>
        <time>2016-09-11T06:40:45.000Z</time>
      </trkpt>
      <trkpt lat="45.59845" lon="4.0765">
        <ele>399</ele>
        <time>2016-09-11T06:40:49.000Z</time>
      </trkpt>
      <trkpt lat="45.59836" lon="4.07644">
        <ele>399</ele>
        <time>2016-09-11T06:40:51.000Z</time>
      </trkpt>
      <trkpt lat="45.59833" lon="4.07641">
        <ele>399</ele>
        <time>2016-09-11T06:40:52.000Z</time>
      </trkpt>
      <trkpt lat="45.59817" lon="4.07625">
        <ele>399</ele>
        <time>2016-09-11T06:40:57.000Z</time>
      </trkpt>
      <trkpt lat="45.59814" lon="4.07621">
        <ele>399</ele>
        <time>2016-09-11T06:40:58.000Z</time>
      </trkpt>
      <trkpt lat="45.59793" lon="4.0761">
        <ele>398.79998779297</ele>
        <time>2016-09-11T06:41:03.000Z</time>
      </trkpt>
      <trkpt lat="45.59788" lon="4.07606">
        <ele>398.79998779297</ele>
        <time>2016-09-11T06:41:04.000Z</time>
      </trkpt>
      <trkpt lat="45.59782" lon="4.07602">
        <ele>398.79998779297</ele>
        <time>2016-09-11T06:41:05.000Z</time>
      </trkpt>
      <trkpt lat="45.59771" lon="4.07593">
        <ele>398.60000610352</ele>
        <time>2016-09-11T06:41:07.000Z</time>
      </trkpt>
      <trkpt lat="45.5976" lon="4.07584">
        <ele>398.39999389648</ele>
        <time>2016-09-11T06:41:09.000Z</time>
      </trkpt>
      <trkpt lat="45.59748" lon="4.07575">
        <ele>398.39999389648</ele>
        <time>2016-09-11T06:41:11.000Z</time>
      </trkpt>
      <trkpt lat="45.59735" lon="4.07568">
        <ele>398.20001220703</ele>
        <time>2016-09-11T06:41:13.000Z</time>
      </trkpt>
      <trkpt lat="45.59717" lon="4.07556">
        <ele>398</ele>
        <time>2016-09-11T06:41:16.000Z</time>
      </trkpt>
      <trkpt lat="45.59705" lon="4.07548">
        <ele>397.60000610352</ele>
        <time>2016-09-11T06:41:18.000Z</time>
      </trkpt>
      <trkpt lat="45.59699" lon="4.07544">
        <ele>397.20001220703</ele>
        <time>2016-09-11T06:41:19.000Z</time>
      </trkpt>
      <trkpt lat="45.5968" lon="4.07533">
        <ele>396.60000610352</ele>
        <time>2016-09-11T06:41:22.000Z</time>
      </trkpt>
      <trkpt lat="45.59674" lon="4.07529">
        <ele>396.39999389648</ele>
        <time>2016-09-11T06:41:23.000Z</time>
      </trkpt>
      <trkpt lat="45.59657" lon="4.07514">
        <ele>395.60000610352</ele>
        <time>2016-09-11T06:41:26.000Z</time>
      </trkpt>
      <trkpt lat="45.59646" lon="4.07504">
        <ele>395.20001220703</ele>
        <time>2016-09-11T06:41:28.000Z</time>
      </trkpt>
      <trkpt lat="45.59641" lon="4.07499">
        <ele>394.79998779297</ele>
        <time>2016-09-11T06:41:29.000Z</time>
      </trkpt>
      <trkpt lat="45.59625" lon="4.07484">
        <ele>394.39999389648</ele>
        <time>2016-09-11T06:41:32.000Z</time>
      </trkpt>
      <trkpt lat="45.59609" lon="4.0747">
        <ele>394</ele>
        <time>2016-09-11T06:41:35.000Z</time>
      </trkpt>
      <trkpt lat="45.59591" lon="4.0745">
        <ele>393.60000610352</ele>
        <time>2016-09-11T06:41:39.000Z</time>
      </trkpt>
      <trkpt lat="45.59573" lon="4.07449">
        <ele>393.39999389648</ele>
        <time>2016-09-11T06:41:43.000Z</time>
      </trkpt>
      <trkpt lat="45.59551" lon="4.07455">
        <ele>393.20001220703</ele>
        <time>2016-09-11T06:41:47.000Z</time>
      </trkpt>
      <trkpt lat="45.59531" lon="4.07459">
        <ele>393.39999389648</ele>
        <time>2016-09-11T06:41:51.000Z</time>
      </trkpt>
      <trkpt lat="45.59515" lon="4.07462">
        <ele>393.60000610352</ele>
        <time>2016-09-11T06:41:54.000Z</time>
      </trkpt>
      <trkpt lat="45.595" lon="4.07465">
        <ele>393.79998779297</ele>
        <time>2016-09-11T06:41:57.000Z</time>
      </trkpt>
      <trkpt lat="45.5948" lon="4.07467">
        <ele>394.20001220703</ele>
        <time>2016-09-11T06:42:01.000Z</time>
      </trkpt>
      <trkpt lat="45.59459" lon="4.07472">
        <ele>394.60000610352</ele>
        <time>2016-09-11T06:42:06.000Z</time>
      </trkpt>
      <trkpt lat="45.59451" lon="4.07473">
        <ele>395</ele>
        <time>2016-09-11T06:42:09.000Z</time>
      </trkpt>
      <trkpt lat="45.59449" lon="4.07474">
        <ele>395</ele>
        <time>2016-09-11T06:42:10.000Z</time>
      </trkpt>
      <trkpt lat="45.59435" lon="4.07477">
        <ele>395.60000610352</ele>
        <time>2016-09-11T06:42:14.000Z</time>
      </trkpt>
      <trkpt lat="45.59426" lon="4.07479">
        <ele>396</ele>
        <time>2016-09-11T06:42:16.000Z</time>
      </trkpt>
      <trkpt lat="45.59408" lon="4.07473">
        <ele>396.39999389648</ele>
        <time>2016-09-11T06:42:20.000Z</time>
      </trkpt>
      <trkpt lat="45.59396" lon="4.07463">
        <ele>396.79998779297</ele>
        <time>2016-09-11T06:42:23.000Z</time>
      </trkpt>
      <trkpt lat="45.59389" lon="4.07457">
        <ele>397</ele>
        <time>2016-09-11T06:42:25.000Z</time>
      </trkpt>
      <trkpt lat="45.5937" lon="4.07453">
        <ele>397.39999389648</ele>
        <time>2016-09-11T06:42:30.000Z</time>
      </trkpt>
      <trkpt lat="45.59358" lon="4.07468">
        <ele>397.60000610352</ele>
        <time>2016-09-11T06:42:34.000Z</time>
      </trkpt>
      <trkpt lat="45.59356" lon="4.07473">
        <ele>397.79998779297</ele>
        <time>2016-09-11T06:42:35.000Z</time>
      </trkpt>
      <trkpt lat="45.59351" lon="4.07482">
        <ele>397.79998779297</ele>
        <time>2016-09-11T06:42:37.000Z</time>
      </trkpt>
      <trkpt lat="45.59341" lon="4.07506">
        <ele>398</ele>
        <time>2016-09-11T06:42:42.000Z</time>
      </trkpt>
      <trkpt lat="45.59336" lon="4.07524">
        <ele>398.20001220703</ele>
        <time>2016-09-11T06:42:45.000Z</time>
      </trkpt>
      <trkpt lat="45.59334" lon="4.0753">
        <ele>398.20001220703</ele>
        <time>2016-09-11T06:42:46.000Z</time>
      </trkpt>
      <trkpt lat="45.59326" lon="4.07555">
        <ele>398</ele>
        <time>2016-09-11T06:42:50.000Z</time>
      </trkpt>
      <trkpt lat="45.59311" lon="4.07576">
        <ele>397.60000610352</ele>
        <time>2016-09-11T06:42:54.000Z</time>
      </trkpt>
      <trkpt lat="45.59287" lon="4.07583">
        <ele>397.79998779297</ele>
        <time>2016-09-11T06:42:58.000Z</time>
      </trkpt>
      <trkpt lat="45.59274" lon="4.07582">
        <ele>398</ele>
        <time>2016-09-11T06:43:00.000Z</time>
      </trkpt>
      <trkpt lat="45.59267" lon="4.07582">
        <ele>398</ele>
        <time>2016-09-11T06:43:01.000Z</time>
      </trkpt>
      <trkpt lat="45.59245" lon="4.0758">
        <ele>398</ele>
        <time>2016-09-11T06:43:04.000Z</time>
      </trkpt>
      <trkpt lat="45.59223" lon="4.07577">
        <ele>398.20001220703</ele>
        <time>2016-09-11T06:43:07.000Z</time>
      </trkpt>
      <trkpt lat="45.59216" lon="4.07577">
        <ele>398.20001220703</ele>
        <time>2016-09-11T06:43:08.000Z</time>
      </trkpt>
      <trkpt lat="45.59195" lon="4.07575">
        <ele>398</ele>
        <time>2016-09-11T06:43:11.000Z</time>
      </trkpt>
      <trkpt lat="45.59188" lon="4.07575">
        <ele>397.79998779297</ele>
        <time>2016-09-11T06:43:12.000Z</time>
      </trkpt>
      <trkpt lat="45.59175" lon="4.07574">
        <ele>397.79998779297</ele>
        <time>2016-09-11T06:43:14.000Z</time>
      </trkpt>
      <trkpt lat="45.59161" lon="4.07572">
        <ele>397.60000610352</ele>
        <time>2016-09-11T06:43:17.000Z</time>
      </trkpt>
      <trkpt lat="45.5914" lon="4.07573">
        <ele>397.39999389648</ele>
        <time>2016-09-11T06:43:23.000Z</time>
      </trkpt>
      <trkpt lat="45.59125" lon="4.07587">
        <ele>396.79998779297</ele>
        <time>2016-09-11T06:43:27.000Z</time>
      </trkpt>
      <trkpt lat="45.59114" lon="4.07598">
        <ele>396.20001220703</ele>
        <time>2016-09-11T06:43:30.000Z</time>
      </trkpt>
      <trkpt lat="45.59109" lon="4.07601">
        <ele>396.20001220703</ele>
        <time>2016-09-11T06:43:31.000Z</time>
      </trkpt>
      <trkpt lat="45.59101" lon="4.07607">
        <ele>396</ele>
        <time>2016-09-11T06:43:33.000Z</time>
      </trkpt>
      <trkpt lat="45.59082" lon="4.07618">
        <ele>395.79998779297</ele>
        <time>2016-09-11T06:43:37.000Z</time>
      </trkpt>
      <trkpt lat="45.59073" lon="4.07624">
        <ele>395.79998779297</ele>
        <time>2016-09-11T06:43:39.000Z</time>
      </trkpt>
      <trkpt lat="45.59057" lon="4.07636">
        <ele>395.60000610352</ele>
        <time>2016-09-11T06:43:43.000Z</time>
      </trkpt>
      <trkpt lat="45.59049" lon="4.07643">
        <ele>395.60000610352</ele>
        <time>2016-09-11T06:43:45.000Z</time>
      </trkpt>
      <trkpt lat="45.59033" lon="4.07656">
        <ele>395.20001220703</ele>
        <time>2016-09-11T06:43:49.000Z</time>
      </trkpt>
      <trkpt lat="45.59014" lon="4.07672">
        <ele>395</ele>
        <time>2016-09-11T06:43:54.000Z</time>
      </trkpt>
      <trkpt lat="45.59005" lon="4.07677">
        <ele>395</ele>
        <time>2016-09-11T06:43:56.000Z</time>
      </trkpt>
      <trkpt lat="45.58997" lon="4.07682">
        <ele>395</ele>
        <time>2016-09-11T06:43:58.000Z</time>
      </trkpt>
      <trkpt lat="45.58978" lon="4.07692">
        <ele>395</ele>
        <time>2016-09-11T06:44:03.000Z</time>
      </trkpt>
      <trkpt lat="45.58974" lon="4.07693">
        <ele>395</ele>
        <time>2016-09-11T06:44:04.000Z</time>
      </trkpt>
      <trkpt lat="45.58966" lon="4.07697">
        <ele>395.20001220703</ele>
        <time>2016-09-11T06:44:06.000Z</time>
      </trkpt>
      <trkpt lat="45.58949" lon="4.07712">
        <ele>396.60000610352</ele>
        <time>2016-09-11T06:44:11.000Z</time>
      </trkpt>
      <trkpt lat="45.58944" lon="4.07721">
        <ele>397.20001220703</ele>
        <time>2016-09-11T06:44:13.000Z</time>
      </trkpt>
      <trkpt lat="45.58942" lon="4.07725">
        <ele>397.39999389648</ele>
        <time>2016-09-11T06:44:14.000Z</time>
      </trkpt>
      <trkpt lat="45.58928" lon="4.07748">
        <ele>398.39999389648</ele>
        <time>2016-09-11T06:44:19.000Z</time>
      </trkpt>
      <trkpt lat="45.5892" lon="4.07756">
        <ele>398.79998779297</ele>
        <time>2016-09-11T06:44:21.000Z</time>
      </trkpt>
      <trkpt lat="45.58916" lon="4.0776">
        <ele>398.79998779297</ele>
        <time>2016-09-11T06:44:22.000Z</time>
      </trkpt>
      <trkpt lat="45.58899" lon="4.07775">
        <ele>399.39999389648</ele>
        <time>2016-09-11T06:44:26.000Z</time>
      </trkpt>
      <trkpt lat="45.58895" lon="4.07778">
        <ele>399.60000610352</ele>
        <time>2016-09-11T06:44:27.000Z</time>
      </trkpt>
      <trkpt lat="45.58883" lon="4.07787">
        <ele>400</ele>
        <time>2016-09-11T06:44:30.000Z</time>
      </trkpt>
      <trkpt lat="45.5887" lon="4.07795">
        <ele>400.20001220703</ele>
        <time>2016-09-11T06:44:33.000Z</time>
      </trkpt>
      <trkpt lat="45.58852" lon="4.07808">
        <ele>400.39999389648</ele>
        <time>2016-09-11T06:44:37.000Z</time>
      </trkpt>
      <trkpt lat="45.58843" lon="4.07815">
        <ele>400.39999389648</ele>
        <time>2016-09-11T06:44:39.000Z</time>
      </trkpt>
      <trkpt lat="45.58839" lon="4.07818">
        <ele>400.39999389648</ele>
        <time>2016-09-11T06:44:40.000Z</time>
      </trkpt>
      <trkpt lat="45.58826" lon="4.07831">
        <ele>400</ele>
        <time>2016-09-11T06:44:43.000Z</time>
      </trkpt>
      <trkpt lat="45.58807" lon="4.07851">
        <ele>399.20001220703</ele>
        <time>2016-09-11T06:44:47.000Z</time>
      </trkpt>
      <trkpt lat="45.58786" lon="4.07858">
        <ele>399</ele>
        <time>2016-09-11T06:44:51.000Z</time>
      </trkpt>
      <trkpt lat="45.58765" lon="4.07852">
        <ele>399.20001220703</ele>
        <time>2016-09-11T06:44:55.000Z</time>
      </trkpt>
      <trkpt lat="45.58743" lon="4.07847">
        <ele>399.39999389648</ele>
        <time>2016-09-11T06:44:59.000Z</time>
      </trkpt>
      <trkpt lat="45.58722" lon="4.07851">
        <ele>399.39999389648</ele>
        <time>2016-09-11T06:45:03.000Z</time>
      </trkpt>
      <trkpt lat="45.58702" lon="4.07858">
        <ele>399.20001220703</ele>
        <time>2016-09-11T06:45:07.000Z</time>
      </trkpt>
      <trkpt lat="45.58693" lon="4.07861">
        <ele>399.20001220703</ele>
        <time>2016-09-11T06:45:09.000Z</time>
      </trkpt>
      <trkpt lat="45.58675" lon="4.07869">
        <ele>399.39999389648</ele>
        <time>2016-09-11T06:45:14.000Z</time>
      </trkpt>
      <trkpt lat="45.58671" lon="4.07871">
        <ele>399.39999389648</ele>
        <time>2016-09-11T06:45:15.000Z</time>
      </trkpt>
      <trkpt lat="45.58667" lon="4.07874">
        <ele>399.39999389648</ele>
        <time>2016-09-11T06:45:16.000Z</time>
      </trkpt>
      <trkpt lat="45.58654" lon="4.0788">
        <ele>399.60000610352</ele>
        <time>2016-09-11T06:45:19.000Z</time>
      </trkpt>
      <trkpt lat="45.58637" lon="4.07888">
        <ele>399.60000610352</ele>
        <time>2016-09-11T06:45:23.000Z</time>
      </trkpt>
      <trkpt lat="45.58633" lon="4.0789">
        <ele>399.60000610352</ele>
        <time>2016-09-11T06:45:24.000Z</time>
      </trkpt>
      <trkpt lat="45.58624" lon="4.07895">
        <ele>400</ele>
        <time>2016-09-11T06:45:26.000Z</time>
      </trkpt>
      <trkpt lat="45.58607" lon="4.07904">
        <ele>400.39999389648</ele>
        <time>2016-09-11T06:45:30.000Z</time>
      </trkpt>
      <trkpt lat="45.58603" lon="4.07906">
        <ele>400.60000610352</ele>
        <time>2016-09-11T06:45:31.000Z</time>
      </trkpt>
      <trkpt lat="45.58585" lon="4.07915">
        <ele>401.20001220703</ele>
        <time>2016-09-11T06:45:35.000Z</time>
      </trkpt>
      <trkpt lat="45.5858" lon="4.07917">
        <ele>401.20001220703</ele>
        <time>2016-09-11T06:45:36.000Z</time>
      </trkpt>
      <trkpt lat="45.58567" lon="4.07923">
        <ele>401.60000610352</ele>
        <time>2016-09-11T06:45:39.000Z</time>
      </trkpt>
      <trkpt lat="45.58548" lon="4.07926">
        <ele>402.39999389648</ele>
        <time>2016-09-11T06:45:43.000Z</time>
      </trkpt>
      <trkpt lat="45.58531" lon="4.07939">
        <ele>403</ele>
        <time>2016-09-11T06:45:48.000Z</time>
      </trkpt>
      <trkpt lat="45.5852" lon="4.07966">
        <ele>403</ele>
        <time>2016-09-11T06:45:53.000Z</time>
      </trkpt>
      <trkpt lat="45.58514" lon="4.07984">
        <ele>402.79998779297</ele>
        <time>2016-09-11T06:45:56.000Z</time>
      </trkpt>
      <trkpt lat="45.58512" lon="4.0799">
        <ele>402.79998779297</ele>
        <time>2016-09-11T06:45:57.000Z</time>
      </trkpt>
      <trkpt lat="45.58504" lon="4.08013">
        <ele>402.20001220703</ele>
        <time>2016-09-11T06:46:01.000Z</time>
      </trkpt>
      <trkpt lat="45.585" lon="4.0803">
        <ele>401.79998779297</ele>
        <time>2016-09-11T06:46:04.000Z</time>
      </trkpt>
      <trkpt lat="45.58496" lon="4.08041">
        <ele>402</ele>
        <time>2016-09-11T06:46:06.000Z</time>
      </trkpt>
      <trkpt lat="45.58493" lon="4.08053">
        <ele>402</ele>
        <time>2016-09-11T06:46:08.000Z</time>
      </trkpt>
      <trkpt lat="45.58484" lon="4.08082">
        <ele>401.39999389648</ele>
        <time>2016-09-11T06:46:13.000Z</time>
      </trkpt>
      <trkpt lat="45.58476" lon="4.08106">
        <ele>401</ele>
        <time>2016-09-11T06:46:17.000Z</time>
      </trkpt>
      <trkpt lat="45.5847" lon="4.08125">
        <ele>401</ele>
        <time>2016-09-11T06:46:20.000Z</time>
      </trkpt>
      <trkpt lat="45.58463" lon="4.08143">
        <ele>401.20001220703</ele>
        <time>2016-09-11T06:46:23.000Z</time>
      </trkpt>
      <trkpt lat="45.58453" lon="4.08168">
        <ele>401.79998779297</ele>
        <time>2016-09-11T06:46:27.000Z</time>
      </trkpt>
      <trkpt lat="45.58437" lon="4.08183">
        <ele>402.20001220703</ele>
        <time>2016-09-11T06:46:31.000Z</time>
      </trkpt>
      <trkpt lat="45.58418" lon="4.08176">
        <ele>403</ele>
        <time>2016-09-11T06:46:35.000Z</time>
      </trkpt>
      <trkpt lat="45.58414" lon="4.08173">
        <ele>403.20001220703</ele>
        <time>2016-09-11T06:46:36.000Z</time>
      </trkpt>
      <trkpt lat="45.58401" lon="4.08164">
        <ele>403.79998779297</ele>
        <time>2016-09-11T06:46:39.000Z</time>
      </trkpt>
      <trkpt lat="45.58384" lon="4.08152">
        <ele>404.60000610352</ele>
        <time>2016-09-11T06:46:43.000Z</time>
      </trkpt>
      <trkpt lat="45.5838" lon="4.0815">
        <ele>404.60000610352</ele>
        <time>2016-09-11T06:46:44.000Z</time>
      </trkpt>
      <trkpt lat="45.5836" lon="4.08136">
        <ele>405.20001220703</ele>
        <time>2016-09-11T06:46:49.000Z</time>
      </trkpt>
      <trkpt lat="45.58347" lon="4.08123">
        <ele>405.79998779297</ele>
        <time>2016-09-11T06:46:53.000Z</time>
      </trkpt>
      <trkpt lat="45.58344" lon="4.0812">
        <ele>405.79998779297</ele>
        <time>2016-09-11T06:46:54.000Z</time>
      </trkpt>
      <trkpt lat="45.58333" lon="4.081">
        <ele>406.39999389648</ele>
        <time>2016-09-11T06:46:59.000Z</time>
      </trkpt>
      <trkpt lat="45.58331" lon="4.08095">
        <ele>406.60000610352</ele>
        <time>2016-09-11T06:47:00.000Z</time>
      </trkpt>
      <trkpt lat="45.58324" lon="4.08078">
        <ele>407.20001220703</ele>
        <time>2016-09-11T06:47:04.000Z</time>
      </trkpt>
      <trkpt lat="45.58323" lon="4.08073">
        <ele>407.39999389648</ele>
        <time>2016-09-11T06:47:05.000Z</time>
      </trkpt>
      <trkpt lat="45.58312" lon="4.08052">
        <ele>408.20001220703</ele>
        <time>2016-09-11T06:47:11.000Z</time>
      </trkpt>
      <trkpt lat="45.58303" lon="4.0805">
        <ele>408.39999389648</ele>
        <time>2016-09-11T06:47:14.000Z</time>
      </trkpt>
      <trkpt lat="45.58292" lon="4.0805">
        <ele>408.79998779297</ele>
        <time>2016-09-11T06:47:17.000Z</time>
      </trkpt>
      <trkpt lat="45.58281" lon="4.0805">
        <ele>409.39999389648</ele>
        <time>2016-09-11T06:47:20.000Z</time>
      </trkpt>
      <trkpt lat="45.58274" lon="4.08049">
        <ele>409.79998779297</ele>
        <time>2016-09-11T06:47:22.000Z</time>
      </trkpt>
      <trkpt lat="45.58256" lon="4.08033">
        <ele>411</ele>
        <time>2016-09-11T06:47:28.000Z</time>
      </trkpt>
      <trkpt lat="45.58254" lon="4.08029">
        <ele>411.20001220703</ele>
        <time>2016-09-11T06:47:29.000Z</time>
      </trkpt>
      <trkpt lat="45.58245" lon="4.08013">
        <ele>411.79998779297</ele>
        <time>2016-09-11T06:47:33.000Z</time>
      </trkpt>
      <trkpt lat="45.5824" lon="4.08005">
        <ele>412.20001220703</ele>
        <time>2016-09-11T06:47:35.000Z</time>
      </trkpt>
      <trkpt lat="45.58232" lon="4.07989">
        <ele>412.79998779297</ele>
        <time>2016-09-11T06:47:39.000Z</time>
      </trkpt>
      <trkpt lat="45.5823" lon="4.07985">
        <ele>413</ele>
        <time>2016-09-11T06:47:40.000Z</time>
      </trkpt>
      <trkpt lat="45.58223" lon="4.07968">
        <ele>413.39999389648</ele>
        <time>2016-09-11T06:47:44.000Z</time>
      </trkpt>
      <trkpt lat="45.58211" lon="4.07946">
        <ele>414.39999389648</ele>
        <time>2016-09-11T06:47:50.000Z</time>
      </trkpt>
      <trkpt lat="45.58209" lon="4.07943">
        <ele>414.60000610352</ele>
        <time>2016-09-11T06:47:51.000Z</time>
      </trkpt>
      <trkpt lat="45.58195" lon="4.07925">
        <ele>416</ele>
        <time>2016-09-11T06:47:57.000Z</time>
      </trkpt>
      <trkpt lat="45.58191" lon="4.0792">
        <ele>416.39999389648</ele>
        <time>2016-09-11T06:47:59.000Z</time>
      </trkpt>
      <trkpt lat="45.58186" lon="4.07914">
        <ele>417</ele>
        <time>2016-09-11T06:48:01.000Z</time>
      </trkpt>
      <trkpt lat="45.58182" lon="4.0791">
        <ele>417.39999389648</ele>
        <time>2016-09-11T06:48:03.000Z</time>
      </trkpt>
      <trkpt lat="45.58171" lon="4.07897">
        <ele>418.60000610352</ele>
        <time>2016-09-11T06:48:08.000Z</time>
      </trkpt>
      <trkpt lat="45.58166" lon="4.07891">
        <ele>419</ele>
        <time>2016-09-11T06:48:10.000Z</time>
      </trkpt>
      <trkpt lat="45.58157" lon="4.07881">
        <ele>420</ele>
        <time>2016-09-11T06:48:14.000Z</time>
      </trkpt>
      <trkpt lat="45.5814" lon="4.07873">
        <ele>421.20001220703</ele>
        <time>2016-09-11T06:48:22.000Z</time>
      </trkpt>
      <trkpt lat="45.58127" lon="4.07888">
        <ele>421.39999389648</ele>
        <time>2016-09-11T06:48:27.000Z</time>
      </trkpt>
      <trkpt lat="45.58124" lon="4.07892">
        <ele>421.39999389648</ele>
        <time>2016-09-11T06:48:28.000Z</time>
      </trkpt>
      <trkpt lat="45.58118" lon="4.07899">
        <ele>421.39999389648</ele>
        <time>2016-09-11T06:48:30.000Z</time>
      </trkpt>
      <trkpt lat="45.58112" lon="4.07907">
        <ele>421.39999389648</ele>
        <time>2016-09-11T06:48:32.000Z</time>
      </trkpt>
      <trkpt lat="45.58099" lon="4.07924">
        <ele>421</ele>
        <time>2016-09-11T06:48:36.000Z</time>
      </trkpt>
      <trkpt lat="45.58089" lon="4.07936">
        <ele>420.60000610352</ele>
        <time>2016-09-11T06:48:39.000Z</time>
      </trkpt>
      <trkpt lat="45.58074" lon="4.07955">
        <ele>420</ele>
        <time>2016-09-11T06:48:43.000Z</time>
      </trkpt>
      <trkpt lat="45.58058" lon="4.07976">
        <ele>420</ele>
        <time>2016-09-11T06:48:48.000Z</time>
      </trkpt>
      <trkpt lat="45.58043" lon="4.07974">
        <ele>420.60000610352</ele>
        <time>2016-09-11T06:48:53.000Z</time>
      </trkpt>
      <trkpt lat="45.58039" lon="4.07964">
        <ele>421</ele>
        <time>2016-09-11T06:48:55.000Z</time>
      </trkpt>
      <trkpt lat="45.58037" lon="4.07959">
        <ele>421.20001220703</ele>
        <time>2016-09-11T06:48:56.000Z</time>
      </trkpt>
      <trkpt lat="45.5802" lon="4.07947">
        <ele>422.39999389648</ele>
        <time>2016-09-11T06:49:02.000Z</time>
      </trkpt>
      <trkpt lat="45.58" lon="4.07951">
        <ele>423.20001220703</ele>
        <time>2016-09-11T06:49:09.000Z</time>
      </trkpt>
      <trkpt lat="45.57983" lon="4.0796">
        <ele>423.79998779297</ele>
        <time>2016-09-11T06:49:15.000Z</time>
      </trkpt>
      <trkpt lat="45.57977" lon="4.07963">
        <ele>424</ele>
        <time>2016-09-11T06:49:17.000Z</time>
      </trkpt>
      <trkpt lat="45.57975" lon="4.07964">
        <ele>424.20001220703</ele>
        <time>2016-09-11T06:49:18.000Z</time>
      </trkpt>
      <trkpt lat="45.57956" lon="4.0797">
        <ele>425</ele>
        <time>2016-09-11T06:49:24.000Z</time>
      </trkpt>
      <trkpt lat="45.57947" lon="4.07973">
        <ele>425.60000610352</ele>
        <time>2016-09-11T06:49:27.000Z</time>
      </trkpt>
      <trkpt lat="45.57941" lon="4.07974">
        <ele>425.79998779297</ele>
        <time>2016-09-11T06:49:29.000Z</time>
      </trkpt>
      <trkpt lat="45.57929" lon="4.07977">
        <ele>426.60000610352</ele>
        <time>2016-09-11T06:49:33.000Z</time>
      </trkpt>
      <trkpt lat="45.57926" lon="4.07977">
        <ele>426.79998779297</ele>
        <time>2016-09-11T06:49:34.000Z</time>
      </trkpt>
      <trkpt lat="45.57916" lon="4.07979">
        <ele>427.20001220703</ele>
        <time>2016-09-11T06:49:37.000Z</time>
      </trkpt>
      <trkpt lat="45.57904" lon="4.07982">
        <ele>427.79998779297</ele>
        <time>2016-09-11T06:49:41.000Z</time>
      </trkpt>
      <trkpt lat="45.57901" lon="4.07983">
        <ele>428</ele>
        <time>2016-09-11T06:49:42.000Z</time>
      </trkpt>
      <trkpt lat="45.57889" lon="4.07988">
        <ele>428.60000610352</ele>
        <time>2016-09-11T06:49:46.000Z</time>
      </trkpt>
      <trkpt lat="45.57886" lon="4.07989">
        <ele>428.79998779297</ele>
        <time>2016-09-11T06:49:47.000Z</time>
      </trkpt>
      <trkpt lat="45.57869" lon="4.07992">
        <ele>429.20001220703</ele>
        <time>2016-09-11T06:49:52.000Z</time>
      </trkpt>
      <trkpt lat="45.57866" lon="4.07992">
        <ele>429.20001220703</ele>
        <time>2016-09-11T06:49:53.000Z</time>
      </trkpt>
      <trkpt lat="45.57859" lon="4.07993">
        <ele>429.39999389648</ele>
        <time>2016-09-11T06:49:55.000Z</time>
      </trkpt>
      <trkpt lat="45.5785" lon="4.07995">
        <ele>429.79998779297</ele>
        <time>2016-09-11T06:49:58.000Z</time>
      </trkpt>
      <trkpt lat="45.5784" lon="4.08">
        <ele>430.39999389648</ele>
        <time>2016-09-11T06:50:01.000Z</time>
      </trkpt>
      <trkpt lat="45.57824" lon="4.08011">
        <ele>431.39999389648</ele>
        <time>2016-09-11T06:50:06.000Z</time>
      </trkpt>
      <trkpt lat="45.57817" lon="4.08016">
        <ele>432</ele>
        <time>2016-09-11T06:50:08.000Z</time>
      </trkpt>
      <trkpt lat="45.57807" lon="4.08025">
        <ele>432.60000610352</ele>
        <time>2016-09-11T06:50:11.000Z</time>
      </trkpt>
      <trkpt lat="45.57792" lon="4.08033">
        <ele>433.39999389648</ele>
        <time>2016-09-11T06:50:15.000Z</time>
      </trkpt>
      <trkpt lat="45.57787" lon="4.08035">
        <ele>433.60000610352</ele>
        <time>2016-09-11T06:50:16.000Z</time>
      </trkpt>
      <trkpt lat="45.57769" lon="4.08043">
        <ele>434.39999389648</ele>
        <time>2016-09-11T06:50:21.000Z</time>
      </trkpt>
      <trkpt lat="45.57767" lon="4.08045">
        <ele>434.39999389648</ele>
        <time>2016-09-11T06:50:22.000Z</time>
      </trkpt>
      <trkpt lat="45.57764" lon="4.08047">
        <ele>434.60000610352</ele>
        <time>2016-09-11T06:50:23.000Z</time>
      </trkpt>
      <trkpt lat="45.57752" lon="4.08054">
        <ele>435</ele>
        <time>2016-09-11T06:50:27.000Z</time>
      </trkpt>
      <trkpt lat="45.57741" lon="4.08063">
        <ele>435.39999389648</ele>
        <time>2016-09-11T06:50:31.000Z</time>
      </trkpt>
      <trkpt lat="45.57739" lon="4.08066">
        <ele>435.60000610352</ele>
        <time>2016-09-11T06:50:32.000Z</time>
      </trkpt>
      <trkpt lat="45.5773" lon="4.08074">
        <ele>436</ele>
        <time>2016-09-11T06:50:35.000Z</time>
      </trkpt>
      <trkpt lat="45.57722" lon="4.08083">
        <ele>436.39999389648</ele>
        <time>2016-09-11T06:50:38.000Z</time>
      </trkpt>
      <trkpt lat="45.57706" lon="4.08096">
        <ele>437.39999389648</ele>
        <time>2016-09-11T06:50:43.000Z</time>
      </trkpt>
      <trkpt lat="45.57703" lon="4.08098">
        <ele>437.60000610352</ele>
        <time>2016-09-11T06:50:44.000Z</time>
      </trkpt>
      <trkpt lat="45.5769" lon="4.08109">
        <ele>437.79998779297</ele>
        <time>2016-09-11T06:50:48.000Z</time>
      </trkpt>
      <trkpt lat="45.57678" lon="4.0812">
        <ele>437.60000610352</ele>
        <time>2016-09-11T06:50:52.000Z</time>
      </trkpt>
      <trkpt lat="45.57661" lon="4.08135">
        <ele>437.60000610352</ele>
        <time>2016-09-11T06:50:57.000Z</time>
      </trkpt>
      <trkpt lat="45.5765" lon="4.08147">
        <ele>437.39999389648</ele>
        <time>2016-09-11T06:51:00.000Z</time>
      </trkpt>
      <trkpt lat="45.57647" lon="4.08151">
        <ele>437.20001220703</ele>
        <time>2016-09-11T06:51:01.000Z</time>
      </trkpt>
      <trkpt lat="45.57636" lon="4.08166">
        <ele>436.79998779297</ele>
        <time>2016-09-11T06:51:04.000Z</time>
      </trkpt>
      <trkpt lat="45.57621" lon="4.08189">
        <ele>436</ele>
        <time>2016-09-11T06:51:08.000Z</time>
      </trkpt>
      <trkpt lat="45.57601" lon="4.08203">
        <ele>435.39999389648</ele>
        <time>2016-09-11T06:51:12.000Z</time>
      </trkpt>
      <trkpt lat="45.5759" lon="4.08205">
        <ele>435.79998779297</ele>
        <time>2016-09-11T06:51:14.000Z</time>
      </trkpt>
      <trkpt lat="45.57584" lon="4.08205">
        <ele>436</ele>
        <time>2016-09-11T06:51:15.000Z</time>
      </trkpt>
      <trkpt lat="45.57565" lon="4.0819">
        <ele>437.79998779297</ele>
        <time>2016-09-11T06:51:19.000Z</time>
      </trkpt>
      <trkpt lat="45.5755" lon="4.08175">
        <ele>440</ele>
        <time>2016-09-11T06:51:22.000Z</time>
      </trkpt>
      <trkpt lat="45.57533" lon="4.08151">
        <ele>442.20001220703</ele>
        <time>2016-09-11T06:51:26.000Z</time>
      </trkpt>
      <trkpt lat="45.57529" lon="4.08145">
        <ele>442.60000610352</ele>
        <time>2016-09-11T06:51:27.000Z</time>
      </trkpt>
      <trkpt lat="45.57522" lon="4.08134">
        <ele>443.79998779297</ele>
        <time>2016-09-11T06:51:29.000Z</time>
      </trkpt>
      <trkpt lat="45.57516" lon="4.08123">
        <ele>444.79998779297</ele>
        <time>2016-09-11T06:51:31.000Z</time>
      </trkpt>
      <trkpt lat="45.57503" lon="4.081">
        <ele>446.39999389648</ele>
        <time>2016-09-11T06:51:35.000Z</time>
      </trkpt>
      <trkpt lat="45.57493" lon="4.08077">
        <ele>447.60000610352</ele>
        <time>2016-09-11T06:51:39.000Z</time>
      </trkpt>
      <trkpt lat="45.57491" lon="4.08071">
        <ele>447.79998779297</ele>
        <time>2016-09-11T06:51:40.000Z</time>
      </trkpt>
      <trkpt lat="45.57488" lon="4.08066">
        <ele>448.20001220703</ele>
        <time>2016-09-11T06:51:41.000Z</time>
      </trkpt>
      <trkpt lat="45.57475" lon="4.08044">
        <ele>449.20001220703</ele>
        <time>2016-09-11T06:51:46.000Z</time>
      </trkpt>
      <trkpt lat="45.57459" lon="4.08027">
        <ele>449.60000610352</ele>
        <time>2016-09-11T06:51:51.000Z</time>
      </trkpt>
      <trkpt lat="45.57455" lon="4.08024">
        <ele>449.39999389648</ele>
        <time>2016-09-11T06:51:52.000Z</time>
      </trkpt>
      <trkpt lat="45.5745" lon="4.08021">
        <ele>449.20001220703</ele>
        <time>2016-09-11T06:51:53.000Z</time>
      </trkpt>
      <trkpt lat="45.57433" lon="4.08004">
        <ele>448.79998779297</ele>
        <time>2016-09-11T06:51:58.000Z</time>
      </trkpt>
      <trkpt lat="45.57431" lon="4.08001">
        <ele>448.79998779297</ele>
        <time>2016-09-11T06:51:59.000Z</time>
      </trkpt>
      <trkpt lat="45.57426" lon="4.07975">
        <ele>449.20001220703</ele>
        <time>2016-09-11T06:52:05.000Z</time>
      </trkpt>
      <trkpt lat="45.57426" lon="4.07944">
        <ele>450</ele>
        <time>2016-09-11T06:52:11.000Z</time>
      </trkpt>
      <trkpt lat="45.57426" lon="4.0794">
        <ele>450</ele>
        <time>2016-09-11T06:52:12.000Z</time>
      </trkpt>
      <trkpt lat="45.57426" lon="4.07935">
        <ele>450.20001220703</ele>
        <time>2016-09-11T06:52:13.000Z</time>
      </trkpt>
      <trkpt lat="45.57427" lon="4.07909">
        <ele>450.79998779297</ele>
        <time>2016-09-11T06:52:19.000Z</time>
      </trkpt>
      <trkpt lat="45.57417" lon="4.07885">
        <ele>450.79998779297</ele>
        <time>2016-09-11T06:52:26.000Z</time>
      </trkpt>
      <trkpt lat="45.57402" lon="4.07879">
        <ele>450.39999389648</ele>
        <time>2016-09-11T06:52:32.000Z</time>
      </trkpt>
      <trkpt lat="45.57396" lon="4.07879">
        <ele>450</ele>
        <time>2016-09-11T06:52:34.000Z</time>
      </trkpt>
      <trkpt lat="45.5738" lon="4.07878">
        <ele>449.39999389648</ele>
        <time>2016-09-11T06:52:39.000Z</time>
      </trkpt>
      <trkpt lat="45.57362" lon="4.07874">
        <ele>448.79998779297</ele>
        <time>2016-09-11T06:52:46.000Z</time>
      </trkpt>
      <trkpt lat="45.5736" lon="4.07873">
        <ele>448.79998779297</ele>
        <time>2016-09-11T06:52:47.000Z</time>
      </trkpt>
      <trkpt lat="45.57341" lon="4.07872">
        <ele>448.20001220703</ele>
        <time>2016-09-11T06:52:52.000Z</time>
      </trkpt>
      <trkpt lat="45.57338" lon="4.07873">
        <ele>448</ele>
        <time>2016-09-11T06:52:53.000Z</time>
      </trkpt>
      <trkpt lat="45.57316" lon="4.07874">
        <ele>447.20001220703</ele>
        <time>2016-09-11T06:52:59.000Z</time>
      </trkpt>
      <trkpt lat="45.57299" lon="4.07865">
        <ele>447.20001220703</ele>
        <time>2016-09-11T06:53:03.000Z</time>
      </trkpt>
      <trkpt lat="45.57292" lon="4.07858">
        <ele>447</ele>
        <time>2016-09-11T06:53:05.000Z</time>
      </trkpt>
      <trkpt lat="45.57286" lon="4.0785">
        <ele>447</ele>
        <time>2016-09-11T06:53:07.000Z</time>
      </trkpt>
      <trkpt lat="45.57272" lon="4.07836">
        <ele>447</ele>
        <time>2016-09-11T06:53:11.000Z</time>
      </trkpt>
      <trkpt lat="45.57254" lon="4.07822">
        <ele>446.79998779297</ele>
        <time>2016-09-11T06:53:16.000Z</time>
      </trkpt>
      <trkpt lat="45.57232" lon="4.07817">
        <ele>446.60000610352</ele>
        <time>2016-09-11T06:53:21.000Z</time>
      </trkpt>
      <trkpt lat="45.57223" lon="4.07814">
        <ele>446.60000610352</ele>
        <time>2016-09-11T06:53:23.000Z</time>
      </trkpt>
      <trkpt lat="45.57214" lon="4.07812">
        <ele>446.60000610352</ele>
        <time>2016-09-11T06:53:25.000Z</time>
      </trkpt>
      <trkpt lat="45.57196" lon="4.07809">
        <ele>446.79998779297</ele>
        <time>2016-09-11T06:53:29.000Z</time>
      </trkpt>
      <trkpt lat="45.57187" lon="4.07807">
        <ele>447</ele>
        <time>2016-09-11T06:53:31.000Z</time>
      </trkpt>
      <trkpt lat="45.5717" lon="4.07803">
        <ele>447.20001220703</ele>
        <time>2016-09-11T06:53:35.000Z</time>
      </trkpt>
      <trkpt lat="45.57162" lon="4.07802">
        <ele>447.39999389648</ele>
        <time>2016-09-11T06:53:37.000Z</time>
      </trkpt>
      <trkpt lat="45.57154" lon="4.078">
        <ele>447.60000610352</ele>
        <time>2016-09-11T06:53:39.000Z</time>
      </trkpt>
      <trkpt lat="45.57134" lon="4.07796">
        <ele>448</ele>
        <time>2016-09-11T06:53:44.000Z</time>
      </trkpt>
      <trkpt lat="45.57122" lon="4.07792">
        <ele>448.39999389648</ele>
        <time>2016-09-11T06:53:47.000Z</time>
      </trkpt>
      <trkpt lat="45.57111" lon="4.07786">
        <ele>448.79998779297</ele>
        <time>2016-09-11T06:53:50.000Z</time>
      </trkpt>
      <trkpt lat="45.5709" lon="4.07781">
        <ele>449.60000610352</ele>
        <time>2016-09-11T06:53:56.000Z</time>
      </trkpt>
      <trkpt lat="45.57071" lon="4.07777">
        <ele>450.20001220703</ele>
        <time>2016-09-11T06:54:02.000Z</time>
      </trkpt>
      <trkpt lat="45.57068" lon="4.07776">
        <ele>450.39999389648</ele>
        <time>2016-09-11T06:54:03.000Z</time>
      </trkpt>
      <trkpt lat="45.57056" lon="4.07779">
        <ele>450.79998779297</ele>
        <time>2016-09-11T06:54:07.000Z</time>
      </trkpt>
      <trkpt lat="45.57038" lon="4.07783">
        <ele>452</ele>
        <time>2016-09-11T06:54:13.000Z</time>
      </trkpt>
      <trkpt lat="45.57035" lon="4.07784">
        <ele>452.20001220703</ele>
        <time>2016-09-11T06:54:14.000Z</time>
      </trkpt>
      <trkpt lat="45.57028" lon="4.07785">
        <ele>452.60000610352</ele>
        <time>2016-09-11T06:54:16.000Z</time>
      </trkpt>
      <trkpt lat="45.57013" lon="4.07789">
        <ele>453.79998779297</ele>
        <time>2016-09-11T06:54:21.000Z</time>
      </trkpt>
      <trkpt lat="45.57001" lon="4.07792">
        <ele>454.60000610352</ele>
        <time>2016-09-11T06:54:25.000Z</time>
      </trkpt>
      <trkpt lat="45.56991" lon="4.07794">
        <ele>455.39999389648</ele>
        <time>2016-09-11T06:54:28.000Z</time>
      </trkpt>
      <trkpt lat="45.56976" lon="4.07811">
        <ele>455</ele>
        <time>2016-09-11T06:54:34.000Z</time>
      </trkpt>
      <trkpt lat="45.56972" lon="4.07819">
        <ele>454.79998779297</ele>
        <time>2016-09-11T06:54:36.000Z</time>
      </trkpt>
      <trkpt lat="45.5697" lon="4.07823">
        <ele>454.60000610352</ele>
        <time>2016-09-11T06:54:37.000Z</time>
      </trkpt>
      <trkpt lat="45.56959" lon="4.07844">
        <ele>454.20001220703</ele>
        <time>2016-09-11T06:54:42.000Z</time>
      </trkpt>
      <trkpt lat="45.56957" lon="4.07848">
        <ele>454</ele>
        <time>2016-09-11T06:54:43.000Z</time>
      </trkpt>
      <trkpt lat="45.56945" lon="4.0787">
        <ele>454.79998779297</ele>
        <time>2016-09-11T06:54:48.000Z</time>
      </trkpt>
      <trkpt lat="45.56939" lon="4.07882">
        <ele>455.20001220703</ele>
        <time>2016-09-11T06:54:51.000Z</time>
      </trkpt>
      <trkpt lat="45.56924" lon="4.07899">
        <ele>457</ele>
        <time>2016-09-11T06:54:57.000Z</time>
      </trkpt>
      <trkpt lat="45.56913" lon="4.07901">
        <ele>458</ele>
        <time>2016-09-11T06:55:00.000Z</time>
      </trkpt>
      <trkpt lat="45.56903" lon="4.07902">
        <ele>459</ele>
        <time>2016-09-11T06:55:03.000Z</time>
      </trkpt>
      <trkpt lat="45.5689" lon="4.07904">
        <ele>460.20001220703</ele>
        <time>2016-09-11T06:55:07.000Z</time>
      </trkpt>
      <trkpt lat="45.56869" lon="4.07907">
        <ele>461.60000610352</ele>
        <time>2016-09-11T06:55:13.000Z</time>
      </trkpt>
      <trkpt lat="45.56866" lon="4.07908">
        <ele>461.79998779297</ele>
        <time>2016-09-11T06:55:14.000Z</time>
      </trkpt>
      <trkpt lat="45.56847" lon="4.07918">
        <ele>462.79998779297</ele>
        <time>2016-09-11T06:55:20.000Z</time>
      </trkpt>
      <trkpt lat="45.56844" lon="4.0792">
        <ele>463</ele>
        <time>2016-09-11T06:55:21.000Z</time>
      </trkpt>
      <trkpt lat="45.56842" lon="4.07922">
        <ele>463.20001220703</ele>
        <time>2016-09-11T06:55:22.000Z</time>
      </trkpt>
      <trkpt lat="45.56828" lon="4.07933">
        <ele>464</ele>
        <time>2016-09-11T06:55:27.000Z</time>
      </trkpt>
      <trkpt lat="45.56825" lon="4.07935">
        <ele>464</ele>
        <time>2016-09-11T06:55:28.000Z</time>
      </trkpt>
      <trkpt lat="45.56817" lon="4.07942">
        <ele>464.60000610352</ele>
        <time>2016-09-11T06:55:31.000Z</time>
      </trkpt>
      <trkpt lat="45.56809" lon="4.07948">
        <ele>465</ele>
        <time>2016-09-11T06:55:34.000Z</time>
      </trkpt>
      <trkpt lat="45.56794" lon="4.07962">
        <ele>465.20001220703</ele>
        <time>2016-09-11T06:55:40.000Z</time>
      </trkpt>
      <trkpt lat="45.56777" lon="4.07976">
        <ele>465.39999389648</ele>
        <time>2016-09-11T06:55:46.000Z</time>
      </trkpt>
      <trkpt lat="45.5677" lon="4.07981">
        <ele>465.60000610352</ele>
        <time>2016-09-11T06:55:48.000Z</time>
      </trkpt>
      <trkpt lat="45.56752" lon="4.07995">
        <ele>465.60000610352</ele>
        <time>2016-09-11T06:55:54.000Z</time>
      </trkpt>
      <trkpt lat="45.56749" lon="4.07997">
        <ele>465.60000610352</ele>
        <time>2016-09-11T06:55:55.000Z</time>
      </trkpt>
      <trkpt lat="45.56746" lon="4.07999">
        <ele>465.60000610352</ele>
        <time>2016-09-11T06:55:56.000Z</time>
      </trkpt>
      <trkpt lat="45.56738" lon="4.07995">
        <ele>466.39999389648</ele>
        <time>2016-09-11T06:56:04.000Z</time>
      </trkpt>
      <trkpt lat="45.56739" lon="4.07967">
        <ele>468.60000610352</ele>
        <time>2016-09-11T06:56:11.000Z</time>
      </trkpt>
      <trkpt lat="45.56739" lon="4.07963">
        <ele>469</ele>
        <time>2016-09-11T06:56:12.000Z</time>
      </trkpt>
      <trkpt lat="45.56739" lon="4.07955">
        <ele>469.60000610352</ele>
        <time>2016-09-11T06:56:14.000Z</time>
      </trkpt>
      <trkpt lat="45.56741" lon="4.07927">
        <ele>471</ele>
        <time>2016-09-11T06:56:21.000Z</time>
      </trkpt>
      <trkpt lat="45.56748" lon="4.079">
        <ele>472</ele>
        <time>2016-09-11T06:56:28.000Z</time>
      </trkpt>
      <trkpt lat="45.56732" lon="4.07892">
        <ele>473.39999389648</ele>
        <time>2016-09-11T06:56:36.000Z</time>
      </trkpt>
      <trkpt lat="45.56721" lon="4.07891">
        <ele>474.20001220703</ele>
        <time>2016-09-11T06:56:39.000Z</time>
      </trkpt>
      <trkpt lat="45.56717" lon="4.0789">
        <ele>474.60000610352</ele>
        <time>2016-09-11T06:56:40.000Z</time>
      </trkpt>
      <trkpt lat="45.56704" lon="4.07889">
        <ele>475</ele>
        <time>2016-09-11T06:56:43.000Z</time>
      </trkpt>
      <trkpt lat="45.56696" lon="4.07888">
        <ele>475.39999389648</ele>
        <time>2016-09-11T06:56:45.000Z</time>
      </trkpt>
      <trkpt lat="45.56674" lon="4.07889">
        <ele>476.20001220703</ele>
        <time>2016-09-11T06:56:50.000Z</time>
      </trkpt>
      <trkpt lat="45.56661" lon="4.07891">
        <ele>476.60000610352</ele>
        <time>2016-09-11T06:56:53.000Z</time>
      </trkpt>
      <trkpt lat="45.56652" lon="4.07892">
        <ele>476.60000610352</ele>
        <time>2016-09-11T06:56:55.000Z</time>
      </trkpt>
      <trkpt lat="45.56634" lon="4.07896">
        <ele>476.79998779297</ele>
        <time>2016-09-11T06:56:59.000Z</time>
      </trkpt>
      <trkpt lat="45.56618" lon="4.07907">
        <ele>476.60000610352</ele>
        <time>2016-09-11T06:57:03.000Z</time>
      </trkpt>
      <trkpt lat="45.56601" lon="4.07916">
        <ele>476.60000610352</ele>
        <time>2016-09-11T06:57:08.000Z</time>
      </trkpt>
      <trkpt lat="45.56585" lon="4.07899">
        <ele>478</ele>
        <time>2016-09-11T06:57:15.000Z</time>
      </trkpt>
      <trkpt lat="45.56583" lon="4.07896">
        <ele>478.20001220703</ele>
        <time>2016-09-11T06:57:16.000Z</time>
      </trkpt>
      <trkpt lat="45.56581" lon="4.07894">
        <ele>478.39999389648</ele>
        <time>2016-09-11T06:57:17.000Z</time>
      </trkpt>
      <trkpt lat="45.56565" lon="4.07879">
        <ele>479.79998779297</ele>
        <time>2016-09-11T06:57:24.000Z</time>
      </trkpt>
      <trkpt lat="45.5656" lon="4.07875">
        <ele>480.20001220703</ele>
        <time>2016-09-11T06:57:26.000Z</time>
      </trkpt>
      <trkpt lat="45.5655" lon="4.07868">
        <ele>480.79998779297</ele>
        <time>2016-09-11T06:57:30.000Z</time>
      </trkpt>
      <trkpt lat="45.56533" lon="4.07858">
        <ele>482.20001220703</ele>
        <time>2016-09-11T06:57:36.000Z</time>
      </trkpt>
      <trkpt lat="45.5653" lon="4.07856">
        <ele>482.39999389648</ele>
        <time>2016-09-11T06:57:37.000Z</time>
      </trkpt>
      <trkpt lat="45.56527" lon="4.07855">
        <ele>482.60000610352</ele>
        <time>2016-09-11T06:57:38.000Z</time>
      </trkpt>
      <trkpt lat="45.56515" lon="4.07849">
        <ele>483.39999389648</ele>
        <time>2016-09-11T06:57:42.000Z</time>
      </trkpt>
      <trkpt lat="45.56507" lon="4.07845">
        <ele>484</ele>
        <time>2016-09-11T06:57:45.000Z</time>
      </trkpt>
      <trkpt lat="45.565" lon="4.0784">
        <ele>484.60000610352</ele>
        <time>2016-09-11T06:57:48.000Z</time>
      </trkpt>
      <trkpt lat="45.56491" lon="4.07833">
        <ele>485.20001220703</ele>
        <time>2016-09-11T06:57:52.000Z</time>
      </trkpt>
      <trkpt lat="45.56488" lon="4.07831">
        <ele>485.39999389648</ele>
        <time>2016-09-11T06:57:53.000Z</time>
      </trkpt>
      <trkpt lat="45.56472" lon="4.0782">
        <ele>486.60000610352</ele>
        <time>2016-09-11T06:58:00.000Z</time>
      </trkpt>
      <trkpt lat="45.5647" lon="4.07818">
        <ele>486.79998779297</ele>
        <time>2016-09-11T06:58:01.000Z</time>
      </trkpt>
      <trkpt lat="45.56457" lon="4.07808">
        <ele>488</ele>
        <time>2016-09-11T06:58:06.000Z</time>
      </trkpt>
      <trkpt lat="45.56447" lon="4.07799">
        <ele>489</ele>
        <time>2016-09-11T06:58:10.000Z</time>
      </trkpt>
      <trkpt lat="45.56445" lon="4.07797">
        <ele>489.20001220703</ele>
        <time>2016-09-11T06:58:11.000Z</time>
      </trkpt>
      <trkpt lat="45.56439" lon="4.07791">
        <ele>489.79998779297</ele>
        <time>2016-09-11T06:58:14.000Z</time>
      </trkpt>
      <trkpt lat="45.56432" lon="4.07785">
        <ele>490.39999389648</ele>
        <time>2016-09-11T06:58:17.000Z</time>
      </trkpt>
      <trkpt lat="45.56426" lon="4.07781">
        <ele>490.79998779297</ele>
        <time>2016-09-11T06:58:19.000Z</time>
      </trkpt>
      <trkpt lat="45.56412" lon="4.07772">
        <ele>492.20001220703</ele>
        <time>2016-09-11T06:58:24.000Z</time>
      </trkpt>
      <trkpt lat="45.56409" lon="4.07771">
        <ele>492.39999389648</ele>
        <time>2016-09-11T06:58:25.000Z</time>
      </trkpt>
      <trkpt lat="45.56399" lon="4.07765">
        <ele>493.39999389648</ele>
        <time>2016-09-11T06:58:29.000Z</time>
      </trkpt>
      <trkpt lat="45.5638" lon="4.07756">
        <ele>495.20001220703</ele>
        <time>2016-09-11T06:58:36.000Z</time>
      </trkpt>
      <trkpt lat="45.56372" lon="4.07751">
        <ele>495.60000610352</ele>
        <time>2016-09-11T06:58:39.000Z</time>
      </trkpt>
      <trkpt lat="45.56369" lon="4.07749">
        <ele>495.79998779297</ele>
        <time>2016-09-11T06:58:40.000Z</time>
      </trkpt>
      <trkpt lat="45.56354" lon="4.07733">
        <ele>497.20001220703</ele>
        <time>2016-09-11T06:58:47.000Z</time>
      </trkpt>
      <trkpt lat="45.56352" lon="4.0773">
        <ele>497.39999389648</ele>
        <time>2016-09-11T06:58:48.000Z</time>
      </trkpt>
      <trkpt lat="45.56346" lon="4.07722">
        <ele>498</ele>
        <time>2016-09-11T06:58:51.000Z</time>
      </trkpt>
      <trkpt lat="45.56336" lon="4.07712">
        <ele>498.79998779297</ele>
        <time>2016-09-11T06:58:56.000Z</time>
      </trkpt>
      <trkpt lat="45.56333" lon="4.0771">
        <ele>499</ele>
        <time>2016-09-11T06:58:57.000Z</time>
      </trkpt>
      <trkpt lat="45.56328" lon="4.07706">
        <ele>499.39999389648</ele>
        <time>2016-09-11T06:58:59.000Z</time>
      </trkpt>
      <trkpt lat="45.56322" lon="4.07702">
        <ele>499.79998779297</ele>
        <time>2016-09-11T06:59:01.000Z</time>
      </trkpt>
      <trkpt lat="45.56311" lon="4.07695">
        <ele>500.60000610352</ele>
        <time>2016-09-11T06:59:05.000Z</time>
      </trkpt>
      <trkpt lat="45.56308" lon="4.07693">
        <ele>500.79998779297</ele>
        <time>2016-09-11T06:59:06.000Z</time>
      </trkpt>
      <trkpt lat="45.5629" lon="4.07681">
        <ele>500.79998779297</ele>
        <time>2016-09-11T06:59:13.000Z</time>
      </trkpt>
      <trkpt lat="45.56284" lon="4.07678">
        <ele>501</ele>
        <time>2016-09-11T06:59:15.000Z</time>
      </trkpt>
      <trkpt lat="45.56281" lon="4.07676">
        <ele>501</ele>
        <time>2016-09-11T06:59:16.000Z</time>
      </trkpt>
      <trkpt lat="45.56269" lon="4.07668">
        <ele>501</ele>
        <time>2016-09-11T06:59:20.000Z</time>
      </trkpt>
      <trkpt lat="45.56258" lon="4.07659">
        <ele>501</ele>
        <time>2016-09-11T06:59:24.000Z</time>
      </trkpt>
      <trkpt lat="45.56252" lon="4.07655">
        <ele>501</ele>
        <time>2016-09-11T06:59:26.000Z</time>
      </trkpt>
      <trkpt lat="45.56241" lon="4.07646">
        <ele>501</ele>
        <time>2016-09-11T06:59:30.000Z</time>
      </trkpt>
      <trkpt lat="45.56231" lon="4.07639">
        <ele>501</ele>
        <time>2016-09-11T06:59:34.000Z</time>
      </trkpt>
      <trkpt lat="45.56214" lon="4.07632">
        <ele>501</ele>
        <time>2016-09-11T06:59:41.000Z</time>
      </trkpt>
      <trkpt lat="45.56199" lon="4.07648">
        <ele>501.20001220703</ele>
        <time>2016-09-11T06:59:46.000Z</time>
      </trkpt>
      <trkpt lat="45.56192" lon="4.07663">
        <ele>501.60000610352</ele>
        <time>2016-09-11T06:59:50.000Z</time>
      </trkpt>
      <trkpt lat="45.5619" lon="4.07666">
        <ele>501.79998779297</ele>
        <time>2016-09-11T06:59:51.000Z</time>
      </trkpt>
      <trkpt lat="45.56183" lon="4.07681">
        <ele>501.60000610352</ele>
        <time>2016-09-11T06:59:55.000Z</time>
      </trkpt>
      <trkpt lat="45.56175" lon="4.07697">
        <ele>501.39999389648</ele>
        <time>2016-09-11T06:59:59.000Z</time>
      </trkpt>
      <trkpt lat="45.56173" lon="4.07701">
        <ele>501.39999389648</ele>
        <time>2016-09-11T07:00:00.000Z</time>
      </trkpt>
      <trkpt lat="45.56159" lon="4.07724">
        <ele>501</ele>
        <time>2016-09-11T07:00:06.000Z</time>
      </trkpt>
      <trkpt lat="45.56156" lon="4.07728">
        <ele>500.79998779297</ele>
        <time>2016-09-11T07:00:07.000Z</time>
      </trkpt>
      <trkpt lat="45.56151" lon="4.07735">
        <ele>500.79998779297</ele>
        <time>2016-09-11T07:00:09.000Z</time>
      </trkpt>
      <trkpt lat="45.56136" lon="4.07752">
        <ele>500.39999389648</ele>
        <time>2016-09-11T07:00:14.000Z</time>
      </trkpt>
      <trkpt lat="45.5613" lon="4.07759">
        <ele>500.79998779297</ele>
        <time>2016-09-11T07:00:16.000Z</time>
      </trkpt>
      <trkpt lat="45.56127" lon="4.07762">
        <ele>501.20001220703</ele>
        <time>2016-09-11T07:00:17.000Z</time>
      </trkpt>
      <trkpt lat="45.5612" lon="4.07787">
        <ele>500.79998779297</ele>
        <time>2016-09-11T07:00:23.000Z</time>
      </trkpt>
      <trkpt lat="45.56109" lon="4.07795">
        <ele>500.60000610352</ele>
        <time>2016-09-11T07:00:28.000Z</time>
      </trkpt>
      <trkpt lat="45.56106" lon="4.07795">
        <ele>500.60000610352</ele>
        <time>2016-09-11T07:00:29.000Z</time>
      </trkpt>
      <trkpt lat="45.56095" lon="4.07797">
        <ele>500.39999389648</ele>
        <time>2016-09-11T07:00:32.000Z</time>
      </trkpt>
      <trkpt lat="45.56078" lon="4.07808">
        <ele>500.39999389648</ele>
        <time>2016-09-11T07:00:37.000Z</time>
      </trkpt>
      <trkpt lat="45.56065" lon="4.07827">
        <ele>500.60000610352</ele>
        <time>2016-09-11T07:00:42.000Z</time>
      </trkpt>
      <trkpt lat="45.56053" lon="4.07848">
        <ele>501</ele>
        <time>2016-09-11T07:00:47.000Z</time>
      </trkpt>
      <trkpt lat="45.56045" lon="4.07875">
        <ele>500.79998779297</ele>
        <time>2016-09-11T07:00:53.000Z</time>
      </trkpt>
      <trkpt lat="45.56042" lon="4.07885">
        <ele>500.39999389648</ele>
        <time>2016-09-11T07:00:55.000Z</time>
      </trkpt>
      <trkpt lat="45.5604" lon="4.07889">
        <ele>500.20001220703</ele>
        <time>2016-09-11T07:00:56.000Z</time>
      </trkpt>
      <trkpt lat="45.56028" lon="4.07909">
        <ele>500.20001220703</ele>
        <time>2016-09-11T07:01:01.000Z</time>
      </trkpt>
      <trkpt lat="45.56012" lon="4.07924">
        <ele>501.20001220703</ele>
        <time>2016-09-11T07:01:06.000Z</time>
      </trkpt>
      <trkpt lat="45.56001" lon="4.07935">
        <ele>502.39999389648</ele>
        <time>2016-09-11T07:01:09.000Z</time>
      </trkpt>
      <trkpt lat="45.55997" lon="4.07938">
        <ele>502.60000610352</ele>
        <time>2016-09-11T07:01:10.000Z</time>
      </trkpt>
      <trkpt lat="45.55984" lon="4.07947">
        <ele>504</ele>
        <time>2016-09-11T07:01:13.000Z</time>
      </trkpt>
      <trkpt lat="45.55963" lon="4.07957">
        <ele>505</ele>
        <time>2016-09-11T07:01:17.000Z</time>
      </trkpt>
      <trkpt lat="45.55951" lon="4.07961">
        <ele>505.20001220703</ele>
        <time>2016-09-11T07:01:19.000Z</time>
      </trkpt>
      <trkpt lat="45.55933" lon="4.07962">
        <ele>506</ele>
        <time>2016-09-11T07:01:22.000Z</time>
      </trkpt>
      <trkpt lat="45.55911" lon="4.07956">
        <ele>507.60000610352</ele>
        <time>2016-09-11T07:01:26.000Z</time>
      </trkpt>
      <trkpt lat="45.55906" lon="4.07954">
        <ele>508</ele>
        <time>2016-09-11T07:01:27.000Z</time>
      </trkpt>
      <trkpt lat="45.55896" lon="4.07952">
        <ele>508.60000610352</ele>
        <time>2016-09-11T07:01:29.000Z</time>
      </trkpt>
      <trkpt lat="45.55882" lon="4.0795">
        <ele>509.20001220703</ele>
        <time>2016-09-11T07:01:32.000Z</time>
      </trkpt>
      <trkpt lat="45.55862" lon="4.07946">
        <ele>509.20001220703</ele>
        <time>2016-09-11T07:01:36.000Z</time>
      </trkpt>
      <trkpt lat="45.55847" lon="4.07943">
        <ele>509.20001220703</ele>
        <time>2016-09-11T07:01:39.000Z</time>
      </trkpt>
      <trkpt lat="45.55832" lon="4.07939">
        <ele>509</ele>
        <time>2016-09-11T07:01:42.000Z</time>
      </trkpt>
      <trkpt lat="45.55812" lon="4.07931">
        <ele>509.20001220703</ele>
        <time>2016-09-11T07:01:46.000Z</time>
      </trkpt>
      <trkpt lat="45.55795" lon="4.07917">
        <ele>509.39999389648</ele>
        <time>2016-09-11T07:01:50.000Z</time>
      </trkpt>
      <trkpt lat="45.55774" lon="4.07908">
        <ele>508.20001220703</ele>
        <time>2016-09-11T07:01:55.000Z</time>
      </trkpt>
      <trkpt lat="45.55769" lon="4.07908">
        <ele>507.79998779297</ele>
        <time>2016-09-11T07:01:56.000Z</time>
      </trkpt>
      <trkpt lat="45.55758" lon="4.0793">
        <ele>505</ele>
        <time>2016-09-11T07:02:00.000Z</time>
      </trkpt>
      <trkpt lat="45.55752" lon="4.07958">
        <ele>501.60000610352</ele>
        <time>2016-09-11T07:02:04.000Z</time>
      </trkpt>
      <trkpt lat="45.55741" lon="4.07965">
        <ele>499.79998779297</ele>
        <time>2016-09-11T07:02:09.000Z</time>
      </trkpt>
      <trkpt lat="45.55739" lon="4.07965">
        <ele>499.60000610352</ele>
        <time>2016-09-11T07:02:10.000Z</time>
      </trkpt>
      <trkpt lat="45.55738" lon="4.07966">
        <ele>499.60000610352</ele>
        <time>2016-09-11T07:02:12.000Z</time>
      </trkpt>
      <trkpt lat="45.55718" lon="4.07964">
        <ele>498.79998779297</ele>
        <time>2016-09-11T07:02:20.000Z</time>
      </trkpt>
      <trkpt lat="45.55697" lon="4.07958">
        <ele>497.79998779297</ele>
        <time>2016-09-11T07:02:25.000Z</time>
      </trkpt>
      <trkpt lat="45.5568" lon="4.07968">
        <ele>496.20001220703</ele>
        <time>2016-09-11T07:02:32.000Z</time>
      </trkpt>
      <trkpt lat="45.55677" lon="4.07971">
        <ele>495.79998779297</ele>
        <time>2016-09-11T07:02:34.000Z</time>
      </trkpt>
      <trkpt lat="45.55675" lon="4.07973">
        <ele>495.60000610352</ele>
        <time>2016-09-11T07:02:35.000Z</time>
      </trkpt>
      <trkpt lat="45.55658" lon="4.07993">
        <ele>493.39999389648</ele>
        <time>2016-09-11T07:02:41.000Z</time>
      </trkpt>
      <trkpt lat="45.5564" lon="4.08012">
        <ele>491.20001220703</ele>
        <time>2016-09-11T07:02:45.000Z</time>
      </trkpt>
      <trkpt lat="45.55622" lon="4.08023">
        <ele>489.39999389648</ele>
        <time>2016-09-11T07:02:48.000Z</time>
      </trkpt>
      <trkpt lat="45.55601" lon="4.08029">
        <ele>487.79998779297</ele>
        <time>2016-09-11T07:02:51.000Z</time>
      </trkpt>
      <trkpt lat="45.55595" lon="4.08031">
        <ele>487.39999389648</ele>
        <time>2016-09-11T07:02:52.000Z</time>
      </trkpt>
      <trkpt lat="45.55571" lon="4.08032">
        <ele>485.79998779297</ele>
        <time>2016-09-11T07:02:56.000Z</time>
      </trkpt>
      <trkpt lat="45.55551" lon="4.08031">
        <ele>484.79998779297</ele>
        <time>2016-09-11T07:02:59.000Z</time>
      </trkpt>
      <trkpt lat="45.55539" lon="4.08028">
        <ele>484</ele>
        <time>2016-09-11T07:03:01.000Z</time>
      </trkpt>
      <trkpt lat="45.55528" lon="4.08025">
        <ele>483.39999389648</ele>
        <time>2016-09-11T07:03:03.000Z</time>
      </trkpt>
      <trkpt lat="45.55509" lon="4.08008">
        <ele>483.39999389648</ele>
        <time>2016-09-11T07:03:07.000Z</time>
      </trkpt>
      <trkpt lat="45.55492" lon="4.07989">
        <ele>484</ele>
        <time>2016-09-11T07:03:11.000Z</time>
      </trkpt>
      <trkpt lat="45.55472" lon="4.07981">
        <ele>483.20001220703</ele>
        <time>2016-09-11T07:03:15.000Z</time>
      </trkpt>
      <trkpt lat="45.55468" lon="4.0798">
        <ele>482.79998779297</ele>
        <time>2016-09-11T07:03:16.000Z</time>
      </trkpt>
      <trkpt lat="45.55451" lon="4.07976">
        <ele>481.20001220703</ele>
        <time>2016-09-11T07:03:20.000Z</time>
      </trkpt>
      <trkpt lat="45.55446" lon="4.07975">
        <ele>480.79998779297</ele>
        <time>2016-09-11T07:03:21.000Z</time>
      </trkpt>
      <trkpt lat="45.55427" lon="4.0797">
        <ele>478.79998779297</ele>
        <time>2016-09-11T07:03:25.000Z</time>
      </trkpt>
      <trkpt lat="45.55407" lon="4.0796">
        <ele>477.20001220703</ele>
        <time>2016-09-11T07:03:29.000Z</time>
      </trkpt>
      <trkpt lat="45.55388" lon="4.07941">
        <ele>476.60000610352</ele>
        <time>2016-09-11T07:03:33.000Z</time>
      </trkpt>
      <trkpt lat="45.55374" lon="4.07921">
        <ele>474.79998779297</ele>
        <time>2016-09-11T07:03:36.000Z</time>
      </trkpt>
      <trkpt lat="45.55366" lon="4.07906">
        <ele>473.39999389648</ele>
        <time>2016-09-11T07:03:38.000Z</time>
      </trkpt>
      <trkpt lat="45.55357" lon="4.07893">
        <ele>472</ele>
        <time>2016-09-11T07:03:40.000Z</time>
      </trkpt>
      <trkpt lat="45.5535" lon="4.07867">
        <ele>471.79998779297</ele>
        <time>2016-09-11T07:03:44.000Z</time>
      </trkpt>
      <trkpt lat="45.55351" lon="4.07846">
        <ele>473.39999389648</ele>
        <time>2016-09-11T07:03:47.000Z</time>
      </trkpt>
      <trkpt lat="45.55352" lon="4.07841">
        <ele>473.60000610352</ele>
        <time>2016-09-11T07:03:48.000Z</time>
      </trkpt>
      <trkpt lat="45.55351" lon="4.07814">
        <ele>475</ele>
        <time>2016-09-11T07:03:53.000Z</time>
      </trkpt>
      <trkpt lat="45.55349" lon="4.07801">
        <ele>475.20001220703</ele>
        <time>2016-09-11T07:03:55.000Z</time>
      </trkpt>
      <trkpt lat="45.55346" lon="4.07794">
        <ele>475</ele>
        <time>2016-09-11T07:03:56.000Z</time>
      </trkpt>
      <trkpt lat="45.55342" lon="4.07783">
        <ele>474.60000610352</ele>
        <time>2016-09-11T07:03:58.000Z</time>
      </trkpt>
      <trkpt lat="45.55338" lon="4.07772">
        <ele>474.20001220703</ele>
        <time>2016-09-11T07:04:00.000Z</time>
      </trkpt>
      <trkpt lat="45.55324" lon="4.07748">
        <ele>472</ele>
        <time>2016-09-11T07:04:05.000Z</time>
      </trkpt>
      <trkpt lat="45.55312" lon="4.07727">
        <ele>470.39999389648</ele>
        <time>2016-09-11T07:04:10.000Z</time>
      </trkpt>
      <trkpt lat="45.55305" lon="4.077">
        <ele>470.60000610352</ele>
        <time>2016-09-11T07:04:16.000Z</time>
      </trkpt>
      <trkpt lat="45.55306" lon="4.07672">
        <ele>473.79998779297</ele>
        <time>2016-09-11T07:04:20.000Z</time>
      </trkpt>
      <trkpt lat="45.55291" lon="4.07679">
        <ele>470.79998779297</ele>
        <time>2016-09-11T07:04:28.000Z</time>
      </trkpt>
      <trkpt lat="45.55279" lon="4.077">
        <ele>469.20001220703</ele>
        <time>2016-09-11T07:04:32.000Z</time>
      </trkpt>
      <trkpt lat="45.55272" lon="4.07727">
        <ele>467.20001220703</ele>
        <time>2016-09-11T07:04:36.000Z</time>
      </trkpt>
      <trkpt lat="45.55271" lon="4.07756">
        <ele>464.79998779297</ele>
        <time>2016-09-11T07:04:41.000Z</time>
      </trkpt>
      <trkpt lat="45.55272" lon="4.0778">
        <ele>462.39999389648</ele>
        <time>2016-09-11T07:04:54.000Z</time>
      </trkpt>
      <trkpt lat="45.55271" lon="4.07784">
        <ele>462.20001220703</ele>
        <time>2016-09-11T07:04:57.000Z</time>
      </trkpt>
      <trkpt lat="45.55271" lon="4.07791">
        <ele>461.79998779297</ele>
        <time>2016-09-11T07:05:02.000Z</time>
      </trkpt>
      <trkpt lat="45.55266" lon="4.07813">
        <ele>460.60000610352</ele>
        <time>2016-09-11T07:05:12.000Z</time>
      </trkpt>
      <trkpt lat="45.55264" lon="4.07816">
        <ele>460.39999389648</ele>
        <time>2016-09-11T07:05:13.000Z</time>
      </trkpt>
      <trkpt lat="45.55258" lon="4.07842">
        <ele>460</ele>
        <time>2016-09-11T07:05:22.000Z</time>
      </trkpt>
      <trkpt lat="45.55248" lon="4.07866">
        <ele>459.79998779297</ele>
        <time>2016-09-11T07:05:32.000Z</time>
      </trkpt>
      <trkpt lat="45.5525" lon="4.07895">
        <ele>459.20001220703</ele>
        <time>2016-09-11T07:05:38.000Z</time>
      </trkpt>
      <trkpt lat="45.55246" lon="4.07919">
        <ele>458.20001220703</ele>
        <time>2016-09-11T07:05:43.000Z</time>
      </trkpt>
      <trkpt lat="45.55242" lon="4.07945">
        <ele>457.20001220703</ele>
        <time>2016-09-11T07:05:48.000Z</time>
      </trkpt>
      <trkpt lat="45.55237" lon="4.07974">
        <ele>456</ele>
        <time>2016-09-11T07:05:55.000Z</time>
      </trkpt>
      <trkpt lat="45.55234" lon="4.07992">
        <ele>456.20001220703</ele>
        <time>2016-09-11T07:05:58.000Z</time>
      </trkpt>
      <trkpt lat="45.55234" lon="4.08">
        <ele>456.20001220703</ele>
        <time>2016-09-11T07:05:59.000Z</time>
      </trkpt>
      <trkpt lat="45.55229" lon="4.08026">
        <ele>456.39999389648</ele>
        <time>2016-09-11T07:06:04.000Z</time>
      </trkpt>
      <trkpt lat="45.55222" lon="4.08054">
        <ele>456.60000610352</ele>
        <time>2016-09-11T07:06:10.000Z</time>
      </trkpt>
      <trkpt lat="45.5522" lon="4.08065">
        <ele>456.60000610352</ele>
        <time>2016-09-11T07:06:12.000Z</time>
      </trkpt>
      <trkpt lat="45.55219" lon="4.08071">
        <ele>456.39999389648</ele>
        <time>2016-09-11T07:06:13.000Z</time>
      </trkpt>
      <trkpt lat="45.55213" lon="4.08096">
        <ele>457</ele>
        <time>2016-09-11T07:06:18.000Z</time>
      </trkpt>
      <trkpt lat="45.55202" lon="4.08117">
        <ele>458.39999389648</ele>
        <time>2016-09-11T07:06:24.000Z</time>
      </trkpt>
      <trkpt lat="45.55192" lon="4.0814">
        <ele>459.20001220703</ele>
        <time>2016-09-11T07:06:30.000Z</time>
      </trkpt>
      <trkpt lat="45.5519" lon="4.0816">
        <ele>458.60000610352</ele>
        <time>2016-09-11T07:06:34.000Z</time>
      </trkpt>
      <trkpt lat="45.5519" lon="4.08166">
        <ele>458.20001220703</ele>
        <time>2016-09-11T07:06:36.000Z</time>
      </trkpt>
      <trkpt lat="45.55184" lon="4.08192">
        <ele>459.20001220703</ele>
        <time>2016-09-11T07:06:50.000Z</time>
      </trkpt>
      <trkpt lat="45.55175" lon="4.08214">
        <ele>460.20001220703</ele>
        <time>2016-09-11T07:07:03.000Z</time>
      </trkpt>
      <trkpt lat="45.55175" lon="4.08219">
        <ele>460</ele>
        <time>2016-09-11T07:07:07.000Z</time>
      </trkpt>
      <trkpt lat="45.55174" lon="4.08221">
        <ele>460</ele>
        <time>2016-09-11T07:07:08.000Z</time>
      </trkpt>
      <trkpt lat="45.55174" lon="4.08226">
        <ele>459.79998779297</ele>
        <time>2016-09-11T07:07:12.000Z</time>
      </trkpt>
      <trkpt lat="45.55167" lon="4.08251">
        <ele>461.60000610352</ele>
        <time>2016-09-11T07:07:28.000Z</time>
      </trkpt>
      <trkpt lat="45.55158" lon="4.08274">
        <ele>464.60000610352</ele>
        <time>2016-09-11T07:07:44.000Z</time>
      </trkpt>
      <trkpt lat="45.55154" lon="4.08283">
        <ele>465.60000610352</ele>
        <time>2016-09-11T07:07:56.000Z</time>
      </trkpt>
      <trkpt lat="45.55153" lon="4.08293">
        <ele>466.20001220703</ele>
        <time>2016-09-11T07:08:01.000Z</time>
      </trkpt>
      <trkpt lat="45.55152" lon="4.08296">
        <ele>466.39999389648</ele>
        <time>2016-09-11T07:08:02.000Z</time>
      </trkpt>
      <trkpt lat="45.55144" lon="4.0832">
        <ele>469.79998779297</ele>
        <time>2016-09-11T07:08:10.000Z</time>
      </trkpt>
      <trkpt lat="45.55142" lon="4.08345">
        <ele>471.20001220703</ele>
        <time>2016-09-11T07:08:19.000Z</time>
      </trkpt>
      <trkpt lat="45.55127" lon="4.08356">
        <ele>475</ele>
        <time>2016-09-11T07:08:26.000Z</time>
      </trkpt>
      <trkpt lat="45.55117" lon="4.08351">
        <ele>476.39999389648</ele>
        <time>2016-09-11T07:08:29.000Z</time>
      </trkpt>
      <trkpt lat="45.55114" lon="4.08349">
        <ele>476.79998779297</ele>
        <time>2016-09-11T07:08:30.000Z</time>
      </trkpt>
      <trkpt lat="45.55098" lon="4.08335">
        <ele>479.39999389648</ele>
        <time>2016-09-11T07:08:37.000Z</time>
      </trkpt>
      <trkpt lat="45.5509" lon="4.0831">
        <ele>480.60000610352</ele>
        <time>2016-09-11T07:08:43.000Z</time>
      </trkpt>
      <trkpt lat="45.55084" lon="4.08284">
        <ele>481</ele>
        <time>2016-09-11T07:08:49.000Z</time>
      </trkpt>
      <trkpt lat="45.55076" lon="4.08259">
        <ele>482.39999389648</ele>
        <time>2016-09-11T07:08:55.000Z</time>
      </trkpt>
      <trkpt lat="45.55069" lon="4.08232">
        <ele>484</ele>
        <time>2016-09-11T07:09:01.000Z</time>
      </trkpt>
      <trkpt lat="45.55062" lon="4.08207">
        <ele>485.60000610352</ele>
        <time>2016-09-11T07:09:07.000Z</time>
      </trkpt>
      <trkpt lat="45.55061" lon="4.08202">
        <ele>486</ele>
        <time>2016-09-11T07:09:08.000Z</time>
      </trkpt>
      <trkpt lat="45.5506" lon="4.08197">
        <ele>486.20001220703</ele>
        <time>2016-09-11T07:09:09.000Z</time>
      </trkpt>
      <trkpt lat="45.55052" lon="4.08174">
        <ele>488.39999389648</ele>
        <time>2016-09-11T07:09:14.000Z</time>
      </trkpt>
      <trkpt lat="45.55044" lon="4.0815">
        <ele>489.79998779297</ele>
        <time>2016-09-11T07:09:20.000Z</time>
      </trkpt>
      <trkpt lat="45.55043" lon="4.08146">
        <ele>490</ele>
        <time>2016-09-11T07:09:21.000Z</time>
      </trkpt>
      <trkpt lat="45.55036" lon="4.08121">
        <ele>491.20001220703</ele>
        <time>2016-09-11T07:09:28.000Z</time>
      </trkpt>
      <trkpt lat="45.55031" lon="4.08108">
        <ele>491.79998779297</ele>
        <time>2016-09-11T07:09:32.000Z</time>
      </trkpt>
      <trkpt lat="45.55029" lon="4.08101">
        <ele>492.39999389648</ele>
        <time>2016-09-11T07:09:34.000Z</time>
      </trkpt>
      <trkpt lat="45.55027" lon="4.08095">
        <ele>493</ele>
        <time>2016-09-11T07:09:36.000Z</time>
      </trkpt>
      <trkpt lat="45.55021" lon="4.0807">
        <ele>494.60000610352</ele>
        <time>2016-09-11T07:09:43.000Z</time>
      </trkpt>
      <trkpt lat="45.55019" lon="4.08063">
        <ele>495</ele>
        <time>2016-09-11T07:09:45.000Z</time>
      </trkpt>
      <trkpt lat="45.55018" lon="4.0806">
        <ele>495.20001220703</ele>
        <time>2016-09-11T07:09:46.000Z</time>
      </trkpt>
      <trkpt lat="45.5501" lon="4.08034">
        <ele>496.60000610352</ele>
        <time>2016-09-11T07:09:54.000Z</time>
      </trkpt>
      <trkpt lat="45.55006" lon="4.08025">
        <ele>497.39999389648</ele>
        <time>2016-09-11T07:09:57.000Z</time>
      </trkpt>
      <trkpt lat="45.55005" lon="4.08022">
        <ele>497.79998779297</ele>
        <time>2016-09-11T07:09:58.000Z</time>
      </trkpt>
      <trkpt lat="45.54997" lon="4.07997">
        <ele>500.79998779297</ele>
        <time>2016-09-11T07:10:07.000Z</time>
      </trkpt>
      <trkpt lat="45.54987" lon="4.07973">
        <ele>503.79998779297</ele>
        <time>2016-09-11T07:10:17.000Z</time>
      </trkpt>
      <trkpt lat="45.54984" lon="4.07966">
        <ele>504.60000610352</ele>
        <time>2016-09-11T07:10:20.000Z</time>
      </trkpt>
      <trkpt lat="45.54983" lon="4.07965">
        <ele>504.79998779297</ele>
        <time>2016-09-11T07:10:21.000Z</time>
      </trkpt>
      <trkpt lat="45.54974" lon="4.07942">
        <ele>507.39999389648</ele>
        <time>2016-09-11T07:10:34.000Z</time>
      </trkpt>
      <trkpt lat="45.54963" lon="4.0792">
        <ele>510.79998779297</ele>
        <time>2016-09-11T07:10:45.000Z</time>
      </trkpt>
      <trkpt lat="45.54954" lon="4.07895">
        <ele>513.59997558594</ele>
        <time>2016-09-11T07:10:55.000Z</time>
      </trkpt>
      <trkpt lat="45.54953" lon="4.07892">
        <ele>514</ele>
        <time>2016-09-11T07:10:56.000Z</time>
      </trkpt>
      <trkpt lat="45.54952" lon="4.07889">
        <ele>514.20001220703</ele>
        <time>2016-09-11T07:10:57.000Z</time>
      </trkpt>
      <trkpt lat="45.54943" lon="4.07864">
        <ele>517.20001220703</ele>
        <time>2016-09-11T07:11:06.000Z</time>
      </trkpt>
      <trkpt lat="45.5494" lon="4.07854">
        <ele>518.20001220703</ele>
        <time>2016-09-11T07:11:10.000Z</time>
      </trkpt>
      <trkpt lat="45.54939" lon="4.07852">
        <ele>518.40002441406</ele>
        <time>2016-09-11T07:11:11.000Z</time>
      </trkpt>
      <trkpt lat="45.54931" lon="4.0784">
        <ele>519.20001220703</ele>
        <time>2016-09-11T07:11:17.000Z</time>
      </trkpt>
      <trkpt lat="45.5493" lon="4.07839">
        <ele>519.20001220703</ele>
        <time>2016-09-11T07:11:18.000Z</time>
      </trkpt>
      <trkpt lat="45.54916" lon="4.07822">
        <ele>520.59997558594</ele>
        <time>2016-09-11T07:11:28.000Z</time>
      </trkpt>
      <trkpt lat="45.54909" lon="4.07798">
        <ele>522.59997558594</ele>
        <time>2016-09-11T07:11:38.000Z</time>
      </trkpt>
      <trkpt lat="45.54911" lon="4.0778">
        <ele>524.20001220703</ele>
        <time>2016-09-11T07:11:45.000Z</time>
      </trkpt>
      <trkpt lat="45.5491" lon="4.07777">
        <ele>524.59997558594</ele>
        <time>2016-09-11T07:11:46.000Z</time>
      </trkpt>
      <trkpt lat="45.54899" lon="4.07752">
        <ele>523.79998779297</ele>
        <time>2016-09-11T07:11:54.000Z</time>
      </trkpt>
      <trkpt lat="45.54898" lon="4.07748">
        <ele>523.59997558594</ele>
        <time>2016-09-11T07:11:55.000Z</time>
      </trkpt>
      <trkpt lat="45.54896" lon="4.07744">
        <ele>523.59997558594</ele>
        <time>2016-09-11T07:11:56.000Z</time>
      </trkpt>
      <trkpt lat="45.5489" lon="4.07727">
        <ele>523</ele>
        <time>2016-09-11T07:12:00.000Z</time>
      </trkpt>
      <trkpt lat="45.54883" lon="4.07698">
        <ele>522</ele>
        <time>2016-09-11T07:12:05.000Z</time>
      </trkpt>
      <trkpt lat="45.54885" lon="4.0767">
        <ele>521.20001220703</ele>
        <time>2016-09-11T07:12:09.000Z</time>
      </trkpt>
      <trkpt lat="45.54889" lon="4.07647">
        <ele>520.40002441406</ele>
        <time>2016-09-11T07:12:12.000Z</time>
      </trkpt>
      <trkpt lat="45.54891" lon="4.0764">
        <ele>520.20001220703</ele>
        <time>2016-09-11T07:12:13.000Z</time>
      </trkpt>
      <trkpt lat="45.54894" lon="4.07607">
        <ele>519</ele>
        <time>2016-09-11T07:12:17.000Z</time>
      </trkpt>
      <trkpt lat="45.54897" lon="4.07582">
        <ele>518.40002441406</ele>
        <time>2016-09-11T07:12:20.000Z</time>
      </trkpt>
      <trkpt lat="45.549" lon="4.07565">
        <ele>518</ele>
        <time>2016-09-11T07:12:22.000Z</time>
      </trkpt>
      <trkpt lat="45.54903" lon="4.07535">
        <ele>517.20001220703</ele>
        <time>2016-09-11T07:12:26.000Z</time>
      </trkpt>
      <trkpt lat="45.54906" lon="4.07507">
        <ele>516.79998779297</ele>
        <time>2016-09-11T07:12:30.000Z</time>
      </trkpt>
      <trkpt lat="45.54909" lon="4.07479">
        <ele>516.59997558594</ele>
        <time>2016-09-11T07:12:34.000Z</time>
      </trkpt>
      <trkpt lat="45.54912" lon="4.07465">
        <ele>516.59997558594</ele>
        <time>2016-09-11T07:12:36.000Z</time>
      </trkpt>
      <trkpt lat="45.54916" lon="4.07443">
        <ele>516.59997558594</ele>
        <time>2016-09-11T07:12:39.000Z</time>
      </trkpt>
      <trkpt lat="45.54925" lon="4.07416">
        <ele>517.20001220703</ele>
        <time>2016-09-11T07:12:43.000Z</time>
      </trkpt>
      <trkpt lat="45.54928" lon="4.07386">
        <ele>517.79998779297</ele>
        <time>2016-09-11T07:12:47.000Z</time>
      </trkpt>
      <trkpt lat="45.54929" lon="4.07373">
        <ele>518.20001220703</ele>
        <time>2016-09-11T07:12:49.000Z</time>
      </trkpt>
      <trkpt lat="45.54929" lon="4.07366">
        <ele>518.40002441406</ele>
        <time>2016-09-11T07:12:50.000Z</time>
      </trkpt>
      <trkpt lat="45.5493" lon="4.07339">
        <ele>519.20001220703</ele>
        <time>2016-09-11T07:12:54.000Z</time>
      </trkpt>
      <trkpt lat="45.54931" lon="4.07326">
        <ele>519.59997558594</ele>
        <time>2016-09-11T07:12:56.000Z</time>
      </trkpt>
      <trkpt lat="45.54933" lon="4.07295">
        <ele>521.40002441406</ele>
        <time>2016-09-11T07:13:01.000Z</time>
      </trkpt>
      <trkpt lat="45.54935" lon="4.07279">
        <ele>522.40002441406</ele>
        <time>2016-09-11T07:13:04.000Z</time>
      </trkpt>
      <trkpt lat="45.54936" lon="4.07269">
        <ele>523.59997558594</ele>
        <time>2016-09-11T07:13:06.000Z</time>
      </trkpt>
      <trkpt lat="45.54937" lon="4.07255">
        <ele>525.20001220703</ele>
        <time>2016-09-11T07:13:09.000Z</time>
      </trkpt>
      <trkpt lat="45.54938" lon="4.07239">
        <ele>526.79998779297</ele>
        <time>2016-09-11T07:13:13.000Z</time>
      </trkpt>
      <trkpt lat="45.54939" lon="4.07231">
        <ele>527.20001220703</ele>
        <time>2016-09-11T07:13:15.000Z</time>
      </trkpt>
      <trkpt lat="45.5494" lon="4.0722">
        <ele>528</ele>
        <time>2016-09-11T07:13:18.000Z</time>
      </trkpt>
      <trkpt lat="45.5494" lon="4.07213">
        <ele>528.59997558594</ele>
        <time>2016-09-11T07:13:20.000Z</time>
      </trkpt>
      <trkpt lat="45.54941" lon="4.07185">
        <ele>530.59997558594</ele>
        <time>2016-09-11T07:13:28.000Z</time>
      </trkpt>
      <trkpt lat="45.54942" lon="4.0717">
        <ele>532</ele>
        <time>2016-09-11T07:13:33.000Z</time>
      </trkpt>
      <trkpt lat="45.54943" lon="4.07162">
        <ele>532.59997558594</ele>
        <time>2016-09-11T07:13:36.000Z</time>
      </trkpt>
      <trkpt lat="45.54943" lon="4.07136">
        <ele>534.20001220703</ele>
        <time>2016-09-11T07:13:45.000Z</time>
      </trkpt>
      <trkpt lat="45.54943" lon="4.07134">
        <ele>534.20001220703</ele>
        <time>2016-09-11T07:13:46.000Z</time>
      </trkpt>
      <trkpt lat="45.54943" lon="4.07131">
        <ele>534.40002441406</ele>
        <time>2016-09-11T07:13:47.000Z</time>
      </trkpt>
      <trkpt lat="45.54945" lon="4.07105">
        <ele>536.20001220703</ele>
        <time>2016-09-11T07:13:57.000Z</time>
      </trkpt>
      <trkpt lat="45.54945" lon="4.071">
        <ele>536.59997558594</ele>
        <time>2016-09-11T07:13:59.000Z</time>
      </trkpt>
      <trkpt lat="45.54945" lon="4.07097">
        <ele>537</ele>
        <time>2016-09-11T07:14:00.000Z</time>
      </trkpt>
      <trkpt lat="45.54946" lon="4.0708">
        <ele>538.79998779297</ele>
        <time>2016-09-11T07:14:07.000Z</time>
      </trkpt>
      <trkpt lat="45.54947" lon="4.07078">
        <ele>539</ele>
        <time>2016-09-11T07:14:08.000Z</time>
      </trkpt>
      <trkpt lat="45.54947" lon="4.07065">
        <ele>540.59997558594</ele>
        <time>2016-09-11T07:14:13.000Z</time>
      </trkpt>
      <trkpt lat="45.54947" lon="4.07063">
        <ele>540.79998779297</ele>
        <time>2016-09-11T07:14:14.000Z</time>
      </trkpt>
      <trkpt lat="45.54947" lon="4.07053">
        <ele>542</ele>
        <time>2016-09-11T07:14:18.000Z</time>
      </trkpt>
      <trkpt lat="45.54947" lon="4.07046">
        <ele>542.79998779297</ele>
        <time>2016-09-11T07:14:21.000Z</time>
      </trkpt>
      <trkpt lat="45.54946" lon="4.07036">
        <ele>544</ele>
        <time>2016-09-11T07:14:25.000Z</time>
      </trkpt>
      <trkpt lat="45.54945" lon="4.07026">
        <ele>545.40002441406</ele>
        <time>2016-09-11T07:14:29.000Z</time>
      </trkpt>
      <trkpt lat="45.54944" lon="4.07024">
        <ele>545.59997558594</ele>
        <time>2016-09-11T07:14:30.000Z</time>
      </trkpt>
      <trkpt lat="45.54943" lon="4.07019">
        <ele>546.20001220703</ele>
        <time>2016-09-11T07:14:32.000Z</time>
      </trkpt>
      <trkpt lat="45.54942" lon="4.07011">
        <ele>547</ele>
        <time>2016-09-11T07:14:35.000Z</time>
      </trkpt>
      <trkpt lat="45.54941" lon="4.07007">
        <ele>547.40002441406</ele>
        <time>2016-09-11T07:14:37.000Z</time>
      </trkpt>
      <trkpt lat="45.54938" lon="4.0699">
        <ele>549.20001220703</ele>
        <time>2016-09-11T07:14:44.000Z</time>
      </trkpt>
      <trkpt lat="45.54938" lon="4.06988">
        <ele>549.40002441406</ele>
        <time>2016-09-11T07:14:45.000Z</time>
      </trkpt>
      <trkpt lat="45.54936" lon="4.06965">
        <ele>551.79998779297</ele>
        <time>2016-09-11T07:14:55.000Z</time>
      </trkpt>
      <trkpt lat="45.54936" lon="4.06962">
        <ele>552</ele>
        <time>2016-09-11T07:14:56.000Z</time>
      </trkpt>
      <trkpt lat="45.54934" lon="4.06941">
        <ele>554</ele>
        <time>2016-09-11T07:15:05.000Z</time>
      </trkpt>
      <trkpt lat="45.54934" lon="4.06936">
        <ele>554.40002441406</ele>
        <time>2016-09-11T07:15:07.000Z</time>
      </trkpt>
      <trkpt lat="45.54933" lon="4.06928">
        <ele>554.79998779297</ele>
        <time>2016-09-11T07:15:11.000Z</time>
      </trkpt>
      <trkpt lat="45.54933" lon="4.06926">
        <ele>555</ele>
        <time>2016-09-11T07:15:12.000Z</time>
      </trkpt>
      <trkpt lat="45.54932" lon="4.0692">
        <ele>555.20001220703</ele>
        <time>2016-09-11T07:15:15.000Z</time>
      </trkpt>
      <trkpt lat="45.5493" lon="4.06898">
        <ele>556.40002441406</ele>
        <time>2016-09-11T07:15:24.000Z</time>
      </trkpt>
      <trkpt lat="45.54929" lon="4.06895">
        <ele>556.59997558594</ele>
        <time>2016-09-11T07:15:25.000Z</time>
      </trkpt>
      <trkpt lat="45.54928" lon="4.06885">
        <ele>557.20001220703</ele>
        <time>2016-09-11T07:15:29.000Z</time>
      </trkpt>
      <trkpt lat="45.54927" lon="4.06859">
        <ele>558.40002441406</ele>
        <time>2016-09-11T07:15:39.000Z</time>
      </trkpt>
      <trkpt lat="45.54924" lon="4.06836">
        <ele>560</ele>
        <time>2016-09-11T07:15:48.000Z</time>
      </trkpt>
      <trkpt lat="45.54924" lon="4.06833">
        <ele>560.20001220703</ele>
        <time>2016-09-11T07:15:49.000Z</time>
      </trkpt>
      <trkpt lat="45.54923" lon="4.06824">
        <ele>560.79998779297</ele>
        <time>2016-09-11T07:15:52.000Z</time>
      </trkpt>
      <trkpt lat="45.54919" lon="4.06799">
        <ele>562.79998779297</ele>
        <time>2016-09-11T07:16:01.000Z</time>
      </trkpt>
      <trkpt lat="45.54918" lon="4.06793">
        <ele>563.20001220703</ele>
        <time>2016-09-11T07:16:03.000Z</time>
      </trkpt>
      <trkpt lat="45.54918" lon="4.06789">
        <ele>563.40002441406</ele>
        <time>2016-09-11T07:16:04.000Z</time>
      </trkpt>
      <trkpt lat="45.54915" lon="4.06761">
        <ele>565</ele>
        <time>2016-09-11T07:16:13.000Z</time>
      </trkpt>
      <trkpt lat="45.54915" lon="4.06753">
        <ele>565.40002441406</ele>
        <time>2016-09-11T07:16:15.000Z</time>
      </trkpt>
      <trkpt lat="45.54915" lon="4.06749">
        <ele>565.59997558594</ele>
        <time>2016-09-11T07:16:16.000Z</time>
      </trkpt>
      <trkpt lat="45.54914" lon="4.0673">
        <ele>566.20001220703</ele>
        <time>2016-09-11T07:16:21.000Z</time>
      </trkpt>
      <trkpt lat="45.54914" lon="4.06726">
        <ele>566.40002441406</ele>
        <time>2016-09-11T07:16:22.000Z</time>
      </trkpt>
      <trkpt lat="45.54914" lon="4.06711">
        <ele>567.40002441406</ele>
        <time>2016-09-11T07:16:26.000Z</time>
      </trkpt>
      <trkpt lat="45.54915" lon="4.06682">
        <ele>569.20001220703</ele>
        <time>2016-09-11T07:16:34.000Z</time>
      </trkpt>
      <trkpt lat="45.54915" lon="4.0667">
        <ele>569.59997558594</ele>
        <time>2016-09-11T07:16:38.000Z</time>
      </trkpt>
      <trkpt lat="45.54916" lon="4.06667">
        <ele>569.59997558594</ele>
        <time>2016-09-11T07:16:39.000Z</time>
      </trkpt>
      <trkpt lat="45.54921" lon="4.06646">
        <ele>570.20001220703</ele>
        <time>2016-09-11T07:16:46.000Z</time>
      </trkpt>
      <trkpt lat="45.54922" lon="4.06643">
        <ele>570.20001220703</ele>
        <time>2016-09-11T07:16:47.000Z</time>
      </trkpt>
      <trkpt lat="45.54924" lon="4.06638">
        <ele>570.59997558594</ele>
        <time>2016-09-11T07:16:49.000Z</time>
      </trkpt>
      <trkpt lat="45.54931" lon="4.06626">
        <ele>571.40002441406</ele>
        <time>2016-09-11T07:16:54.000Z</time>
      </trkpt>
      <trkpt lat="45.54932" lon="4.06624">
        <ele>571.40002441406</ele>
        <time>2016-09-11T07:16:55.000Z</time>
      </trkpt>
      <trkpt lat="45.54938" lon="4.06615">
        <ele>572</ele>
        <time>2016-09-11T07:16:59.000Z</time>
      </trkpt>
      <trkpt lat="45.5494" lon="4.06613">
        <ele>572.20001220703</ele>
        <time>2016-09-11T07:17:00.000Z</time>
      </trkpt>
      <trkpt lat="45.54943" lon="4.06608">
        <ele>572.40002441406</ele>
        <time>2016-09-11T07:17:02.000Z</time>
      </trkpt>
      <trkpt lat="45.54949" lon="4.06598">
        <ele>573.40002441406</ele>
        <time>2016-09-11T07:17:06.000Z</time>
      </trkpt>
      <trkpt lat="45.54955" lon="4.06589">
        <ele>574</ele>
        <time>2016-09-11T07:17:09.000Z</time>
      </trkpt>
      <trkpt lat="45.54966" lon="4.06569">
        <ele>575.40002441406</ele>
        <time>2016-09-11T07:17:16.000Z</time>
      </trkpt>
      <trkpt lat="45.54968" lon="4.06566">
        <ele>575.59997558594</ele>
        <time>2016-09-11T07:17:17.000Z</time>
      </trkpt>
      <trkpt lat="45.54971" lon="4.06559">
        <ele>576</ele>
        <time>2016-09-11T07:17:19.000Z</time>
      </trkpt>
      <trkpt lat="45.54976" lon="4.06547">
        <ele>576.59997558594</ele>
        <time>2016-09-11T07:17:23.000Z</time>
      </trkpt>
      <trkpt lat="45.54977" lon="4.06544">
        <ele>576.79998779297</ele>
        <time>2016-09-11T07:17:24.000Z</time>
      </trkpt>
      <trkpt lat="45.54981" lon="4.06534">
        <ele>577.20001220703</ele>
        <time>2016-09-11T07:17:27.000Z</time>
      </trkpt>
      <trkpt lat="45.54983" lon="4.06528">
        <ele>577.59997558594</ele>
        <time>2016-09-11T07:17:29.000Z</time>
      </trkpt>
      <trkpt lat="45.54988" lon="4.06514">
        <ele>578.59997558594</ele>
        <time>2016-09-11T07:17:34.000Z</time>
      </trkpt>
      <trkpt lat="45.54989" lon="4.06511">
        <ele>578.79998779297</ele>
        <time>2016-09-11T07:17:35.000Z</time>
      </trkpt>
      <trkpt lat="45.54993" lon="4.065">
        <ele>579.59997558594</ele>
        <time>2016-09-11T07:17:39.000Z</time>
      </trkpt>
      <trkpt lat="45.54998" lon="4.06477">
        <ele>581.20001220703</ele>
        <time>2016-09-11T07:17:47.000Z</time>
      </trkpt>
      <trkpt lat="45.54999" lon="4.06471">
        <ele>581.59997558594</ele>
        <time>2016-09-11T07:17:49.000Z</time>
      </trkpt>
      <trkpt lat="45.54999" lon="4.06459">
        <ele>582.40002441406</ele>
        <time>2016-09-11T07:17:53.000Z</time>
      </trkpt>
      <trkpt lat="45.54999" lon="4.06456">
        <ele>582.59997558594</ele>
        <time>2016-09-11T07:17:54.000Z</time>
      </trkpt>
      <trkpt lat="45.55" lon="4.06429">
        <ele>584.59997558594</ele>
        <time>2016-09-11T07:18:04.000Z</time>
      </trkpt>
      <trkpt lat="45.55" lon="4.06426">
        <ele>584.79998779297</ele>
        <time>2016-09-11T07:18:05.000Z</time>
      </trkpt>
      <trkpt lat="45.55" lon="4.0642">
        <ele>585.20001220703</ele>
        <time>2016-09-11T07:18:07.000Z</time>
      </trkpt>
      <trkpt lat="45.54999" lon="4.06415">
        <ele>585.59997558594</ele>
        <time>2016-09-11T07:18:09.000Z</time>
      </trkpt>
      <trkpt lat="45.54984" lon="4.06401">
        <ele>586.79998779297</ele>
        <time>2016-09-11T07:18:19.000Z</time>
      </trkpt>
      <trkpt lat="45.54967" lon="4.0639">
        <ele>587.79998779297</ele>
        <time>2016-09-11T07:18:27.000Z</time>
      </trkpt>
      <trkpt lat="45.54965" lon="4.06388">
        <ele>588</ele>
        <time>2016-09-11T07:18:28.000Z</time>
      </trkpt>
      <trkpt lat="45.54949" lon="4.06372">
        <ele>589</ele>
        <time>2016-09-11T07:18:36.000Z</time>
      </trkpt>
      <trkpt lat="45.54947" lon="4.0637">
        <ele>589.20001220703</ele>
        <time>2016-09-11T07:18:37.000Z</time>
      </trkpt>
      <trkpt lat="45.54932" lon="4.06356">
        <ele>590.40002441406</ele>
        <time>2016-09-11T07:18:47.000Z</time>
      </trkpt>
      <trkpt lat="45.54918" lon="4.06339">
        <ele>592</ele>
        <time>2016-09-11T07:18:59.000Z</time>
      </trkpt>
      <trkpt lat="45.54916" lon="4.06336">
        <ele>592.20001220703</ele>
        <time>2016-09-11T07:19:01.000Z</time>
      </trkpt>
      <trkpt lat="45.54915" lon="4.06335">
        <ele>592.40002441406</ele>
        <time>2016-09-11T07:19:02.000Z</time>
      </trkpt>
      <trkpt lat="45.54901" lon="4.06317">
        <ele>594</ele>
        <time>2016-09-11T07:19:14.000Z</time>
      </trkpt>
      <trkpt lat="45.549" lon="4.06316">
        <ele>594.20001220703</ele>
        <time>2016-09-11T07:19:15.000Z</time>
      </trkpt>
      <trkpt lat="45.54898" lon="4.06314">
        <ele>594.40002441406</ele>
        <time>2016-09-11T07:19:17.000Z</time>
      </trkpt>
      <trkpt lat="45.54885" lon="4.06297">
        <ele>596</ele>
        <time>2016-09-11T07:19:32.000Z</time>
      </trkpt>
      <trkpt lat="45.54875" lon="4.06283">
        <ele>596.59997558594</ele>
        <time>2016-09-11T07:19:43.000Z</time>
      </trkpt>
      <trkpt lat="45.54875" lon="4.06282">
        <ele>596.79998779297</ele>
        <time>2016-09-11T07:19:44.000Z</time>
      </trkpt>
      <trkpt lat="45.54872" lon="4.06278">
        <ele>597</ele>
        <time>2016-09-11T07:19:48.000Z</time>
      </trkpt>
      <trkpt lat="45.54871" lon="4.06276">
        <ele>597</ele>
        <time>2016-09-11T07:19:49.000Z</time>
      </trkpt>
      <trkpt lat="45.54869" lon="4.06273">
        <ele>597.20001220703</ele>
        <time>2016-09-11T07:19:51.000Z</time>
      </trkpt>
      <trkpt lat="45.54856" lon="4.06254">
        <ele>598.20001220703</ele>
        <time>2016-09-11T07:20:07.000Z</time>
      </trkpt>
      <trkpt lat="45.54844" lon="4.06234">
        <ele>599.59997558594</ele>
        <time>2016-09-11T07:20:17.000Z</time>
      </trkpt>
      <trkpt lat="45.54841" lon="4.0623">
        <ele>599.79998779297</ele>
        <time>2016-09-11T07:20:19.000Z</time>
      </trkpt>
      <trkpt lat="45.5484" lon="4.06228">
        <ele>600</ele>
        <time>2016-09-11T07:20:20.000Z</time>
      </trkpt>
      <trkpt lat="45.54828" lon="4.06204">
        <ele>601.59997558594</ele>
        <time>2016-09-11T07:20:29.000Z</time>
      </trkpt>
      <trkpt lat="45.54818" lon="4.06182">
        <ele>603.20001220703</ele>
        <time>2016-09-11T07:20:37.000Z</time>
      </trkpt>
      <trkpt lat="45.54814" lon="4.06174">
        <ele>603.59997558594</ele>
        <time>2016-09-11T07:20:40.000Z</time>
      </trkpt>
      <trkpt lat="45.54812" lon="4.06171">
        <ele>603.59997558594</ele>
        <time>2016-09-11T07:20:41.000Z</time>
      </trkpt>
      <trkpt lat="45.54807" lon="4.06159">
        <ele>604.40002441406</ele>
        <time>2016-09-11T07:20:45.000Z</time>
      </trkpt>
      <trkpt lat="45.54797" lon="4.06134">
        <ele>605.20001220703</ele>
        <time>2016-09-11T07:20:53.000Z</time>
      </trkpt>
      <trkpt lat="45.54789" lon="4.06118">
        <ele>605.40002441406</ele>
        <time>2016-09-11T07:20:59.000Z</time>
      </trkpt>
      <trkpt lat="45.54788" lon="4.06115">
        <ele>605.40002441406</ele>
        <time>2016-09-11T07:21:00.000Z</time>
      </trkpt>
      <trkpt lat="45.54786" lon="4.0611">
        <ele>605.40002441406</ele>
        <time>2016-09-11T07:21:02.000Z</time>
      </trkpt>
      <trkpt lat="45.54773" lon="4.0609">
        <ele>604.79998779297</ele>
        <time>2016-09-11T07:21:11.000Z</time>
      </trkpt>
      <trkpt lat="45.54759" lon="4.06077">
        <ele>603.40002441406</ele>
        <time>2016-09-11T07:21:16.000Z</time>
      </trkpt>
      <trkpt lat="45.54755" lon="4.06073">
        <ele>602.79998779297</ele>
        <time>2016-09-11T07:21:17.000Z</time>
      </trkpt>
      <trkpt lat="45.54741" lon="4.06063">
        <ele>601.40002441406</ele>
        <time>2016-09-11T07:21:20.000Z</time>
      </trkpt>
      <trkpt lat="45.54721" lon="4.0605">
        <ele>598.79998779297</ele>
        <time>2016-09-11T07:21:24.000Z</time>
      </trkpt>
      <trkpt lat="45.54697" lon="4.06044">
        <ele>597.59997558594</ele>
        <time>2016-09-11T07:21:28.000Z</time>
      </trkpt>
      <trkpt lat="45.54681" lon="4.06042">
        <ele>596.59997558594</ele>
        <time>2016-09-11T07:21:31.000Z</time>
      </trkpt>
      <trkpt lat="45.5467" lon="4.06042">
        <ele>596</ele>
        <time>2016-09-11T07:21:33.000Z</time>
      </trkpt>
      <trkpt lat="45.5465" lon="4.0604">
        <ele>595</ele>
        <time>2016-09-11T07:21:37.000Z</time>
      </trkpt>
      <trkpt lat="45.54645" lon="4.0604">
        <ele>594.79998779297</ele>
        <time>2016-09-11T07:21:38.000Z</time>
      </trkpt>
      <trkpt lat="45.54624" lon="4.0604">
        <ele>594.79998779297</ele>
        <time>2016-09-11T07:21:43.000Z</time>
      </trkpt>
      <trkpt lat="45.54624" lon="4.0603">
        <ele>595.40002441406</ele>
        <time>2016-09-11T07:21:48.000Z</time>
      </trkpt>
      <trkpt lat="45.54626" lon="4.06027">
        <ele>595.40002441406</ele>
        <time>2016-09-11T07:21:49.000Z</time>
      </trkpt>
      <trkpt lat="45.54638" lon="4.06007">
        <ele>596.59997558594</ele>
        <time>2016-09-11T07:21:55.000Z</time>
      </trkpt>
      <trkpt lat="45.5465" lon="4.05983">
        <ele>599</ele>
        <time>2016-09-11T07:22:01.000Z</time>
      </trkpt>
      <trkpt lat="45.5465" lon="4.05956">
        <ele>601</ele>
        <time>2016-09-11T07:22:07.000Z</time>
      </trkpt>
      <trkpt lat="45.54649" lon="4.05952">
        <ele>601.20001220703</ele>
        <time>2016-09-11T07:22:08.000Z</time>
      </trkpt>
      <trkpt lat="45.54647" lon="4.05944">
        <ele>601.59997558594</ele>
        <time>2016-09-11T07:22:10.000Z</time>
      </trkpt>
      <trkpt lat="45.5464" lon="4.05916">
        <ele>603.20001220703</ele>
        <time>2016-09-11T07:22:17.000Z</time>
      </trkpt>
      <trkpt lat="45.54638" lon="4.05888">
        <ele>605.20001220703</ele>
        <time>2016-09-11T07:22:24.000Z</time>
      </trkpt>
      <trkpt lat="45.5463" lon="4.05869">
        <ele>605.79998779297</ele>
        <time>2016-09-11T07:22:32.000Z</time>
      </trkpt>
      <trkpt lat="45.54615" lon="4.05859">
        <ele>604.79998779297</ele>
        <time>2016-09-11T07:22:36.000Z</time>
      </trkpt>
      <trkpt lat="45.54611" lon="4.05857">
        <ele>604.20001220703</ele>
        <time>2016-09-11T07:22:37.000Z</time>
      </trkpt>
      <trkpt lat="45.54597" lon="4.05848">
        <ele>602.79998779297</ele>
        <time>2016-09-11T07:22:40.000Z</time>
      </trkpt>
      <trkpt lat="45.54582" lon="4.05833">
        <ele>601</ele>
        <time>2016-09-11T07:22:44.000Z</time>
      </trkpt>
      <trkpt lat="45.54567" lon="4.05817">
        <ele>599.40002441406</ele>
        <time>2016-09-11T07:22:48.000Z</time>
      </trkpt>
      <trkpt lat="45.54563" lon="4.05813">
        <ele>599</ele>
        <time>2016-09-11T07:22:49.000Z</time>
      </trkpt>
      <trkpt lat="45.54548" lon="4.05793">
        <ele>597.20001220703</ele>
        <time>2016-09-11T07:22:55.000Z</time>
      </trkpt>
      <trkpt lat="45.54546" lon="4.05789">
        <ele>597</ele>
        <time>2016-09-11T07:22:56.000Z</time>
      </trkpt>
      <trkpt lat="45.54533" lon="4.05766">
        <ele>594.79998779297</ele>
        <time>2016-09-11T07:23:02.000Z</time>
      </trkpt>
      <trkpt lat="45.54521" lon="4.05757">
        <ele>592.59997558594</ele>
        <time>2016-09-11T07:23:06.000Z</time>
      </trkpt>
      <trkpt lat="45.54517" lon="4.05755">
        <ele>592</ele>
        <time>2016-09-11T07:23:07.000Z</time>
      </trkpt>
      <trkpt lat="45.545" lon="4.05747">
        <ele>588.59997558594</ele>
        <time>2016-09-11T07:23:12.000Z</time>
      </trkpt>
      <trkpt lat="45.54494" lon="4.05745">
        <ele>587.59997558594</ele>
        <time>2016-09-11T07:23:14.000Z</time>
      </trkpt>
      <trkpt lat="45.5449" lon="4.05743">
        <ele>586.79998779297</ele>
        <time>2016-09-11T07:23:15.000Z</time>
      </trkpt>
      <trkpt lat="45.54472" lon="4.05728">
        <ele>584</ele>
        <time>2016-09-11T07:23:20.000Z</time>
      </trkpt>
      <trkpt lat="45.5447" lon="4.05724">
        <ele>583.59997558594</ele>
        <time>2016-09-11T07:23:21.000Z</time>
      </trkpt>
      <trkpt lat="45.54454" lon="4.05703">
        <ele>582</ele>
        <time>2016-09-11T07:23:27.000Z</time>
      </trkpt>
      <trkpt lat="45.54447" lon="4.05694">
        <ele>581.59997558594</ele>
        <time>2016-09-11T07:23:29.000Z</time>
      </trkpt>
      <trkpt lat="45.54444" lon="4.05689">
        <ele>581.20001220703</ele>
        <time>2016-09-11T07:23:30.000Z</time>
      </trkpt>
      <trkpt lat="45.54428" lon="4.05667">
        <ele>580.20001220703</ele>
        <time>2016-09-11T07:23:35.000Z</time>
      </trkpt>
      <trkpt lat="45.5441" lon="4.05666">
        <ele>577.20001220703</ele>
        <time>2016-09-11T07:23:41.000Z</time>
      </trkpt>
      <trkpt lat="45.54402" lon="4.0567">
        <ele>575.59997558594</ele>
        <time>2016-09-11T07:23:52.000Z</time>
      </trkpt>
      <trkpt lat="45.54385" lon="4.05678">
        <ele>572.20001220703</ele>
        <time>2016-09-11T07:24:05.000Z</time>
      </trkpt>
      <trkpt lat="45.54376" lon="4.05681">
        <ele>572.79998779297</ele>
        <time>2016-09-11T07:24:15.000Z</time>
      </trkpt>
      <trkpt lat="45.54372" lon="4.05682">
        <ele>573.40002441406</ele>
        <time>2016-09-11T07:24:21.000Z</time>
      </trkpt>
      <trkpt lat="45.54369" lon="4.05681">
        <ele>573.79998779297</ele>
        <time>2016-09-11T07:24:25.000Z</time>
      </trkpt>
      <trkpt lat="45.54356" lon="4.05687">
        <ele>574.79998779297</ele>
        <time>2016-09-11T07:24:35.000Z</time>
      </trkpt>
      <trkpt lat="45.54355" lon="4.05688">
        <ele>574.79998779297</ele>
        <time>2016-09-11T07:24:36.000Z</time>
      </trkpt>
      <trkpt lat="45.54347" lon="4.05694">
        <ele>575.40002441406</ele>
        <time>2016-09-11T07:24:45.000Z</time>
      </trkpt>
      <trkpt lat="45.54346" lon="4.05695">
        <ele>575.40002441406</ele>
        <time>2016-09-11T07:24:46.000Z</time>
      </trkpt>
      <trkpt lat="45.54336" lon="4.05699">
        <ele>576.40002441406</ele>
        <time>2016-09-11T07:24:54.000Z</time>
      </trkpt>
      <trkpt lat="45.54328" lon="4.05701">
        <ele>577.20001220703</ele>
        <time>2016-09-11T07:25:00.000Z</time>
      </trkpt>
      <trkpt lat="45.54325" lon="4.05702">
        <ele>577.59997558594</ele>
        <time>2016-09-11T07:25:02.000Z</time>
      </trkpt>
      <trkpt lat="45.54319" lon="4.05703">
        <ele>578.20001220703</ele>
        <time>2016-09-11T07:25:11.000Z</time>
      </trkpt>
      <trkpt lat="45.54301" lon="4.05702">
        <ele>580.20001220703</ele>
        <time>2016-09-11T07:25:22.000Z</time>
      </trkpt>
      <trkpt lat="45.54294" lon="4.057">
        <ele>580.59997558594</ele>
        <time>2016-09-11T07:25:26.000Z</time>
      </trkpt>
      <trkpt lat="45.54292" lon="4.057">
        <ele>580.59997558594</ele>
        <time>2016-09-11T07:25:27.000Z</time>
      </trkpt>
      <trkpt lat="45.54281" lon="4.05698">
        <ele>580.79998779297</ele>
        <time>2016-09-11T07:25:33.000Z</time>
      </trkpt>
      <trkpt lat="45.54279" lon="4.05698">
        <ele>581</ele>
        <time>2016-09-11T07:25:34.000Z</time>
      </trkpt>
      <trkpt lat="45.54272" lon="4.05695">
        <ele>581.20001220703</ele>
        <time>2016-09-11T07:25:38.000Z</time>
      </trkpt>
      <trkpt lat="45.54268" lon="4.05693">
        <ele>581.40002441406</ele>
        <time>2016-09-11T07:25:40.000Z</time>
      </trkpt>
      <trkpt lat="45.54253" lon="4.05686">
        <ele>581.59997558594</ele>
        <time>2016-09-11T07:25:46.000Z</time>
      </trkpt>
      <trkpt lat="45.54236" lon="4.05677">
        <ele>581.79998779297</ele>
        <time>2016-09-11T07:25:51.000Z</time>
      </trkpt>
      <trkpt lat="45.54237" lon="4.05651">
        <ele>581.79998779297</ele>
        <time>2016-09-11T07:25:56.000Z</time>
      </trkpt>
      <trkpt lat="45.54239" lon="4.05646">
        <ele>581.79998779297</ele>
        <time>2016-09-11T07:25:57.000Z</time>
      </trkpt>
      <trkpt lat="45.54241" lon="4.0564">
        <ele>581.79998779297</ele>
        <time>2016-09-11T07:25:58.000Z</time>
      </trkpt>
      <trkpt lat="45.54243" lon="4.05613">
        <ele>583.40002441406</ele>
        <time>2016-09-11T07:26:02.000Z</time>
      </trkpt>
      <trkpt lat="45.5424" lon="4.05601">
        <ele>583.59997558594</ele>
        <time>2016-09-11T07:26:04.000Z</time>
      </trkpt>
      <trkpt lat="45.54239" lon="4.05595">
        <ele>583.59997558594</ele>
        <time>2016-09-11T07:26:05.000Z</time>
      </trkpt>
      <trkpt lat="45.5423" lon="4.05567">
        <ele>583</ele>
        <time>2016-09-11T07:26:10.000Z</time>
      </trkpt>
      <trkpt lat="45.54222" lon="4.05542">
        <ele>582.40002441406</ele>
        <time>2016-09-11T07:26:14.000Z</time>
      </trkpt>
      <trkpt lat="45.54221" lon="4.05516">
        <ele>580.59997558594</ele>
        <time>2016-09-11T07:26:18.000Z</time>
      </trkpt>
      <trkpt lat="45.54235" lon="4.05496">
        <ele>578.20001220703</ele>
        <time>2016-09-11T07:26:22.000Z</time>
      </trkpt>
      <trkpt lat="45.54247" lon="4.05481">
        <ele>576.79998779297</ele>
        <time>2016-09-11T07:26:25.000Z</time>
      </trkpt>
      <trkpt lat="45.54251" lon="4.05475">
        <ele>576.20001220703</ele>
        <time>2016-09-11T07:26:26.000Z</time>
      </trkpt>
      <trkpt lat="45.54265" lon="4.0545">
        <ele>577.79998779297</ele>
        <time>2016-09-11T07:26:30.000Z</time>
      </trkpt>
      <trkpt lat="45.54276" lon="4.05432">
        <ele>578</ele>
        <time>2016-09-11T07:26:33.000Z</time>
      </trkpt>
      <trkpt lat="45.54286" lon="4.05416">
        <ele>579</ele>
        <time>2016-09-11T07:26:36.000Z</time>
      </trkpt>
      <trkpt lat="45.54298" lon="4.05399">
        <ele>582</ele>
        <time>2016-09-11T07:26:40.000Z</time>
      </trkpt>
      <trkpt lat="45.54301" lon="4.05388">
        <ele>582.40002441406</ele>
        <time>2016-09-11T07:26:49.000Z</time>
      </trkpt>
      <trkpt lat="45.54282" lon="4.05398">
        <ele>576.79998779297</ele>
        <time>2016-09-11T07:26:55.000Z</time>
      </trkpt>
      <trkpt lat="45.54277" lon="4.05402">
        <ele>575.40002441406</ele>
        <time>2016-09-11T07:26:56.000Z</time>
      </trkpt>
      <trkpt lat="45.54262" lon="4.05416">
        <ele>572.59997558594</ele>
        <time>2016-09-11T07:27:00.000Z</time>
      </trkpt>
      <trkpt lat="45.54259" lon="4.0542">
        <ele>572.40002441406</ele>
        <time>2016-09-11T07:27:01.000Z</time>
      </trkpt>
      <trkpt lat="45.54252" lon="4.05425">
        <ele>571.79998779297</ele>
        <time>2016-09-11T07:27:03.000Z</time>
      </trkpt>
      <trkpt lat="45.54236" lon="4.05443">
        <ele>571</ele>
        <time>2016-09-11T07:27:08.000Z</time>
      </trkpt>
      <trkpt lat="45.5422" lon="4.0545">
        <ele>568.59997558594</ele>
        <time>2016-09-11T07:27:12.000Z</time>
      </trkpt>
      <trkpt lat="45.54216" lon="4.05451">
        <ele>568.20001220703</ele>
        <time>2016-09-11T07:27:13.000Z</time>
      </trkpt>
      <trkpt lat="45.54197" lon="4.05455">
        <ele>562.59997558594</ele>
        <time>2016-09-11T07:27:18.000Z</time>
      </trkpt>
      <trkpt lat="45.54178" lon="4.05461">
        <ele>557.59997558594</ele>
        <time>2016-09-11T07:27:24.000Z</time>
      </trkpt>
      <trkpt lat="45.54165" lon="4.0547">
        <ele>555</ele>
        <time>2016-09-11T07:27:27.000Z</time>
      </trkpt>
      <trkpt lat="45.54161" lon="4.05473">
        <ele>554.20001220703</ele>
        <time>2016-09-11T07:27:28.000Z</time>
      </trkpt>
      <trkpt lat="45.5415" lon="4.05497">
        <ele>554.59997558594</ele>
        <time>2016-09-11T07:27:32.000Z</time>
      </trkpt>
      <trkpt lat="45.5415" lon="4.05527">
        <ele>559.40002441406</ele>
        <time>2016-09-11T07:27:36.000Z</time>
      </trkpt>
      <trkpt lat="45.5415" lon="4.05543">
        <ele>559.59997558594</ele>
        <time>2016-09-11T07:27:38.000Z</time>
      </trkpt>
      <trkpt lat="45.54151" lon="4.0555">
        <ele>559.79998779297</ele>
        <time>2016-09-11T07:27:39.000Z</time>
      </trkpt>
      <trkpt lat="45.54148" lon="4.05577">
        <ele>560.59997558594</ele>
        <time>2016-09-11T07:27:44.000Z</time>
      </trkpt>
      <trkpt lat="45.54132" lon="4.05594">
        <ele>556.79998779297</ele>
        <time>2016-09-11T07:27:49.000Z</time>
      </trkpt>
      <trkpt lat="45.5413" lon="4.05596">
        <ele>556.40002441406</ele>
        <time>2016-09-11T07:27:50.000Z</time>
      </trkpt>
      <trkpt lat="45.54116" lon="4.0561">
        <ele>552.79998779297</ele>
        <time>2016-09-11T07:27:56.000Z</time>
      </trkpt>
      <trkpt lat="45.54115" lon="4.05613">
        <ele>552.40002441406</ele>
        <time>2016-09-11T07:27:57.000Z</time>
      </trkpt>
      <trkpt lat="45.54108" lon="4.05638">
        <ele>551.40002441406</ele>
        <time>2016-09-11T07:28:04.000Z</time>
      </trkpt>
      <trkpt lat="45.54093" lon="4.05651">
        <ele>547.59997558594</ele>
        <time>2016-09-11T07:28:10.000Z</time>
      </trkpt>
      <trkpt lat="45.54077" lon="4.0567">
        <ele>543.79998779297</ele>
        <time>2016-09-11T07:28:16.000Z</time>
      </trkpt>
      <trkpt lat="45.54062" lon="4.05687">
        <ele>540</ele>
        <time>2016-09-11T07:28:21.000Z</time>
      </trkpt>
      <trkpt lat="45.54056" lon="4.05694">
        <ele>538.79998779297</ele>
        <time>2016-09-11T07:28:23.000Z</time>
      </trkpt>
      <trkpt lat="45.54048" lon="4.05702">
        <ele>538.40002441406</ele>
        <time>2016-09-11T07:28:25.000Z</time>
      </trkpt>
      <trkpt lat="45.54029" lon="4.05714">
        <ele>538.59997558594</ele>
        <time>2016-09-11T07:28:30.000Z</time>
      </trkpt>
      <trkpt lat="45.54016" lon="4.05726">
        <ele>539.20001220703</ele>
        <time>2016-09-11T07:28:33.000Z</time>
      </trkpt>
      <trkpt lat="45.54009" lon="4.05733">
        <ele>539.59997558594</ele>
        <time>2016-09-11T07:28:35.000Z</time>
      </trkpt>
      <trkpt lat="45.53998" lon="4.05746">
        <ele>538</ele>
        <time>2016-09-11T07:28:39.000Z</time>
      </trkpt>
      <trkpt lat="45.53996" lon="4.0575">
        <ele>537.79998779297</ele>
        <time>2016-09-11T07:28:40.000Z</time>
      </trkpt>
      <trkpt lat="45.53984" lon="4.05769">
        <ele>535.79998779297</ele>
        <time>2016-09-11T07:28:45.000Z</time>
      </trkpt>
      <trkpt lat="45.53967" lon="4.05779">
        <ele>532.79998779297</ele>
        <time>2016-09-11T07:28:50.000Z</time>
      </trkpt>
      <trkpt lat="45.53949" lon="4.05777">
        <ele>530.59997558594</ele>
        <time>2016-09-11T07:28:57.000Z</time>
      </trkpt>
      <trkpt lat="45.53939" lon="4.05776">
        <ele>529.59997558594</ele>
        <time>2016-09-11T07:29:01.000Z</time>
      </trkpt>
      <trkpt lat="45.53937" lon="4.05777">
        <ele>529.79998779297</ele>
        <time>2016-09-11T07:29:02.000Z</time>
      </trkpt>
      <trkpt lat="45.5393" lon="4.05781">
        <ele>530</ele>
        <time>2016-09-11T07:29:05.000Z</time>
      </trkpt>
      <trkpt lat="45.53913" lon="4.0579">
        <ele>530.79998779297</ele>
        <time>2016-09-11T07:29:11.000Z</time>
      </trkpt>
      <trkpt lat="45.53909" lon="4.05791">
        <ele>531</ele>
        <time>2016-09-11T07:29:12.000Z</time>
      </trkpt>
      <trkpt lat="45.53906" lon="4.05793">
        <ele>531.20001220703</ele>
        <time>2016-09-11T07:29:13.000Z</time>
      </trkpt>
      <trkpt lat="45.53887" lon="4.05805">
        <ele>529</ele>
        <time>2016-09-11T07:29:17.000Z</time>
      </trkpt>
      <trkpt lat="45.53869" lon="4.05808">
        <ele>528.20001220703</ele>
        <time>2016-09-11T07:29:22.000Z</time>
      </trkpt>
      <trkpt lat="45.53851" lon="4.05803">
        <ele>527.40002441406</ele>
        <time>2016-09-11T07:29:26.000Z</time>
      </trkpt>
      <trkpt lat="45.5384" lon="4.05803">
        <ele>527.40002441406</ele>
        <time>2016-09-11T07:29:28.000Z</time>
      </trkpt>
      <trkpt lat="45.53835" lon="4.05804">
        <ele>527.40002441406</ele>
        <time>2016-09-11T07:29:29.000Z</time>
      </trkpt>
      <trkpt lat="45.53816" lon="4.05807">
        <ele>525.79998779297</ele>
        <time>2016-09-11T07:29:34.000Z</time>
      </trkpt>
      <trkpt lat="45.53802" lon="4.05825">
        <ele>524.20001220703</ele>
        <time>2016-09-11T07:29:38.000Z</time>
      </trkpt>
      <trkpt lat="45.53787" lon="4.05849">
        <ele>526.79998779297</ele>
        <time>2016-09-11T07:29:42.000Z</time>
      </trkpt>
      <trkpt lat="45.5377" lon="4.0586">
        <ele>526</ele>
        <time>2016-09-11T07:29:47.000Z</time>
      </trkpt>
      <trkpt lat="45.53751" lon="4.05858">
        <ele>527.20001220703</ele>
        <time>2016-09-11T07:29:54.000Z</time>
      </trkpt>
      <trkpt lat="45.53743" lon="4.05864">
        <ele>528.20001220703</ele>
        <time>2016-09-11T07:29:58.000Z</time>
      </trkpt>
      <trkpt lat="45.53741" lon="4.05866">
        <ele>528.59997558594</ele>
        <time>2016-09-11T07:29:59.000Z</time>
      </trkpt>
      <trkpt lat="45.53723" lon="4.05867">
        <ele>529.40002441406</ele>
        <time>2016-09-11T07:30:06.000Z</time>
      </trkpt>
      <trkpt lat="45.53702" lon="4.05857">
        <ele>530.59997558594</ele>
        <time>2016-09-11T07:30:15.000Z</time>
      </trkpt>
      <trkpt lat="45.53682" lon="4.05855">
        <ele>532.79998779297</ele>
        <time>2016-09-11T07:30:21.000Z</time>
      </trkpt>
      <trkpt lat="45.5367" lon="4.05857">
        <ele>533</ele>
        <time>2016-09-11T07:30:25.000Z</time>
      </trkpt>
      <trkpt lat="45.53667" lon="4.05858">
        <ele>533.20001220703</ele>
        <time>2016-09-11T07:30:26.000Z</time>
      </trkpt>
      <trkpt lat="45.5366" lon="4.05858">
        <ele>533.59997558594</ele>
        <time>2016-09-11T07:30:28.000Z</time>
      </trkpt>
      <trkpt lat="45.5364" lon="4.05861">
        <ele>534.40002441406</ele>
        <time>2016-09-11T07:30:36.000Z</time>
      </trkpt>
      <trkpt lat="45.53621" lon="4.05864">
        <ele>535.40002441406</ele>
        <time>2016-09-11T07:30:46.000Z</time>
      </trkpt>
      <trkpt lat="45.53603" lon="4.0586">
        <ele>537.20001220703</ele>
        <time>2016-09-11T07:30:55.000Z</time>
      </trkpt>
      <trkpt lat="45.53582" lon="4.05861">
        <ele>538.59997558594</ele>
        <time>2016-09-11T07:31:04.000Z</time>
      </trkpt>
      <trkpt lat="45.53573" lon="4.05863">
        <ele>539</ele>
        <time>2016-09-11T07:31:09.000Z</time>
      </trkpt>
      <trkpt lat="45.53571" lon="4.05863">
        <ele>539.20001220703</ele>
        <time>2016-09-11T07:31:10.000Z</time>
      </trkpt>
      <trkpt lat="45.53565" lon="4.05883">
        <ele>539</ele>
        <time>2016-09-11T07:31:26.000Z</time>
      </trkpt>
      <trkpt lat="45.53567" lon="4.05885">
        <ele>538.59997558594</ele>
        <time>2016-09-11T07:31:30.000Z</time>
      </trkpt>
      <trkpt lat="45.53583" lon="4.05897">
        <ele>535.79998779297</ele>
        <time>2016-09-11T07:31:45.000Z</time>
      </trkpt>
      <trkpt lat="45.5359" lon="4.05898">
        <ele>534.40002441406</ele>
        <time>2016-09-11T07:31:50.000Z</time>
      </trkpt>
      <trkpt lat="45.53591" lon="4.05897">
        <ele>534.40002441406</ele>
        <time>2016-09-11T07:31:51.000Z</time>
      </trkpt>
      <trkpt lat="45.53597" lon="4.05901">
        <ele>533.59997558594</ele>
        <time>2016-09-11T07:31:57.000Z</time>
      </trkpt>
      <trkpt lat="45.53599" lon="4.05901">
        <ele>533.40002441406</ele>
        <time>2016-09-11T07:31:58.000Z</time>
      </trkpt>
      <trkpt lat="45.53616" lon="4.05913">
        <ele>531.20001220703</ele>
        <time>2016-09-11T07:32:10.000Z</time>
      </trkpt>
      <trkpt lat="45.53631" lon="4.05928">
        <ele>528.59997558594</ele>
        <time>2016-09-11T07:32:21.000Z</time>
      </trkpt>
      <trkpt lat="45.53645" lon="4.05945">
        <ele>526</ele>
        <time>2016-09-11T07:32:35.000Z</time>
      </trkpt>
      <trkpt lat="45.53646" lon="4.0597">
        <ele>525.79998779297</ele>
        <time>2016-09-11T07:32:50.000Z</time>
      </trkpt>
      <trkpt lat="45.53636" lon="4.05992">
        <ele>528.40002441406</ele>
        <time>2016-09-11T07:33:09.000Z</time>
      </trkpt>
      <trkpt lat="45.53635" lon="4.05993">
        <ele>528.59997558594</ele>
        <time>2016-09-11T07:33:11.000Z</time>
      </trkpt>
      <trkpt lat="45.53633" lon="4.05992">
        <ele>529</ele>
        <time>2016-09-11T07:33:14.000Z</time>
      </trkpt>
      <trkpt lat="45.53625" lon="4.05981">
        <ele>530.20001220703</ele>
        <time>2016-09-11T07:33:23.000Z</time>
      </trkpt>
      <trkpt lat="45.53623" lon="4.0598">
        <ele>530.59997558594</ele>
        <time>2016-09-11T07:33:24.000Z</time>
      </trkpt>
      <trkpt lat="45.53618" lon="4.05978">
        <ele>531.40002441406</ele>
        <time>2016-09-11T07:33:28.000Z</time>
      </trkpt>
      <trkpt lat="45.53617" lon="4.05978">
        <ele>531.79998779297</ele>
        <time>2016-09-11T07:33:29.000Z</time>
      </trkpt>
      <trkpt lat="45.53613" lon="4.06001">
        <ele>533.40002441406</ele>
        <time>2016-09-11T07:33:46.000Z</time>
      </trkpt>
      <trkpt lat="45.53614" lon="4.06026">
        <ele>537.59997558594</ele>
        <time>2016-09-11T07:34:00.000Z</time>
      </trkpt>
      <trkpt lat="45.53614" lon="4.06028">
        <ele>537.79998779297</ele>
        <time>2016-09-11T07:34:01.000Z</time>
      </trkpt>
      <trkpt lat="45.53616" lon="4.06054">
        <ele>539.79998779297</ele>
        <time>2016-09-11T07:34:14.000Z</time>
      </trkpt>
      <trkpt lat="45.53619" lon="4.06081">
        <ele>541</ele>
        <time>2016-09-11T07:34:26.000Z</time>
      </trkpt>
      <trkpt lat="45.53616" lon="4.06108">
        <ele>544.79998779297</ele>
        <time>2016-09-11T07:34:38.000Z</time>
      </trkpt>
      <trkpt lat="45.53607" lon="4.06131">
        <ele>548.20001220703</ele>
        <time>2016-09-11T07:34:50.000Z</time>
      </trkpt>
      <trkpt lat="45.53592" lon="4.06146">
        <ele>554.20001220703</ele>
        <time>2016-09-11T07:35:02.000Z</time>
      </trkpt>
      <trkpt lat="45.53583" lon="4.06152">
        <ele>556.79998779297</ele>
        <time>2016-09-11T07:35:09.000Z</time>
      </trkpt>
      <trkpt lat="45.53582" lon="4.06153">
        <ele>557.20001220703</ele>
        <time>2016-09-11T07:35:10.000Z</time>
      </trkpt>
      <trkpt lat="45.53564" lon="4.06158">
        <ele>563</ele>
        <time>2016-09-11T07:35:23.000Z</time>
      </trkpt>
      <trkpt lat="45.53548" lon="4.06147">
        <ele>568</ele>
        <time>2016-09-11T07:35:37.000Z</time>
      </trkpt>
      <trkpt lat="45.53547" lon="4.0612">
        <ele>569</ele>
        <time>2016-09-11T07:35:52.000Z</time>
      </trkpt>
      <trkpt lat="45.53546" lon="4.06093">
        <ele>568</ele>
        <time>2016-09-11T07:36:02.000Z</time>
      </trkpt>
      <trkpt lat="45.53535" lon="4.06076">
        <ele>567.59997558594</ele>
        <time>2016-09-11T07:36:12.000Z</time>
      </trkpt>
      <trkpt lat="45.53515" lon="4.06074">
        <ele>569</ele>
        <time>2016-09-11T07:36:22.000Z</time>
      </trkpt>
      <trkpt lat="45.5351" lon="4.06074">
        <ele>569.79998779297</ele>
        <time>2016-09-11T07:36:25.000Z</time>
      </trkpt>
      <trkpt lat="45.53508" lon="4.06074">
        <ele>570</ele>
        <time>2016-09-11T07:36:26.000Z</time>
      </trkpt>
      <trkpt lat="45.535" lon="4.06074">
        <ele>571.20001220703</ele>
        <time>2016-09-11T07:36:30.000Z</time>
      </trkpt>
      <trkpt lat="45.53492" lon="4.06074">
        <ele>572.20001220703</ele>
        <time>2016-09-11T07:36:34.000Z</time>
      </trkpt>
      <trkpt lat="45.5349" lon="4.06074">
        <ele>572.59997558594</ele>
        <time>2016-09-11T07:36:35.000Z</time>
      </trkpt>
      <trkpt lat="45.5348" lon="4.06075">
        <ele>574.20001220703</ele>
        <time>2016-09-11T07:36:40.000Z</time>
      </trkpt>
      <trkpt lat="45.53476" lon="4.06076">
        <ele>574.79998779297</ele>
        <time>2016-09-11T07:36:42.000Z</time>
      </trkpt>
      <trkpt lat="45.53468" lon="4.06076">
        <ele>576</ele>
        <time>2016-09-11T07:36:46.000Z</time>
      </trkpt>
      <trkpt lat="45.53466" lon="4.06076">
        <ele>576.20001220703</ele>
        <time>2016-09-11T07:36:47.000Z</time>
      </trkpt>
      <trkpt lat="45.53447" lon="4.06075">
        <ele>576.40002441406</ele>
        <time>2016-09-11T07:36:58.000Z</time>
      </trkpt>
      <trkpt lat="45.53441" lon="4.06076">
        <ele>576.40002441406</ele>
        <time>2016-09-11T07:37:02.000Z</time>
      </trkpt>
      <trkpt lat="45.53439" lon="4.06076">
        <ele>576.59997558594</ele>
        <time>2016-09-11T07:37:03.000Z</time>
      </trkpt>
      <trkpt lat="45.53431" lon="4.06077">
        <ele>577</ele>
        <time>2016-09-11T07:37:08.000Z</time>
      </trkpt>
      <trkpt lat="45.53429" lon="4.06077">
        <ele>577.20001220703</ele>
        <time>2016-09-11T07:37:09.000Z</time>
      </trkpt>
      <trkpt lat="45.53415" lon="4.06092">
        <ele>581.20001220703</ele>
        <time>2016-09-11T07:37:21.000Z</time>
      </trkpt>
      <trkpt lat="45.53406" lon="4.06117">
        <ele>585.40002441406</ele>
        <time>2016-09-11T07:37:32.000Z</time>
      </trkpt>
      <trkpt lat="45.53398" lon="4.0614">
        <ele>587.40002441406</ele>
        <time>2016-09-11T07:37:41.000Z</time>
      </trkpt>
      <trkpt lat="45.53396" lon="4.06147">
        <ele>588.40002441406</ele>
        <time>2016-09-11T07:37:44.000Z</time>
      </trkpt>
      <trkpt lat="45.53395" lon="4.06149">
        <ele>588.79998779297</ele>
        <time>2016-09-11T07:37:45.000Z</time>
      </trkpt>
      <trkpt lat="45.53382" lon="4.06161">
        <ele>591.59997558594</ele>
        <time>2016-09-11T07:37:55.000Z</time>
      </trkpt>
      <trkpt lat="45.53381" lon="4.06161">
        <ele>591.79998779297</ele>
        <time>2016-09-11T07:37:56.000Z</time>
      </trkpt>
      <trkpt lat="45.5337" lon="4.06157">
        <ele>593</ele>
        <time>2016-09-11T07:38:02.000Z</time>
      </trkpt>
      <trkpt lat="45.53368" lon="4.06156">
        <ele>593.20001220703</ele>
        <time>2016-09-11T07:38:03.000Z</time>
      </trkpt>
      <trkpt lat="45.53361" lon="4.06154">
        <ele>594.20001220703</ele>
        <time>2016-09-11T07:38:07.000Z</time>
      </trkpt>
      <trkpt lat="45.53354" lon="4.06152">
        <ele>594.79998779297</ele>
        <time>2016-09-11T07:38:11.000Z</time>
      </trkpt>
      <trkpt lat="45.53335" lon="4.06147">
        <ele>597.20001220703</ele>
        <time>2016-09-11T07:38:23.000Z</time>
      </trkpt>
      <trkpt lat="45.53329" lon="4.06147">
        <ele>597.79998779297</ele>
        <time>2016-09-11T07:38:27.000Z</time>
      </trkpt>
      <trkpt lat="45.53327" lon="4.06147">
        <ele>598</ele>
        <time>2016-09-11T07:38:28.000Z</time>
      </trkpt>
      <trkpt lat="45.53308" lon="4.06148">
        <ele>600.40002441406</ele>
        <time>2016-09-11T07:38:39.000Z</time>
      </trkpt>
      <trkpt lat="45.53306" lon="4.06148">
        <ele>600.59997558594</ele>
        <time>2016-09-11T07:38:40.000Z</time>
      </trkpt>
      <trkpt lat="45.53301" lon="4.06149">
        <ele>601.40002441406</ele>
        <time>2016-09-11T07:38:43.000Z</time>
      </trkpt>
      <trkpt lat="45.53282" lon="4.0615">
        <ele>604</ele>
        <time>2016-09-11T07:38:54.000Z</time>
      </trkpt>
      <trkpt lat="45.5328" lon="4.0615">
        <ele>604.20001220703</ele>
        <time>2016-09-11T07:38:55.000Z</time>
      </trkpt>
      <trkpt lat="45.53269" lon="4.06151">
        <ele>605.59997558594</ele>
        <time>2016-09-11T07:39:01.000Z</time>
      </trkpt>
      <trkpt lat="45.53267" lon="4.06151">
        <ele>605.79998779297</ele>
        <time>2016-09-11T07:39:02.000Z</time>
      </trkpt>
      <trkpt lat="45.53249" lon="4.06152">
        <ele>607.59997558594</ele>
        <time>2016-09-11T07:39:12.000Z</time>
      </trkpt>
      <trkpt lat="45.53239" lon="4.06153">
        <ele>608.20001220703</ele>
        <time>2016-09-11T07:39:18.000Z</time>
      </trkpt>
      <trkpt lat="45.53235" lon="4.06153">
        <ele>608.40002441406</ele>
        <time>2016-09-11T07:39:20.000Z</time>
      </trkpt>
      <trkpt lat="45.53223" lon="4.06154">
        <ele>609.20001220703</ele>
        <time>2016-09-11T07:39:27.000Z</time>
      </trkpt>
      <trkpt lat="45.53219" lon="4.06154">
        <ele>609.40002441406</ele>
        <time>2016-09-11T07:39:29.000Z</time>
      </trkpt>
      <trkpt lat="45.53209" lon="4.06155">
        <ele>610.79998779297</ele>
        <time>2016-09-11T07:39:34.000Z</time>
      </trkpt>
      <trkpt lat="45.53207" lon="4.06155">
        <ele>611.20001220703</ele>
        <time>2016-09-11T07:39:35.000Z</time>
      </trkpt>
      <trkpt lat="45.53193" lon="4.06156">
        <ele>613.40002441406</ele>
        <time>2016-09-11T07:39:41.000Z</time>
      </trkpt>
      <trkpt lat="45.53191" lon="4.06156">
        <ele>613.79998779297</ele>
        <time>2016-09-11T07:39:42.000Z</time>
      </trkpt>
      <trkpt lat="45.53178" lon="4.06156">
        <ele>615.79998779297</ele>
        <time>2016-09-11T07:39:48.000Z</time>
      </trkpt>
      <trkpt lat="45.53174" lon="4.06155">
        <ele>616.40002441406</ele>
        <time>2016-09-11T07:39:50.000Z</time>
      </trkpt>
      <trkpt lat="45.53163" lon="4.06154">
        <ele>617.59997558594</ele>
        <time>2016-09-11T07:39:56.000Z</time>
      </trkpt>
      <trkpt lat="45.53161" lon="4.06153">
        <ele>617.79998779297</ele>
        <time>2016-09-11T07:39:57.000Z</time>
      </trkpt>
      <trkpt lat="45.53141" lon="4.06154">
        <ele>620</ele>
        <time>2016-09-11T07:40:06.000Z</time>
      </trkpt>
      <trkpt lat="45.53123" lon="4.06155">
        <ele>621.20001220703</ele>
        <time>2016-09-11T07:40:15.000Z</time>
      </trkpt>
      <trkpt lat="45.53104" lon="4.06157">
        <ele>622</ele>
        <time>2016-09-11T07:40:25.000Z</time>
      </trkpt>
      <trkpt lat="45.53093" lon="4.06157">
        <ele>622.59997558594</ele>
        <time>2016-09-11T07:40:30.000Z</time>
      </trkpt>
      <trkpt lat="45.53091" lon="4.06156">
        <ele>622.79998779297</ele>
        <time>2016-09-11T07:40:31.000Z</time>
      </trkpt>
      <trkpt lat="45.53083" lon="4.06155">
        <ele>623.40002441406</ele>
        <time>2016-09-11T07:40:35.000Z</time>
      </trkpt>
      <trkpt lat="45.53081" lon="4.06155">
        <ele>623.59997558594</ele>
        <time>2016-09-11T07:40:36.000Z</time>
      </trkpt>
      <trkpt lat="45.53062" lon="4.06149">
        <ele>625.20001220703</ele>
        <time>2016-09-11T07:40:45.000Z</time>
      </trkpt>
      <trkpt lat="45.53055" lon="4.06147">
        <ele>625.79998779297</ele>
        <time>2016-09-11T07:40:48.000Z</time>
      </trkpt>
      <trkpt lat="45.53052" lon="4.06146">
        <ele>626.20001220703</ele>
        <time>2016-09-11T07:40:49.000Z</time>
      </trkpt>
      <trkpt lat="45.53045" lon="4.06144">
        <ele>626.59997558594</ele>
        <time>2016-09-11T07:40:52.000Z</time>
      </trkpt>
      <trkpt lat="45.53035" lon="4.06141">
        <ele>627</ele>
        <time>2016-09-11T07:40:56.000Z</time>
      </trkpt>
      <trkpt lat="45.53025" lon="4.06138">
        <ele>627.59997558594</ele>
        <time>2016-09-11T07:41:00.000Z</time>
      </trkpt>
      <trkpt lat="45.5302" lon="4.06137">
        <ele>627.79998779297</ele>
        <time>2016-09-11T07:41:02.000Z</time>
      </trkpt>
      <trkpt lat="45.5301" lon="4.06137">
        <ele>628.20001220703</ele>
        <time>2016-09-11T07:41:06.000Z</time>
      </trkpt>
      <trkpt lat="45.52996" lon="4.06138">
        <ele>628.59997558594</ele>
        <time>2016-09-11T07:41:12.000Z</time>
      </trkpt>
      <trkpt lat="45.52993" lon="4.06138">
        <ele>628.59997558594</ele>
        <time>2016-09-11T07:41:13.000Z</time>
      </trkpt>
      <trkpt lat="45.52978" lon="4.0614">
        <ele>629.20001220703</ele>
        <time>2016-09-11T07:41:19.000Z</time>
      </trkpt>
      <trkpt lat="45.52976" lon="4.0614">
        <ele>629.20001220703</ele>
        <time>2016-09-11T07:41:20.000Z</time>
      </trkpt>
      <trkpt lat="45.52965" lon="4.06141">
        <ele>629.59997558594</ele>
        <time>2016-09-11T07:41:24.000Z</time>
      </trkpt>
      <trkpt lat="45.52951" lon="4.06143">
        <ele>630</ele>
        <time>2016-09-11T07:41:29.000Z</time>
      </trkpt>
      <trkpt lat="45.52945" lon="4.06145">
        <ele>630.20001220703</ele>
        <time>2016-09-11T07:41:31.000Z</time>
      </trkpt>
      <trkpt lat="45.52928" lon="4.06147">
        <ele>630.59997558594</ele>
        <time>2016-09-11T07:41:36.000Z</time>
      </trkpt>
      <trkpt lat="45.52908" lon="4.06151">
        <ele>630.79998779297</ele>
        <time>2016-09-11T07:41:41.000Z</time>
      </trkpt>
      <trkpt lat="45.52904" lon="4.06152">
        <ele>630.79998779297</ele>
        <time>2016-09-11T07:41:42.000Z</time>
      </trkpt>
      <trkpt lat="45.52886" lon="4.06157">
        <ele>630.59997558594</ele>
        <time>2016-09-11T07:41:46.000Z</time>
      </trkpt>
      <trkpt lat="45.52864" lon="4.06169">
        <ele>630.40002441406</ele>
        <time>2016-09-11T07:41:50.000Z</time>
      </trkpt>
      <trkpt lat="45.52858" lon="4.06173">
        <ele>630.20001220703</ele>
        <time>2016-09-11T07:41:51.000Z</time>
      </trkpt>
      <trkpt lat="45.52835" lon="4.06181">
        <ele>629.20001220703</ele>
        <time>2016-09-11T07:41:54.000Z</time>
      </trkpt>
      <trkpt lat="45.52815" lon="4.06185">
        <ele>628.79998779297</ele>
        <time>2016-09-11T07:41:56.000Z</time>
      </trkpt>
      <trkpt lat="45.52798" lon="4.06195">
        <ele>628</ele>
        <time>2016-09-11T07:41:58.000Z</time>
      </trkpt>
      <trkpt lat="45.52784" lon="4.06222">
        <ele>625.79998779297</ele>
        <time>2016-09-11T07:42:01.000Z</time>
      </trkpt>
      <trkpt lat="45.52772" lon="4.06245">
        <ele>624.20001220703</ele>
        <time>2016-09-11T07:42:04.000Z</time>
      </trkpt>
      <trkpt lat="45.52761" lon="4.06254">
        <ele>624.20001220703</ele>
        <time>2016-09-11T07:42:06.000Z</time>
      </trkpt>
      <trkpt lat="45.52749" lon="4.06264">
        <ele>624.40002441406</ele>
        <time>2016-09-11T07:42:09.000Z</time>
      </trkpt>
      <trkpt lat="45.52738" lon="4.06273">
        <ele>624.40002441406</ele>
        <time>2016-09-11T07:42:12.000Z</time>
      </trkpt>
      <trkpt lat="45.52718" lon="4.06282">
        <ele>625.79998779297</ele>
        <time>2016-09-11T07:42:16.000Z</time>
      </trkpt>
      <trkpt lat="45.52711" lon="4.06285">
        <ele>626.79998779297</ele>
        <time>2016-09-11T07:42:17.000Z</time>
      </trkpt>
      <trkpt lat="45.52699" lon="4.06304">
        <ele>628.20001220703</ele>
        <time>2016-09-11T07:42:20.000Z</time>
      </trkpt>
      <trkpt lat="45.52696" lon="4.06338">
        <ele>627.59997558594</ele>
        <time>2016-09-11T07:42:24.000Z</time>
      </trkpt>
      <trkpt lat="45.52696" lon="4.06346">
        <ele>626.79998779297</ele>
        <time>2016-09-11T07:42:25.000Z</time>
      </trkpt>
      <trkpt lat="45.52697" lon="4.06377">
        <ele>624.40002441406</ele>
        <time>2016-09-11T07:42:30.000Z</time>
      </trkpt>
      <trkpt lat="45.52696" lon="4.06387">
        <ele>623.79998779297</ele>
        <time>2016-09-11T07:42:32.000Z</time>
      </trkpt>
      <trkpt lat="45.52696" lon="4.06392">
        <ele>623.59997558594</ele>
        <time>2016-09-11T07:42:33.000Z</time>
      </trkpt>
      <trkpt lat="45.52691" lon="4.06407">
        <ele>623</ele>
        <time>2016-09-11T07:42:36.000Z</time>
      </trkpt>
      <trkpt lat="45.5268" lon="4.06426">
        <ele>623.79998779297</ele>
        <time>2016-09-11T07:42:40.000Z</time>
      </trkpt>
      <trkpt lat="45.52677" lon="4.0643">
        <ele>624.20001220703</ele>
        <time>2016-09-11T07:42:41.000Z</time>
      </trkpt>
      <trkpt lat="45.52661" lon="4.06446">
        <ele>626.40002441406</ele>
        <time>2016-09-11T07:42:45.000Z</time>
      </trkpt>
      <trkpt lat="45.52656" lon="4.0645">
        <ele>626.79998779297</ele>
        <time>2016-09-11T07:42:46.000Z</time>
      </trkpt>
      <trkpt lat="45.52652" lon="4.06454">
        <ele>627.40002441406</ele>
        <time>2016-09-11T07:42:47.000Z</time>
      </trkpt>
      <trkpt lat="45.5264" lon="4.06481">
        <ele>628.59997558594</ele>
        <time>2016-09-11T07:42:51.000Z</time>
      </trkpt>
      <trkpt lat="45.5264" lon="4.06512">
        <ele>627.40002441406</ele>
        <time>2016-09-11T07:42:55.000Z</time>
      </trkpt>
      <trkpt lat="45.52647" lon="4.06538">
        <ele>626.79998779297</ele>
        <time>2016-09-11T07:42:59.000Z</time>
      </trkpt>
      <trkpt lat="45.52649" lon="4.06544">
        <ele>627</ele>
        <time>2016-09-11T07:43:00.000Z</time>
      </trkpt>
      <trkpt lat="45.52655" lon="4.0657">
        <ele>627.79998779297</ele>
        <time>2016-09-11T07:43:05.000Z</time>
      </trkpt>
      <trkpt lat="45.52657" lon="4.06575">
        <ele>628</ele>
        <time>2016-09-11T07:43:06.000Z</time>
      </trkpt>
      <trkpt lat="45.52658" lon="4.0658">
        <ele>628.20001220703</ele>
        <time>2016-09-11T07:43:07.000Z</time>
      </trkpt>
      <trkpt lat="45.52659" lon="4.06589">
        <ele>628.59997558594</ele>
        <time>2016-09-11T07:43:09.000Z</time>
      </trkpt>
      <trkpt lat="45.52648" lon="4.06605">
        <ele>631.40002441406</ele>
        <time>2016-09-11T07:43:16.000Z</time>
      </trkpt>
      <trkpt lat="45.52634" lon="4.06614">
        <ele>634.20001220703</ele>
        <time>2016-09-11T07:43:21.000Z</time>
      </trkpt>
      <trkpt lat="45.52629" lon="4.06617">
        <ele>634.79998779297</ele>
        <time>2016-09-11T07:43:23.000Z</time>
      </trkpt>
      <trkpt lat="45.52624" lon="4.06619">
        <ele>635.20001220703</ele>
        <time>2016-09-11T07:43:25.000Z</time>
      </trkpt>
      <trkpt lat="45.52615" lon="4.06627">
        <ele>636.40002441406</ele>
        <time>2016-09-11T07:43:29.000Z</time>
      </trkpt>
      <trkpt lat="45.5261" lon="4.06632">
        <ele>637.20001220703</ele>
        <time>2016-09-11T07:43:31.000Z</time>
      </trkpt>
      <trkpt lat="45.52598" lon="4.06643">
        <ele>638.59997558594</ele>
        <time>2016-09-11T07:43:35.000Z</time>
      </trkpt>
      <trkpt lat="45.52595" lon="4.06647">
        <ele>639</ele>
        <time>2016-09-11T07:43:36.000Z</time>
      </trkpt>
      <trkpt lat="45.5258" lon="4.06663">
        <ele>640</ele>
        <time>2016-09-11T07:43:42.000Z</time>
      </trkpt>
      <trkpt lat="45.52576" lon="4.06668">
        <ele>640</ele>
        <time>2016-09-11T07:43:48.000Z</time>
      </trkpt>
      <trkpt lat="45.52572" lon="4.06671">
        <ele>640.20001220703</ele>
        <time>2016-09-11T07:47:52.000Z</time>
      </trkpt>
      <trkpt lat="45.52569" lon="4.06674">
        <ele>640.40002441406</ele>
        <time>2016-09-11T07:49:00.000Z</time>
      </trkpt>
      <trkpt lat="45.5255" lon="4.06682">
        <ele>641</ele>
        <time>2016-09-11T07:49:12.000Z</time>
      </trkpt>
      <trkpt lat="45.52533" lon="4.06684">
        <ele>641.59997558594</ele>
        <time>2016-09-11T07:49:21.000Z</time>
      </trkpt>
      <trkpt lat="45.52518" lon="4.06669">
        <ele>642</ele>
        <time>2016-09-11T07:49:29.000Z</time>
      </trkpt>
      <trkpt lat="45.52516" lon="4.06666">
        <ele>642.20001220703</ele>
        <time>2016-09-11T07:49:30.000Z</time>
      </trkpt>
      <trkpt lat="45.5251" lon="4.0666">
        <ele>642.40002441406</ele>
        <time>2016-09-11T07:49:32.000Z</time>
      </trkpt>
      <trkpt lat="45.52504" lon="4.06654">
        <ele>642.59997558594</ele>
        <time>2016-09-11T07:49:34.000Z</time>
      </trkpt>
      <trkpt lat="45.52499" lon="4.06647">
        <ele>642.79998779297</ele>
        <time>2016-09-11T07:49:36.000Z</time>
      </trkpt>
      <trkpt lat="45.52486" lon="4.06626">
        <ele>643.40002441406</ele>
        <time>2016-09-11T07:49:42.000Z</time>
      </trkpt>
      <trkpt lat="45.52468" lon="4.06631">
        <ele>643.79998779297</ele>
        <time>2016-09-11T07:49:48.000Z</time>
      </trkpt>
      <trkpt lat="45.52458" lon="4.06655">
        <ele>643.59997558594</ele>
        <time>2016-09-11T07:49:54.000Z</time>
      </trkpt>
      <trkpt lat="45.52455" lon="4.06665">
        <ele>643.59997558594</ele>
        <time>2016-09-11T07:49:56.000Z</time>
      </trkpt>
      <trkpt lat="45.52453" lon="4.0667">
        <ele>643.59997558594</ele>
        <time>2016-09-11T07:49:57.000Z</time>
      </trkpt>
      <trkpt lat="45.52442" lon="4.06696">
        <ele>644</ele>
        <time>2016-09-11T07:50:02.000Z</time>
      </trkpt>
      <trkpt lat="45.52434" lon="4.0671">
        <ele>644.40002441406</ele>
        <time>2016-09-11T07:50:05.000Z</time>
      </trkpt>
      <trkpt lat="45.52431" lon="4.06715">
        <ele>644.59997558594</ele>
        <time>2016-09-11T07:50:06.000Z</time>
      </trkpt>
      <trkpt lat="45.52426" lon="4.06724">
        <ele>644.79998779297</ele>
        <time>2016-09-11T07:50:08.000Z</time>
      </trkpt>
      <trkpt lat="45.52414" lon="4.06749">
        <ele>645</ele>
        <time>2016-09-11T07:50:13.000Z</time>
      </trkpt>
      <trkpt lat="45.5241" lon="4.06758">
        <ele>645</ele>
        <time>2016-09-11T07:50:15.000Z</time>
      </trkpt>
      <trkpt lat="45.52407" lon="4.06763">
        <ele>644.79998779297</ele>
        <time>2016-09-11T07:50:16.000Z</time>
      </trkpt>
      <trkpt lat="45.52402" lon="4.06772">
        <ele>644.79998779297</ele>
        <time>2016-09-11T07:50:18.000Z</time>
      </trkpt>
      <trkpt lat="45.5239" lon="4.06796">
        <ele>644.59997558594</ele>
        <time>2016-09-11T07:50:23.000Z</time>
      </trkpt>
      <trkpt lat="45.52384" lon="4.06815">
        <ele>644.59997558594</ele>
        <time>2016-09-11T07:50:27.000Z</time>
      </trkpt>
      <trkpt lat="45.52376" lon="4.06836">
        <ele>644.59997558594</ele>
        <time>2016-09-11T07:50:31.000Z</time>
      </trkpt>
      <trkpt lat="45.52374" lon="4.06841">
        <ele>644.59997558594</ele>
        <time>2016-09-11T07:50:32.000Z</time>
      </trkpt>
      <trkpt lat="45.52364" lon="4.06868">
        <ele>644.79998779297</ele>
        <time>2016-09-11T07:50:37.000Z</time>
      </trkpt>
      <trkpt lat="45.52362" lon="4.06873">
        <ele>644.79998779297</ele>
        <time>2016-09-11T07:50:38.000Z</time>
      </trkpt>
      <trkpt lat="45.5235" lon="4.06898">
        <ele>645.20001220703</ele>
        <time>2016-09-11T07:50:43.000Z</time>
      </trkpt>
      <trkpt lat="45.52347" lon="4.06903">
        <ele>645.20001220703</ele>
        <time>2016-09-11T07:50:44.000Z</time>
      </trkpt>
      <trkpt lat="45.52336" lon="4.06921">
        <ele>645.59997558594</ele>
        <time>2016-09-11T07:50:48.000Z</time>
      </trkpt>
      <trkpt lat="45.52321" lon="4.06943">
        <ele>646</ele>
        <time>2016-09-11T07:50:53.000Z</time>
      </trkpt>
      <trkpt lat="45.52315" lon="4.06951">
        <ele>646.20001220703</ele>
        <time>2016-09-11T07:50:55.000Z</time>
      </trkpt>
      <trkpt lat="45.52313" lon="4.06955">
        <ele>646.20001220703</ele>
        <time>2016-09-11T07:50:56.000Z</time>
      </trkpt>
      <trkpt lat="45.52305" lon="4.06967">
        <ele>646.79998779297</ele>
        <time>2016-09-11T07:50:59.000Z</time>
      </trkpt>
      <trkpt lat="45.52299" lon="4.06975">
        <ele>647</ele>
        <time>2016-09-11T07:51:01.000Z</time>
      </trkpt>
      <trkpt lat="45.52291" lon="4.06989">
        <ele>647.20001220703</ele>
        <time>2016-09-11T07:51:04.000Z</time>
      </trkpt>
      <trkpt lat="45.52285" lon="4.06997">
        <ele>647.40002441406</ele>
        <time>2016-09-11T07:51:06.000Z</time>
      </trkpt>
      <trkpt lat="45.52276" lon="4.07011">
        <ele>647.79998779297</ele>
        <time>2016-09-11T07:51:09.000Z</time>
      </trkpt>
      <trkpt lat="45.52265" lon="4.07031">
        <ele>648.20001220703</ele>
        <time>2016-09-11T07:51:13.000Z</time>
      </trkpt>
      <trkpt lat="45.52257" lon="4.07046">
        <ele>648.59997558594</ele>
        <time>2016-09-11T07:51:16.000Z</time>
      </trkpt>
      <trkpt lat="45.52246" lon="4.07073">
        <ele>649.20001220703</ele>
        <time>2016-09-11T07:51:21.000Z</time>
      </trkpt>
      <trkpt lat="45.52242" lon="4.07083">
        <ele>649.40002441406</ele>
        <time>2016-09-11T07:51:23.000Z</time>
      </trkpt>
      <trkpt lat="45.5224" lon="4.07089">
        <ele>649.59997558594</ele>
        <time>2016-09-11T07:51:24.000Z</time>
      </trkpt>
      <trkpt lat="45.52232" lon="4.0711">
        <ele>650.20001220703</ele>
        <time>2016-09-11T07:51:28.000Z</time>
      </trkpt>
      <trkpt lat="45.52223" lon="4.0713">
        <ele>650.59997558594</ele>
        <time>2016-09-11T07:51:32.000Z</time>
      </trkpt>
      <trkpt lat="45.52215" lon="4.07144">
        <ele>651</ele>
        <time>2016-09-11T07:51:35.000Z</time>
      </trkpt>
      <trkpt lat="45.52203" lon="4.07166">
        <ele>651</ele>
        <time>2016-09-11T07:51:40.000Z</time>
      </trkpt>
      <trkpt lat="45.52198" lon="4.07175">
        <ele>651</ele>
        <time>2016-09-11T07:51:42.000Z</time>
      </trkpt>
      <trkpt lat="45.52186" lon="4.07197">
        <ele>651.79998779297</ele>
        <time>2016-09-11T07:51:47.000Z</time>
      </trkpt>
      <trkpt lat="45.52181" lon="4.07206">
        <ele>652.20001220703</ele>
        <time>2016-09-11T07:51:49.000Z</time>
      </trkpt>
      <trkpt lat="45.52168" lon="4.07228">
        <ele>653</ele>
        <time>2016-09-11T07:51:54.000Z</time>
      </trkpt>
      <trkpt lat="45.52163" lon="4.07237">
        <ele>653.20001220703</ele>
        <time>2016-09-11T07:51:56.000Z</time>
      </trkpt>
      <trkpt lat="45.52161" lon="4.07241">
        <ele>653.20001220703</ele>
        <time>2016-09-11T07:51:57.000Z</time>
      </trkpt>
      <trkpt lat="45.52156" lon="4.0725">
        <ele>653.40002441406</ele>
        <time>2016-09-11T07:51:59.000Z</time>
      </trkpt>
      <trkpt lat="45.52149" lon="4.07264">
        <ele>653.59997558594</ele>
        <time>2016-09-11T07:52:02.000Z</time>
      </trkpt>
      <trkpt lat="45.52134" lon="4.0728">
        <ele>654</ele>
        <time>2016-09-11T07:52:07.000Z</time>
      </trkpt>
      <trkpt lat="45.52118" lon="4.07271">
        <ele>654.59997558594</ele>
        <time>2016-09-11T07:52:14.000Z</time>
      </trkpt>
      <trkpt lat="45.52119" lon="4.07265">
        <ele>654.40002441406</ele>
        <time>2016-09-11T07:52:16.000Z</time>
      </trkpt>
      <trkpt lat="45.52119" lon="4.07262">
        <ele>654.20001220703</ele>
        <time>2016-09-11T07:52:17.000Z</time>
      </trkpt>
      <trkpt lat="45.52118" lon="4.07237">
        <ele>654</ele>
        <time>2016-09-11T07:52:26.000Z</time>
      </trkpt>
      <trkpt lat="45.52118" lon="4.07234">
        <ele>653.79998779297</ele>
        <time>2016-09-11T07:52:27.000Z</time>
      </trkpt>
      <trkpt lat="45.52117" lon="4.07222">
        <ele>653.79998779297</ele>
        <time>2016-09-11T07:52:30.000Z</time>
      </trkpt>
      <trkpt lat="45.52116" lon="4.0721">
        <ele>653.59997558594</ele>
        <time>2016-09-11T07:52:33.000Z</time>
      </trkpt>
      <trkpt lat="45.52113" lon="4.07193">
        <ele>653.40002441406</ele>
        <time>2016-09-11T07:52:37.000Z</time>
      </trkpt>
      <trkpt lat="45.52115" lon="4.07164">
        <ele>653</ele>
        <time>2016-09-11T07:52:42.000Z</time>
      </trkpt>
      <trkpt lat="45.52116" lon="4.07157">
        <ele>652.79998779297</ele>
        <time>2016-09-11T07:52:43.000Z</time>
      </trkpt>
      <trkpt lat="45.52116" lon="4.0715">
        <ele>652.59997558594</ele>
        <time>2016-09-11T07:52:44.000Z</time>
      </trkpt>
      <trkpt lat="45.52118" lon="4.07129">
        <ele>652</ele>
        <time>2016-09-11T07:52:47.000Z</time>
      </trkpt>
      <trkpt lat="45.52119" lon="4.07115">
        <ele>651.59997558594</ele>
        <time>2016-09-11T07:52:49.000Z</time>
      </trkpt>
      <trkpt lat="45.52124" lon="4.07084">
        <ele>651.20001220703</ele>
        <time>2016-09-11T07:52:53.000Z</time>
      </trkpt>
      <trkpt lat="45.52126" lon="4.07076">
        <ele>651.20001220703</ele>
        <time>2016-09-11T07:52:54.000Z</time>
      </trkpt>
      <trkpt lat="45.52129" lon="4.0705">
        <ele>651.20001220703</ele>
        <time>2016-09-11T07:52:57.000Z</time>
      </trkpt>
      <trkpt lat="45.52131" lon="4.07024">
        <ele>651</ele>
        <time>2016-09-11T07:53:00.000Z</time>
      </trkpt>
      <trkpt lat="45.52133" lon="4.06997">
        <ele>650.40002441406</ele>
        <time>2016-09-11T07:53:03.000Z</time>
      </trkpt>
      <trkpt lat="45.52133" lon="4.06989">
        <ele>650.20001220703</ele>
        <time>2016-09-11T07:53:04.000Z</time>
      </trkpt>
      <trkpt lat="45.52134" lon="4.06963">
        <ele>649.40002441406</ele>
        <time>2016-09-11T07:53:07.000Z</time>
      </trkpt>
      <trkpt lat="45.52136" lon="4.06937">
        <ele>649</ele>
        <time>2016-09-11T07:53:10.000Z</time>
      </trkpt>
      <trkpt lat="45.52137" lon="4.06929">
        <ele>649</ele>
        <time>2016-09-11T07:53:11.000Z</time>
      </trkpt>
      <trkpt lat="45.5214" lon="4.06895">
        <ele>649</ele>
        <time>2016-09-11T07:53:15.000Z</time>
      </trkpt>
      <trkpt lat="45.52142" lon="4.0688">
        <ele>649</ele>
        <time>2016-09-11T07:53:17.000Z</time>
      </trkpt>
      <trkpt lat="45.52146" lon="4.06858">
        <ele>648.79998779297</ele>
        <time>2016-09-11T07:53:20.000Z</time>
      </trkpt>
      <trkpt lat="45.5215" lon="4.06834">
        <ele>648.59997558594</ele>
        <time>2016-09-11T07:53:23.000Z</time>
      </trkpt>
      <trkpt lat="45.52155" lon="4.0681">
        <ele>648.20001220703</ele>
        <time>2016-09-11T07:53:26.000Z</time>
      </trkpt>
      <trkpt lat="45.5216" lon="4.06783">
        <ele>647.79998779297</ele>
        <time>2016-09-11T07:53:29.000Z</time>
      </trkpt>
      <trkpt lat="45.52165" lon="4.06756">
        <ele>647.20001220703</ele>
        <time>2016-09-11T07:53:32.000Z</time>
      </trkpt>
      <trkpt lat="45.52172" lon="4.06731">
        <ele>646.40002441406</ele>
        <time>2016-09-11T07:53:35.000Z</time>
      </trkpt>
      <trkpt lat="45.52179" lon="4.06705">
        <ele>646.59997558594</ele>
        <time>2016-09-11T07:53:38.000Z</time>
      </trkpt>
      <trkpt lat="45.52183" lon="4.06688">
        <ele>646.40002441406</ele>
        <time>2016-09-11T07:53:40.000Z</time>
      </trkpt>
      <trkpt lat="45.52188" lon="4.06662">
        <ele>645.20001220703</ele>
        <time>2016-09-11T07:53:43.000Z</time>
      </trkpt>
      <trkpt lat="45.5219" lon="4.06654">
        <ele>645</ele>
        <time>2016-09-11T07:53:44.000Z</time>
      </trkpt>
      <trkpt lat="45.52197" lon="4.06624">
        <ele>644.59997558594</ele>
        <time>2016-09-11T07:53:48.000Z</time>
      </trkpt>
      <trkpt lat="45.52201" lon="4.06597">
        <ele>643.79998779297</ele>
        <time>2016-09-11T07:53:52.000Z</time>
      </trkpt>
      <trkpt lat="45.52206" lon="4.06576">
        <ele>643.20001220703</ele>
        <time>2016-09-11T07:53:55.000Z</time>
      </trkpt>
      <trkpt lat="45.52208" lon="4.06568">
        <ele>643</ele>
        <time>2016-09-11T07:53:56.000Z</time>
      </trkpt>
      <trkpt lat="45.52216" lon="4.0654">
        <ele>642.40002441406</ele>
        <time>2016-09-11T07:54:00.000Z</time>
      </trkpt>
      <trkpt lat="45.52222" lon="4.06517">
        <ele>641.79998779297</ele>
        <time>2016-09-11T07:54:03.000Z</time>
      </trkpt>
      <trkpt lat="45.52227" lon="4.06494">
        <ele>641.40002441406</ele>
        <time>2016-09-11T07:54:06.000Z</time>
      </trkpt>
      <trkpt lat="45.52236" lon="4.06465">
        <ele>640.79998779297</ele>
        <time>2016-09-11T07:54:10.000Z</time>
      </trkpt>
      <trkpt lat="45.52241" lon="4.0644">
        <ele>640.79998779297</ele>
        <time>2016-09-11T07:54:13.000Z</time>
      </trkpt>
      <trkpt lat="45.52242" lon="4.06431">
        <ele>641</ele>
        <time>2016-09-11T07:54:14.000Z</time>
      </trkpt>
      <trkpt lat="45.52243" lon="4.06423">
        <ele>641</ele>
        <time>2016-09-11T07:54:15.000Z</time>
      </trkpt>
      <trkpt lat="45.52245" lon="4.06396">
        <ele>641</ele>
        <time>2016-09-11T07:54:19.000Z</time>
      </trkpt>
      <trkpt lat="45.52245" lon="4.06392">
        <ele>641</ele>
        <time>2016-09-11T07:54:20.000Z</time>
      </trkpt>
      <trkpt lat="45.52245" lon="4.06387">
        <ele>641</ele>
        <time>2016-09-11T07:54:21.000Z</time>
      </trkpt>
      <trkpt lat="45.52246" lon="4.06366">
        <ele>641</ele>
        <time>2016-09-11T07:54:25.000Z</time>
      </trkpt>
      <trkpt lat="45.52246" lon="4.0636">
        <ele>641</ele>
        <time>2016-09-11T07:54:26.000Z</time>
      </trkpt>
      <trkpt lat="45.52251" lon="4.06334">
        <ele>641.20001220703</ele>
        <time>2016-09-11T07:54:31.000Z</time>
      </trkpt>
      <trkpt lat="45.52251" lon="4.06329">
        <ele>641.20001220703</ele>
        <time>2016-09-11T07:54:32.000Z</time>
      </trkpt>
      <trkpt lat="45.52253" lon="4.06318">
        <ele>641.20001220703</ele>
        <time>2016-09-11T07:54:34.000Z</time>
      </trkpt>
      <trkpt lat="45.52262" lon="4.06294">
        <ele>641.59997558594</ele>
        <time>2016-09-11T07:54:39.000Z</time>
      </trkpt>
      <trkpt lat="45.52269" lon="4.06267">
        <ele>642</ele>
        <time>2016-09-11T07:54:44.000Z</time>
      </trkpt>
      <trkpt lat="45.52267" lon="4.06239">
        <ele>642.20001220703</ele>
        <time>2016-09-11T07:54:49.000Z</time>
      </trkpt>
      <trkpt lat="45.52259" lon="4.06213">
        <ele>642</ele>
        <time>2016-09-11T07:54:54.000Z</time>
      </trkpt>
      <trkpt lat="45.52255" lon="4.06203">
        <ele>642</ele>
        <time>2016-09-11T07:54:56.000Z</time>
      </trkpt>
      <trkpt lat="45.52248" lon="4.06174">
        <ele>642.79998779297</ele>
        <time>2016-09-11T07:55:01.000Z</time>
      </trkpt>
      <trkpt lat="45.52247" lon="4.06168">
        <ele>643.20001220703</ele>
        <time>2016-09-11T07:55:02.000Z</time>
      </trkpt>
      <trkpt lat="45.52247" lon="4.06162">
        <ele>643.59997558594</ele>
        <time>2016-09-11T07:55:03.000Z</time>
      </trkpt>
      <trkpt lat="45.52244" lon="4.06133">
        <ele>645.20001220703</ele>
        <time>2016-09-11T07:55:08.000Z</time>
      </trkpt>
      <trkpt lat="45.52243" lon="4.06115">
        <ele>645.79998779297</ele>
        <time>2016-09-11T07:55:11.000Z</time>
      </trkpt>
      <trkpt lat="45.52241" lon="4.06105">
        <ele>646.20001220703</ele>
        <time>2016-09-11T07:55:13.000Z</time>
      </trkpt>
      <trkpt lat="45.52236" lon="4.06079">
        <ele>646.79998779297</ele>
        <time>2016-09-11T07:55:18.000Z</time>
      </trkpt>
      <trkpt lat="45.52234" lon="4.0607">
        <ele>647</ele>
        <time>2016-09-11T07:55:20.000Z</time>
      </trkpt>
      <trkpt lat="45.52233" lon="4.06065">
        <ele>647</ele>
        <time>2016-09-11T07:55:21.000Z</time>
      </trkpt>
      <trkpt lat="45.52228" lon="4.06046">
        <ele>647.59997558594</ele>
        <time>2016-09-11T07:55:25.000Z</time>
      </trkpt>
      <trkpt lat="45.52226" lon="4.06036">
        <ele>647.79998779297</ele>
        <time>2016-09-11T07:55:27.000Z</time>
      </trkpt>
      <trkpt lat="45.52219" lon="4.06009">
        <ele>648.59997558594</ele>
        <time>2016-09-11T07:55:33.000Z</time>
      </trkpt>
      <trkpt lat="45.52212" lon="4.05982">
        <ele>649.79998779297</ele>
        <time>2016-09-11T07:55:40.000Z</time>
      </trkpt>
      <trkpt lat="45.52207" lon="4.05957">
        <ele>650.79998779297</ele>
        <time>2016-09-11T07:55:46.000Z</time>
      </trkpt>
      <trkpt lat="45.52203" lon="4.0594">
        <ele>651.40002441406</ele>
        <time>2016-09-11T07:55:50.000Z</time>
      </trkpt>
      <trkpt lat="45.52203" lon="4.05935">
        <ele>651.40002441406</ele>
        <time>2016-09-11T07:55:51.000Z</time>
      </trkpt>
      <trkpt lat="45.52197" lon="4.05908">
        <ele>652.79998779297</ele>
        <time>2016-09-11T07:55:58.000Z</time>
      </trkpt>
      <trkpt lat="45.52194" lon="4.0589">
        <ele>654</ele>
        <time>2016-09-11T07:56:03.000Z</time>
      </trkpt>
      <trkpt lat="45.52194" lon="4.05886">
        <ele>654.20001220703</ele>
        <time>2016-09-11T07:56:04.000Z</time>
      </trkpt>
      <trkpt lat="45.5219" lon="4.0586">
        <ele>656</ele>
        <time>2016-09-11T07:56:11.000Z</time>
      </trkpt>
      <trkpt lat="45.5219" lon="4.05856">
        <ele>656.40002441406</ele>
        <time>2016-09-11T07:56:12.000Z</time>
      </trkpt>
      <trkpt lat="45.5219" lon="4.05852">
        <ele>656.59997558594</ele>
        <time>2016-09-11T07:56:13.000Z</time>
      </trkpt>
      <trkpt lat="45.52188" lon="4.05836">
        <ele>658.20001220703</ele>
        <time>2016-09-11T07:56:17.000Z</time>
      </trkpt>
      <trkpt lat="45.52188" lon="4.05812">
        <ele>659.40002441406</ele>
        <time>2016-09-11T07:56:23.000Z</time>
      </trkpt>
      <trkpt lat="45.52188" lon="4.05808">
        <ele>659.59997558594</ele>
        <time>2016-09-11T07:56:24.000Z</time>
      </trkpt>
      <trkpt lat="45.52187" lon="4.0578">
        <ele>660.59997558594</ele>
        <time>2016-09-11T07:56:32.000Z</time>
      </trkpt>
      <trkpt lat="45.52186" lon="4.0576">
        <ele>661.79998779297</ele>
        <time>2016-09-11T07:56:38.000Z</time>
      </trkpt>
      <trkpt lat="45.52186" lon="4.05756">
        <ele>662</ele>
        <time>2016-09-11T07:56:39.000Z</time>
      </trkpt>
      <trkpt lat="45.52188" lon="4.05729">
        <ele>663.59997558594</ele>
        <time>2016-09-11T07:56:48.000Z</time>
      </trkpt>
      <trkpt lat="45.5219" lon="4.05702">
        <ele>665.20001220703</ele>
        <time>2016-09-11T07:56:57.000Z</time>
      </trkpt>
      <trkpt lat="45.52188" lon="4.05676">
        <ele>666.40002441406</ele>
        <time>2016-09-11T07:57:07.000Z</time>
      </trkpt>
      <trkpt lat="45.52185" lon="4.05664">
        <ele>666.79998779297</ele>
        <time>2016-09-11T07:57:24.000Z</time>
      </trkpt>
      <trkpt lat="45.52181" lon="4.05637">
        <ele>668.59997558594</ele>
        <time>2016-09-11T07:57:34.000Z</time>
      </trkpt>
      <trkpt lat="45.52175" lon="4.05624">
        <ele>669.40002441406</ele>
        <time>2016-09-11T07:57:39.000Z</time>
      </trkpt>
      <trkpt lat="45.52172" lon="4.05619">
        <ele>669.79998779297</ele>
        <time>2016-09-11T07:57:41.000Z</time>
      </trkpt>
      <trkpt lat="45.52164" lon="4.05603">
        <ele>670.59997558594</ele>
        <time>2016-09-11T07:57:46.000Z</time>
      </trkpt>
      <trkpt lat="45.52162" lon="4.056">
        <ele>670.79998779297</ele>
        <time>2016-09-11T07:57:47.000Z</time>
      </trkpt>
      <trkpt lat="45.52159" lon="4.05594">
        <ele>671</ele>
        <time>2016-09-11T07:57:49.000Z</time>
      </trkpt>
      <trkpt lat="45.52154" lon="4.05583">
        <ele>671.59997558594</ele>
        <time>2016-09-11T07:57:52.000Z</time>
      </trkpt>
      <trkpt lat="45.52146" lon="4.05559">
        <ele>672.59997558594</ele>
        <time>2016-09-11T07:57:58.000Z</time>
      </trkpt>
      <trkpt lat="45.52145" lon="4.05556">
        <ele>672.79998779297</ele>
        <time>2016-09-11T07:57:59.000Z</time>
      </trkpt>
      <trkpt lat="45.52143" lon="4.05552">
        <ele>672.79998779297</ele>
        <time>2016-09-11T07:58:00.000Z</time>
      </trkpt>
      <trkpt lat="45.52141" lon="4.05545">
        <ele>673.20001220703</ele>
        <time>2016-09-11T07:58:02.000Z</time>
      </trkpt>
      <trkpt lat="45.52135" lon="4.05526">
        <ele>674</ele>
        <time>2016-09-11T07:58:07.000Z</time>
      </trkpt>
      <trkpt lat="45.52133" lon="4.05522">
        <ele>674.20001220703</ele>
        <time>2016-09-11T07:58:08.000Z</time>
      </trkpt>
      <trkpt lat="45.52128" lon="4.05504">
        <ele>675.40002441406</ele>
        <time>2016-09-11T07:58:13.000Z</time>
      </trkpt>
      <trkpt lat="45.52127" lon="4.055">
        <ele>675.59997558594</ele>
        <time>2016-09-11T07:58:14.000Z</time>
      </trkpt>
      <trkpt lat="45.52125" lon="4.05485">
        <ele>676.79998779297</ele>
        <time>2016-09-11T07:58:18.000Z</time>
      </trkpt>
      <trkpt lat="45.52125" lon="4.05482">
        <ele>677</ele>
        <time>2016-09-11T07:58:19.000Z</time>
      </trkpt>
      <trkpt lat="45.52123" lon="4.05456">
        <ele>678.79998779297</ele>
        <time>2016-09-11T07:58:26.000Z</time>
      </trkpt>
      <trkpt lat="45.52123" lon="4.05441">
        <ele>679.79998779297</ele>
        <time>2016-09-11T07:58:30.000Z</time>
      </trkpt>
      <trkpt lat="45.52122" lon="4.05434">
        <ele>680.20001220703</ele>
        <time>2016-09-11T07:58:32.000Z</time>
      </trkpt>
      <trkpt lat="45.52122" lon="4.05407">
        <ele>681.59997558594</ele>
        <time>2016-09-11T07:58:40.000Z</time>
      </trkpt>
      <trkpt lat="45.52127" lon="4.0538">
        <ele>683</ele>
        <time>2016-09-11T07:58:48.000Z</time>
      </trkpt>
      <trkpt lat="45.52127" lon="4.05365">
        <ele>683.59997558594</ele>
        <time>2016-09-11T07:58:52.000Z</time>
      </trkpt>
      <trkpt lat="45.52127" lon="4.05361">
        <ele>683.79998779297</ele>
        <time>2016-09-11T07:58:53.000Z</time>
      </trkpt>
      <trkpt lat="45.52125" lon="4.05334">
        <ele>685.40002441406</ele>
        <time>2016-09-11T07:59:01.000Z</time>
      </trkpt>
      <trkpt lat="45.52118" lon="4.05308">
        <ele>686.79998779297</ele>
        <time>2016-09-11T07:59:10.000Z</time>
      </trkpt>
      <trkpt lat="45.52115" lon="4.05291">
        <ele>687.79998779297</ele>
        <time>2016-09-11T07:59:16.000Z</time>
      </trkpt>
      <trkpt lat="45.52114" lon="4.05288">
        <ele>688</ele>
        <time>2016-09-11T07:59:17.000Z</time>
      </trkpt>
      <trkpt lat="45.5211" lon="4.05262">
        <ele>690</ele>
        <time>2016-09-11T07:59:26.000Z</time>
      </trkpt>
      <trkpt lat="45.52107" lon="4.05237">
        <ele>691.59997558594</ele>
        <time>2016-09-11T07:59:35.000Z</time>
      </trkpt>
      <trkpt lat="45.52107" lon="4.05234">
        <ele>691.59997558594</ele>
        <time>2016-09-11T07:59:36.000Z</time>
      </trkpt>
      <trkpt lat="45.52106" lon="4.0522">
        <ele>692.40002441406</ele>
        <time>2016-09-11T07:59:41.000Z</time>
      </trkpt>
      <trkpt lat="45.52106" lon="4.05214">
        <ele>692.59997558594</ele>
        <time>2016-09-11T07:59:43.000Z</time>
      </trkpt>
      <trkpt lat="45.52105" lon="4.05208">
        <ele>693</ele>
        <time>2016-09-11T07:59:45.000Z</time>
      </trkpt>
      <trkpt lat="45.52106" lon="4.052">
        <ele>693.20001220703</ele>
        <time>2016-09-11T07:59:48.000Z</time>
      </trkpt>
      <trkpt lat="45.52106" lon="4.05175">
        <ele>694.40002441406</ele>
        <time>2016-09-11T07:59:57.000Z</time>
      </trkpt>
      <trkpt lat="45.52106" lon="4.05155">
        <ele>695.79998779297</ele>
        <time>2016-09-11T08:00:04.000Z</time>
      </trkpt>
      <trkpt lat="45.52106" lon="4.05152">
        <ele>696</ele>
        <time>2016-09-11T08:00:05.000Z</time>
      </trkpt>
      <trkpt lat="45.52105" lon="4.05125">
        <ele>697.79998779297</ele>
        <time>2016-09-11T08:00:15.000Z</time>
      </trkpt>
      <trkpt lat="45.52105" lon="4.05098">
        <ele>699.79998779297</ele>
        <time>2016-09-11T08:00:26.000Z</time>
      </trkpt>
      <trkpt lat="45.52103" lon="4.05075">
        <ele>701.40002441406</ele>
        <time>2016-09-11T08:00:34.000Z</time>
      </trkpt>
      <trkpt lat="45.52103" lon="4.05072">
        <ele>701.79998779297</ele>
        <time>2016-09-11T08:00:35.000Z</time>
      </trkpt>
      <trkpt lat="45.52103" lon="4.05063">
        <ele>702.40002441406</ele>
        <time>2016-09-11T08:00:38.000Z</time>
      </trkpt>
      <trkpt lat="45.52107" lon="4.05039">
        <ele>704</ele>
        <time>2016-09-11T08:00:49.000Z</time>
      </trkpt>
      <trkpt lat="45.52114" lon="4.05035">
        <ele>704.40002441406</ele>
        <time>2016-09-11T08:00:53.000Z</time>
      </trkpt>
      <trkpt lat="45.52115" lon="4.05034">
        <ele>704.40002441406</ele>
        <time>2016-09-11T08:00:54.000Z</time>
      </trkpt>
      <trkpt lat="45.52124" lon="4.05029">
        <ele>704.79998779297</ele>
        <time>2016-09-11T08:00:59.000Z</time>
      </trkpt>
      <trkpt lat="45.52126" lon="4.05027">
        <ele>704.79998779297</ele>
        <time>2016-09-11T08:01:00.000Z</time>
      </trkpt>
      <trkpt lat="45.5213" lon="4.05025">
        <ele>705</ele>
        <time>2016-09-11T08:01:02.000Z</time>
      </trkpt>
      <trkpt lat="45.52135" lon="4.05021">
        <ele>705.40002441406</ele>
        <time>2016-09-11T08:01:05.000Z</time>
      </trkpt>
      <trkpt lat="45.52145" lon="4.05017">
        <ele>706.20001220703</ele>
        <time>2016-09-11T08:01:09.000Z</time>
      </trkpt>
      <trkpt lat="45.52163" lon="4.05012">
        <ele>707.79998779297</ele>
        <time>2016-09-11T08:01:16.000Z</time>
      </trkpt>
      <trkpt lat="45.52181" lon="4.05004">
        <ele>709.40002441406</ele>
        <time>2016-09-11T08:01:25.000Z</time>
      </trkpt>
      <trkpt lat="45.52192" lon="4.04994">
        <ele>710.79998779297</ele>
        <time>2016-09-11T08:01:32.000Z</time>
      </trkpt>
      <trkpt lat="45.52193" lon="4.04992">
        <ele>710.79998779297</ele>
        <time>2016-09-11T08:01:33.000Z</time>
      </trkpt>
      <trkpt lat="45.52202" lon="4.04988">
        <ele>711.59997558594</ele>
        <time>2016-09-11T08:01:38.000Z</time>
      </trkpt>
      <trkpt lat="45.52204" lon="4.04987">
        <ele>711.59997558594</ele>
        <time>2016-09-11T08:01:39.000Z</time>
      </trkpt>
      <trkpt lat="45.52214" lon="4.04982">
        <ele>712.59997558594</ele>
        <time>2016-09-11T08:01:45.000Z</time>
      </trkpt>
      <trkpt lat="45.52215" lon="4.04981">
        <ele>712.59997558594</ele>
        <time>2016-09-11T08:01:46.000Z</time>
      </trkpt>
      <trkpt lat="45.52218" lon="4.04979">
        <ele>712.79998779297</ele>
        <time>2016-09-11T08:01:48.000Z</time>
      </trkpt>
      <trkpt lat="45.52232" lon="4.04968">
        <ele>714.20001220703</ele>
        <time>2016-09-11T08:01:59.000Z</time>
      </trkpt>
      <trkpt lat="45.52234" lon="4.04966">
        <ele>714.40002441406</ele>
        <time>2016-09-11T08:02:00.000Z</time>
      </trkpt>
      <trkpt lat="45.52239" lon="4.04963">
        <ele>714.79998779297</ele>
        <time>2016-09-11T08:02:03.000Z</time>
      </trkpt>
      <trkpt lat="45.52243" lon="4.0496">
        <ele>715.20001220703</ele>
        <time>2016-09-11T08:02:06.000Z</time>
      </trkpt>
      <trkpt lat="45.52247" lon="4.04957">
        <ele>715.40002441406</ele>
        <time>2016-09-11T08:02:09.000Z</time>
      </trkpt>
      <trkpt lat="45.52265" lon="4.04945">
        <ele>716.59997558594</ele>
        <time>2016-09-11T08:02:21.000Z</time>
      </trkpt>
      <trkpt lat="45.52276" lon="4.04944">
        <ele>717</ele>
        <time>2016-09-11T08:02:27.000Z</time>
      </trkpt>
      <trkpt lat="45.52278" lon="4.04944">
        <ele>717.20001220703</ele>
        <time>2016-09-11T08:02:28.000Z</time>
      </trkpt>
      <trkpt lat="45.52284" lon="4.04943">
        <ele>717.40002441406</ele>
        <time>2016-09-11T08:02:31.000Z</time>
      </trkpt>
      <trkpt lat="45.52291" lon="4.0494">
        <ele>717.79998779297</ele>
        <time>2016-09-11T08:02:35.000Z</time>
      </trkpt>
      <trkpt lat="45.52296" lon="4.04935">
        <ele>718</ele>
        <time>2016-09-11T08:02:38.000Z</time>
      </trkpt>
      <trkpt lat="45.52298" lon="4.04912">
        <ele>718.40002441406</ele>
        <time>2016-09-11T08:02:46.000Z</time>
      </trkpt>
      <trkpt lat="45.52298" lon="4.04909">
        <ele>718.40002441406</ele>
        <time>2016-09-11T08:02:47.000Z</time>
      </trkpt>
      <trkpt lat="45.52298" lon="4.04895">
        <ele>718.59997558594</ele>
        <time>2016-09-11T08:02:51.000Z</time>
      </trkpt>
      <trkpt lat="45.52298" lon="4.04892">
        <ele>718.59997558594</ele>
        <time>2016-09-11T08:02:52.000Z</time>
      </trkpt>
      <trkpt lat="45.52298" lon="4.04878">
        <ele>718.79998779297</ele>
        <time>2016-09-11T08:02:56.000Z</time>
      </trkpt>
      <trkpt lat="45.52299" lon="4.04875">
        <ele>718.79998779297</ele>
        <time>2016-09-11T08:02:57.000Z</time>
      </trkpt>
      <trkpt lat="45.52299" lon="4.04855">
        <ele>719.20001220703</ele>
        <time>2016-09-11T08:03:03.000Z</time>
      </trkpt>
      <trkpt lat="45.52299" lon="4.04852">
        <ele>719.40002441406</ele>
        <time>2016-09-11T08:03:04.000Z</time>
      </trkpt>
      <trkpt lat="45.523" lon="4.04838">
        <ele>720</ele>
        <time>2016-09-11T08:03:09.000Z</time>
      </trkpt>
      <trkpt lat="45.523" lon="4.0483">
        <ele>720.40002441406</ele>
        <time>2016-09-11T08:03:12.000Z</time>
      </trkpt>
      <trkpt lat="45.523" lon="4.04802">
        <ele>721.79998779297</ele>
        <time>2016-09-11T08:03:22.000Z</time>
      </trkpt>
      <trkpt lat="45.52294" lon="4.04779">
        <ele>722.79998779297</ele>
        <time>2016-09-11T08:03:32.000Z</time>
      </trkpt>
      <trkpt lat="45.52291" lon="4.04775">
        <ele>723</ele>
        <time>2016-09-11T08:03:34.000Z</time>
      </trkpt>
      <trkpt lat="45.5229" lon="4.04774">
        <ele>723.20001220703</ele>
        <time>2016-09-11T08:03:35.000Z</time>
      </trkpt>
      <trkpt lat="45.52282" lon="4.04761">
        <ele>724</ele>
        <time>2016-09-11T08:03:41.000Z</time>
      </trkpt>
      <trkpt lat="45.52281" lon="4.04759">
        <ele>724</ele>
        <time>2016-09-11T08:03:42.000Z</time>
      </trkpt>
      <trkpt lat="45.52262" lon="4.0475">
        <ele>724.59997558594</ele>
        <time>2016-09-11T08:03:51.000Z</time>
      </trkpt>
      <trkpt lat="45.52256" lon="4.04747">
        <ele>724.79998779297</ele>
        <time>2016-09-11T08:03:54.000Z</time>
      </trkpt>
      <trkpt lat="45.52254" lon="4.04746">
        <ele>724.79998779297</ele>
        <time>2016-09-11T08:03:55.000Z</time>
      </trkpt>
      <trkpt lat="45.52234" lon="4.0474">
        <ele>725.20001220703</ele>
        <time>2016-09-11T08:04:03.000Z</time>
      </trkpt>
      <trkpt lat="45.52215" lon="4.04729">
        <ele>725.79998779297</ele>
        <time>2016-09-11T08:04:11.000Z</time>
      </trkpt>
      <trkpt lat="45.52213" lon="4.04727">
        <ele>726</ele>
        <time>2016-09-11T08:04:12.000Z</time>
      </trkpt>
      <trkpt lat="45.52197" lon="4.04713">
        <ele>726.59997558594</ele>
        <time>2016-09-11T08:04:22.000Z</time>
      </trkpt>
      <trkpt lat="45.52196" lon="4.04722">
        <ele>726</ele>
        <time>2016-09-11T08:04:40.000Z</time>
      </trkpt>
      <trkpt lat="45.52187" lon="4.047">
        <ele>727.20001220703</ele>
        <time>2016-09-11T08:04:55.000Z</time>
      </trkpt>
      <trkpt lat="45.5218" lon="4.04684">
        <ele>728.20001220703</ele>
        <time>2016-09-11T08:05:02.000Z</time>
      </trkpt>
      <trkpt lat="45.52178" lon="4.04678">
        <ele>728.79998779297</ele>
        <time>2016-09-11T08:05:04.000Z</time>
      </trkpt>
      <trkpt lat="45.52183" lon="4.04653">
        <ele>730.79998779297</ele>
        <time>2016-09-11T08:05:13.000Z</time>
      </trkpt>
      <trkpt lat="45.52196" lon="4.04643">
        <ele>731.20001220703</ele>
        <time>2016-09-11T08:05:19.000Z</time>
      </trkpt>
      <trkpt lat="45.52198" lon="4.04638">
        <ele>731.59997558594</ele>
        <time>2016-09-11T08:05:21.000Z</time>
      </trkpt>
      <trkpt lat="45.522" lon="4.04628">
        <ele>732</ele>
        <time>2016-09-11T08:05:24.000Z</time>
      </trkpt>
      <trkpt lat="45.52204" lon="4.04617">
        <ele>732.59997558594</ele>
        <time>2016-09-11T08:05:28.000Z</time>
      </trkpt>
      <trkpt lat="45.52205" lon="4.04615">
        <ele>732.79998779297</ele>
        <time>2016-09-11T08:05:29.000Z</time>
      </trkpt>
      <trkpt lat="45.52213" lon="4.04603">
        <ele>733.59997558594</ele>
        <time>2016-09-11T08:05:37.000Z</time>
      </trkpt>
      <trkpt lat="45.52214" lon="4.04601">
        <ele>733.79998779297</ele>
        <time>2016-09-11T08:05:38.000Z</time>
      </trkpt>
      <trkpt lat="45.52221" lon="4.04591">
        <ele>734.79998779297</ele>
        <time>2016-09-11T08:05:43.000Z</time>
      </trkpt>
      <trkpt lat="45.52222" lon="4.04589">
        <ele>735</ele>
        <time>2016-09-11T08:05:44.000Z</time>
      </trkpt>
      <trkpt lat="45.52225" lon="4.04584">
        <ele>735.40002441406</ele>
        <time>2016-09-11T08:05:46.000Z</time>
      </trkpt>
      <trkpt lat="45.52228" lon="4.04578">
        <ele>736</ele>
        <time>2016-09-11T08:05:49.000Z</time>
      </trkpt>
      <trkpt lat="45.52231" lon="4.04573">
        <ele>736.40002441406</ele>
        <time>2016-09-11T08:05:51.000Z</time>
      </trkpt>
      <trkpt lat="45.52243" lon="4.04553">
        <ele>738.40002441406</ele>
        <time>2016-09-11T08:06:00.000Z</time>
      </trkpt>
      <trkpt lat="45.52244" lon="4.04551">
        <ele>738.59997558594</ele>
        <time>2016-09-11T08:06:01.000Z</time>
      </trkpt>
      <trkpt lat="45.52254" lon="4.0453">
        <ele>740.20001220703</ele>
        <time>2016-09-11T08:06:10.000Z</time>
      </trkpt>
      <trkpt lat="45.52256" lon="4.04526">
        <ele>740.59997558594</ele>
        <time>2016-09-11T08:06:12.000Z</time>
      </trkpt>
      <trkpt lat="45.52259" lon="4.04519">
        <ele>741.20001220703</ele>
        <time>2016-09-11T08:06:15.000Z</time>
      </trkpt>
      <trkpt lat="45.52264" lon="4.04509">
        <ele>742.20001220703</ele>
        <time>2016-09-11T08:06:19.000Z</time>
      </trkpt>
      <trkpt lat="45.5228" lon="4.04495">
        <ele>743.40002441406</ele>
        <time>2016-09-11T08:06:28.000Z</time>
      </trkpt>
      <trkpt lat="45.52299" lon="4.04492">
        <ele>742.79998779297</ele>
        <time>2016-09-11T08:06:38.000Z</time>
      </trkpt>
      <trkpt lat="45.52313" lon="4.04485">
        <ele>743.20001220703</ele>
        <time>2016-09-11T08:06:46.000Z</time>
      </trkpt>
      <trkpt lat="45.52314" lon="4.04483">
        <ele>743.20001220703</ele>
        <time>2016-09-11T08:06:47.000Z</time>
      </trkpt>
      <trkpt lat="45.52328" lon="4.04467">
        <ele>744.20001220703</ele>
        <time>2016-09-11T08:06:57.000Z</time>
      </trkpt>
      <trkpt lat="45.52329" lon="4.04465">
        <ele>744.40002441406</ele>
        <time>2016-09-11T08:06:58.000Z</time>
      </trkpt>
      <trkpt lat="45.52335" lon="4.04459">
        <ele>744.79998779297</ele>
        <time>2016-09-11T08:07:01.000Z</time>
      </trkpt>
      <trkpt lat="45.52339" lon="4.04453">
        <ele>745.20001220703</ele>
        <time>2016-09-11T08:07:04.000Z</time>
      </trkpt>
      <trkpt lat="45.52354" lon="4.04434">
        <ele>746.20001220703</ele>
        <time>2016-09-11T08:07:12.000Z</time>
      </trkpt>
      <trkpt lat="45.52357" lon="4.0443">
        <ele>746.20001220703</ele>
        <time>2016-09-11T08:07:14.000Z</time>
      </trkpt>
      <trkpt lat="45.52358" lon="4.04428">
        <ele>746.20001220703</ele>
        <time>2016-09-11T08:07:15.000Z</time>
      </trkpt>
      <trkpt lat="45.52369" lon="4.04414">
        <ele>746.59997558594</ele>
        <time>2016-09-11T08:07:21.000Z</time>
      </trkpt>
      <trkpt lat="45.52371" lon="4.04412">
        <ele>746.79998779297</ele>
        <time>2016-09-11T08:07:22.000Z</time>
      </trkpt>
      <trkpt lat="45.52375" lon="4.04407">
        <ele>747</ele>
        <time>2016-09-11T08:07:24.000Z</time>
      </trkpt>
      <trkpt lat="45.52388" lon="4.04387">
        <ele>747.40002441406</ele>
        <time>2016-09-11T08:07:32.000Z</time>
      </trkpt>
      <trkpt lat="45.52397" lon="4.04368">
        <ele>748</ele>
        <time>2016-09-11T08:07:39.000Z</time>
      </trkpt>
      <trkpt lat="45.52398" lon="4.04365">
        <ele>748.20001220703</ele>
        <time>2016-09-11T08:07:40.000Z</time>
      </trkpt>
      <trkpt lat="45.52407" lon="4.04342">
        <ele>748.59997558594</ele>
        <time>2016-09-11T08:07:49.000Z</time>
      </trkpt>
      <trkpt lat="45.52409" lon="4.0434">
        <ele>748.59997558594</ele>
        <time>2016-09-11T08:07:50.000Z</time>
      </trkpt>
      <trkpt lat="45.52418" lon="4.04315">
        <ele>748.79998779297</ele>
        <time>2016-09-11T08:08:00.000Z</time>
      </trkpt>
      <trkpt lat="45.5242" lon="4.04295">
        <ele>749.20001220703</ele>
        <time>2016-09-11T08:08:06.000Z</time>
      </trkpt>
      <trkpt lat="45.52421" lon="4.04291">
        <ele>749.20001220703</ele>
        <time>2016-09-11T08:08:07.000Z</time>
      </trkpt>
      <trkpt lat="45.52425" lon="4.04268">
        <ele>750</ele>
        <time>2016-09-11T08:08:13.000Z</time>
      </trkpt>
      <trkpt lat="45.52425" lon="4.04265">
        <ele>750.20001220703</ele>
        <time>2016-09-11T08:08:14.000Z</time>
      </trkpt>
      <trkpt lat="45.52426" lon="4.04258">
        <ele>750.59997558594</ele>
        <time>2016-09-11T08:08:16.000Z</time>
      </trkpt>
      <trkpt lat="45.52426" lon="4.04247">
        <ele>751.20001220703</ele>
        <time>2016-09-11T08:08:19.000Z</time>
      </trkpt>
      <trkpt lat="45.52426" lon="4.0422">
        <ele>752.20001220703</ele>
        <time>2016-09-11T08:08:27.000Z</time>
      </trkpt>
      <trkpt lat="45.52427" lon="4.04211">
        <ele>752.20001220703</ele>
        <time>2016-09-11T08:08:30.000Z</time>
      </trkpt>
      <trkpt lat="45.52428" lon="4.04208">
        <ele>752.20001220703</ele>
        <time>2016-09-11T08:08:31.000Z</time>
      </trkpt>
      <trkpt lat="45.52433" lon="4.04186">
        <ele>752</ele>
        <time>2016-09-11T08:08:37.000Z</time>
      </trkpt>
      <trkpt lat="45.52434" lon="4.04182">
        <ele>752</ele>
        <time>2016-09-11T08:08:38.000Z</time>
      </trkpt>
      <trkpt lat="45.52442" lon="4.04162">
        <ele>751.79998779297</ele>
        <time>2016-09-11T08:08:43.000Z</time>
      </trkpt>
      <trkpt lat="45.52444" lon="4.04159">
        <ele>751.79998779297</ele>
        <time>2016-09-11T08:08:44.000Z</time>
      </trkpt>
      <trkpt lat="45.52455" lon="4.04137">
        <ele>751.40002441406</ele>
        <time>2016-09-11T08:08:50.000Z</time>
      </trkpt>
      <trkpt lat="45.52466" lon="4.04114">
        <ele>751</ele>
        <time>2016-09-11T08:08:58.000Z</time>
      </trkpt>
      <trkpt lat="45.52463" lon="4.04088">
        <ele>751.20001220703</ele>
        <time>2016-09-11T08:09:06.000Z</time>
      </trkpt>
      <trkpt lat="45.52463" lon="4.04083">
        <ele>751.20001220703</ele>
        <time>2016-09-11T08:09:07.000Z</time>
      </trkpt>
      <trkpt lat="45.52463" lon="4.04079">
        <ele>751.20001220703</ele>
        <time>2016-09-11T08:09:08.000Z</time>
      </trkpt>
      <trkpt lat="45.52463" lon="4.04052">
        <ele>750.79998779297</ele>
        <time>2016-09-11T08:09:16.000Z</time>
      </trkpt>
      <trkpt lat="45.52464" lon="4.04035">
        <ele>750.59997558594</ele>
        <time>2016-09-11T08:09:23.000Z</time>
      </trkpt>
      <trkpt lat="45.52464" lon="4.04029">
        <ele>750.40002441406</ele>
        <time>2016-09-11T08:09:25.000Z</time>
      </trkpt>
      <trkpt lat="45.52465" lon="4.04019">
        <ele>750.40002441406</ele>
        <time>2016-09-11T08:09:29.000Z</time>
      </trkpt>
      <trkpt lat="45.52465" lon="4.04016">
        <ele>750.40002441406</ele>
        <time>2016-09-11T08:09:30.000Z</time>
      </trkpt>
      <trkpt lat="45.52465" lon="4.04007">
        <ele>750.40002441406</ele>
        <time>2016-09-11T08:09:33.000Z</time>
      </trkpt>
      <trkpt lat="45.52464" lon="4.03988">
        <ele>750.40002441406</ele>
        <time>2016-09-11T08:09:39.000Z</time>
      </trkpt>
      <trkpt lat="45.52464" lon="4.03985">
        <ele>750.40002441406</ele>
        <time>2016-09-11T08:09:40.000Z</time>
      </trkpt>
      <trkpt lat="45.52464" lon="4.03969">
        <ele>750.59997558594</ele>
        <time>2016-09-11T08:09:44.000Z</time>
      </trkpt>
      <trkpt lat="45.52466" lon="4.03945">
        <ele>750.20001220703</ele>
        <time>2016-09-11T08:09:51.000Z</time>
      </trkpt>
      <trkpt lat="45.52467" lon="4.03938">
        <ele>750</ele>
        <time>2016-09-11T08:09:53.000Z</time>
      </trkpt>
      <trkpt lat="45.52465" lon="4.03911">
        <ele>750.59997558594</ele>
        <time>2016-09-11T08:10:01.000Z</time>
      </trkpt>
      <trkpt lat="45.52463" lon="4.03885">
        <ele>751.20001220703</ele>
        <time>2016-09-11T08:10:09.000Z</time>
      </trkpt>
      <trkpt lat="45.52462" lon="4.03877">
        <ele>751.40002441406</ele>
        <time>2016-09-11T08:10:11.000Z</time>
      </trkpt>
      <trkpt lat="45.52462" lon="4.03869">
        <ele>751.59997558594</ele>
        <time>2016-09-11T08:10:13.000Z</time>
      </trkpt>
      <trkpt lat="45.5246" lon="4.03853">
        <ele>752</ele>
        <time>2016-09-11T08:10:17.000Z</time>
      </trkpt>
      <trkpt lat="45.52457" lon="4.03837">
        <ele>752</ele>
        <time>2016-09-11T08:10:21.000Z</time>
      </trkpt>
      <trkpt lat="45.52455" lon="4.03825">
        <ele>752.20001220703</ele>
        <time>2016-09-11T08:10:24.000Z</time>
      </trkpt>
      <trkpt lat="45.52452" lon="4.03809">
        <ele>752.40002441406</ele>
        <time>2016-09-11T08:10:28.000Z</time>
      </trkpt>
      <trkpt lat="45.5245" lon="4.038">
        <ele>752.40002441406</ele>
        <time>2016-09-11T08:10:30.000Z</time>
      </trkpt>
      <trkpt lat="45.52448" lon="4.03783">
        <ele>752.59997558594</ele>
        <time>2016-09-11T08:10:34.000Z</time>
      </trkpt>
      <trkpt lat="45.52446" lon="4.0377">
        <ele>752.79998779297</ele>
        <time>2016-09-11T08:10:37.000Z</time>
      </trkpt>
      <trkpt lat="45.52441" lon="4.03742">
        <ele>753.20001220703</ele>
        <time>2016-09-11T08:10:44.000Z</time>
      </trkpt>
      <trkpt lat="45.52441" lon="4.03733">
        <ele>753.40002441406</ele>
        <time>2016-09-11T08:10:46.000Z</time>
      </trkpt>
      <trkpt lat="45.5244" lon="4.03729">
        <ele>753.40002441406</ele>
        <time>2016-09-11T08:10:47.000Z</time>
      </trkpt>
      <trkpt lat="45.52439" lon="4.03703">
        <ele>754</ele>
        <time>2016-09-11T08:10:53.000Z</time>
      </trkpt>
      <trkpt lat="45.52438" lon="4.03694">
        <ele>754.20001220703</ele>
        <time>2016-09-11T08:10:55.000Z</time>
      </trkpt>
      <trkpt lat="45.52438" lon="4.0369">
        <ele>754.20001220703</ele>
        <time>2016-09-11T08:10:56.000Z</time>
      </trkpt>
      <trkpt lat="45.52436" lon="4.03661">
        <ele>755.20001220703</ele>
        <time>2016-09-11T08:11:03.000Z</time>
      </trkpt>
      <trkpt lat="45.52435" lon="4.03657">
        <ele>755.40002441406</ele>
        <time>2016-09-11T08:11:04.000Z</time>
      </trkpt>
      <trkpt lat="45.52435" lon="4.03653">
        <ele>755.79998779297</ele>
        <time>2016-09-11T08:11:05.000Z</time>
      </trkpt>
      <trkpt lat="45.52434" lon="4.03629">
        <ele>757.59997558594</ele>
        <time>2016-09-11T08:11:12.000Z</time>
      </trkpt>
      <trkpt lat="45.52433" lon="4.03625">
        <ele>757.79998779297</ele>
        <time>2016-09-11T08:11:13.000Z</time>
      </trkpt>
      <trkpt lat="45.52433" lon="4.03615">
        <ele>758.59997558594</ele>
        <time>2016-09-11T08:11:16.000Z</time>
      </trkpt>
      <trkpt lat="45.52434" lon="4.03596">
        <ele>759.59997558594</ele>
        <time>2016-09-11T08:11:21.000Z</time>
      </trkpt>
      <trkpt lat="45.52434" lon="4.03589">
        <ele>760</ele>
        <time>2016-09-11T08:11:23.000Z</time>
      </trkpt>
      <trkpt lat="45.52434" lon="4.03574">
        <ele>760.59997558594</ele>
        <time>2016-09-11T08:11:27.000Z</time>
      </trkpt>
      <trkpt lat="45.52436" lon="4.03555">
        <ele>761.79998779297</ele>
        <time>2016-09-11T08:11:32.000Z</time>
      </trkpt>
      <trkpt lat="45.52436" lon="4.03551">
        <ele>762</ele>
        <time>2016-09-11T08:11:33.000Z</time>
      </trkpt>
      <trkpt lat="45.52438" lon="4.03534">
        <ele>762.79998779297</ele>
        <time>2016-09-11T08:11:38.000Z</time>
      </trkpt>
      <trkpt lat="45.52439" lon="4.03527">
        <ele>763.20001220703</ele>
        <time>2016-09-11T08:11:40.000Z</time>
      </trkpt>
      <trkpt lat="45.5244" lon="4.03517">
        <ele>764</ele>
        <time>2016-09-11T08:11:43.000Z</time>
      </trkpt>
      <trkpt lat="45.52442" lon="4.03504">
        <ele>765.20001220703</ele>
        <time>2016-09-11T08:11:47.000Z</time>
      </trkpt>
      <trkpt lat="45.52443" lon="4.03502">
        <ele>765.40002441406</ele>
        <time>2016-09-11T08:11:48.000Z</time>
      </trkpt>
      <trkpt lat="45.52446" lon="4.0349">
        <ele>766</ele>
        <time>2016-09-11T08:11:52.000Z</time>
      </trkpt>
      <trkpt lat="45.52448" lon="4.03485">
        <ele>766.40002441406</ele>
        <time>2016-09-11T08:11:54.000Z</time>
      </trkpt>
      <trkpt lat="45.52453" lon="4.03474">
        <ele>766.79998779297</ele>
        <time>2016-09-11T08:11:58.000Z</time>
      </trkpt>
      <trkpt lat="45.5246" lon="4.03449">
        <ele>768</ele>
        <time>2016-09-11T08:12:07.000Z</time>
      </trkpt>
      <trkpt lat="45.52467" lon="4.03423">
        <ele>769</ele>
        <time>2016-09-11T08:12:17.000Z</time>
      </trkpt>
      <trkpt lat="45.52469" lon="4.03411">
        <ele>769.40002441406</ele>
        <time>2016-09-11T08:12:21.000Z</time>
      </trkpt>
      <trkpt lat="45.52469" lon="4.03409">
        <ele>769.40002441406</ele>
        <time>2016-09-11T08:12:22.000Z</time>
      </trkpt>
      <trkpt lat="45.52472" lon="4.03381">
        <ele>770.59997558594</ele>
        <time>2016-09-11T08:12:31.000Z</time>
      </trkpt>
      <trkpt lat="45.52472" lon="4.03378">
        <ele>770.79998779297</ele>
        <time>2016-09-11T08:12:32.000Z</time>
      </trkpt>
      <trkpt lat="45.52471" lon="4.03366">
        <ele>771.40002441406</ele>
        <time>2016-09-11T08:12:36.000Z</time>
      </trkpt>
      <trkpt lat="45.5247" lon="4.03348">
        <ele>772.59997558594</ele>
        <time>2016-09-11T08:12:42.000Z</time>
      </trkpt>
      <trkpt lat="45.5247" lon="4.03345">
        <ele>772.79998779297</ele>
        <time>2016-09-11T08:12:43.000Z</time>
      </trkpt>
      <trkpt lat="45.5247" lon="4.03325">
        <ele>774.20001220703</ele>
        <time>2016-09-11T08:12:50.000Z</time>
      </trkpt>
      <trkpt lat="45.5247" lon="4.03321">
        <ele>774.40002441406</ele>
        <time>2016-09-11T08:12:51.000Z</time>
      </trkpt>
      <trkpt lat="45.52471" lon="4.03305">
        <ele>775.59997558594</ele>
        <time>2016-09-11T08:12:56.000Z</time>
      </trkpt>
      <trkpt lat="45.52472" lon="4.03295">
        <ele>776.20001220703</ele>
        <time>2016-09-11T08:12:59.000Z</time>
      </trkpt>
      <trkpt lat="45.52473" lon="4.03285">
        <ele>776.79998779297</ele>
        <time>2016-09-11T08:13:02.000Z</time>
      </trkpt>
      <trkpt lat="45.52474" lon="4.03276">
        <ele>777.20001220703</ele>
        <time>2016-09-11T08:13:05.000Z</time>
      </trkpt>
      <trkpt lat="45.52475" lon="4.0327">
        <ele>777.40002441406</ele>
        <time>2016-09-11T08:13:07.000Z</time>
      </trkpt>
      <trkpt lat="45.52476" lon="4.03263">
        <ele>777.79998779297</ele>
        <time>2016-09-11T08:13:09.000Z</time>
      </trkpt>
      <trkpt lat="45.52482" lon="4.03239">
        <ele>778.59997558594</ele>
        <time>2016-09-11T08:13:17.000Z</time>
      </trkpt>
      <trkpt lat="45.52491" lon="4.03215">
        <ele>779</ele>
        <time>2016-09-11T08:13:26.000Z</time>
      </trkpt>
      <trkpt lat="45.525" lon="4.03197">
        <ele>780.20001220703</ele>
        <time>2016-09-11T08:13:33.000Z</time>
      </trkpt>
      <trkpt lat="45.52501" lon="4.03193">
        <ele>780.40002441406</ele>
        <time>2016-09-11T08:13:34.000Z</time>
      </trkpt>
      <trkpt lat="45.52504" lon="4.03183">
        <ele>781.59997558594</ele>
        <time>2016-09-11T08:13:37.000Z</time>
      </trkpt>
      <trkpt lat="45.52514" lon="4.03159">
        <ele>784.40002441406</ele>
        <time>2016-09-11T08:13:45.000Z</time>
      </trkpt>
      <trkpt lat="45.52523" lon="4.03137">
        <ele>786</ele>
        <time>2016-09-11T08:13:52.000Z</time>
      </trkpt>
      <trkpt lat="45.52524" lon="4.03134">
        <ele>786.20001220703</ele>
        <time>2016-09-11T08:13:53.000Z</time>
      </trkpt>
      <trkpt lat="45.52527" lon="4.03128">
        <ele>786.40002441406</ele>
        <time>2016-09-11T08:13:55.000Z</time>
      </trkpt>
      <trkpt lat="45.52535" lon="4.03112">
        <ele>787.40002441406</ele>
        <time>2016-09-11T08:14:00.000Z</time>
      </trkpt>
      <trkpt lat="45.52537" lon="4.03109">
        <ele>787.40002441406</ele>
        <time>2016-09-11T08:14:01.000Z</time>
      </trkpt>
      <trkpt lat="45.52549" lon="4.03087">
        <ele>788.40002441406</ele>
        <time>2016-09-11T08:14:09.000Z</time>
      </trkpt>
      <trkpt lat="45.52563" lon="4.03069">
        <ele>789.79998779297</ele>
        <time>2016-09-11T08:14:17.000Z</time>
      </trkpt>
      <trkpt lat="45.52577" lon="4.03053">
        <ele>791</ele>
        <time>2016-09-11T08:14:26.000Z</time>
      </trkpt>
      <trkpt lat="45.52583" lon="4.03047">
        <ele>791</ele>
        <time>2016-09-11T08:14:30.000Z</time>
      </trkpt>
      <trkpt lat="45.52587" lon="4.03044">
        <ele>790.79998779297</ele>
        <time>2016-09-11T08:14:32.000Z</time>
      </trkpt>
      <trkpt lat="45.52604" lon="4.0303">
        <ele>790.20001220703</ele>
        <time>2016-09-11T08:14:42.000Z</time>
      </trkpt>
      <trkpt lat="45.52618" lon="4.03012">
        <ele>789.79998779297</ele>
        <time>2016-09-11T08:14:50.000Z</time>
      </trkpt>
      <trkpt lat="45.5262" lon="4.03009">
        <ele>789.79998779297</ele>
        <time>2016-09-11T08:14:51.000Z</time>
      </trkpt>
      <trkpt lat="45.52622" lon="4.03007">
        <ele>789.59997558594</ele>
        <time>2016-09-11T08:14:52.000Z</time>
      </trkpt>
      <trkpt lat="45.52631" lon="4.02995">
        <ele>789</ele>
        <time>2016-09-11T08:14:56.000Z</time>
      </trkpt>
      <trkpt lat="45.52634" lon="4.02991">
        <ele>788.79998779297</ele>
        <time>2016-09-11T08:14:57.000Z</time>
      </trkpt>
      <trkpt lat="45.52646" lon="4.02971">
        <ele>787.79998779297</ele>
        <time>2016-09-11T08:15:02.000Z</time>
      </trkpt>
      <trkpt lat="45.52651" lon="4.02964">
        <ele>787.40002441406</ele>
        <time>2016-09-11T08:15:04.000Z</time>
      </trkpt>
      <trkpt lat="45.52653" lon="4.0296">
        <ele>787.20001220703</ele>
        <time>2016-09-11T08:15:05.000Z</time>
      </trkpt>
      <trkpt lat="45.52664" lon="4.02939">
        <ele>787.59997558594</ele>
        <time>2016-09-11T08:15:11.000Z</time>
      </trkpt>
      <trkpt lat="45.52666" lon="4.02936">
        <ele>787.59997558594</ele>
        <time>2016-09-11T08:15:12.000Z</time>
      </trkpt>
      <trkpt lat="45.52673" lon="4.02919">
        <ele>788.20001220703</ele>
        <time>2016-09-11T08:15:17.000Z</time>
      </trkpt>
      <trkpt lat="45.52677" lon="4.02905">
        <ele>788.59997558594</ele>
        <time>2016-09-11T08:15:21.000Z</time>
      </trkpt>
      <trkpt lat="45.5268" lon="4.02893">
        <ele>788.79998779297</ele>
        <time>2016-09-11T08:15:25.000Z</time>
      </trkpt>
      <trkpt lat="45.52682" lon="4.02891">
        <ele>788.79998779297</ele>
        <time>2016-09-11T08:15:26.000Z</time>
      </trkpt>
      <trkpt lat="45.52691" lon="4.02868">
        <ele>789</ele>
        <time>2016-09-11T08:15:34.000Z</time>
      </trkpt>
      <trkpt lat="45.527" lon="4.02845">
        <ele>788.79998779297</ele>
        <time>2016-09-11T08:15:41.000Z</time>
      </trkpt>
      <trkpt lat="45.52708" lon="4.02822">
        <ele>789</ele>
        <time>2016-09-11T08:15:47.000Z</time>
      </trkpt>
      <trkpt lat="45.52718" lon="4.02798">
        <ele>789</ele>
        <time>2016-09-11T08:15:54.000Z</time>
      </trkpt>
      <trkpt lat="45.52728" lon="4.02775">
        <ele>789.20001220703</ele>
        <time>2016-09-11T08:16:00.000Z</time>
      </trkpt>
      <trkpt lat="45.52735" lon="4.02747">
        <ele>790.20001220703</ele>
        <time>2016-09-11T08:16:07.000Z</time>
      </trkpt>
      <trkpt lat="45.52737" lon="4.02731">
        <ele>791</ele>
        <time>2016-09-11T08:16:11.000Z</time>
      </trkpt>
      <trkpt lat="45.52737" lon="4.02724">
        <ele>791.40002441406</ele>
        <time>2016-09-11T08:16:13.000Z</time>
      </trkpt>
      <trkpt lat="45.52737" lon="4.02696">
        <ele>793.40002441406</ele>
        <time>2016-09-11T08:16:22.000Z</time>
      </trkpt>
      <trkpt lat="45.52749" lon="4.02678">
        <ele>792.79998779297</ele>
        <time>2016-09-11T08:16:32.000Z</time>
      </trkpt>
      <trkpt lat="45.52767" lon="4.02674">
        <ele>791.59997558594</ele>
        <time>2016-09-11T08:16:39.000Z</time>
      </trkpt>
      <trkpt lat="45.52779" lon="4.02665">
        <ele>791</ele>
        <time>2016-09-11T08:16:43.000Z</time>
      </trkpt>
      <trkpt lat="45.52781" lon="4.02663">
        <ele>791.20001220703</ele>
        <time>2016-09-11T08:16:44.000Z</time>
      </trkpt>
      <trkpt lat="45.52789" lon="4.02658">
        <ele>791.59997558594</ele>
        <time>2016-09-11T08:16:47.000Z</time>
      </trkpt>
      <trkpt lat="45.52809" lon="4.02652">
        <ele>791.79998779297</ele>
        <time>2016-09-11T08:16:53.000Z</time>
      </trkpt>
      <trkpt lat="45.52822" lon="4.02651">
        <ele>791.40002441406</ele>
        <time>2016-09-11T08:16:56.000Z</time>
      </trkpt>
      <trkpt lat="45.52826" lon="4.0265">
        <ele>791.40002441406</ele>
        <time>2016-09-11T08:16:57.000Z</time>
      </trkpt>
      <trkpt lat="45.52837" lon="4.02648">
        <ele>791.20001220703</ele>
        <time>2016-09-11T08:17:00.000Z</time>
      </trkpt>
      <trkpt lat="45.52851" lon="4.02641">
        <ele>792</ele>
        <time>2016-09-11T08:17:04.000Z</time>
      </trkpt>
      <trkpt lat="45.52857" lon="4.02637">
        <ele>792.59997558594</ele>
        <time>2016-09-11T08:17:06.000Z</time>
      </trkpt>
      <trkpt lat="45.52869" lon="4.02631">
        <ele>793.59997558594</ele>
        <time>2016-09-11T08:17:10.000Z</time>
      </trkpt>
      <trkpt lat="45.52875" lon="4.02628">
        <ele>794</ele>
        <time>2016-09-11T08:17:12.000Z</time>
      </trkpt>
      <trkpt lat="45.52887" lon="4.02625">
        <ele>794.20001220703</ele>
        <time>2016-09-11T08:17:16.000Z</time>
      </trkpt>
      <trkpt lat="45.52891" lon="4.02625">
        <ele>794.20001220703</ele>
        <time>2016-09-11T08:17:17.000Z</time>
      </trkpt>
      <trkpt lat="45.52898" lon="4.02625">
        <ele>793.79998779297</ele>
        <time>2016-09-11T08:17:19.000Z</time>
      </trkpt>
      <trkpt lat="45.52908" lon="4.02625">
        <ele>792.79998779297</ele>
        <time>2016-09-11T08:17:22.000Z</time>
      </trkpt>
      <trkpt lat="45.52926" lon="4.02626">
        <ele>791.20001220703</ele>
        <time>2016-09-11T08:17:27.000Z</time>
      </trkpt>
      <trkpt lat="45.5294" lon="4.02626">
        <ele>789.79998779297</ele>
        <time>2016-09-11T08:17:30.000Z</time>
      </trkpt>
      <trkpt lat="45.52945" lon="4.02626">
        <ele>789.20001220703</ele>
        <time>2016-09-11T08:17:31.000Z</time>
      </trkpt>
      <trkpt lat="45.52966" lon="4.02625">
        <ele>787.40002441406</ele>
        <time>2016-09-11T08:17:35.000Z</time>
      </trkpt>
      <trkpt lat="45.52976" lon="4.02623">
        <ele>786.59997558594</ele>
        <time>2016-09-11T08:17:37.000Z</time>
      </trkpt>
      <trkpt lat="45.52997" lon="4.02619">
        <ele>785</ele>
        <time>2016-09-11T08:17:41.000Z</time>
      </trkpt>
      <trkpt lat="45.53002" lon="4.02619">
        <ele>784.59997558594</ele>
        <time>2016-09-11T08:17:42.000Z</time>
      </trkpt>
      <trkpt lat="45.53008" lon="4.02619">
        <ele>784.20001220703</ele>
        <time>2016-09-11T08:17:43.000Z</time>
      </trkpt>
      <trkpt lat="45.53028" lon="4.02617">
        <ele>782.40002441406</ele>
        <time>2016-09-11T08:17:47.000Z</time>
      </trkpt>
      <trkpt lat="45.53046" lon="4.026">
        <ele>781.40002441406</ele>
        <time>2016-09-11T08:17:51.000Z</time>
      </trkpt>
      <trkpt lat="45.5305" lon="4.02595">
        <ele>781</ele>
        <time>2016-09-11T08:17:52.000Z</time>
      </trkpt>
      <trkpt lat="45.53068" lon="4.02586">
        <ele>779.40002441406</ele>
        <time>2016-09-11T08:17:56.000Z</time>
      </trkpt>
      <trkpt lat="45.53088" lon="4.02593">
        <ele>778.20001220703</ele>
        <time>2016-09-11T08:18:00.000Z</time>
      </trkpt>
      <trkpt lat="45.53101" lon="4.02585">
        <ele>777</ele>
        <time>2016-09-11T08:18:06.000Z</time>
      </trkpt>
      <trkpt lat="45.53098" lon="4.02573">
        <ele>777.20001220703</ele>
        <time>2016-09-11T08:18:09.000Z</time>
      </trkpt>
      <trkpt lat="45.53097" lon="4.02569">
        <ele>777.20001220703</ele>
        <time>2016-09-11T08:18:10.000Z</time>
      </trkpt>
      <trkpt lat="45.53091" lon="4.02544">
        <ele>778</ele>
        <time>2016-09-11T08:18:18.000Z</time>
      </trkpt>
      <trkpt lat="45.53088" lon="4.02529">
        <ele>778.59997558594</ele>
        <time>2016-09-11T08:18:23.000Z</time>
      </trkpt>
      <trkpt lat="45.53087" lon="4.02527">
        <ele>778.59997558594</ele>
        <time>2016-09-11T08:18:24.000Z</time>
      </trkpt>
      <trkpt lat="45.53084" lon="4.02509">
        <ele>778.79998779297</ele>
        <time>2016-09-11T08:18:32.000Z</time>
      </trkpt>
      <trkpt lat="45.53084" lon="4.02507">
        <ele>778.79998779297</ele>
        <time>2016-09-11T08:18:33.000Z</time>
      </trkpt>
      <trkpt lat="45.53079" lon="4.02481">
        <ele>779</ele>
        <time>2016-09-11T08:18:44.000Z</time>
      </trkpt>
      <trkpt lat="45.53075" lon="4.02455">
        <ele>779</ele>
        <time>2016-09-11T08:18:54.000Z</time>
      </trkpt>
      <trkpt lat="45.53074" lon="4.0245">
        <ele>779</ele>
        <time>2016-09-11T08:18:56.000Z</time>
      </trkpt>
      <trkpt lat="45.53073" lon="4.02447">
        <ele>779</ele>
        <time>2016-09-11T08:18:57.000Z</time>
      </trkpt>
      <trkpt lat="45.53067" lon="4.02434">
        <ele>779.59997558594</ele>
        <time>2016-09-11T08:19:03.000Z</time>
      </trkpt>
      <trkpt lat="45.53066" lon="4.02432">
        <ele>779.79998779297</ele>
        <time>2016-09-11T08:19:04.000Z</time>
      </trkpt>
      <trkpt lat="45.53061" lon="4.02424">
        <ele>780.59997558594</ele>
        <time>2016-09-11T08:19:08.000Z</time>
      </trkpt>
      <trkpt lat="45.5305" lon="4.02402">
        <ele>782.40002441406</ele>
        <time>2016-09-11T08:19:20.000Z</time>
      </trkpt>
      <trkpt lat="45.53041" lon="4.02378">
        <ele>784.40002441406</ele>
        <time>2016-09-11T08:19:31.000Z</time>
      </trkpt>
      <trkpt lat="45.5304" lon="4.02373">
        <ele>784.79998779297</ele>
        <time>2016-09-11T08:19:33.000Z</time>
      </trkpt>
      <trkpt lat="45.5304" lon="4.0237">
        <ele>785</ele>
        <time>2016-09-11T08:19:34.000Z</time>
      </trkpt>
      <trkpt lat="45.53035" lon="4.02343">
        <ele>786.40002441406</ele>
        <time>2016-09-11T08:19:44.000Z</time>
      </trkpt>
      <trkpt lat="45.53031" lon="4.02321">
        <ele>788.40002441406</ele>
        <time>2016-09-11T08:19:52.000Z</time>
      </trkpt>
      <trkpt lat="45.53031" lon="4.02318">
        <ele>788.79998779297</ele>
        <time>2016-09-11T08:19:53.000Z</time>
      </trkpt>
      <trkpt lat="45.53029" lon="4.02299">
        <ele>790.40002441406</ele>
        <time>2016-09-11T08:19:59.000Z</time>
      </trkpt>
      <trkpt lat="45.53029" lon="4.02296">
        <ele>790.79998779297</ele>
        <time>2016-09-11T08:20:00.000Z</time>
      </trkpt>
      <trkpt lat="45.53031" lon="4.02271">
        <ele>793.20001220703</ele>
        <time>2016-09-11T08:20:10.000Z</time>
      </trkpt>
      <trkpt lat="45.53035" lon="4.02254">
        <ele>794</ele>
        <time>2016-09-11T08:20:17.000Z</time>
      </trkpt>
      <trkpt lat="45.53035" lon="4.02251">
        <ele>794.20001220703</ele>
        <time>2016-09-11T08:20:18.000Z</time>
      </trkpt>
      <trkpt lat="45.53037" lon="4.0224">
        <ele>794.40002441406</ele>
        <time>2016-09-11T08:20:22.000Z</time>
      </trkpt>
      <trkpt lat="45.53037" lon="4.02237">
        <ele>794.40002441406</ele>
        <time>2016-09-11T08:20:23.000Z</time>
      </trkpt>
      <trkpt lat="45.53038" lon="4.0221">
        <ele>795</ele>
        <time>2016-09-11T08:20:32.000Z</time>
      </trkpt>
      <trkpt lat="45.53037" lon="4.02203">
        <ele>795.20001220703</ele>
        <time>2016-09-11T08:20:34.000Z</time>
      </trkpt>
      <trkpt lat="45.53036" lon="4.022">
        <ele>795.40002441406</ele>
        <time>2016-09-11T08:20:35.000Z</time>
      </trkpt>
      <trkpt lat="45.53031" lon="4.02175">
        <ele>797.59997558594</ele>
        <time>2016-09-11T08:20:43.000Z</time>
      </trkpt>
      <trkpt lat="45.53025" lon="4.0215">
        <ele>799</ele>
        <time>2016-09-11T08:20:51.000Z</time>
      </trkpt>
      <trkpt lat="45.53025" lon="4.02147">
        <ele>799.20001220703</ele>
        <time>2016-09-11T08:20:52.000Z</time>
      </trkpt>
      <trkpt lat="45.53024" lon="4.02144">
        <ele>799.40002441406</ele>
        <time>2016-09-11T08:20:53.000Z</time>
      </trkpt>
      <trkpt lat="45.53019" lon="4.02122">
        <ele>800.40002441406</ele>
        <time>2016-09-11T08:21:02.000Z</time>
      </trkpt>
      <trkpt lat="45.53018" lon="4.02117">
        <ele>800.59997558594</ele>
        <time>2016-09-11T08:21:04.000Z</time>
      </trkpt>
      <trkpt lat="45.53017" lon="4.0209">
        <ele>802.59997558594</ele>
        <time>2016-09-11T08:21:15.000Z</time>
      </trkpt>
      <trkpt lat="45.53016" lon="4.02085">
        <ele>803</ele>
        <time>2016-09-11T08:21:17.000Z</time>
      </trkpt>
      <trkpt lat="45.53017" lon="4.02076">
        <ele>803.79998779297</ele>
        <time>2016-09-11T08:21:21.000Z</time>
      </trkpt>
      <trkpt lat="45.53017" lon="4.02073">
        <ele>804</ele>
        <time>2016-09-11T08:21:22.000Z</time>
      </trkpt>
      <trkpt lat="45.53022" lon="4.02048">
        <ele>804.79998779297</ele>
        <time>2016-09-11T08:21:34.000Z</time>
      </trkpt>
      <trkpt lat="45.53022" lon="4.0204">
        <ele>805.20001220703</ele>
        <time>2016-09-11T08:21:38.000Z</time>
      </trkpt>
      <trkpt lat="45.53022" lon="4.02038">
        <ele>805.40002441406</ele>
        <time>2016-09-11T08:21:39.000Z</time>
      </trkpt>
      <trkpt lat="45.53021" lon="4.02019">
        <ele>806.79998779297</ele>
        <time>2016-09-11T08:21:48.000Z</time>
      </trkpt>
      <trkpt lat="45.53021" lon="4.02017">
        <ele>807</ele>
        <time>2016-09-11T08:21:49.000Z</time>
      </trkpt>
      <trkpt lat="45.5302" lon="4.01997">
        <ele>808.59997558594</ele>
        <time>2016-09-11T08:21:59.000Z</time>
      </trkpt>
      <trkpt lat="45.5302" lon="4.01996">
        <ele>808.79998779297</ele>
        <time>2016-09-11T08:22:00.000Z</time>
      </trkpt>
      <trkpt lat="45.53017" lon="4.01983">
        <ele>810.40002441406</ele>
        <time>2016-09-11T08:22:06.000Z</time>
      </trkpt>
      <trkpt lat="45.53017" lon="4.0198">
        <ele>810.79998779297</ele>
        <time>2016-09-11T08:22:07.000Z</time>
      </trkpt>
      <trkpt lat="45.53013" lon="4.01953">
        <ele>814</ele>
        <time>2016-09-11T08:22:19.000Z</time>
      </trkpt>
      <trkpt lat="45.53012" lon="4.01951">
        <ele>814.20001220703</ele>
        <time>2016-09-11T08:22:20.000Z</time>
      </trkpt>
      <trkpt lat="45.53012" lon="4.01949">
        <ele>814.40002441406</ele>
        <time>2016-09-11T08:22:21.000Z</time>
      </trkpt>
      <trkpt lat="45.5301" lon="4.01937">
        <ele>815.40002441406</ele>
        <time>2016-09-11T08:22:26.000Z</time>
      </trkpt>
      <trkpt lat="45.5301" lon="4.01935">
        <ele>815.59997558594</ele>
        <time>2016-09-11T08:22:27.000Z</time>
      </trkpt>
      <trkpt lat="45.53008" lon="4.01929">
        <ele>816</ele>
        <time>2016-09-11T08:22:30.000Z</time>
      </trkpt>
      <trkpt lat="45.53002" lon="4.01904">
        <ele>817.40002441406</ele>
        <time>2016-09-11T08:22:42.000Z</time>
      </trkpt>
      <trkpt lat="45.52999" lon="4.01887">
        <ele>818.40002441406</ele>
        <time>2016-09-11T08:22:51.000Z</time>
      </trkpt>
      <trkpt lat="45.52998" lon="4.01885">
        <ele>818.59997558594</ele>
        <time>2016-09-11T08:22:52.000Z</time>
      </trkpt>
      <trkpt lat="45.52992" lon="4.01861">
        <ele>820.79998779297</ele>
        <time>2016-09-11T08:23:04.000Z</time>
      </trkpt>
      <trkpt lat="45.52992" lon="4.01854">
        <ele>821.40002441406</ele>
        <time>2016-09-11T08:23:07.000Z</time>
      </trkpt>
      <trkpt lat="45.52991" lon="4.01852">
        <ele>821.59997558594</ele>
        <time>2016-09-11T08:23:08.000Z</time>
      </trkpt>
      <trkpt lat="45.5299" lon="4.01825">
        <ele>823.79998779297</ele>
        <time>2016-09-11T08:23:19.000Z</time>
      </trkpt>
      <trkpt lat="45.52989" lon="4.01821">
        <ele>824.40002441406</ele>
        <time>2016-09-11T08:23:21.000Z</time>
      </trkpt>
      <trkpt lat="45.52989" lon="4.01819">
        <ele>824.59997558594</ele>
        <time>2016-09-11T08:23:22.000Z</time>
      </trkpt>
      <trkpt lat="45.52986" lon="4.0181">
        <ele>825.59997558594</ele>
        <time>2016-09-11T08:23:26.000Z</time>
      </trkpt>
      <trkpt lat="45.52975" lon="4.01786">
        <ele>828.40002441406</ele>
        <time>2016-09-11T08:23:37.000Z</time>
      </trkpt>
      <trkpt lat="45.52967" lon="4.01772">
        <ele>830.40002441406</ele>
        <time>2016-09-11T08:23:44.000Z</time>
      </trkpt>
      <trkpt lat="45.52966" lon="4.01771">
        <ele>830.59997558594</ele>
        <time>2016-09-11T08:23:45.000Z</time>
      </trkpt>
      <trkpt lat="45.52951" lon="4.01756">
        <ele>832.79998779297</ele>
        <time>2016-09-11T08:23:56.000Z</time>
      </trkpt>
      <trkpt lat="45.52944" lon="4.0175">
        <ele>833.59997558594</ele>
        <time>2016-09-11T08:24:01.000Z</time>
      </trkpt>
      <trkpt lat="45.52943" lon="4.01749">
        <ele>833.79998779297</ele>
        <time>2016-09-11T08:24:02.000Z</time>
      </trkpt>
      <trkpt lat="45.52929" lon="4.0174">
        <ele>835</ele>
        <time>2016-09-11T08:24:11.000Z</time>
      </trkpt>
      <trkpt lat="45.52928" lon="4.0174">
        <ele>835</ele>
        <time>2016-09-11T08:24:12.000Z</time>
      </trkpt>
      <trkpt lat="45.52916" lon="4.01735">
        <ele>835.79998779297</ele>
        <time>2016-09-11T08:24:19.000Z</time>
      </trkpt>
      <trkpt lat="45.52915" lon="4.01734">
        <ele>835.79998779297</ele>
        <time>2016-09-11T08:24:20.000Z</time>
      </trkpt>
      <trkpt lat="45.52908" lon="4.01731">
        <ele>836.20001220703</ele>
        <time>2016-09-11T08:24:24.000Z</time>
      </trkpt>
      <trkpt lat="45.52906" lon="4.0173">
        <ele>836.40002441406</ele>
        <time>2016-09-11T08:24:25.000Z</time>
      </trkpt>
      <trkpt lat="45.52901" lon="4.01727">
        <ele>836.79998779297</ele>
        <time>2016-09-11T08:24:28.000Z</time>
      </trkpt>
      <trkpt lat="45.52887" lon="4.01712">
        <ele>839</ele>
        <time>2016-09-11T08:24:38.000Z</time>
      </trkpt>
      <trkpt lat="45.52885" lon="4.01691">
        <ele>842</ele>
        <time>2016-09-11T08:24:47.000Z</time>
      </trkpt>
      <trkpt lat="45.52884" lon="4.01686">
        <ele>842.40002441406</ele>
        <time>2016-09-11T08:24:49.000Z</time>
      </trkpt>
      <trkpt lat="45.52884" lon="4.01682">
        <ele>842.59997558594</ele>
        <time>2016-09-11T08:24:51.000Z</time>
      </trkpt>
      <trkpt lat="45.52883" lon="4.01678">
        <ele>842.79998779297</ele>
        <time>2016-09-11T08:24:53.000Z</time>
      </trkpt>
      <trkpt lat="45.52881" lon="4.01652">
        <ele>844.20001220703</ele>
        <time>2016-09-11T08:25:05.000Z</time>
      </trkpt>
      <trkpt lat="45.52879" lon="4.01635">
        <ele>845.20001220703</ele>
        <time>2016-09-11T08:25:12.000Z</time>
      </trkpt>
      <trkpt lat="45.52879" lon="4.01633">
        <ele>845.20001220703</ele>
        <time>2016-09-11T08:25:13.000Z</time>
      </trkpt>
      <trkpt lat="45.52878" lon="4.01625">
        <ele>845.59997558594</ele>
        <time>2016-09-11T08:25:16.000Z</time>
      </trkpt>
      <trkpt lat="45.52877" lon="4.01609">
        <ele>846.59997558594</ele>
        <time>2016-09-11T08:25:22.000Z</time>
      </trkpt>
      <trkpt lat="45.52877" lon="4.01607">
        <ele>846.79998779297</ele>
        <time>2016-09-11T08:25:23.000Z</time>
      </trkpt>
      <trkpt lat="45.52878" lon="4.01601">
        <ele>847.40002441406</ele>
        <time>2016-09-11T08:25:25.000Z</time>
      </trkpt>
      <trkpt lat="45.52877" lon="4.01586">
        <ele>847.59997558594</ele>
        <time>2016-09-11T08:25:31.000Z</time>
      </trkpt>
      <trkpt lat="45.52877" lon="4.01584">
        <ele>847.59997558594</ele>
        <time>2016-09-11T08:25:32.000Z</time>
      </trkpt>
      <trkpt lat="45.52878" lon="4.01575">
        <ele>847.59997558594</ele>
        <time>2016-09-11T08:25:36.000Z</time>
      </trkpt>
      <trkpt lat="45.52878" lon="4.01572">
        <ele>847.79998779297</ele>
        <time>2016-09-11T08:25:37.000Z</time>
      </trkpt>
      <trkpt lat="45.52878" lon="4.01557">
        <ele>848</ele>
        <time>2016-09-11T08:25:43.000Z</time>
      </trkpt>
      <trkpt lat="45.52878" lon="4.01554">
        <ele>848</ele>
        <time>2016-09-11T08:25:44.000Z</time>
      </trkpt>
      <trkpt lat="45.52877" lon="4.01546">
        <ele>848</ele>
        <time>2016-09-11T08:25:47.000Z</time>
      </trkpt>
      <trkpt lat="45.52877" lon="4.01519">
        <ele>848.59997558594</ele>
        <time>2016-09-11T08:25:56.000Z</time>
      </trkpt>
      <trkpt lat="45.52877" lon="4.01516">
        <ele>848.59997558594</ele>
        <time>2016-09-11T08:25:57.000Z</time>
      </trkpt>
      <trkpt lat="45.52875" lon="4.01504">
        <ele>848.59997558594</ele>
        <time>2016-09-11T08:26:01.000Z</time>
      </trkpt>
      <trkpt lat="45.52872" lon="4.01478">
        <ele>848.59997558594</ele>
        <time>2016-09-11T08:26:11.000Z</time>
      </trkpt>
      <trkpt lat="45.52872" lon="4.01475">
        <ele>848.59997558594</ele>
        <time>2016-09-11T08:26:12.000Z</time>
      </trkpt>
      <trkpt lat="45.52873" lon="4.01465">
        <ele>848.40002441406</ele>
        <time>2016-09-11T08:26:16.000Z</time>
      </trkpt>
      <trkpt lat="45.5288" lon="4.01441">
        <ele>847.20001220703</ele>
        <time>2016-09-11T08:26:27.000Z</time>
      </trkpt>
      <trkpt lat="45.52881" lon="4.01435">
        <ele>847.59997558594</ele>
        <time>2016-09-11T08:26:29.000Z</time>
      </trkpt>
      <trkpt lat="45.52881" lon="4.01432">
        <ele>848</ele>
        <time>2016-09-11T08:26:30.000Z</time>
      </trkpt>
      <trkpt lat="45.52881" lon="4.01426">
        <ele>848.59997558594</ele>
        <time>2016-09-11T08:26:32.000Z</time>
      </trkpt>
      <trkpt lat="45.52881" lon="4.01417">
        <ele>849.59997558594</ele>
        <time>2016-09-11T08:26:35.000Z</time>
      </trkpt>
      <trkpt lat="45.52876" lon="4.01389">
        <ele>852.20001220703</ele>
        <time>2016-09-11T08:26:44.000Z</time>
      </trkpt>
      <trkpt lat="45.52872" lon="4.01374">
        <ele>853.59997558594</ele>
        <time>2016-09-11T08:26:49.000Z</time>
      </trkpt>
      <trkpt lat="45.5287" lon="4.01372">
        <ele>853.79998779297</ele>
        <time>2016-09-11T08:26:50.000Z</time>
      </trkpt>
      <trkpt lat="45.5286" lon="4.01347">
        <ele>854.79998779297</ele>
        <time>2016-09-11T08:26:59.000Z</time>
      </trkpt>
      <trkpt lat="45.52858" lon="4.01342">
        <ele>854.59997558594</ele>
        <time>2016-09-11T08:27:01.000Z</time>
      </trkpt>
      <trkpt lat="45.52857" lon="4.01337">
        <ele>854.59997558594</ele>
        <time>2016-09-11T08:27:03.000Z</time>
      </trkpt>
      <trkpt lat="45.52852" lon="4.01312">
        <ele>855.59997558594</ele>
        <time>2016-09-11T08:27:14.000Z</time>
      </trkpt>
      <trkpt lat="45.5286" lon="4.01289">
        <ele>858.20001220703</ele>
        <time>2016-09-11T08:27:24.000Z</time>
      </trkpt>
      <trkpt lat="45.52874" lon="4.0127">
        <ele>860.79998779297</ele>
        <time>2016-09-11T08:27:35.000Z</time>
      </trkpt>
      <trkpt lat="45.52878" lon="4.01264">
        <ele>861.40002441406</ele>
        <time>2016-09-11T08:27:38.000Z</time>
      </trkpt>
      <trkpt lat="45.52879" lon="4.01261">
        <ele>861.40002441406</ele>
        <time>2016-09-11T08:27:39.000Z</time>
      </trkpt>
      <trkpt lat="45.52892" lon="4.0124">
        <ele>862</ele>
        <time>2016-09-11T08:27:49.000Z</time>
      </trkpt>
      <trkpt lat="45.52897" lon="4.01226">
        <ele>861.79998779297</ele>
        <time>2016-09-11T08:27:53.000Z</time>
      </trkpt>
      <trkpt lat="45.52898" lon="4.01222">
        <ele>861.79998779297</ele>
        <time>2016-09-11T08:27:54.000Z</time>
      </trkpt>
      <trkpt lat="45.52905" lon="4.01198">
        <ele>862</ele>
        <time>2016-09-11T08:28:00.000Z</time>
      </trkpt>
      <trkpt lat="45.52906" lon="4.01194">
        <ele>862</ele>
        <time>2016-09-11T08:28:01.000Z</time>
      </trkpt>
      <trkpt lat="45.52907" lon="4.01166">
        <ele>863.59997558594</ele>
        <time>2016-09-11T08:28:08.000Z</time>
      </trkpt>
      <trkpt lat="45.52907" lon="4.01162">
        <ele>863.79998779297</ele>
        <time>2016-09-11T08:28:09.000Z</time>
      </trkpt>
      <trkpt lat="45.52901" lon="4.01134">
        <ele>865.40002441406</ele>
        <time>2016-09-11T08:28:16.000Z</time>
      </trkpt>
      <trkpt lat="45.5289" lon="4.01116">
        <ele>866.59997558594</ele>
        <time>2016-09-11T08:28:23.000Z</time>
      </trkpt>
      <trkpt lat="45.52887" lon="4.01115">
        <ele>866.59997558594</ele>
        <time>2016-09-11T08:28:24.000Z</time>
      </trkpt>
      <trkpt lat="45.52881" lon="4.01111">
        <ele>866.59997558594</ele>
        <time>2016-09-11T08:28:27.000Z</time>
      </trkpt>
      <trkpt lat="45.52863" lon="4.01102">
        <ele>866.40002441406</ele>
        <time>2016-09-11T08:28:33.000Z</time>
      </trkpt>
      <trkpt lat="45.52845" lon="4.01088">
        <ele>866.59997558594</ele>
        <time>2016-09-11T08:28:39.000Z</time>
      </trkpt>
      <trkpt lat="45.52828" lon="4.01076">
        <ele>866.59997558594</ele>
        <time>2016-09-11T08:28:43.000Z</time>
      </trkpt>
      <trkpt lat="45.52823" lon="4.01072">
        <ele>866.79998779297</ele>
        <time>2016-09-11T08:28:44.000Z</time>
      </trkpt>
      <trkpt lat="45.52815" lon="4.01064">
        <ele>866.79998779297</ele>
        <time>2016-09-11T08:28:46.000Z</time>
      </trkpt>
      <trkpt lat="45.52799" lon="4.01051">
        <ele>867</ele>
        <time>2016-09-11T08:28:50.000Z</time>
      </trkpt>
      <trkpt lat="45.5279" lon="4.01042">
        <ele>866.59997558594</ele>
        <time>2016-09-11T08:28:52.000Z</time>
      </trkpt>
      <trkpt lat="45.52785" lon="4.01037">
        <ele>866.40002441406</ele>
        <time>2016-09-11T08:28:53.000Z</time>
      </trkpt>
      <trkpt lat="45.52771" lon="4.01016">
        <ele>865.79998779297</ele>
        <time>2016-09-11T08:28:56.000Z</time>
      </trkpt>
      <trkpt lat="45.52765" lon="4.01008">
        <ele>865.59997558594</ele>
        <time>2016-09-11T08:28:57.000Z</time>
      </trkpt>
      <trkpt lat="45.52754" lon="4.00993">
        <ele>864.79998779297</ele>
        <time>2016-09-11T08:28:59.000Z</time>
      </trkpt>
      <trkpt lat="45.52737" lon="4.0097">
        <ele>864</ele>
        <time>2016-09-11T08:29:02.000Z</time>
      </trkpt>
      <trkpt lat="45.52725" lon="4.00946">
        <ele>863.79998779297</ele>
        <time>2016-09-11T08:29:05.000Z</time>
      </trkpt>
      <trkpt lat="45.52719" lon="4.00922">
        <ele>863.20001220703</ele>
        <time>2016-09-11T08:29:08.000Z</time>
      </trkpt>
      <trkpt lat="45.52717" lon="4.00913">
        <ele>863</ele>
        <time>2016-09-11T08:29:09.000Z</time>
      </trkpt>
      <trkpt lat="45.52716" lon="4.00905">
        <ele>862.79998779297</ele>
        <time>2016-09-11T08:29:10.000Z</time>
      </trkpt>
      <trkpt lat="45.52717" lon="4.00878">
        <ele>863</ele>
        <time>2016-09-11T08:29:14.000Z</time>
      </trkpt>
      <trkpt lat="45.52701" lon="4.00873">
        <ele>860.40002441406</ele>
        <time>2016-09-11T08:29:22.000Z</time>
      </trkpt>
      <trkpt lat="45.52695" lon="4.00877">
        <ele>859.59997558594</ele>
        <time>2016-09-11T08:29:25.000Z</time>
      </trkpt>
      <trkpt lat="45.52689" lon="4.0088">
        <ele>858.59997558594</ele>
        <time>2016-09-11T08:29:27.000Z</time>
      </trkpt>
      <trkpt lat="45.52677" lon="4.00888">
        <ele>856.79998779297</ele>
        <time>2016-09-11T08:29:30.000Z</time>
      </trkpt>
      <trkpt lat="45.52656" lon="4.00892">
        <ele>852.79998779297</ele>
        <time>2016-09-11T08:29:35.000Z</time>
      </trkpt>
      <trkpt lat="45.52635" lon="4.00889">
        <ele>848.40002441406</ele>
        <time>2016-09-11T08:29:40.000Z</time>
      </trkpt>
      <trkpt lat="45.52615" lon="4.00884">
        <ele>846.20001220703</ele>
        <time>2016-09-11T08:29:46.000Z</time>
      </trkpt>
      <trkpt lat="45.52594" lon="4.00878">
        <ele>844</ele>
        <time>2016-09-11T08:29:52.000Z</time>
      </trkpt>
      <trkpt lat="45.52591" lon="4.00877">
        <ele>843.79998779297</ele>
        <time>2016-09-11T08:29:53.000Z</time>
      </trkpt>
      <trkpt lat="45.52588" lon="4.00877">
        <ele>843.40002441406</ele>
        <time>2016-09-11T08:29:54.000Z</time>
      </trkpt>
      <trkpt lat="45.5257" lon="4.0087">
        <ele>841.59997558594</ele>
        <time>2016-09-11T08:30:00.000Z</time>
      </trkpt>
      <trkpt lat="45.52565" lon="4.00868">
        <ele>841</ele>
        <time>2016-09-11T08:30:02.000Z</time>
      </trkpt>
      <trkpt lat="45.52562" lon="4.00868">
        <ele>840.79998779297</ele>
        <time>2016-09-11T08:30:03.000Z</time>
      </trkpt>
      <trkpt lat="45.52546" lon="4.00879">
        <ele>838.59997558594</ele>
        <time>2016-09-11T08:30:08.000Z</time>
      </trkpt>
      <trkpt lat="45.5254" lon="4.00887">
        <ele>837.79998779297</ele>
        <time>2016-09-11T08:30:10.000Z</time>
      </trkpt>
      <trkpt lat="45.52525" lon="4.00908">
        <ele>835.40002441406</ele>
        <time>2016-09-11T08:30:15.000Z</time>
      </trkpt>
      <trkpt lat="45.52508" lon="4.00927">
        <ele>833.59997558594</ele>
        <time>2016-09-11T08:30:20.000Z</time>
      </trkpt>
      <trkpt lat="45.52494" lon="4.00942">
        <ele>831.79998779297</ele>
        <time>2016-09-11T08:30:25.000Z</time>
      </trkpt>
      <trkpt lat="45.52488" lon="4.00945">
        <ele>831.40002441406</ele>
        <time>2016-09-11T08:30:28.000Z</time>
      </trkpt>
      <trkpt lat="45.52486" lon="4.00944">
        <ele>831.20001220703</ele>
        <time>2016-09-11T08:30:29.000Z</time>
      </trkpt>
      <trkpt lat="45.52482" lon="4.00921">
        <ele>831.79998779297</ele>
        <time>2016-09-11T08:30:37.000Z</time>
      </trkpt>
      <trkpt lat="45.52479" lon="4.00892">
        <ele>832.59997558594</ele>
        <time>2016-09-11T08:30:44.000Z</time>
      </trkpt>
      <trkpt lat="45.52479" lon="4.00888">
        <ele>832.79998779297</ele>
        <time>2016-09-11T08:30:45.000Z</time>
      </trkpt>
      <trkpt lat="45.52477" lon="4.00873">
        <ele>833.20001220703</ele>
        <time>2016-09-11T08:30:49.000Z</time>
      </trkpt>
      <trkpt lat="45.52476" lon="4.00864">
        <ele>833.59997558594</ele>
        <time>2016-09-11T08:30:52.000Z</time>
      </trkpt>
      <trkpt lat="45.5247" lon="4.0084">
        <ele>833.79998779297</ele>
        <time>2016-09-11T08:31:02.000Z</time>
      </trkpt>
      <trkpt lat="45.52467" lon="4.00814">
        <ele>834.59997558594</ele>
        <time>2016-09-11T08:31:11.000Z</time>
      </trkpt>
      <trkpt lat="45.52467" lon="4.00811">
        <ele>834.59997558594</ele>
        <time>2016-09-11T08:31:12.000Z</time>
      </trkpt>
      <trkpt lat="45.52466" lon="4.00784">
        <ele>835.59997558594</ele>
        <time>2016-09-11T08:31:19.000Z</time>
      </trkpt>
      <trkpt lat="45.52449" lon="4.00771">
        <ele>835.20001220703</ele>
        <time>2016-09-11T08:31:27.000Z</time>
      </trkpt>
      <trkpt lat="45.52446" lon="4.00769">
        <ele>835.40002441406</ele>
        <time>2016-09-11T08:31:29.000Z</time>
      </trkpt>
      <trkpt lat="45.52445" lon="4.00767">
        <ele>835.40002441406</ele>
        <time>2016-09-11T08:31:30.000Z</time>
      </trkpt>
      <trkpt lat="45.52433" lon="4.00749">
        <ele>837</ele>
        <time>2016-09-11T08:31:40.000Z</time>
      </trkpt>
      <trkpt lat="45.52428" lon="4.00723">
        <ele>839.20001220703</ele>
        <time>2016-09-11T08:31:50.000Z</time>
      </trkpt>
      <trkpt lat="45.52419" lon="4.00702">
        <ele>840.79998779297</ele>
        <time>2016-09-11T08:32:01.000Z</time>
      </trkpt>
      <trkpt lat="45.52412" lon="4.00697">
        <ele>841</ele>
        <time>2016-09-11T08:32:05.000Z</time>
      </trkpt>
      <trkpt lat="45.5241" lon="4.00697">
        <ele>841</ele>
        <time>2016-09-11T08:32:06.000Z</time>
      </trkpt>
      <trkpt lat="45.52396" lon="4.00702">
        <ele>840.40002441406</ele>
        <time>2016-09-11T08:32:13.000Z</time>
      </trkpt>
      <trkpt lat="45.52394" lon="4.00702">
        <ele>840.40002441406</ele>
        <time>2016-09-11T08:32:14.000Z</time>
      </trkpt>
      <trkpt lat="45.52375" lon="4.00701">
        <ele>840</ele>
        <time>2016-09-11T08:32:23.000Z</time>
      </trkpt>
      <trkpt lat="45.52372" lon="4.00701">
        <ele>840.20001220703</ele>
        <time>2016-09-11T08:32:25.000Z</time>
      </trkpt>
      <trkpt lat="45.52368" lon="4.007">
        <ele>840.20001220703</ele>
        <time>2016-09-11T08:32:27.000Z</time>
      </trkpt>
      <trkpt lat="45.5235" lon="4.00695">
        <ele>841.40002441406</ele>
        <time>2016-09-11T08:32:37.000Z</time>
      </trkpt>
      <trkpt lat="45.52345" lon="4.00693">
        <ele>841.79998779297</ele>
        <time>2016-09-11T08:32:40.000Z</time>
      </trkpt>
      <trkpt lat="45.52343" lon="4.00693">
        <ele>841.79998779297</ele>
        <time>2016-09-11T08:32:41.000Z</time>
      </trkpt>
      <trkpt lat="45.5233" lon="4.0069">
        <ele>842.40002441406</ele>
        <time>2016-09-11T08:32:50.000Z</time>
      </trkpt>
      <trkpt lat="45.52328" lon="4.00689">
        <ele>842.40002441406</ele>
        <time>2016-09-11T08:32:51.000Z</time>
      </trkpt>
      <trkpt lat="45.5231" lon="4.00683">
        <ele>843.20001220703</ele>
        <time>2016-09-11T08:33:01.000Z</time>
      </trkpt>
      <trkpt lat="45.52299" lon="4.00682">
        <ele>843.79998779297</ele>
        <time>2016-09-11T08:33:07.000Z</time>
      </trkpt>
      <trkpt lat="45.52297" lon="4.00682">
        <ele>844</ele>
        <time>2016-09-11T08:33:08.000Z</time>
      </trkpt>
      <trkpt lat="45.52278" lon="4.00677">
        <ele>845.79998779297</ele>
        <time>2016-09-11T08:33:17.000Z</time>
      </trkpt>
      <trkpt lat="45.52259" lon="4.00672">
        <ele>847.59997558594</ele>
        <time>2016-09-11T08:33:26.000Z</time>
      </trkpt>
      <trkpt lat="45.52242" lon="4.00658">
        <ele>850</ele>
        <time>2016-09-11T08:33:34.000Z</time>
      </trkpt>
      <trkpt lat="45.52225" lon="4.0065">
        <ele>852</ele>
        <time>2016-09-11T08:33:42.000Z</time>
      </trkpt>
      <trkpt lat="45.52223" lon="4.00649">
        <ele>852.20001220703</ele>
        <time>2016-09-11T08:33:43.000Z</time>
      </trkpt>
      <trkpt lat="45.52203" lon="4.00649">
        <ele>852.40002441406</ele>
        <time>2016-09-11T08:33:50.000Z</time>
      </trkpt>
      <trkpt lat="45.52185" lon="4.00654">
        <ele>851.79998779297</ele>
        <time>2016-09-11T08:33:56.000Z</time>
      </trkpt>
      <trkpt lat="45.52165" lon="4.00654">
        <ele>852</ele>
        <time>2016-09-11T08:34:01.000Z</time>
      </trkpt>
      <trkpt lat="45.52155" lon="4.00654">
        <ele>852.20001220703</ele>
        <time>2016-09-11T08:34:03.000Z</time>
      </trkpt>
      <trkpt lat="45.52151" lon="4.00654">
        <ele>852.40002441406</ele>
        <time>2016-09-11T08:34:04.000Z</time>
      </trkpt>
      <trkpt lat="45.52133" lon="4.0065">
        <ele>852.79998779297</ele>
        <time>2016-09-11T08:34:09.000Z</time>
      </trkpt>
      <trkpt lat="45.52122" lon="4.00636">
        <ele>851</ele>
        <time>2016-09-11T08:34:15.000Z</time>
      </trkpt>
      <trkpt lat="45.52118" lon="4.00631">
        <ele>850.40002441406</ele>
        <time>2016-09-11T08:34:17.000Z</time>
      </trkpt>
      <trkpt lat="45.52112" lon="4.00619">
        <ele>849.59997558594</ele>
        <time>2016-09-11T08:34:21.000Z</time>
      </trkpt>
      <trkpt lat="45.52111" lon="4.00617">
        <ele>849.59997558594</ele>
        <time>2016-09-11T08:34:22.000Z</time>
      </trkpt>
      <trkpt lat="45.52116" lon="4.0059">
        <ele>849.20001220703</ele>
        <time>2016-09-11T08:34:32.000Z</time>
      </trkpt>
      <trkpt lat="45.52125" lon="4.00566">
        <ele>848.20001220703</ele>
        <time>2016-09-11T08:34:40.000Z</time>
      </trkpt>
      <trkpt lat="45.5213" lon="4.00557">
        <ele>848</ele>
        <time>2016-09-11T08:34:44.000Z</time>
      </trkpt>
      <trkpt lat="45.52131" lon="4.00554">
        <ele>848</ele>
        <time>2016-09-11T08:34:45.000Z</time>
      </trkpt>
      <trkpt lat="45.52137" lon="4.00519">
        <ele>844.40002441406</ele>
        <time>2016-09-11T08:34:53.000Z</time>
      </trkpt>
      <trkpt lat="45.52142" lon="4.00509">
        <ele>843.59997558594</ele>
        <time>2016-09-11T08:34:56.000Z</time>
      </trkpt>
      <trkpt lat="45.52143" lon="4.00505">
        <ele>843.40002441406</ele>
        <time>2016-09-11T08:34:57.000Z</time>
      </trkpt>
      <trkpt lat="45.52161" lon="4.00491">
        <ele>843.59997558594</ele>
        <time>2016-09-11T08:35:06.000Z</time>
      </trkpt>
      <trkpt lat="45.52174" lon="4.00485">
        <ele>844.59997558594</ele>
        <time>2016-09-11T08:35:11.000Z</time>
      </trkpt>
      <trkpt lat="45.52176" lon="4.00485">
        <ele>844.79998779297</ele>
        <time>2016-09-11T08:35:12.000Z</time>
      </trkpt>
      <trkpt lat="45.52193" lon="4.00474">
        <ele>846.79998779297</ele>
        <time>2016-09-11T08:35:23.000Z</time>
      </trkpt>
      <trkpt lat="45.52206" lon="4.00459">
        <ele>847.59997558594</ele>
        <time>2016-09-11T08:35:34.000Z</time>
      </trkpt>
      <trkpt lat="45.52207" lon="4.00457">
        <ele>847.79998779297</ele>
        <time>2016-09-11T08:35:35.000Z</time>
      </trkpt>
      <trkpt lat="45.52223" lon="4.00442">
        <ele>848.20001220703</ele>
        <time>2016-09-11T08:35:46.000Z</time>
      </trkpt>
      <trkpt lat="45.5224" lon="4.00429">
        <ele>847</ele>
        <time>2016-09-11T08:35:55.000Z</time>
      </trkpt>
      <trkpt lat="45.52258" lon="4.00419">
        <ele>845.79998779297</ele>
        <time>2016-09-11T08:36:03.000Z</time>
      </trkpt>
      <trkpt lat="45.52264" lon="4.00416">
        <ele>845.59997558594</ele>
        <time>2016-09-11T08:36:06.000Z</time>
      </trkpt>
      <trkpt lat="45.52266" lon="4.00415">
        <ele>845.59997558594</ele>
        <time>2016-09-11T08:36:07.000Z</time>
      </trkpt>
      <trkpt lat="45.52282" lon="4.00407">
        <ele>847.59997558594</ele>
        <time>2016-09-11T08:36:17.000Z</time>
      </trkpt>
      <trkpt lat="45.52283" lon="4.00406">
        <ele>847.79998779297</ele>
        <time>2016-09-11T08:36:18.000Z</time>
      </trkpt>
      <trkpt lat="45.523" lon="4.00393">
        <ele>851.40002441406</ele>
        <time>2016-09-11T08:36:29.000Z</time>
      </trkpt>
      <trkpt lat="45.52305" lon="4.00388">
        <ele>851.20001220703</ele>
        <time>2016-09-11T08:36:33.000Z</time>
      </trkpt>
      <trkpt lat="45.52306" lon="4.00386">
        <ele>851.20001220703</ele>
        <time>2016-09-11T08:36:34.000Z</time>
      </trkpt>
      <trkpt lat="45.5232" lon="4.00369">
        <ele>851.59997558594</ele>
        <time>2016-09-11T08:36:44.000Z</time>
      </trkpt>
      <trkpt lat="45.52324" lon="4.00362">
        <ele>852.40002441406</ele>
        <time>2016-09-11T08:36:47.000Z</time>
      </trkpt>
      <trkpt lat="45.52328" lon="4.00353">
        <ele>852.59997558594</ele>
        <time>2016-09-11T08:36:51.000Z</time>
      </trkpt>
      <trkpt lat="45.52331" lon="4.00346">
        <ele>852.40002441406</ele>
        <time>2016-09-11T08:36:54.000Z</time>
      </trkpt>
      <trkpt lat="45.52336" lon="4.00336">
        <ele>852.20001220703</ele>
        <time>2016-09-11T08:36:58.000Z</time>
      </trkpt>
      <trkpt lat="45.52345" lon="4.00312">
        <ele>852.40002441406</ele>
        <time>2016-09-11T08:37:08.000Z</time>
      </trkpt>
      <trkpt lat="45.52348" lon="4.00301">
        <ele>853.59997558594</ele>
        <time>2016-09-11T08:37:12.000Z</time>
      </trkpt>
      <trkpt lat="45.52349" lon="4.00295">
        <ele>854.20001220703</ele>
        <time>2016-09-11T08:37:14.000Z</time>
      </trkpt>
      <trkpt lat="45.52358" lon="4.00282">
        <ele>856.79998779297</ele>
        <time>2016-09-11T08:37:20.000Z</time>
      </trkpt>
      <trkpt lat="45.5236" lon="4.00279">
        <ele>857.20001220703</ele>
        <time>2016-09-11T08:37:21.000Z</time>
      </trkpt>
      <trkpt lat="45.52364" lon="4.00275">
        <ele>858.20001220703</ele>
        <time>2016-09-11T08:37:23.000Z</time>
      </trkpt>
      <trkpt lat="45.52371" lon="4.00268">
        <ele>858.59997558594</ele>
        <time>2016-09-11T08:37:27.000Z</time>
      </trkpt>
      <trkpt lat="45.52374" lon="4.00264">
        <ele>858.79998779297</ele>
        <time>2016-09-11T08:37:29.000Z</time>
      </trkpt>
      <trkpt lat="45.52379" lon="4.00256">
        <ele>860.40002441406</ele>
        <time>2016-09-11T08:37:32.000Z</time>
      </trkpt>
      <trkpt lat="45.52385" lon="4.00241">
        <ele>862.40002441406</ele>
        <time>2016-09-11T08:37:38.000Z</time>
      </trkpt>
      <trkpt lat="45.52386" lon="4.00239">
        <ele>862.40002441406</ele>
        <time>2016-09-11T08:37:39.000Z</time>
      </trkpt>
      <trkpt lat="45.52392" lon="4.00215">
        <ele>863</ele>
        <time>2016-09-11T08:37:48.000Z</time>
      </trkpt>
      <trkpt lat="45.52393" lon="4.0021">
        <ele>863.20001220703</ele>
        <time>2016-09-11T08:37:50.000Z</time>
      </trkpt>
      <trkpt lat="45.52402" lon="4.00187">
        <ele>864</ele>
        <time>2016-09-11T08:37:58.000Z</time>
      </trkpt>
      <trkpt lat="45.52402" lon="4.00183">
        <ele>864</ele>
        <time>2016-09-11T08:37:59.000Z</time>
      </trkpt>
      <trkpt lat="45.52409" lon="4.00158">
        <ele>864.20001220703</ele>
        <time>2016-09-11T08:38:06.000Z</time>
      </trkpt>
      <trkpt lat="45.52418" lon="4.00135">
        <ele>864.79998779297</ele>
        <time>2016-09-11T08:38:14.000Z</time>
      </trkpt>
      <trkpt lat="45.52419" lon="4.00133">
        <ele>865.20001220703</ele>
        <time>2016-09-11T08:38:15.000Z</time>
      </trkpt>
      <trkpt lat="45.52419" lon="4.0013">
        <ele>865.40002441406</ele>
        <time>2016-09-11T08:38:16.000Z</time>
      </trkpt>
      <trkpt lat="45.52424" lon="4.00107">
        <ele>867.40002441406</ele>
        <time>2016-09-11T08:38:24.000Z</time>
      </trkpt>
      <trkpt lat="45.52425" lon="4.00104">
        <ele>867.59997558594</ele>
        <time>2016-09-11T08:38:25.000Z</time>
      </trkpt>
      <trkpt lat="45.52434" lon="4.0008">
        <ele>869.59997558594</ele>
        <time>2016-09-11T08:38:35.000Z</time>
      </trkpt>
      <trkpt lat="45.52437" lon="4.00073">
        <ele>870.40002441406</ele>
        <time>2016-09-11T08:38:38.000Z</time>
      </trkpt>
      <trkpt lat="45.52438" lon="4.00071">
        <ele>870.59997558594</ele>
        <time>2016-09-11T08:38:39.000Z</time>
      </trkpt>
      <trkpt lat="45.52441" lon="4.00062">
        <ele>871.40002441406</ele>
        <time>2016-09-11T08:38:43.000Z</time>
      </trkpt>
      <trkpt lat="45.52442" lon="4.00061">
        <ele>871.79998779297</ele>
        <time>2016-09-11T08:38:44.000Z</time>
      </trkpt>
      <trkpt lat="45.52445" lon="4.00055">
        <ele>872.40002441406</ele>
        <time>2016-09-11T08:38:47.000Z</time>
      </trkpt>
      <trkpt lat="45.52449" lon="4.00048">
        <ele>873.20001220703</ele>
        <time>2016-09-11T08:38:50.000Z</time>
      </trkpt>
      <trkpt lat="45.52463" lon="4.00032">
        <ele>876</ele>
        <time>2016-09-11T08:39:02.000Z</time>
      </trkpt>
      <trkpt lat="45.52481" lon="4.00026">
        <ele>878.40002441406</ele>
        <time>2016-09-11T08:39:15.000Z</time>
      </trkpt>
      <trkpt lat="45.52484" lon="4.00026">
        <ele>878.59997558594</ele>
        <time>2016-09-11T08:39:17.000Z</time>
      </trkpt>
      <trkpt lat="45.52491" lon="4.00025">
        <ele>879.20001220703</ele>
        <time>2016-09-11T08:39:21.000Z</time>
      </trkpt>
      <trkpt lat="45.52498" lon="4.00024">
        <ele>880</ele>
        <time>2016-09-11T08:39:25.000Z</time>
      </trkpt>
      <trkpt lat="45.52505" lon="4.00023">
        <ele>880.59997558594</ele>
        <time>2016-09-11T08:39:29.000Z</time>
      </trkpt>
      <trkpt lat="45.52523" lon="4.00028">
        <ele>882.20001220703</ele>
        <time>2016-09-11T08:39:39.000Z</time>
      </trkpt>
      <trkpt lat="45.52527" lon="4.0003">
        <ele>882.59997558594</ele>
        <time>2016-09-11T08:39:41.000Z</time>
      </trkpt>
      <trkpt lat="45.52529" lon="4.0003">
        <ele>882.59997558594</ele>
        <time>2016-09-11T08:39:42.000Z</time>
      </trkpt>
      <trkpt lat="45.52533" lon="4.00031">
        <ele>883</ele>
        <time>2016-09-11T08:39:44.000Z</time>
      </trkpt>
      <trkpt lat="45.52544" lon="4.00034">
        <ele>884</ele>
        <time>2016-09-11T08:39:50.000Z</time>
      </trkpt>
      <trkpt lat="45.52546" lon="4.00035">
        <ele>884.20001220703</ele>
        <time>2016-09-11T08:39:51.000Z</time>
      </trkpt>
      <trkpt lat="45.52553" lon="4.00036">
        <ele>884.59997558594</ele>
        <time>2016-09-11T08:39:55.000Z</time>
      </trkpt>
      <trkpt lat="45.52564" lon="4.00037">
        <ele>885.20001220703</ele>
        <time>2016-09-11T08:40:02.000Z</time>
      </trkpt>
      <trkpt lat="45.52566" lon="4.00037">
        <ele>885.20001220703</ele>
        <time>2016-09-11T08:40:03.000Z</time>
      </trkpt>
      <trkpt lat="45.52572" lon="4.00034">
        <ele>885.79998779297</ele>
        <time>2016-09-11T08:40:07.000Z</time>
      </trkpt>
      <trkpt lat="45.52577" lon="4.00032">
        <ele>886.20001220703</ele>
        <time>2016-09-11T08:40:11.000Z</time>
      </trkpt>
      <trkpt lat="45.5258" lon="4.00031">
        <ele>886.40002441406</ele>
        <time>2016-09-11T08:40:13.000Z</time>
      </trkpt>
      <trkpt lat="45.52589" lon="4.00028">
        <ele>887.20001220703</ele>
        <time>2016-09-11T08:40:19.000Z</time>
      </trkpt>
      <trkpt lat="45.52591" lon="4.00027">
        <ele>887.40002441406</ele>
        <time>2016-09-11T08:40:20.000Z</time>
      </trkpt>
      <trkpt lat="45.52597" lon="4.00025">
        <ele>887.79998779297</ele>
        <time>2016-09-11T08:40:24.000Z</time>
      </trkpt>
      <trkpt lat="45.52606" lon="4.00023">
        <ele>888.20001220703</ele>
        <time>2016-09-11T08:40:30.000Z</time>
      </trkpt>
      <trkpt lat="45.52608" lon="4.00023">
        <ele>888.40002441406</ele>
        <time>2016-09-11T08:40:31.000Z</time>
      </trkpt>
      <trkpt lat="45.52623" lon="4.00025">
        <ele>889.40002441406</ele>
        <time>2016-09-11T08:40:40.000Z</time>
      </trkpt>
      <trkpt lat="45.52626" lon="4.00025">
        <ele>889.59997558594</ele>
        <time>2016-09-11T08:40:41.000Z</time>
      </trkpt>
      <trkpt lat="45.52644" lon="4.00028">
        <ele>889.79998779297</ele>
        <time>2016-09-11T08:40:49.000Z</time>
      </trkpt>
      <trkpt lat="45.52662" lon="4.00025">
        <ele>889.59997558594</ele>
        <time>2016-09-11T08:40:57.000Z</time>
      </trkpt>
      <trkpt lat="45.52664" lon="4.00024">
        <ele>889.59997558594</ele>
        <time>2016-09-11T08:40:58.000Z</time>
      </trkpt>
      <trkpt lat="45.52672" lon="4.00001">
        <ele>888.59997558594</ele>
        <time>2016-09-11T08:41:09.000Z</time>
      </trkpt>
      <trkpt lat="45.52669" lon="3.99975">
        <ele>887.79998779297</ele>
        <time>2016-09-11T08:41:18.000Z</time>
      </trkpt>
      <trkpt lat="45.52664" lon="3.99948">
        <ele>887.40002441406</ele>
        <time>2016-09-11T08:41:24.000Z</time>
      </trkpt>
      <trkpt lat="45.52666" lon="3.99918">
        <ele>885.79998779297</ele>
        <time>2016-09-11T08:41:29.000Z</time>
      </trkpt>
      <trkpt lat="45.52672" lon="3.99893">
        <ele>884</ele>
        <time>2016-09-11T08:41:33.000Z</time>
      </trkpt>
      <trkpt lat="45.52694" lon="3.99883">
        <ele>884.40002441406</ele>
        <time>2016-09-11T08:41:38.000Z</time>
      </trkpt>
      <trkpt lat="45.52705" lon="3.99878">
        <ele>884.59997558594</ele>
        <time>2016-09-11T08:41:40.000Z</time>
      </trkpt>
      <trkpt lat="45.52712" lon="3.99876">
        <ele>884.59997558594</ele>
        <time>2016-09-11T08:41:41.000Z</time>
      </trkpt>
      <trkpt lat="45.5273" lon="3.99865">
        <ele>885</ele>
        <time>2016-09-11T08:41:44.000Z</time>
      </trkpt>
      <trkpt lat="45.52745" lon="3.99855">
        <ele>885.59997558594</ele>
        <time>2016-09-11T08:41:47.000Z</time>
      </trkpt>
      <trkpt lat="45.5275" lon="3.99852">
        <ele>885.59997558594</ele>
        <time>2016-09-11T08:41:48.000Z</time>
      </trkpt>
      <trkpt lat="45.52767" lon="3.99837">
        <ele>886</ele>
        <time>2016-09-11T08:41:52.000Z</time>
      </trkpt>
      <trkpt lat="45.52784" lon="3.99822">
        <ele>887</ele>
        <time>2016-09-11T08:41:57.000Z</time>
      </trkpt>
      <trkpt lat="45.52789" lon="3.99819">
        <ele>887.40002441406</ele>
        <time>2016-09-11T08:41:59.000Z</time>
      </trkpt>
      <trkpt lat="45.52791" lon="3.99818">
        <ele>887.59997558594</ele>
        <time>2016-09-11T08:42:00.000Z</time>
      </trkpt>
      <trkpt lat="45.52794" lon="3.99789">
        <ele>887.59997558594</ele>
        <time>2016-09-11T08:42:09.000Z</time>
      </trkpt>
      <trkpt lat="45.52795" lon="3.99774">
        <ele>887.40002441406</ele>
        <time>2016-09-11T08:42:12.000Z</time>
      </trkpt>
      <trkpt lat="45.52796" lon="3.99769">
        <ele>887</ele>
        <time>2016-09-11T08:42:13.000Z</time>
      </trkpt>
      <trkpt lat="45.52796" lon="3.9974">
        <ele>885</ele>
        <time>2016-09-11T08:42:18.000Z</time>
      </trkpt>
      <trkpt lat="45.52796" lon="3.99735">
        <ele>884.59997558594</ele>
        <time>2016-09-11T08:42:19.000Z</time>
      </trkpt>
      <trkpt lat="45.52795" lon="3.99725">
        <ele>883.79998779297</ele>
        <time>2016-09-11T08:42:21.000Z</time>
      </trkpt>
      <trkpt lat="45.52797" lon="3.99699">
        <ele>882.20001220703</ele>
        <time>2016-09-11T08:42:27.000Z</time>
      </trkpt>
      <trkpt lat="45.52798" lon="3.99695">
        <ele>881.79998779297</ele>
        <time>2016-09-11T08:42:28.000Z</time>
      </trkpt>
      <trkpt lat="45.52799" lon="3.9969">
        <ele>881.59997558594</ele>
        <time>2016-09-11T08:42:29.000Z</time>
      </trkpt>
      <trkpt lat="45.52808" lon="3.99665">
        <ele>880</ele>
        <time>2016-09-11T08:42:33.000Z</time>
      </trkpt>
      <trkpt lat="45.52814" lon="3.99652">
        <ele>879.20001220703</ele>
        <time>2016-09-11T08:42:35.000Z</time>
      </trkpt>
      <trkpt lat="45.52825" lon="3.99631">
        <ele>878.20001220703</ele>
        <time>2016-09-11T08:42:39.000Z</time>
      </trkpt>
      <trkpt lat="45.52835" lon="3.99616">
        <ele>878.79998779297</ele>
        <time>2016-09-11T08:42:43.000Z</time>
      </trkpt>
      <trkpt lat="45.52837" lon="3.99612">
        <ele>879</ele>
        <time>2016-09-11T08:42:44.000Z</time>
      </trkpt>
      <trkpt lat="45.52846" lon="3.9959">
        <ele>875.59997558594</ele>
        <time>2016-09-11T08:42:51.000Z</time>
      </trkpt>
      <trkpt lat="45.52847" lon="3.99587">
        <ele>875.20001220703</ele>
        <time>2016-09-11T08:42:52.000Z</time>
      </trkpt>
      <trkpt lat="45.5286" lon="3.99563">
        <ele>872.79998779297</ele>
        <time>2016-09-11T08:43:01.000Z</time>
      </trkpt>
      <trkpt lat="45.52872" lon="3.99544">
        <ele>872.40002441406</ele>
        <time>2016-09-11T08:43:06.000Z</time>
      </trkpt>
      <trkpt lat="45.52874" lon="3.9954">
        <ele>872.20001220703</ele>
        <time>2016-09-11T08:43:07.000Z</time>
      </trkpt>
      <trkpt lat="45.52879" lon="3.99524">
        <ele>870.59997558594</ele>
        <time>2016-09-11T08:43:11.000Z</time>
      </trkpt>
      <trkpt lat="45.52883" lon="3.99513">
        <ele>869.20001220703</ele>
        <time>2016-09-11T08:43:13.000Z</time>
      </trkpt>
      <trkpt lat="45.52893" lon="3.99491">
        <ele>865.59997558594</ele>
        <time>2016-09-11T08:43:18.000Z</time>
      </trkpt>
      <trkpt lat="45.52904" lon="3.99467">
        <ele>862</ele>
        <time>2016-09-11T08:43:23.000Z</time>
      </trkpt>
      <trkpt lat="45.52909" lon="3.99459">
        <ele>860.79998779297</ele>
        <time>2016-09-11T08:43:25.000Z</time>
      </trkpt>
      <trkpt lat="45.52912" lon="3.99454">
        <ele>860.20001220703</ele>
        <time>2016-09-11T08:43:26.000Z</time>
      </trkpt>
      <trkpt lat="45.52928" lon="3.99433">
        <ele>857.59997558594</ele>
        <time>2016-09-11T08:43:31.000Z</time>
      </trkpt>
      <trkpt lat="45.52941" lon="3.99411">
        <ele>855.20001220703</ele>
        <time>2016-09-11T08:43:36.000Z</time>
      </trkpt>
      <trkpt lat="45.52955" lon="3.99389">
        <ele>854.79998779297</ele>
        <time>2016-09-11T08:43:41.000Z</time>
      </trkpt>
      <trkpt lat="45.52958" lon="3.99385">
        <ele>855</ele>
        <time>2016-09-11T08:43:42.000Z</time>
      </trkpt>
      <trkpt lat="45.52961" lon="3.99381">
        <ele>855</ele>
        <time>2016-09-11T08:43:43.000Z</time>
      </trkpt>
      <trkpt lat="45.52976" lon="3.99363">
        <ele>855.40002441406</ele>
        <time>2016-09-11T08:43:47.000Z</time>
      </trkpt>
      <trkpt lat="45.52989" lon="3.99343">
        <ele>856.20001220703</ele>
        <time>2016-09-11T08:43:51.000Z</time>
      </trkpt>
      <trkpt lat="45.52996" lon="3.99326">
        <ele>856.20001220703</ele>
        <time>2016-09-11T08:43:54.000Z</time>
      </trkpt>
      <trkpt lat="45.52998" lon="3.9932">
        <ele>856.20001220703</ele>
        <time>2016-09-11T08:43:55.000Z</time>
      </trkpt>
      <trkpt lat="45.53008" lon="3.99298">
        <ele>855</ele>
        <time>2016-09-11T08:43:59.000Z</time>
      </trkpt>
      <trkpt lat="45.53014" lon="3.99278">
        <ele>852.79998779297</ele>
        <time>2016-09-11T08:44:03.000Z</time>
      </trkpt>
      <trkpt lat="45.53016" lon="3.99273">
        <ele>852.40002441406</ele>
        <time>2016-09-11T08:44:04.000Z</time>
      </trkpt>
      <trkpt lat="45.53028" lon="3.9925">
        <ele>853</ele>
        <time>2016-09-11T08:44:10.000Z</time>
      </trkpt>
      <trkpt lat="45.53044" lon="3.9923">
        <ele>854.40002441406</ele>
        <time>2016-09-11T08:44:16.000Z</time>
      </trkpt>
      <trkpt lat="45.53047" lon="3.99226">
        <ele>854.79998779297</ele>
        <time>2016-09-11T08:44:17.000Z</time>
      </trkpt>
      <trkpt lat="45.5306" lon="3.99206">
        <ele>855.59997558594</ele>
        <time>2016-09-11T08:44:21.000Z</time>
      </trkpt>
      <trkpt lat="45.53066" lon="3.99195">
        <ele>855.59997558594</ele>
        <time>2016-09-11T08:44:23.000Z</time>
      </trkpt>
      <trkpt lat="45.53069" lon="3.9919">
        <ele>855.79998779297</ele>
        <time>2016-09-11T08:44:24.000Z</time>
      </trkpt>
      <trkpt lat="45.53082" lon="3.99177">
        <ele>857.79998779297</ele>
        <time>2016-09-11T08:44:28.000Z</time>
      </trkpt>
      <trkpt lat="45.53087" lon="3.99171">
        <ele>858.79998779297</ele>
        <time>2016-09-11T08:44:30.000Z</time>
      </trkpt>
      <trkpt lat="45.53092" lon="3.99165">
        <ele>859.59997558594</ele>
        <time>2016-09-11T08:44:32.000Z</time>
      </trkpt>
      <trkpt lat="45.53098" lon="3.99155">
        <ele>860.79998779297</ele>
        <time>2016-09-11T08:44:35.000Z</time>
      </trkpt>
      <trkpt lat="45.53111" lon="3.99132">
        <ele>860.79998779297</ele>
        <time>2016-09-11T08:44:42.000Z</time>
      </trkpt>
      <trkpt lat="45.53113" lon="3.9913">
        <ele>860.79998779297</ele>
        <time>2016-09-11T08:44:43.000Z</time>
      </trkpt>
      <trkpt lat="45.53116" lon="3.99124">
        <ele>860.79998779297</ele>
        <time>2016-09-11T08:44:45.000Z</time>
      </trkpt>
      <trkpt lat="45.53122" lon="3.99116">
        <ele>860.79998779297</ele>
        <time>2016-09-11T08:44:48.000Z</time>
      </trkpt>
      <trkpt lat="45.53134" lon="3.99098">
        <ele>861</ele>
        <time>2016-09-11T08:44:54.000Z</time>
      </trkpt>
      <trkpt lat="45.53135" lon="3.99095">
        <ele>861.20001220703</ele>
        <time>2016-09-11T08:44:55.000Z</time>
      </trkpt>
      <trkpt lat="45.53141" lon="3.99082">
        <ele>862</ele>
        <time>2016-09-11T08:44:59.000Z</time>
      </trkpt>
      <trkpt lat="45.53148" lon="3.99058">
        <ele>863</ele>
        <time>2016-09-11T08:45:07.000Z</time>
      </trkpt>
      <trkpt lat="45.5315" lon="3.99032">
        <ele>862.59997558594</ele>
        <time>2016-09-11T08:45:15.000Z</time>
      </trkpt>
      <trkpt lat="45.53149" lon="3.99025">
        <ele>862.20001220703</ele>
        <time>2016-09-11T08:45:17.000Z</time>
      </trkpt>
      <trkpt lat="45.53149" lon="3.99021">
        <ele>862</ele>
        <time>2016-09-11T08:45:18.000Z</time>
      </trkpt>
      <trkpt lat="45.53148" lon="3.99013">
        <ele>862</ele>
        <time>2016-09-11T08:45:21.000Z</time>
      </trkpt>
      <trkpt lat="45.53144" lon="3.98986">
        <ele>861.79998779297</ele>
        <time>2016-09-11T08:45:30.000Z</time>
      </trkpt>
      <trkpt lat="45.53144" lon="3.98983">
        <ele>861.79998779297</ele>
        <time>2016-09-11T08:45:31.000Z</time>
      </trkpt>
      <trkpt lat="45.53142" lon="3.98969">
        <ele>861.59997558594</ele>
        <time>2016-09-11T08:45:36.000Z</time>
      </trkpt>
      <trkpt lat="45.53142" lon="3.98966">
        <ele>861.59997558594</ele>
        <time>2016-09-11T08:45:37.000Z</time>
      </trkpt>
      <trkpt lat="45.53137" lon="3.98939">
        <ele>861.40002441406</ele>
        <time>2016-09-11T08:45:48.000Z</time>
      </trkpt>
      <trkpt lat="45.53135" lon="3.98914">
        <ele>864</ele>
        <time>2016-09-11T08:45:58.000Z</time>
      </trkpt>
      <trkpt lat="45.53135" lon="3.98911">
        <ele>864.40002441406</ele>
        <time>2016-09-11T08:45:59.000Z</time>
      </trkpt>
      <trkpt lat="45.53136" lon="3.98897">
        <ele>866</ele>
        <time>2016-09-11T08:46:04.000Z</time>
      </trkpt>
      <trkpt lat="45.53136" lon="3.98894">
        <ele>866.20001220703</ele>
        <time>2016-09-11T08:46:05.000Z</time>
      </trkpt>
      <trkpt lat="45.53137" lon="3.98888">
        <ele>867</ele>
        <time>2016-09-11T08:46:07.000Z</time>
      </trkpt>
      <trkpt lat="45.53137" lon="3.98876">
        <ele>868.40002441406</ele>
        <time>2016-09-11T08:46:11.000Z</time>
      </trkpt>
      <trkpt lat="45.53138" lon="3.98866">
        <ele>869.59997558594</ele>
        <time>2016-09-11T08:46:15.000Z</time>
      </trkpt>
      <trkpt lat="45.53138" lon="3.98863">
        <ele>869.79998779297</ele>
        <time>2016-09-11T08:46:16.000Z</time>
      </trkpt>
      <trkpt lat="45.53141" lon="3.98837">
        <ele>872.59997558594</ele>
        <time>2016-09-11T08:46:26.000Z</time>
      </trkpt>
      <trkpt lat="45.53148" lon="3.98813">
        <ele>875.59997558594</ele>
        <time>2016-09-11T08:46:36.000Z</time>
      </trkpt>
      <trkpt lat="45.53149" lon="3.98808">
        <ele>876.20001220703</ele>
        <time>2016-09-11T08:46:38.000Z</time>
      </trkpt>
      <trkpt lat="45.5315" lon="3.98806">
        <ele>876.59997558594</ele>
        <time>2016-09-11T08:46:39.000Z</time>
      </trkpt>
      <trkpt lat="45.53162" lon="3.98793">
        <ele>877.40002441406</ele>
        <time>2016-09-11T08:46:48.000Z</time>
      </trkpt>
      <trkpt lat="45.53163" lon="3.98792">
        <ele>877.40002441406</ele>
        <time>2016-09-11T08:46:49.000Z</time>
      </trkpt>
      <trkpt lat="45.53176" lon="3.98777">
        <ele>877.40002441406</ele>
        <time>2016-09-11T08:47:02.000Z</time>
      </trkpt>
      <trkpt lat="45.53157" lon="3.98774">
        <ele>878.79998779297</ele>
        <time>2016-09-11T08:47:14.000Z</time>
      </trkpt>
      <trkpt lat="45.53155" lon="3.98774">
        <ele>878.79998779297</ele>
        <time>2016-09-11T08:47:15.000Z</time>
      </trkpt>
      <trkpt lat="45.5315" lon="3.98773">
        <ele>879.40002441406</ele>
        <time>2016-09-11T08:47:18.000Z</time>
      </trkpt>
      <trkpt lat="45.53132" lon="3.98769">
        <ele>880.59997558594</ele>
        <time>2016-09-11T08:47:29.000Z</time>
      </trkpt>
      <trkpt lat="45.53117" lon="3.98766">
        <ele>881</ele>
        <time>2016-09-11T08:47:39.000Z</time>
      </trkpt>
      <trkpt lat="45.53115" lon="3.98765">
        <ele>881.20001220703</ele>
        <time>2016-09-11T08:47:41.000Z</time>
      </trkpt>
      <trkpt lat="45.5311" lon="3.98748">
        <ele>881.79998779297</ele>
        <time>2016-09-11T08:47:52.000Z</time>
      </trkpt>
      <trkpt lat="45.53111" lon="3.98742">
        <ele>882.79998779297</ele>
        <time>2016-09-11T08:47:54.000Z</time>
      </trkpt>
      <trkpt lat="45.53115" lon="3.98733">
        <ele>884.59997558594</ele>
        <time>2016-09-11T08:47:59.000Z</time>
      </trkpt>
      <trkpt lat="45.53116" lon="3.9873">
        <ele>884.79998779297</ele>
        <time>2016-09-11T08:48:00.000Z</time>
      </trkpt>
      <trkpt lat="45.53121" lon="3.98722">
        <ele>886.40002441406</ele>
        <time>2016-09-11T08:48:04.000Z</time>
      </trkpt>
      <trkpt lat="45.53123" lon="3.98719">
        <ele>887.20001220703</ele>
        <time>2016-09-11T08:48:06.000Z</time>
      </trkpt>
      <trkpt lat="45.53135" lon="3.98699">
        <ele>890.79998779297</ele>
        <time>2016-09-11T08:48:18.000Z</time>
      </trkpt>
      <trkpt lat="45.53138" lon="3.98695">
        <ele>891.20001220703</ele>
        <time>2016-09-11T08:48:21.000Z</time>
      </trkpt>
      <trkpt lat="45.53141" lon="3.98692">
        <ele>891.20001220703</ele>
        <time>2016-09-11T08:48:23.000Z</time>
      </trkpt>
      <trkpt lat="45.53153" lon="3.98672">
        <ele>890.20001220703</ele>
        <time>2016-09-11T08:48:33.000Z</time>
      </trkpt>
      <trkpt lat="45.53156" lon="3.98667">
        <ele>889.79998779297</ele>
        <time>2016-09-11T08:48:35.000Z</time>
      </trkpt>
      <trkpt lat="45.53158" lon="3.98665">
        <ele>889.59997558594</ele>
        <time>2016-09-11T08:48:36.000Z</time>
      </trkpt>
      <trkpt lat="45.53161" lon="3.9866">
        <ele>889.40002441406</ele>
        <time>2016-09-11T08:48:38.000Z</time>
      </trkpt>
      <trkpt lat="45.53169" lon="3.98645">
        <ele>888.59997558594</ele>
        <time>2016-09-11T08:48:44.000Z</time>
      </trkpt>
      <trkpt lat="45.53171" lon="3.98642">
        <ele>888.79998779297</ele>
        <time>2016-09-11T08:48:45.000Z</time>
      </trkpt>
      <trkpt lat="45.53182" lon="3.98622">
        <ele>890.59997558594</ele>
        <time>2016-09-11T08:48:53.000Z</time>
      </trkpt>
      <trkpt lat="45.53193" lon="3.98603">
        <ele>891.59997558594</ele>
        <time>2016-09-11T08:49:00.000Z</time>
      </trkpt>
      <trkpt lat="45.53195" lon="3.986">
        <ele>891.59997558594</ele>
        <time>2016-09-11T08:49:01.000Z</time>
      </trkpt>
      <trkpt lat="45.53207" lon="3.98581">
        <ele>892.79998779297</ele>
        <time>2016-09-11T08:49:07.000Z</time>
      </trkpt>
      <trkpt lat="45.53217" lon="3.98565">
        <ele>895.59997558594</ele>
        <time>2016-09-11T08:49:12.000Z</time>
      </trkpt>
      <trkpt lat="45.53219" lon="3.98561">
        <ele>895.79998779297</ele>
        <time>2016-09-11T08:49:13.000Z</time>
      </trkpt>
      <trkpt lat="45.53232" lon="3.9854">
        <ele>897.20001220703</ele>
        <time>2016-09-11T08:49:19.000Z</time>
      </trkpt>
      <trkpt lat="45.53234" lon="3.98537">
        <ele>897.79998779297</ele>
        <time>2016-09-11T08:49:20.000Z</time>
      </trkpt>
      <trkpt lat="45.53236" lon="3.98535">
        <ele>898.40002441406</ele>
        <time>2016-09-11T08:49:21.000Z</time>
      </trkpt>
      <trkpt lat="45.5324" lon="3.98529">
        <ele>899.79998779297</ele>
        <time>2016-09-11T08:49:23.000Z</time>
      </trkpt>
      <trkpt lat="45.53253" lon="3.98511">
        <ele>902.79998779297</ele>
        <time>2016-09-11T08:49:31.000Z</time>
      </trkpt>
      <trkpt lat="45.53263" lon="3.98487">
        <ele>905.59997558594</ele>
        <time>2016-09-11T08:49:40.000Z</time>
      </trkpt>
      <trkpt lat="45.53265" lon="3.98484">
        <ele>906.40002441406</ele>
        <time>2016-09-11T08:49:41.000Z</time>
      </trkpt>
      <trkpt lat="45.53273" lon="3.9846">
        <ele>912.40002441406</ele>
        <time>2016-09-11T08:49:50.000Z</time>
      </trkpt>
      <trkpt lat="45.53275" lon="3.98456">
        <ele>913.59997558594</ele>
        <time>2016-09-11T08:49:52.000Z</time>
      </trkpt>
      <trkpt lat="45.53278" lon="3.98453">
        <ele>914.79998779297</ele>
        <time>2016-09-11T08:49:54.000Z</time>
      </trkpt>
      <trkpt lat="45.53292" lon="3.98445">
        <ele>918.79998779297</ele>
        <time>2016-09-11T08:50:05.000Z</time>
      </trkpt>
      <trkpt lat="45.53293" lon="3.98445">
        <ele>919</ele>
        <time>2016-09-11T08:50:06.000Z</time>
      </trkpt>
      <trkpt lat="45.53304" lon="3.98447">
        <ele>920.40002441406</ele>
        <time>2016-09-11T08:50:12.000Z</time>
      </trkpt>
      <trkpt lat="45.53305" lon="3.98447">
        <ele>920.59997558594</ele>
        <time>2016-09-11T08:50:13.000Z</time>
      </trkpt>
      <trkpt lat="45.53315" lon="3.98439">
        <ele>924.59997558594</ele>
        <time>2016-09-11T08:50:28.000Z</time>
      </trkpt>
      <trkpt lat="45.53317" lon="3.98435">
        <ele>925.79998779297</ele>
        <time>2016-09-11T08:50:33.000Z</time>
      </trkpt>
      <trkpt lat="45.5332" lon="3.98431">
        <ele>926.79998779297</ele>
        <time>2016-09-11T08:50:37.000Z</time>
      </trkpt>
      <trkpt lat="45.53322" lon="3.98427">
        <ele>927.79998779297</ele>
        <time>2016-09-11T08:50:44.000Z</time>
      </trkpt>
      <trkpt lat="45.53324" lon="3.98422">
        <ele>928.59997558594</ele>
        <time>2016-09-11T08:50:48.000Z</time>
      </trkpt>
      <trkpt lat="45.53325" lon="3.98419">
        <ele>929.20001220703</ele>
        <time>2016-09-11T08:50:51.000Z</time>
      </trkpt>
      <trkpt lat="45.53326" lon="3.98405">
        <ele>931</ele>
        <time>2016-09-11T08:51:03.000Z</time>
      </trkpt>
      <trkpt lat="45.53329" lon="3.98391">
        <ele>933.20001220703</ele>
        <time>2016-09-11T08:51:13.000Z</time>
      </trkpt>
      <trkpt lat="45.53329" lon="3.9839">
        <ele>933.40002441406</ele>
        <time>2016-09-11T08:51:14.000Z</time>
      </trkpt>
      <trkpt lat="45.53332" lon="3.98382">
        <ele>934.59997558594</ele>
        <time>2016-09-11T08:51:21.000Z</time>
      </trkpt>
      <trkpt lat="45.53333" lon="3.9838">
        <ele>935</ele>
        <time>2016-09-11T08:51:23.000Z</time>
      </trkpt>
      <trkpt lat="45.53335" lon="3.9837">
        <ele>936.20001220703</ele>
        <time>2016-09-11T08:51:32.000Z</time>
      </trkpt>
      <trkpt lat="45.53335" lon="3.98367">
        <ele>936.40002441406</ele>
        <time>2016-09-11T08:51:34.000Z</time>
      </trkpt>
      <trkpt lat="45.53335" lon="3.98364">
        <ele>936.59997558594</ele>
        <time>2016-09-11T08:51:37.000Z</time>
      </trkpt>
      <trkpt lat="45.53335" lon="3.98359">
        <ele>937</ele>
        <time>2016-09-11T08:51:41.000Z</time>
      </trkpt>
      <trkpt lat="45.53335" lon="3.98357">
        <ele>937</ele>
        <time>2016-09-11T08:51:42.000Z</time>
      </trkpt>
      <trkpt lat="45.53335" lon="3.98355">
        <ele>936.79998779297</ele>
        <time>2016-09-11T08:51:44.000Z</time>
      </trkpt>
      <trkpt lat="45.53335" lon="3.98346">
        <ele>936.40002441406</ele>
        <time>2016-09-11T08:51:51.000Z</time>
      </trkpt>
      <trkpt lat="45.53336" lon="3.98342">
        <ele>936.40002441406</ele>
        <time>2016-09-11T08:51:54.000Z</time>
      </trkpt>
      <trkpt lat="45.53337" lon="3.98336">
        <ele>936.40002441406</ele>
        <time>2016-09-11T08:51:59.000Z</time>
      </trkpt>
      <trkpt lat="45.53337" lon="3.98334">
        <ele>936.40002441406</ele>
        <time>2016-09-11T08:52:00.000Z</time>
      </trkpt>
      <trkpt lat="45.53339" lon="3.98325">
        <ele>936.20001220703</ele>
        <time>2016-09-11T08:52:09.000Z</time>
      </trkpt>
      <trkpt lat="45.5334" lon="3.98315">
        <ele>936</ele>
        <time>2016-09-11T08:52:17.000Z</time>
      </trkpt>
      <trkpt lat="45.53343" lon="3.98306">
        <ele>936.79998779297</ele>
        <time>2016-09-11T08:52:25.000Z</time>
      </trkpt>
      <trkpt lat="45.53345" lon="3.98299">
        <ele>937.20001220703</ele>
        <time>2016-09-11T08:52:34.000Z</time>
      </trkpt>
      <trkpt lat="45.53345" lon="3.98297">
        <ele>937.20001220703</ele>
        <time>2016-09-11T08:52:36.000Z</time>
      </trkpt>
      <trkpt lat="45.53346" lon="3.98294">
        <ele>937.40002441406</ele>
        <time>2016-09-11T08:52:39.000Z</time>
      </trkpt>
      <trkpt lat="45.53346" lon="3.98292">
        <ele>937.40002441406</ele>
        <time>2016-09-11T08:52:41.000Z</time>
      </trkpt>
      <trkpt lat="45.53353" lon="3.98276">
        <ele>939.20001220703</ele>
        <time>2016-09-11T08:52:52.000Z</time>
      </trkpt>
      <trkpt lat="45.53353" lon="3.98274">
        <ele>939.20001220703</ele>
        <time>2016-09-11T08:52:53.000Z</time>
      </trkpt>
      <trkpt lat="45.53356" lon="3.98266">
        <ele>939.59997558594</ele>
        <time>2016-09-11T08:53:05.000Z</time>
      </trkpt>
      <trkpt lat="45.53359" lon="3.98259">
        <ele>940</ele>
        <time>2016-09-11T08:53:10.000Z</time>
      </trkpt>
      <trkpt lat="45.53359" lon="3.98257">
        <ele>940</ele>
        <time>2016-09-11T08:53:11.000Z</time>
      </trkpt>
      <trkpt lat="45.53363" lon="3.98248">
        <ele>940.40002441406</ele>
        <time>2016-09-11T08:53:15.000Z</time>
      </trkpt>
      <trkpt lat="45.53364" lon="3.98246">
        <ele>940.40002441406</ele>
        <time>2016-09-11T08:53:16.000Z</time>
      </trkpt>
      <trkpt lat="45.53366" lon="3.9824">
        <ele>940.59997558594</ele>
        <time>2016-09-11T08:53:18.000Z</time>
      </trkpt>
      <trkpt lat="45.53373" lon="3.98217">
        <ele>941</ele>
        <time>2016-09-11T08:53:26.000Z</time>
      </trkpt>
      <trkpt lat="45.53375" lon="3.98214">
        <ele>941.20001220703</ele>
        <time>2016-09-11T08:53:27.000Z</time>
      </trkpt>
      <trkpt lat="45.53376" lon="3.98212">
        <ele>941.20001220703</ele>
        <time>2016-09-11T08:53:28.000Z</time>
      </trkpt>
      <trkpt lat="45.53381" lon="3.98198">
        <ele>941.79998779297</ele>
        <time>2016-09-11T08:53:33.000Z</time>
      </trkpt>
      <trkpt lat="45.53382" lon="3.98195">
        <ele>941.79998779297</ele>
        <time>2016-09-11T08:53:34.000Z</time>
      </trkpt>
      <trkpt lat="45.53386" lon="3.98183">
        <ele>943</ele>
        <time>2016-09-11T08:53:38.000Z</time>
      </trkpt>
      <trkpt lat="45.53386" lon="3.9818">
        <ele>943.40002441406</ele>
        <time>2016-09-11T08:53:39.000Z</time>
      </trkpt>
      <trkpt lat="45.53388" lon="3.98172">
        <ele>944.59997558594</ele>
        <time>2016-09-11T08:53:42.000Z</time>
      </trkpt>
      <trkpt lat="45.53389" lon="3.98146">
        <ele>946.79998779297</ele>
        <time>2016-09-11T08:53:49.000Z</time>
      </trkpt>
      <trkpt lat="45.53389" lon="3.98142">
        <ele>947</ele>
        <time>2016-09-11T08:53:50.000Z</time>
      </trkpt>
      <trkpt lat="45.53389" lon="3.98139">
        <ele>947.20001220703</ele>
        <time>2016-09-11T08:53:51.000Z</time>
      </trkpt>
      <trkpt lat="45.53384" lon="3.98114">
        <ele>947.40002441406</ele>
        <time>2016-09-11T08:53:58.000Z</time>
      </trkpt>
      <trkpt lat="45.53379" lon="3.98089">
        <ele>948.79998779297</ele>
        <time>2016-09-11T08:54:13.000Z</time>
      </trkpt>
      <trkpt lat="45.53379" lon="3.98084">
        <ele>949.40002441406</ele>
        <time>2016-09-11T08:54:16.000Z</time>
      </trkpt>
      <trkpt lat="45.53379" lon="3.98082">
        <ele>949.59997558594</ele>
        <time>2016-09-11T08:54:17.000Z</time>
      </trkpt>
      <trkpt lat="45.53378" lon="3.98075">
        <ele>950.40002441406</ele>
        <time>2016-09-11T08:54:21.000Z</time>
      </trkpt>
      <trkpt lat="45.53382" lon="3.9806">
        <ele>953.79998779297</ele>
        <time>2016-09-11T08:54:34.000Z</time>
      </trkpt>
      <trkpt lat="45.53383" lon="3.98056">
        <ele>954.59997558594</ele>
        <time>2016-09-11T08:54:37.000Z</time>
      </trkpt>
      <trkpt lat="45.53385" lon="3.98052">
        <ele>955.59997558594</ele>
        <time>2016-09-11T08:54:40.000Z</time>
      </trkpt>
      <trkpt lat="45.53387" lon="3.98047">
        <ele>956.79998779297</ele>
        <time>2016-09-11T08:54:45.000Z</time>
      </trkpt>
      <trkpt lat="45.53387" lon="3.98046">
        <ele>957</ele>
        <time>2016-09-11T08:54:46.000Z</time>
      </trkpt>
      <trkpt lat="45.53389" lon="3.98042">
        <ele>957.79998779297</ele>
        <time>2016-09-11T08:54:49.000Z</time>
      </trkpt>
      <trkpt lat="45.53392" lon="3.98039">
        <ele>959</ele>
        <time>2016-09-11T08:54:53.000Z</time>
      </trkpt>
      <trkpt lat="45.53394" lon="3.98035">
        <ele>960</ele>
        <time>2016-09-11T08:54:58.000Z</time>
      </trkpt>
      <trkpt lat="45.53396" lon="3.9803">
        <ele>961</ele>
        <time>2016-09-11T08:55:02.000Z</time>
      </trkpt>
      <trkpt lat="45.53398" lon="3.98026">
        <ele>961.59997558594</ele>
        <time>2016-09-11T08:55:05.000Z</time>
      </trkpt>
      <trkpt lat="45.534" lon="3.9802">
        <ele>962.59997558594</ele>
        <time>2016-09-11T08:55:12.000Z</time>
      </trkpt>
      <trkpt lat="45.53402" lon="3.98014">
        <ele>963.59997558594</ele>
        <time>2016-09-11T08:55:21.000Z</time>
      </trkpt>
      <trkpt lat="45.53405" lon="3.98008">
        <ele>964.59997558594</ele>
        <time>2016-09-11T08:55:27.000Z</time>
      </trkpt>
      <trkpt lat="45.53408" lon="3.98003">
        <ele>965.40002441406</ele>
        <time>2016-09-11T08:55:32.000Z</time>
      </trkpt>
      <trkpt lat="45.5341" lon="3.97988">
        <ele>967</ele>
        <time>2016-09-11T08:55:47.000Z</time>
      </trkpt>
      <trkpt lat="45.53416" lon="3.97963">
        <ele>970</ele>
        <time>2016-09-11T08:56:01.000Z</time>
      </trkpt>
      <trkpt lat="45.53417" lon="3.97961">
        <ele>970.40002441406</ele>
        <time>2016-09-11T08:56:02.000Z</time>
      </trkpt>
      <trkpt lat="45.53419" lon="3.97948">
        <ele>971.79998779297</ele>
        <time>2016-09-11T08:56:09.000Z</time>
      </trkpt>
      <trkpt lat="45.5342" lon="3.97945">
        <ele>972.20001220703</ele>
        <time>2016-09-11T08:56:11.000Z</time>
      </trkpt>
      <trkpt lat="45.53421" lon="3.97939">
        <ele>972.79998779297</ele>
        <time>2016-09-11T08:56:14.000Z</time>
      </trkpt>
      <trkpt lat="45.53426" lon="3.97914">
        <ele>975.59997558594</ele>
        <time>2016-09-11T08:56:30.000Z</time>
      </trkpt>
      <trkpt lat="45.53427" lon="3.97904">
        <ele>976.59997558594</ele>
        <time>2016-09-11T08:56:40.000Z</time>
      </trkpt>
      <trkpt lat="45.53427" lon="3.97901">
        <ele>976.79998779297</ele>
        <time>2016-09-11T08:56:42.000Z</time>
      </trkpt>
      <trkpt lat="45.53429" lon="3.97898">
        <ele>977</ele>
        <time>2016-09-11T08:56:45.000Z</time>
      </trkpt>
      <trkpt lat="45.53435" lon="3.97879">
        <ele>978.79998779297</ele>
        <time>2016-09-11T08:57:06.000Z</time>
      </trkpt>
      <trkpt lat="45.53436" lon="3.97877">
        <ele>979</ele>
        <time>2016-09-11T08:57:08.000Z</time>
      </trkpt>
      <trkpt lat="45.5344" lon="3.97868">
        <ele>980</ele>
        <time>2016-09-11T08:57:17.000Z</time>
      </trkpt>
      <trkpt lat="45.53444" lon="3.97859">
        <ele>981</ele>
        <time>2016-09-11T08:57:25.000Z</time>
      </trkpt>
      <trkpt lat="45.53453" lon="3.97844">
        <ele>981.59997558594</ele>
        <time>2016-09-11T08:57:39.000Z</time>
      </trkpt>
      <trkpt lat="45.53454" lon="3.97843">
        <ele>981.59997558594</ele>
        <time>2016-09-11T08:57:41.000Z</time>
      </trkpt>
      <trkpt lat="45.53459" lon="3.97837">
        <ele>981.79998779297</ele>
        <time>2016-09-11T08:57:47.000Z</time>
      </trkpt>
      <trkpt lat="45.53461" lon="3.97833">
        <ele>981.79998779297</ele>
        <time>2016-09-11T08:57:51.000Z</time>
      </trkpt>
      <trkpt lat="45.53462" lon="3.97831">
        <ele>982</ele>
        <time>2016-09-11T08:57:53.000Z</time>
      </trkpt>
      <trkpt lat="45.53464" lon="3.9783">
        <ele>982</ele>
        <time>2016-09-11T08:57:55.000Z</time>
      </trkpt>
      <trkpt lat="45.53465" lon="3.97827">
        <ele>982.20001220703</ele>
        <time>2016-09-11T08:57:58.000Z</time>
      </trkpt>
      <trkpt lat="45.53469" lon="3.97824">
        <ele>982.20001220703</ele>
        <time>2016-09-11T08:58:03.000Z</time>
      </trkpt>
      <trkpt lat="45.5347" lon="3.97822">
        <ele>982</ele>
        <time>2016-09-11T08:58:05.000Z</time>
      </trkpt>
      <trkpt lat="45.53472" lon="3.9782">
        <ele>981.79998779297</ele>
        <time>2016-09-11T08:58:08.000Z</time>
      </trkpt>
      <trkpt lat="45.53479" lon="3.97808">
        <ele>981</ele>
        <time>2016-09-11T08:58:26.000Z</time>
      </trkpt>
      <trkpt lat="45.53492" lon="3.9779">
        <ele>980.40002441406</ele>
        <time>2016-09-11T08:58:35.000Z</time>
      </trkpt>
      <trkpt lat="45.53505" lon="3.97768">
        <ele>980.40002441406</ele>
        <time>2016-09-11T08:58:43.000Z</time>
      </trkpt>
      <trkpt lat="45.53518" lon="3.97748">
        <ele>977.79998779297</ele>
        <time>2016-09-11T08:58:48.000Z</time>
      </trkpt>
      <trkpt lat="45.53532" lon="3.97723">
        <ele>977.79998779297</ele>
        <time>2016-09-11T08:58:53.000Z</time>
      </trkpt>
      <trkpt lat="45.53543" lon="3.97701">
        <ele>978.20001220703</ele>
        <time>2016-09-11T08:58:58.000Z</time>
      </trkpt>
      <trkpt lat="45.53552" lon="3.97679">
        <ele>979.20001220703</ele>
        <time>2016-09-11T08:59:04.000Z</time>
      </trkpt>
      <trkpt lat="45.53555" lon="3.9767">
        <ele>979.79998779297</ele>
        <time>2016-09-11T08:59:06.000Z</time>
      </trkpt>
      <trkpt lat="45.53559" lon="3.97661">
        <ele>980.59997558594</ele>
        <time>2016-09-11T08:59:08.000Z</time>
      </trkpt>
      <trkpt lat="45.53568" lon="3.97642">
        <ele>983</ele>
        <time>2016-09-11T08:59:13.000Z</time>
      </trkpt>
      <trkpt lat="45.5357" lon="3.97639">
        <ele>983.59997558594</ele>
        <time>2016-09-11T08:59:14.000Z</time>
      </trkpt>
      <trkpt lat="45.5358" lon="3.97614">
        <ele>987.20001220703</ele>
        <time>2016-09-11T08:59:22.000Z</time>
      </trkpt>
      <trkpt lat="45.53588" lon="3.97591">
        <ele>989.59997558594</ele>
        <time>2016-09-11T08:59:29.000Z</time>
      </trkpt>
      <trkpt lat="45.53591" lon="3.97581">
        <ele>990.40002441406</ele>
        <time>2016-09-11T08:59:32.000Z</time>
      </trkpt>
      <trkpt lat="45.53595" lon="3.97566">
        <ele>991.59997558594</ele>
        <time>2016-09-11T08:59:36.000Z</time>
      </trkpt>
      <trkpt lat="45.53602" lon="3.9754">
        <ele>992</ele>
        <time>2016-09-11T08:59:43.000Z</time>
      </trkpt>
      <trkpt lat="45.53609" lon="3.97513">
        <ele>992</ele>
        <time>2016-09-11T08:59:48.000Z</time>
      </trkpt>
      <trkpt lat="45.53615" lon="3.97497">
        <ele>991.79998779297</ele>
        <time>2016-09-11T08:59:51.000Z</time>
      </trkpt>
      <trkpt lat="45.53619" lon="3.97484">
        <ele>991.40002441406</ele>
        <time>2016-09-11T08:59:53.000Z</time>
      </trkpt>
      <trkpt lat="45.5363" lon="3.97461">
        <ele>991.40002441406</ele>
        <time>2016-09-11T08:59:57.000Z</time>
      </trkpt>
      <trkpt lat="45.53643" lon="3.97434">
        <ele>992.20001220703</ele>
        <time>2016-09-11T09:00:02.000Z</time>
      </trkpt>
      <trkpt lat="45.53649" lon="3.97423">
        <ele>992.59997558594</ele>
        <time>2016-09-11T09:00:04.000Z</time>
      </trkpt>
      <trkpt lat="45.53653" lon="3.97417">
        <ele>993</ele>
        <time>2016-09-11T09:00:05.000Z</time>
      </trkpt>
      <trkpt lat="45.53666" lon="3.97392">
        <ele>993.59997558594</ele>
        <time>2016-09-11T09:00:11.000Z</time>
      </trkpt>
      <trkpt lat="45.53679" lon="3.9737">
        <ele>995</ele>
        <time>2016-09-11T09:00:17.000Z</time>
      </trkpt>
      <trkpt lat="45.53684" lon="3.97359">
        <ele>995.40002441406</ele>
        <time>2016-09-11T09:00:20.000Z</time>
      </trkpt>
      <trkpt lat="45.53686" lon="3.97356">
        <ele>996</ele>
        <time>2016-09-11T09:00:21.000Z</time>
      </trkpt>
      <trkpt lat="45.5369" lon="3.97351">
        <ele>997.40002441406</ele>
        <time>2016-09-11T09:00:23.000Z</time>
      </trkpt>
      <trkpt lat="45.53702" lon="3.97329">
        <ele>999</ele>
        <time>2016-09-11T09:00:31.000Z</time>
      </trkpt>
      <trkpt lat="45.53714" lon="3.97307">
        <ele>997.40002441406</ele>
        <time>2016-09-11T09:00:41.000Z</time>
      </trkpt>
      <trkpt lat="45.53727" lon="3.9729">
        <ele>998.20001220703</ele>
        <time>2016-09-11T09:00:50.000Z</time>
      </trkpt>
      <trkpt lat="45.53733" lon="3.9728">
        <ele>999</ele>
        <time>2016-09-11T09:00:55.000Z</time>
      </trkpt>
      <trkpt lat="45.53734" lon="3.97278">
        <ele>999</ele>
        <time>2016-09-11T09:00:56.000Z</time>
      </trkpt>
      <trkpt lat="45.53737" lon="3.97272">
        <ele>999.40002441406</ele>
        <time>2016-09-11T09:00:59.000Z</time>
      </trkpt>
      <trkpt lat="45.53748" lon="3.97248">
        <ele>1001.4000244141</ele>
        <time>2016-09-11T09:01:07.000Z</time>
      </trkpt>
      <trkpt lat="45.53758" lon="3.97224">
        <ele>1002.799987793</ele>
        <time>2016-09-11T09:01:14.000Z</time>
      </trkpt>
      <trkpt lat="45.53769" lon="3.97201">
        <ele>1005</ele>
        <time>2016-09-11T09:01:22.000Z</time>
      </trkpt>
      <trkpt lat="45.53778" lon="3.97177">
        <ele>1008.200012207</ele>
        <time>2016-09-11T09:01:32.000Z</time>
      </trkpt>
      <trkpt lat="45.53783" lon="3.9716">
        <ele>1009.799987793</ele>
        <time>2016-09-11T09:01:37.000Z</time>
      </trkpt>
      <trkpt lat="45.53784" lon="3.97157">
        <ele>1009.799987793</ele>
        <time>2016-09-11T09:01:38.000Z</time>
      </trkpt>
      <trkpt lat="45.53786" lon="3.97137">
        <ele>1009.5999755859</ele>
        <time>2016-09-11T09:01:44.000Z</time>
      </trkpt>
      <trkpt lat="45.53786" lon="3.97134">
        <ele>1009.5999755859</ele>
        <time>2016-09-11T09:01:45.000Z</time>
      </trkpt>
      <trkpt lat="45.53791" lon="3.97108">
        <ele>1009.799987793</ele>
        <time>2016-09-11T09:01:52.000Z</time>
      </trkpt>
      <trkpt lat="45.53792" lon="3.97091">
        <ele>1010.5999755859</ele>
        <time>2016-09-11T09:01:58.000Z</time>
      </trkpt>
      <trkpt lat="45.53792" lon="3.97089">
        <ele>1010.4000244141</ele>
        <time>2016-09-11T09:01:59.000Z</time>
      </trkpt>
      <trkpt lat="45.53798" lon="3.97064">
        <ele>1009.4000244141</ele>
        <time>2016-09-11T09:02:07.000Z</time>
      </trkpt>
      <trkpt lat="45.53801" lon="3.97054">
        <ele>1009.200012207</ele>
        <time>2016-09-11T09:02:10.000Z</time>
      </trkpt>
      <trkpt lat="45.53802" lon="3.97047">
        <ele>1009.200012207</ele>
        <time>2016-09-11T09:02:12.000Z</time>
      </trkpt>
      <trkpt lat="45.53812" lon="3.97023">
        <ele>1010.799987793</ele>
        <time>2016-09-11T09:02:19.000Z</time>
      </trkpt>
      <trkpt lat="45.53817" lon="3.96998">
        <ele>1011.200012207</ele>
        <time>2016-09-11T09:02:27.000Z</time>
      </trkpt>
      <trkpt lat="45.53818" lon="3.96993">
        <ele>1011.200012207</ele>
        <time>2016-09-11T09:02:28.000Z</time>
      </trkpt>
      <trkpt lat="45.53818" lon="3.96967">
        <ele>1010</ele>
        <time>2016-09-11T09:02:34.000Z</time>
      </trkpt>
      <trkpt lat="45.53819" lon="3.96956">
        <ele>1009.4000244141</ele>
        <time>2016-09-11T09:02:37.000Z</time>
      </trkpt>
      <trkpt lat="45.53818" lon="3.96941">
        <ele>1006.799987793</ele>
        <time>2016-09-11T09:02:41.000Z</time>
      </trkpt>
      <trkpt lat="45.53821" lon="3.96915">
        <ele>1008</ele>
        <time>2016-09-11T09:02:52.000Z</time>
      </trkpt>
      <trkpt lat="45.53825" lon="3.96888">
        <ele>1009.4000244141</ele>
        <time>2016-09-11T09:03:03.000Z</time>
      </trkpt>
      <trkpt lat="45.53829" lon="3.96861">
        <ele>1008.5999755859</ele>
        <time>2016-09-11T09:03:16.000Z</time>
      </trkpt>
      <trkpt lat="45.53829" lon="3.96847">
        <ele>1009.799987793</ele>
        <time>2016-09-11T09:03:23.000Z</time>
      </trkpt>
      <trkpt lat="45.53829" lon="3.96845">
        <ele>1010</ele>
        <time>2016-09-11T09:03:24.000Z</time>
      </trkpt>
      <trkpt lat="45.53829" lon="3.96819">
        <ele>1013</ele>
        <time>2016-09-11T09:03:40.000Z</time>
      </trkpt>
      <trkpt lat="45.53829" lon="3.96809">
        <ele>1014.200012207</ele>
        <time>2016-09-11T09:03:47.000Z</time>
      </trkpt>
      <trkpt lat="45.53829" lon="3.96808">
        <ele>1014.4000244141</ele>
        <time>2016-09-11T09:03:48.000Z</time>
      </trkpt>
      <trkpt lat="45.53828" lon="3.96785">
        <ele>1015</ele>
        <time>2016-09-11T09:04:11.000Z</time>
      </trkpt>
      <trkpt lat="45.53828" lon="3.96774">
        <ele>1015</ele>
        <time>2016-09-11T09:04:20.000Z</time>
      </trkpt>
      <trkpt lat="45.53828" lon="3.96771">
        <ele>1015.5999755859</ele>
        <time>2016-09-11T09:04:23.000Z</time>
      </trkpt>
      <trkpt lat="45.53827" lon="3.96768">
        <ele>1016</ele>
        <time>2016-09-11T09:04:26.000Z</time>
      </trkpt>
      <trkpt lat="45.53826" lon="3.96763">
        <ele>1017</ele>
        <time>2016-09-11T09:04:31.000Z</time>
      </trkpt>
      <trkpt lat="45.5382" lon="3.96749">
        <ele>1019.4000244141</ele>
        <time>2016-09-11T09:04:47.000Z</time>
      </trkpt>
      <trkpt lat="45.5382" lon="3.96746">
        <ele>1019.799987793</ele>
        <time>2016-09-11T09:04:49.000Z</time>
      </trkpt>
      <trkpt lat="45.53818" lon="3.9674">
        <ele>1020.799987793</ele>
        <time>2016-09-11T09:04:55.000Z</time>
      </trkpt>
      <trkpt lat="45.53818" lon="3.96737">
        <ele>1021.4000244141</ele>
        <time>2016-09-11T09:04:58.000Z</time>
      </trkpt>
      <trkpt lat="45.53815" lon="3.96729">
        <ele>1022.5999755859</ele>
        <time>2016-09-11T09:05:05.000Z</time>
      </trkpt>
      <trkpt lat="45.53812" lon="3.96716">
        <ele>1024.8000488281</ele>
        <time>2016-09-11T09:05:16.000Z</time>
      </trkpt>
      <trkpt lat="45.5381" lon="3.96713">
        <ele>1025.4000244141</ele>
        <time>2016-09-11T09:05:20.000Z</time>
      </trkpt>
      <trkpt lat="45.53809" lon="3.96711">
        <ele>1025.5999755859</ele>
        <time>2016-09-11T09:05:22.000Z</time>
      </trkpt>
      <trkpt lat="45.53808" lon="3.9671">
        <ele>1025.8000488281</ele>
        <time>2016-09-11T09:05:24.000Z</time>
      </trkpt>
      <trkpt lat="45.53806" lon="3.96709">
        <ele>1026</ele>
        <time>2016-09-11T09:05:26.000Z</time>
      </trkpt>
      <trkpt lat="45.53802" lon="3.96711">
        <ele>1025.5999755859</ele>
        <time>2016-09-11T09:05:54.000Z</time>
      </trkpt>
      <trkpt lat="45.53787" lon="3.96728">
        <ele>1025</ele>
        <time>2016-09-11T09:06:08.000Z</time>
      </trkpt>
      <trkpt lat="45.53786" lon="3.96729">
        <ele>1024.8000488281</ele>
        <time>2016-09-11T09:06:09.000Z</time>
      </trkpt>
      <trkpt lat="45.53785" lon="3.96731">
        <ele>1024.8000488281</ele>
        <time>2016-09-11T09:06:10.000Z</time>
      </trkpt>
      <trkpt lat="45.53783" lon="3.96733">
        <ele>1024.8000488281</ele>
        <time>2016-09-11T09:06:12.000Z</time>
      </trkpt>
      <trkpt lat="45.53768" lon="3.9675">
        <ele>1024.8000488281</ele>
        <time>2016-09-11T09:06:25.000Z</time>
      </trkpt>
      <trkpt lat="45.53759" lon="3.96761">
        <ele>1025.5999755859</ele>
        <time>2016-09-11T09:06:33.000Z</time>
      </trkpt>
      <trkpt lat="45.53756" lon="3.96763">
        <ele>1025.8000488281</ele>
        <time>2016-09-11T09:06:35.000Z</time>
      </trkpt>
      <trkpt lat="45.53739" lon="3.96774">
        <ele>1028.4000244141</ele>
        <time>2016-09-11T09:06:50.000Z</time>
      </trkpt>
      <trkpt lat="45.5373" lon="3.96756">
        <ele>1032.1999511719</ele>
        <time>2016-09-11T09:07:05.000Z</time>
      </trkpt>
      <trkpt lat="45.53729" lon="3.9673">
        <ele>1035.1999511719</ele>
        <time>2016-09-11T09:07:19.000Z</time>
      </trkpt>
      <trkpt lat="45.53728" lon="3.96707">
        <ele>1038</ele>
        <time>2016-09-11T09:07:32.000Z</time>
      </trkpt>
      <trkpt lat="45.53727" lon="3.96705">
        <ele>1038.4000244141</ele>
        <time>2016-09-11T09:07:33.000Z</time>
      </trkpt>
      <trkpt lat="45.53721" lon="3.96685">
        <ele>1042.1999511719</ele>
        <time>2016-09-11T09:07:45.000Z</time>
      </trkpt>
      <trkpt lat="45.53721" lon="3.96683">
        <ele>1042.5999755859</ele>
        <time>2016-09-11T09:07:46.000Z</time>
      </trkpt>
      <trkpt lat="45.53717" lon="3.96668">
        <ele>1045</ele>
        <time>2016-09-11T09:07:55.000Z</time>
      </trkpt>
      <trkpt lat="45.53718" lon="3.96664">
        <ele>1045.4000244141</ele>
        <time>2016-09-11T09:07:57.000Z</time>
      </trkpt>
      <trkpt lat="45.53729" lon="3.96641">
        <ele>1046.5999755859</ele>
        <time>2016-09-11T09:08:08.000Z</time>
      </trkpt>
      <trkpt lat="45.53738" lon="3.96627">
        <ele>1047.1999511719</ele>
        <time>2016-09-11T09:08:15.000Z</time>
      </trkpt>
      <trkpt lat="45.53739" lon="3.96625">
        <ele>1047.4000244141</ele>
        <time>2016-09-11T09:08:16.000Z</time>
      </trkpt>
      <trkpt lat="45.53747" lon="3.96607">
        <ele>1048.4000244141</ele>
        <time>2016-09-11T09:08:23.000Z</time>
      </trkpt>
      <trkpt lat="45.53748" lon="3.96604">
        <ele>1048.5999755859</ele>
        <time>2016-09-11T09:08:24.000Z</time>
      </trkpt>
      <trkpt lat="45.53758" lon="3.96582">
        <ele>1050</ele>
        <time>2016-09-11T09:08:32.000Z</time>
      </trkpt>
      <trkpt lat="45.53766" lon="3.96562">
        <ele>1052</ele>
        <time>2016-09-11T09:08:39.000Z</time>
      </trkpt>
      <trkpt lat="45.53768" lon="3.96559">
        <ele>1052.4000244141</ele>
        <time>2016-09-11T09:08:40.000Z</time>
      </trkpt>
      <trkpt lat="45.53778" lon="3.96537">
        <ele>1055.1999511719</ele>
        <time>2016-09-11T09:08:48.000Z</time>
      </trkpt>
      <trkpt lat="45.5379" lon="3.96516">
        <ele>1057.4000244141</ele>
        <time>2016-09-11T09:08:57.000Z</time>
      </trkpt>
      <trkpt lat="45.53797" lon="3.96507">
        <ele>1058.1999511719</ele>
        <time>2016-09-11T09:09:01.000Z</time>
      </trkpt>
      <trkpt lat="45.53798" lon="3.96505">
        <ele>1058.4000244141</ele>
        <time>2016-09-11T09:09:02.000Z</time>
      </trkpt>
      <trkpt lat="45.53804" lon="3.96495">
        <ele>1059</ele>
        <time>2016-09-11T09:09:06.000Z</time>
      </trkpt>
      <trkpt lat="45.53806" lon="3.96493">
        <ele>1059</ele>
        <time>2016-09-11T09:09:07.000Z</time>
      </trkpt>
      <trkpt lat="45.53813" lon="3.96483">
        <ele>1059.4000244141</ele>
        <time>2016-09-11T09:09:12.000Z</time>
      </trkpt>
      <trkpt lat="45.53815" lon="3.96481">
        <ele>1059.4000244141</ele>
        <time>2016-09-11T09:09:13.000Z</time>
      </trkpt>
      <trkpt lat="45.5382" lon="3.96472">
        <ele>1059.8000488281</ele>
        <time>2016-09-11T09:09:17.000Z</time>
      </trkpt>
      <trkpt lat="45.53825" lon="3.96465">
        <ele>1060.1999511719</ele>
        <time>2016-09-11T09:09:20.000Z</time>
      </trkpt>
      <trkpt lat="45.53834" lon="3.9645">
        <ele>1062.5999755859</ele>
        <time>2016-09-11T09:09:27.000Z</time>
      </trkpt>
      <trkpt lat="45.53836" lon="3.96448">
        <ele>1063</ele>
        <time>2016-09-11T09:09:28.000Z</time>
      </trkpt>
      <trkpt lat="45.53848" lon="3.96427">
        <ele>1066.5999755859</ele>
        <time>2016-09-11T09:09:38.000Z</time>
      </trkpt>
      <trkpt lat="45.5385" lon="3.96423">
        <ele>1067.4000244141</ele>
        <time>2016-09-11T09:09:40.000Z</time>
      </trkpt>
      <trkpt lat="45.53852" lon="3.96421">
        <ele>1067.5999755859</ele>
        <time>2016-09-11T09:09:41.000Z</time>
      </trkpt>
      <trkpt lat="45.53867" lon="3.96404">
        <ele>1069.5999755859</ele>
        <time>2016-09-11T09:09:50.000Z</time>
      </trkpt>
      <trkpt lat="45.5388" lon="3.96386">
        <ele>1071.8000488281</ele>
        <time>2016-09-11T09:09:59.000Z</time>
      </trkpt>
      <trkpt lat="45.53884" lon="3.96382">
        <ele>1072.1999511719</ele>
        <time>2016-09-11T09:10:01.000Z</time>
      </trkpt>
      <trkpt lat="45.53872" lon="3.96374">
        <ele>1075.1999511719</ele>
        <time>2016-09-11T09:10:12.000Z</time>
      </trkpt>
      <trkpt lat="45.53856" lon="3.96373">
        <ele>1077.1999511719</ele>
        <time>2016-09-11T09:10:22.000Z</time>
      </trkpt>
      <trkpt lat="45.53855" lon="3.96373">
        <ele>1077.4000244141</ele>
        <time>2016-09-11T09:10:23.000Z</time>
      </trkpt>
      <trkpt lat="45.53847" lon="3.96372">
        <ele>1078.5999755859</ele>
        <time>2016-09-11T09:10:28.000Z</time>
      </trkpt>
      <trkpt lat="45.53838" lon="3.96371">
        <ele>1079.8000488281</ele>
        <time>2016-09-11T09:10:34.000Z</time>
      </trkpt>
      <trkpt lat="45.53836" lon="3.96371">
        <ele>1080</ele>
        <time>2016-09-11T09:10:35.000Z</time>
      </trkpt>
      <trkpt lat="45.5383" lon="3.96371">
        <ele>1080.8000488281</ele>
        <time>2016-09-11T09:10:39.000Z</time>
      </trkpt>
      <trkpt lat="45.53812" lon="3.96369">
        <ele>1083.4000244141</ele>
        <time>2016-09-11T09:10:51.000Z</time>
      </trkpt>
      <trkpt lat="45.53794" lon="3.96366">
        <ele>1086</ele>
        <time>2016-09-11T09:11:05.000Z</time>
      </trkpt>
      <trkpt lat="45.53793" lon="3.96366">
        <ele>1086</ele>
        <time>2016-09-11T09:11:06.000Z</time>
      </trkpt>
      <trkpt lat="45.53784" lon="3.96371">
        <ele>1086.1999511719</ele>
        <time>2016-09-11T09:11:12.000Z</time>
      </trkpt>
      <trkpt lat="45.53782" lon="3.96372">
        <ele>1086.4000244141</ele>
        <time>2016-09-11T09:11:13.000Z</time>
      </trkpt>
      <trkpt lat="45.53772" lon="3.96369">
        <ele>1088.1999511719</ele>
        <time>2016-09-11T09:11:25.000Z</time>
      </trkpt>
      <trkpt lat="45.53773" lon="3.96368">
        <ele>1088.4000244141</ele>
        <time>2016-09-11T09:11:26.000Z</time>
      </trkpt>
      <trkpt lat="45.53789" lon="3.96352">
        <ele>1090</ele>
        <time>2016-09-11T09:11:38.000Z</time>
      </trkpt>
      <trkpt lat="45.5379" lon="3.9635">
        <ele>1090.1999511719</ele>
        <time>2016-09-11T09:11:39.000Z</time>
      </trkpt>
      <trkpt lat="45.53791" lon="3.96349">
        <ele>1090.4000244141</ele>
        <time>2016-09-11T09:11:40.000Z</time>
      </trkpt>
      <trkpt lat="45.53807" lon="3.96333">
        <ele>1093.8000488281</ele>
        <time>2016-09-11T09:11:51.000Z</time>
      </trkpt>
      <trkpt lat="45.53809" lon="3.96331">
        <ele>1094</ele>
        <time>2016-09-11T09:11:52.000Z</time>
      </trkpt>
      <trkpt lat="45.53812" lon="3.96329">
        <ele>1094.4000244141</ele>
        <time>2016-09-11T09:11:54.000Z</time>
      </trkpt>
      <trkpt lat="45.53818" lon="3.96324">
        <ele>1095</ele>
        <time>2016-09-11T09:11:58.000Z</time>
      </trkpt>
      <trkpt lat="45.53831" lon="3.9631">
        <ele>1097.5999755859</ele>
        <time>2016-09-11T09:12:08.000Z</time>
      </trkpt>
      <trkpt lat="45.53834" lon="3.96307">
        <ele>1098.1999511719</ele>
        <time>2016-09-11T09:12:10.000Z</time>
      </trkpt>
      <trkpt lat="45.53842" lon="3.96299">
        <ele>1098.1999511719</ele>
        <time>2016-09-11T09:12:16.000Z</time>
      </trkpt>
      <trkpt lat="45.53844" lon="3.96298">
        <ele>1098.1999511719</ele>
        <time>2016-09-11T09:12:17.000Z</time>
      </trkpt>
      <trkpt lat="45.53859" lon="3.96283">
        <ele>1098.1999511719</ele>
        <time>2016-09-11T09:12:28.000Z</time>
      </trkpt>
      <trkpt lat="45.53869" lon="3.96273">
        <ele>1098.4000244141</ele>
        <time>2016-09-11T09:12:34.000Z</time>
      </trkpt>
      <trkpt lat="45.5387" lon="3.96271">
        <ele>1098.4000244141</ele>
        <time>2016-09-11T09:12:35.000Z</time>
      </trkpt>
      <trkpt lat="45.53875" lon="3.96264">
        <ele>1098.8000488281</ele>
        <time>2016-09-11T09:12:39.000Z</time>
      </trkpt>
      <trkpt lat="45.53885" lon="3.96249">
        <ele>1100.5999755859</ele>
        <time>2016-09-11T09:12:46.000Z</time>
      </trkpt>
      <trkpt lat="45.53887" lon="3.96247">
        <ele>1100.8000488281</ele>
        <time>2016-09-11T09:12:47.000Z</time>
      </trkpt>
      <trkpt lat="45.53897" lon="3.96234">
        <ele>1102.1999511719</ele>
        <time>2016-09-11T09:12:54.000Z</time>
      </trkpt>
      <trkpt lat="45.53899" lon="3.96232">
        <ele>1102.5999755859</ele>
        <time>2016-09-11T09:12:55.000Z</time>
      </trkpt>
      <trkpt lat="45.53912" lon="3.96211">
        <ele>1105</ele>
        <time>2016-09-11T09:13:07.000Z</time>
      </trkpt>
      <trkpt lat="45.53923" lon="3.96198">
        <ele>1105.5999755859</ele>
        <time>2016-09-11T09:13:16.000Z</time>
      </trkpt>
      <trkpt lat="45.53924" lon="3.96196">
        <ele>1105.5999755859</ele>
        <time>2016-09-11T09:13:17.000Z</time>
      </trkpt>
      <trkpt lat="45.53941" lon="3.96181">
        <ele>1105.4000244141</ele>
        <time>2016-09-11T09:13:28.000Z</time>
      </trkpt>
      <trkpt lat="45.53942" lon="3.9618">
        <ele>1105.1999511719</ele>
        <time>2016-09-11T09:13:29.000Z</time>
      </trkpt>
      <trkpt lat="45.53951" lon="3.96175">
        <ele>1104.4000244141</ele>
        <time>2016-09-11T09:13:36.000Z</time>
      </trkpt>
      <trkpt lat="45.53952" lon="3.96175">
        <ele>1104.4000244141</ele>
        <time>2016-09-11T09:13:37.000Z</time>
      </trkpt>
      <trkpt lat="45.53956" lon="3.96171">
        <ele>1104</ele>
        <time>2016-09-11T09:13:40.000Z</time>
      </trkpt>
      <trkpt lat="45.53959" lon="3.96167">
        <ele>1104</ele>
        <time>2016-09-11T09:13:44.000Z</time>
      </trkpt>
      <trkpt lat="45.53967" lon="3.9616">
        <ele>1103.4000244141</ele>
        <time>2016-09-11T09:14:02.000Z</time>
      </trkpt>
      <trkpt lat="45.5397" lon="3.96157">
        <ele>1103.8000488281</ele>
        <time>2016-09-11T09:14:05.000Z</time>
      </trkpt>
      <trkpt lat="45.53973" lon="3.96151">
        <ele>1104.4000244141</ele>
        <time>2016-09-11T09:14:09.000Z</time>
      </trkpt>
      <trkpt lat="45.53986" lon="3.9613">
        <ele>1106.8000488281</ele>
        <time>2016-09-11T09:14:20.000Z</time>
      </trkpt>
      <trkpt lat="45.53997" lon="3.96108">
        <ele>1108.4000244141</ele>
        <time>2016-09-11T09:14:31.000Z</time>
      </trkpt>
      <trkpt lat="45.54002" lon="3.96097">
        <ele>1109.4000244141</ele>
        <time>2016-09-11T09:14:40.000Z</time>
      </trkpt>
      <trkpt lat="45.54005" lon="3.96089">
        <ele>1110.1999511719</ele>
        <time>2016-09-11T09:14:48.000Z</time>
      </trkpt>
      <trkpt lat="45.54009" lon="3.96079">
        <ele>1111</ele>
        <time>2016-09-11T09:14:57.000Z</time>
      </trkpt>
      <trkpt lat="45.54011" lon="3.96067">
        <ele>1112.1999511719</ele>
        <time>2016-09-11T09:15:15.000Z</time>
      </trkpt>
      <trkpt lat="45.54017" lon="3.9605">
        <ele>1114.8000488281</ele>
        <time>2016-09-11T09:15:24.000Z</time>
      </trkpt>
      <trkpt lat="45.54018" lon="3.96048">
        <ele>1115.1999511719</ele>
        <time>2016-09-11T09:15:25.000Z</time>
      </trkpt>
      <trkpt lat="45.54026" lon="3.96024">
        <ele>1119</ele>
        <time>2016-09-11T09:15:38.000Z</time>
      </trkpt>
      <trkpt lat="45.54031" lon="3.96012">
        <ele>1119.5999755859</ele>
        <time>2016-09-11T09:15:44.000Z</time>
      </trkpt>
      <trkpt lat="45.54032" lon="3.9601">
        <ele>1119.8000488281</ele>
        <time>2016-09-11T09:15:45.000Z</time>
      </trkpt>
      <trkpt lat="45.54039" lon="3.95992">
        <ele>1121</ele>
        <time>2016-09-11T09:15:56.000Z</time>
      </trkpt>
      <trkpt lat="45.5404" lon="3.95989">
        <ele>1121.1999511719</ele>
        <time>2016-09-11T09:15:58.000Z</time>
      </trkpt>
      <trkpt lat="45.54043" lon="3.95981">
        <ele>1121.8000488281</ele>
        <time>2016-09-11T09:16:02.000Z</time>
      </trkpt>
      <trkpt lat="45.54043" lon="3.95979">
        <ele>1122</ele>
        <time>2016-09-11T09:16:03.000Z</time>
      </trkpt>
      <trkpt lat="45.54047" lon="3.9595">
        <ele>1124.4000244141</ele>
        <time>2016-09-11T09:16:16.000Z</time>
      </trkpt>
      <trkpt lat="45.54048" lon="3.95942">
        <ele>1125</ele>
        <time>2016-09-11T09:16:19.000Z</time>
      </trkpt>
      <trkpt lat="45.54049" lon="3.95937">
        <ele>1125.1999511719</ele>
        <time>2016-09-11T09:16:21.000Z</time>
      </trkpt>
      <trkpt lat="45.54057" lon="3.95912">
        <ele>1126.4000244141</ele>
        <time>2016-09-11T09:16:35.000Z</time>
      </trkpt>
      <trkpt lat="45.54057" lon="3.9591">
        <ele>1126.5999755859</ele>
        <time>2016-09-11T09:16:36.000Z</time>
      </trkpt>
      <trkpt lat="45.54058" lon="3.95908">
        <ele>1126.5999755859</ele>
        <time>2016-09-11T09:16:37.000Z</time>
      </trkpt>
      <trkpt lat="45.54067" lon="3.95885">
        <ele>1128.1999511719</ele>
        <time>2016-09-11T09:16:46.000Z</time>
      </trkpt>
      <trkpt lat="45.54074" lon="3.95858">
        <ele>1128.5999755859</ele>
        <time>2016-09-11T09:16:54.000Z</time>
      </trkpt>
      <trkpt lat="45.54077" lon="3.95841">
        <ele>1128.4000244141</ele>
        <time>2016-09-11T09:17:02.000Z</time>
      </trkpt>
      <trkpt lat="45.54077" lon="3.9584">
        <ele>1128.4000244141</ele>
        <time>2016-09-11T09:17:03.000Z</time>
      </trkpt>
      <trkpt lat="45.54078" lon="3.95836">
        <ele>1128.4000244141</ele>
        <time>2016-09-11T09:17:05.000Z</time>
      </trkpt>
      <trkpt lat="45.54074" lon="3.95814">
        <ele>1128</ele>
        <time>2016-09-11T09:17:20.000Z</time>
      </trkpt>
      <trkpt lat="45.54075" lon="3.95789">
        <ele>1127.8000488281</ele>
        <time>2016-09-11T09:17:27.000Z</time>
      </trkpt>
      <trkpt lat="45.54075" lon="3.95785">
        <ele>1127.8000488281</ele>
        <time>2016-09-11T09:17:28.000Z</time>
      </trkpt>
      <trkpt lat="45.54075" lon="3.95778">
        <ele>1127.8000488281</ele>
        <time>2016-09-11T09:17:30.000Z</time>
      </trkpt>
      <trkpt lat="45.54075" lon="3.95752">
        <ele>1127.8000488281</ele>
        <time>2016-09-11T09:17:36.000Z</time>
      </trkpt>
      <trkpt lat="45.54075" lon="3.95747">
        <ele>1127.8000488281</ele>
        <time>2016-09-11T09:17:37.000Z</time>
      </trkpt>
      <trkpt lat="45.54074" lon="3.95743">
        <ele>1127.8000488281</ele>
        <time>2016-09-11T09:17:38.000Z</time>
      </trkpt>
      <trkpt lat="45.54075" lon="3.95713">
        <ele>1127.8000488281</ele>
        <time>2016-09-11T09:17:45.000Z</time>
      </trkpt>
      <trkpt lat="45.54075" lon="3.95686">
        <ele>1127.1999511719</ele>
        <time>2016-09-11T09:17:53.000Z</time>
      </trkpt>
      <trkpt lat="45.54073" lon="3.95671">
        <ele>1127</ele>
        <time>2016-09-11T09:17:57.000Z</time>
      </trkpt>
      <trkpt lat="45.54072" lon="3.95667">
        <ele>1127</ele>
        <time>2016-09-11T09:17:58.000Z</time>
      </trkpt>
      <trkpt lat="45.54068" lon="3.95652">
        <ele>1126.8000488281</ele>
        <time>2016-09-11T09:18:02.000Z</time>
      </trkpt>
      <trkpt lat="45.54064" lon="3.95639">
        <ele>1126.5999755859</ele>
        <time>2016-09-11T09:18:05.000Z</time>
      </trkpt>
      <trkpt lat="45.54053" lon="3.95615">
        <ele>1126.1999511719</ele>
        <time>2016-09-11T09:18:11.000Z</time>
      </trkpt>
      <trkpt lat="45.54051" lon="3.95611">
        <ele>1126</ele>
        <time>2016-09-11T09:18:12.000Z</time>
      </trkpt>
      <trkpt lat="45.54047" lon="3.95602">
        <ele>1126</ele>
        <time>2016-09-11T09:18:14.000Z</time>
      </trkpt>
      <trkpt lat="45.54037" lon="3.95575">
        <ele>1126.4000244141</ele>
        <time>2016-09-11T09:18:19.000Z</time>
      </trkpt>
      <trkpt lat="45.54035" lon="3.95569">
        <ele>1126.4000244141</ele>
        <time>2016-09-11T09:18:20.000Z</time>
      </trkpt>
      <trkpt lat="45.54033" lon="3.95562">
        <ele>1126.4000244141</ele>
        <time>2016-09-11T09:18:21.000Z</time>
      </trkpt>
      <trkpt lat="45.54025" lon="3.95536">
        <ele>1126.5999755859</ele>
        <time>2016-09-11T09:18:25.000Z</time>
      </trkpt>
      <trkpt lat="45.54019" lon="3.9551">
        <ele>1125.5999755859</ele>
        <time>2016-09-11T09:18:29.000Z</time>
      </trkpt>
      <trkpt lat="45.5402" lon="3.95482">
        <ele>1124.5999755859</ele>
        <time>2016-09-11T09:18:32.000Z</time>
      </trkpt>
      <trkpt lat="45.54023" lon="3.95457">
        <ele>1124.5999755859</ele>
        <time>2016-09-11T09:18:35.000Z</time>
      </trkpt>
      <trkpt lat="45.54019" lon="3.95428">
        <ele>1124.1999511719</ele>
        <time>2016-09-11T09:18:39.000Z</time>
      </trkpt>
      <trkpt lat="45.53999" lon="3.95412">
        <ele>1122.8000488281</ele>
        <time>2016-09-11T09:18:43.000Z</time>
      </trkpt>
      <trkpt lat="45.53981" lon="3.95407">
        <ele>1121.8000488281</ele>
        <time>2016-09-11T09:18:46.000Z</time>
      </trkpt>
      <trkpt lat="45.53961" lon="3.95397">
        <ele>1121.1999511719</ele>
        <time>2016-09-11T09:18:50.000Z</time>
      </trkpt>
      <trkpt lat="45.53948" lon="3.9538">
        <ele>1121</ele>
        <time>2016-09-11T09:18:54.000Z</time>
      </trkpt>
      <trkpt lat="45.53945" lon="3.95375">
        <ele>1121</ele>
        <time>2016-09-11T09:18:55.000Z</time>
      </trkpt>
      <trkpt lat="45.5394" lon="3.95366">
        <ele>1120.8000488281</ele>
        <time>2016-09-11T09:18:57.000Z</time>
      </trkpt>
      <trkpt lat="45.53935" lon="3.95339">
        <ele>1122.8000488281</ele>
        <time>2016-09-11T09:19:02.000Z</time>
      </trkpt>
      <trkpt lat="45.53935" lon="3.95313">
        <ele>1125</ele>
        <time>2016-09-11T09:19:08.000Z</time>
      </trkpt>
      <trkpt lat="45.53935" lon="3.9531">
        <ele>1125.1999511719</ele>
        <time>2016-09-11T09:19:09.000Z</time>
      </trkpt>
      <trkpt lat="45.53935" lon="3.95299">
        <ele>1125.8000488281</ele>
        <time>2016-09-11T09:19:12.000Z</time>
      </trkpt>
      <trkpt lat="45.53937" lon="3.95284">
        <ele>1126.5999755859</ele>
        <time>2016-09-11T09:19:16.000Z</time>
      </trkpt>
      <trkpt lat="45.53939" lon="3.95256">
        <ele>1128.5999755859</ele>
        <time>2016-09-11T09:19:23.000Z</time>
      </trkpt>
      <trkpt lat="45.5394" lon="3.9523">
        <ele>1131.1999511719</ele>
        <time>2016-09-11T09:19:31.000Z</time>
      </trkpt>
      <trkpt lat="45.53941" lon="3.95215">
        <ele>1132.5999755859</ele>
        <time>2016-09-11T09:19:36.000Z</time>
      </trkpt>
      <trkpt lat="45.53941" lon="3.95213">
        <ele>1132.8000488281</ele>
        <time>2016-09-11T09:19:37.000Z</time>
      </trkpt>
      <trkpt lat="45.5394" lon="3.95187">
        <ele>1135.5999755859</ele>
        <time>2016-09-11T09:19:52.000Z</time>
      </trkpt>
      <trkpt lat="45.5394" lon="3.95184">
        <ele>1136</ele>
        <time>2016-09-11T09:19:54.000Z</time>
      </trkpt>
      <trkpt lat="45.5394" lon="3.95183">
        <ele>1136</ele>
        <time>2016-09-11T09:19:55.000Z</time>
      </trkpt>
      <trkpt lat="45.53939" lon="3.95178">
        <ele>1136.5999755859</ele>
        <time>2016-09-11T09:19:59.000Z</time>
      </trkpt>
      <trkpt lat="45.53939" lon="3.95172">
        <ele>1137.1999511719</ele>
        <time>2016-09-11T09:20:03.000Z</time>
      </trkpt>
      <trkpt lat="45.53936" lon="3.95165">
        <ele>1138</ele>
        <time>2016-09-11T09:20:08.000Z</time>
      </trkpt>
      <trkpt lat="45.53936" lon="3.95164">
        <ele>1138.1999511719</ele>
        <time>2016-09-11T09:20:09.000Z</time>
      </trkpt>
      <trkpt lat="45.53934" lon="3.95156">
        <ele>1139</ele>
        <time>2016-09-11T09:20:14.000Z</time>
      </trkpt>
      <trkpt lat="45.53934" lon="3.95155">
        <ele>1139</ele>
        <time>2016-09-11T09:20:15.000Z</time>
      </trkpt>
      <trkpt lat="45.53933" lon="3.95152">
        <ele>1139.1999511719</ele>
        <time>2016-09-11T09:20:17.000Z</time>
      </trkpt>
      <trkpt lat="45.53932" lon="3.95149">
        <ele>1139.5999755859</ele>
        <time>2016-09-11T09:20:20.000Z</time>
      </trkpt>
      <trkpt lat="45.53929" lon="3.95137">
        <ele>1140.4000244141</ele>
        <time>2016-09-11T09:20:29.000Z</time>
      </trkpt>
      <trkpt lat="45.53929" lon="3.95136">
        <ele>1140.5999755859</ele>
        <time>2016-09-11T09:20:30.000Z</time>
      </trkpt>
      <trkpt lat="45.53928" lon="3.95133">
        <ele>1140.8000488281</ele>
        <time>2016-09-11T09:20:33.000Z</time>
      </trkpt>
      <trkpt lat="45.53915" lon="3.95113">
        <ele>1143</ele>
        <time>2016-09-11T09:20:47.000Z</time>
      </trkpt>
      <trkpt lat="45.53914" lon="3.95112">
        <ele>1143.1999511719</ele>
        <time>2016-09-11T09:20:48.000Z</time>
      </trkpt>
      <trkpt lat="45.53911" lon="3.95107">
        <ele>1143.8000488281</ele>
        <time>2016-09-11T09:20:51.000Z</time>
      </trkpt>
      <trkpt lat="45.53907" lon="3.95102">
        <ele>1144.4000244141</ele>
        <time>2016-09-11T09:20:56.000Z</time>
      </trkpt>
      <trkpt lat="45.53905" lon="3.95101">
        <ele>1144.5999755859</ele>
        <time>2016-09-11T09:20:57.000Z</time>
      </trkpt>
      <trkpt lat="45.53899" lon="3.95096">
        <ele>1145.4000244141</ele>
        <time>2016-09-11T09:21:03.000Z</time>
      </trkpt>
      <trkpt lat="45.53898" lon="3.95096">
        <ele>1145.4000244141</ele>
        <time>2016-09-11T09:21:04.000Z</time>
      </trkpt>
      <trkpt lat="45.53881" lon="3.95084">
        <ele>1147.1999511719</ele>
        <time>2016-09-11T09:21:17.000Z</time>
      </trkpt>
      <trkpt lat="45.5388" lon="3.95084">
        <ele>1147.1999511719</ele>
        <time>2016-09-11T09:21:18.000Z</time>
      </trkpt>
      <trkpt lat="45.53873" lon="3.95079">
        <ele>1147.5999755859</ele>
        <time>2016-09-11T09:21:24.000Z</time>
      </trkpt>
      <trkpt lat="45.53872" lon="3.95078">
        <ele>1147.5999755859</ele>
        <time>2016-09-11T09:21:25.000Z</time>
      </trkpt>
      <trkpt lat="45.53855" lon="3.95068">
        <ele>1148.1999511719</ele>
        <time>2016-09-11T09:21:35.000Z</time>
      </trkpt>
      <trkpt lat="45.53837" lon="3.95058">
        <ele>1149</ele>
        <time>2016-09-11T09:21:45.000Z</time>
      </trkpt>
      <trkpt lat="45.53825" lon="3.95036">
        <ele>1150.1999511719</ele>
        <time>2016-09-11T09:21:57.000Z</time>
      </trkpt>
      <trkpt lat="45.53825" lon="3.95034">
        <ele>1150.1999511719</ele>
        <time>2016-09-11T09:21:58.000Z</time>
      </trkpt>
      <trkpt lat="45.53824" lon="3.95032">
        <ele>1150.4000244141</ele>
        <time>2016-09-11T09:21:59.000Z</time>
      </trkpt>
      <trkpt lat="45.53815" lon="3.95015">
        <ele>1150.5999755859</ele>
        <time>2016-09-11T09:22:09.000Z</time>
      </trkpt>
      <trkpt lat="45.53814" lon="3.95013">
        <ele>1150.5999755859</ele>
        <time>2016-09-11T09:22:10.000Z</time>
      </trkpt>
      <trkpt lat="45.53805" lon="3.9499">
        <ele>1150.1999511719</ele>
        <time>2016-09-11T09:22:21.000Z</time>
      </trkpt>
      <trkpt lat="45.53796" lon="3.94964">
        <ele>1149.5999755859</ele>
        <time>2016-09-11T09:22:30.000Z</time>
      </trkpt>
      <trkpt lat="45.5379" lon="3.9494">
        <ele>1149.1999511719</ele>
        <time>2016-09-11T09:22:38.000Z</time>
      </trkpt>
      <trkpt lat="45.53785" lon="3.94914">
        <ele>1149.5999755859</ele>
        <time>2016-09-11T09:22:47.000Z</time>
      </trkpt>
      <trkpt lat="45.5378" lon="3.94888">
        <ele>1150.1999511719</ele>
        <time>2016-09-11T09:22:55.000Z</time>
      </trkpt>
      <trkpt lat="45.53781" lon="3.94874">
        <ele>1150.1999511719</ele>
        <time>2016-09-11T09:22:59.000Z</time>
      </trkpt>
      <trkpt lat="45.53781" lon="3.94866">
        <ele>1150.4000244141</ele>
        <time>2016-09-11T09:23:01.000Z</time>
      </trkpt>
      <trkpt lat="45.53781" lon="3.94852">
        <ele>1150.4000244141</ele>
        <time>2016-09-11T09:23:05.000Z</time>
      </trkpt>
      <trkpt lat="45.5378" lon="3.94848">
        <ele>1150.4000244141</ele>
        <time>2016-09-11T09:23:06.000Z</time>
      </trkpt>
      <trkpt lat="45.5378" lon="3.9483">
        <ele>1150.8000488281</ele>
        <time>2016-09-11T09:23:11.000Z</time>
      </trkpt>
      <trkpt lat="45.53782" lon="3.94802">
        <ele>1151.8000488281</ele>
        <time>2016-09-11T09:23:20.000Z</time>
      </trkpt>
      <trkpt lat="45.53785" lon="3.94786">
        <ele>1152.4000244141</ele>
        <time>2016-09-11T09:23:25.000Z</time>
      </trkpt>
      <trkpt lat="45.53786" lon="3.94784">
        <ele>1152.4000244141</ele>
        <time>2016-09-11T09:23:26.000Z</time>
      </trkpt>
      <trkpt lat="45.53787" lon="3.94778">
        <ele>1152.5999755859</ele>
        <time>2016-09-11T09:23:28.000Z</time>
      </trkpt>
      <trkpt lat="45.5379" lon="3.94766">
        <ele>1152.8000488281</ele>
        <time>2016-09-11T09:23:32.000Z</time>
      </trkpt>
      <trkpt lat="45.53793" lon="3.94756">
        <ele>1152.5999755859</ele>
        <time>2016-09-11T09:23:35.000Z</time>
      </trkpt>
      <trkpt lat="45.538" lon="3.94744">
        <ele>1152.1999511719</ele>
        <time>2016-09-11T09:23:40.000Z</time>
      </trkpt>
      <trkpt lat="45.53819" lon="3.94744">
        <ele>1152</ele>
        <time>2016-09-11T09:23:48.000Z</time>
      </trkpt>
      <trkpt lat="45.53839" lon="3.9475">
        <ele>1152</ele>
        <time>2016-09-11T09:23:54.000Z</time>
      </trkpt>
      <trkpt lat="45.5386" lon="3.94754">
        <ele>1151.8000488281</ele>
        <time>2016-09-11T09:23:59.000Z</time>
      </trkpt>
      <trkpt lat="45.53864" lon="3.94755">
        <ele>1151.8000488281</ele>
        <time>2016-09-11T09:24:00.000Z</time>
      </trkpt>
      <trkpt lat="45.53881" lon="3.94753">
        <ele>1151.8000488281</ele>
        <time>2016-09-11T09:24:04.000Z</time>
      </trkpt>
      <trkpt lat="45.539" lon="3.94751">
        <ele>1151.5999755859</ele>
        <time>2016-09-11T09:24:08.000Z</time>
      </trkpt>
      <trkpt lat="45.53921" lon="3.94747">
        <ele>1151.1999511719</ele>
        <time>2016-09-11T09:24:12.000Z</time>
      </trkpt>
      <trkpt lat="45.53931" lon="3.94745">
        <ele>1151</ele>
        <time>2016-09-11T09:24:14.000Z</time>
      </trkpt>
      <trkpt lat="45.53951" lon="3.94737">
        <ele>1150.8000488281</ele>
        <time>2016-09-11T09:24:18.000Z</time>
      </trkpt>
      <trkpt lat="45.5397" lon="3.94728">
        <ele>1150.5999755859</ele>
        <time>2016-09-11T09:24:22.000Z</time>
      </trkpt>
      <trkpt lat="45.53985" lon="3.9472">
        <ele>1151.1999511719</ele>
        <time>2016-09-11T09:24:25.000Z</time>
      </trkpt>
      <trkpt lat="45.53995" lon="3.94715">
        <ele>1151.5999755859</ele>
        <time>2016-09-11T09:24:27.000Z</time>
      </trkpt>
      <trkpt lat="45.54016" lon="3.94708">
        <ele>1153.4000244141</ele>
        <time>2016-09-11T09:24:31.000Z</time>
      </trkpt>
      <trkpt lat="45.54039" lon="3.94708">
        <ele>1155</ele>
        <time>2016-09-11T09:24:35.000Z</time>
      </trkpt>
      <trkpt lat="45.54049" lon="3.94712">
        <ele>1155.5999755859</ele>
        <time>2016-09-11T09:24:37.000Z</time>
      </trkpt>
      <trkpt lat="45.54053" lon="3.94714">
        <ele>1155.8000488281</ele>
        <time>2016-09-11T09:24:38.000Z</time>
      </trkpt>
      <trkpt lat="45.54073" lon="3.94724">
        <ele>1155.8000488281</ele>
        <time>2016-09-11T09:24:43.000Z</time>
      </trkpt>
      <trkpt lat="45.54076" lon="3.94725">
        <ele>1155.8000488281</ele>
        <time>2016-09-11T09:24:44.000Z</time>
      </trkpt>
      <trkpt lat="45.54082" lon="3.94729">
        <ele>1156</ele>
        <time>2016-09-11T09:24:46.000Z</time>
      </trkpt>
      <trkpt lat="45.54088" lon="3.94731">
        <ele>1156</ele>
        <time>2016-09-11T09:24:48.000Z</time>
      </trkpt>
      <trkpt lat="45.54099" lon="3.94737">
        <ele>1156</ele>
        <time>2016-09-11T09:24:52.000Z</time>
      </trkpt>
      <trkpt lat="45.54102" lon="3.94737">
        <ele>1155.8000488281</ele>
        <time>2016-09-11T09:24:53.000Z</time>
      </trkpt>
      <trkpt lat="45.54119" lon="3.94746">
        <ele>1155.5999755859</ele>
        <time>2016-09-11T09:24:59.000Z</time>
      </trkpt>
      <trkpt lat="45.54124" lon="3.94748">
        <ele>1155.4000244141</ele>
        <time>2016-09-11T09:25:00.000Z</time>
      </trkpt>
      <trkpt lat="45.54128" lon="3.9475">
        <ele>1155.4000244141</ele>
        <time>2016-09-11T09:25:01.000Z</time>
      </trkpt>
      <trkpt lat="45.54143" lon="3.94755">
        <ele>1155.4000244141</ele>
        <time>2016-09-11T09:25:04.000Z</time>
      </trkpt>
      <trkpt lat="45.54161" lon="3.94756">
        <ele>1155.5999755859</ele>
        <time>2016-09-11T09:25:08.000Z</time>
      </trkpt>
      <trkpt lat="45.54172" lon="3.94753">
        <ele>1155.5999755859</ele>
        <time>2016-09-11T09:25:11.000Z</time>
      </trkpt>
      <trkpt lat="45.54176" lon="3.94752">
        <ele>1155.5999755859</ele>
        <time>2016-09-11T09:25:12.000Z</time>
      </trkpt>
      <trkpt lat="45.54195" lon="3.94743">
        <ele>1155.5999755859</ele>
        <time>2016-09-11T09:25:17.000Z</time>
      </trkpt>
      <trkpt lat="45.54203" lon="3.9474">
        <ele>1155.5999755859</ele>
        <time>2016-09-11T09:25:19.000Z</time>
      </trkpt>
      <trkpt lat="45.54207" lon="3.94738">
        <ele>1155.5999755859</ele>
        <time>2016-09-11T09:25:20.000Z</time>
      </trkpt>
      <trkpt lat="45.54223" lon="3.94731">
        <ele>1155.5999755859</ele>
        <time>2016-09-11T09:25:24.000Z</time>
      </trkpt>
      <trkpt lat="45.54227" lon="3.9473">
        <ele>1155.5999755859</ele>
        <time>2016-09-11T09:25:25.000Z</time>
      </trkpt>
      <trkpt lat="45.54245" lon="3.9472">
        <ele>1155.4000244141</ele>
        <time>2016-09-11T09:25:30.000Z</time>
      </trkpt>
      <trkpt lat="45.54248" lon="3.94718">
        <ele>1155.8000488281</ele>
        <time>2016-09-11T09:25:31.000Z</time>
      </trkpt>
      <trkpt lat="45.54263" lon="3.94711">
        <ele>1159</ele>
        <time>2016-09-11T09:25:35.000Z</time>
      </trkpt>
      <trkpt lat="45.54274" lon="3.94707">
        <ele>1161</ele>
        <time>2016-09-11T09:25:38.000Z</time>
      </trkpt>
      <trkpt lat="45.54292" lon="3.94708">
        <ele>1163.8000488281</ele>
        <time>2016-09-11T09:25:48.000Z</time>
      </trkpt>
      <trkpt lat="45.54303" lon="3.94702">
        <ele>1166</ele>
        <time>2016-09-11T09:25:53.000Z</time>
      </trkpt>
      <trkpt lat="45.54305" lon="3.94701">
        <ele>1166.4000244141</ele>
        <time>2016-09-11T09:25:54.000Z</time>
      </trkpt>
      <trkpt lat="45.54311" lon="3.94697">
        <ele>1167</ele>
        <time>2016-09-11T09:25:57.000Z</time>
      </trkpt>
      <trkpt lat="45.54329" lon="3.9469">
        <ele>1168.4000244141</ele>
        <time>2016-09-11T09:26:05.000Z</time>
      </trkpt>
      <trkpt lat="45.54335" lon="3.94686">
        <ele>1169</ele>
        <time>2016-09-11T09:26:08.000Z</time>
      </trkpt>
      <trkpt lat="45.54338" lon="3.94685">
        <ele>1169.4000244141</ele>
        <time>2016-09-11T09:26:10.000Z</time>
      </trkpt>
      <trkpt lat="45.54349" lon="3.9468">
        <ele>1170.1999511719</ele>
        <time>2016-09-11T09:26:16.000Z</time>
      </trkpt>
      <trkpt lat="45.5435" lon="3.9468">
        <ele>1170.1999511719</ele>
        <time>2016-09-11T09:26:17.000Z</time>
      </trkpt>
      <trkpt lat="45.54357" lon="3.94678">
        <ele>1170.8000488281</ele>
        <time>2016-09-11T09:26:22.000Z</time>
      </trkpt>
      <trkpt lat="45.54359" lon="3.94677">
        <ele>1171</ele>
        <time>2016-09-11T09:26:23.000Z</time>
      </trkpt>
      <trkpt lat="45.54361" lon="3.94676">
        <ele>1171.1999511719</ele>
        <time>2016-09-11T09:26:25.000Z</time>
      </trkpt>
      <trkpt lat="45.5437" lon="3.9467">
        <ele>1172</ele>
        <time>2016-09-11T09:26:31.000Z</time>
      </trkpt>
      <trkpt lat="45.54371" lon="3.94668">
        <ele>1172</ele>
        <time>2016-09-11T09:26:32.000Z</time>
      </trkpt>
      <trkpt lat="45.54377" lon="3.9466">
        <ele>1172.5999755859</ele>
        <time>2016-09-11T09:26:36.000Z</time>
      </trkpt>
      <trkpt lat="45.54394" lon="3.94646">
        <ele>1174.4000244141</ele>
        <time>2016-09-11T09:26:45.000Z</time>
      </trkpt>
      <trkpt lat="45.54409" lon="3.94629">
        <ele>1176.1999511719</ele>
        <time>2016-09-11T09:26:55.000Z</time>
      </trkpt>
      <trkpt lat="45.54424" lon="3.94611">
        <ele>1175.5999755859</ele>
        <time>2016-09-11T09:27:05.000Z</time>
      </trkpt>
      <trkpt lat="45.54435" lon="3.94604">
        <ele>1175.4000244141</ele>
        <time>2016-09-11T09:27:10.000Z</time>
      </trkpt>
      <trkpt lat="45.54438" lon="3.94603">
        <ele>1175.1999511719</ele>
        <time>2016-09-11T09:27:11.000Z</time>
      </trkpt>
      <trkpt lat="45.54458" lon="3.94603">
        <ele>1175</ele>
        <time>2016-09-11T09:27:19.000Z</time>
      </trkpt>
      <trkpt lat="45.54477" lon="3.94602">
        <ele>1175.8000488281</ele>
        <time>2016-09-11T09:27:26.000Z</time>
      </trkpt>
      <trkpt lat="45.54479" lon="3.94602">
        <ele>1176.1999511719</ele>
        <time>2016-09-11T09:27:27.000Z</time>
      </trkpt>
      <trkpt lat="45.54483" lon="3.94603">
        <ele>1176.5999755859</ele>
        <time>2016-09-11T09:27:29.000Z</time>
      </trkpt>
      <trkpt lat="45.54491" lon="3.94602">
        <ele>1177.4000244141</ele>
        <time>2016-09-11T09:27:33.000Z</time>
      </trkpt>
      <trkpt lat="45.54504" lon="3.94602">
        <ele>1179.1999511719</ele>
        <time>2016-09-11T09:27:41.000Z</time>
      </trkpt>
      <trkpt lat="45.54506" lon="3.94602">
        <ele>1179.1999511719</ele>
        <time>2016-09-11T09:27:42.000Z</time>
      </trkpt>
      <trkpt lat="45.54514" lon="3.94601">
        <ele>1180.1999511719</ele>
        <time>2016-09-11T09:27:47.000Z</time>
      </trkpt>
      <trkpt lat="45.54515" lon="3.946">
        <ele>1180.1999511719</ele>
        <time>2016-09-11T09:27:48.000Z</time>
      </trkpt>
      <trkpt lat="45.54532" lon="3.94607">
        <ele>1182.8000488281</ele>
        <time>2016-09-11T09:28:03.000Z</time>
      </trkpt>
      <trkpt lat="45.54533" lon="3.94608">
        <ele>1183</ele>
        <time>2016-09-11T09:28:05.000Z</time>
      </trkpt>
      <trkpt lat="45.54534" lon="3.94608">
        <ele>1183</ele>
        <time>2016-09-11T09:28:06.000Z</time>
      </trkpt>
      <trkpt lat="45.54541" lon="3.94613">
        <ele>1184.1999511719</ele>
        <time>2016-09-11T09:28:12.000Z</time>
      </trkpt>
      <trkpt lat="45.54543" lon="3.94615">
        <ele>1184.5999755859</ele>
        <time>2016-09-11T09:28:14.000Z</time>
      </trkpt>
      <trkpt lat="45.54553" lon="3.94623">
        <ele>1185.8000488281</ele>
        <time>2016-09-11T09:28:23.000Z</time>
      </trkpt>
      <trkpt lat="45.54554" lon="3.94624">
        <ele>1186</ele>
        <time>2016-09-11T09:28:24.000Z</time>
      </trkpt>
      <trkpt lat="45.54563" lon="3.94631">
        <ele>1186.1999511719</ele>
        <time>2016-09-11T09:28:32.000Z</time>
      </trkpt>
      <trkpt lat="45.54563" lon="3.94632">
        <ele>1186.1999511719</ele>
        <time>2016-09-11T09:28:33.000Z</time>
      </trkpt>
      <trkpt lat="45.54573" lon="3.9464">
        <ele>1186.4000244141</ele>
        <time>2016-09-11T09:28:42.000Z</time>
      </trkpt>
      <trkpt lat="45.54574" lon="3.94641">
        <ele>1186.4000244141</ele>
        <time>2016-09-11T09:28:43.000Z</time>
      </trkpt>
      <trkpt lat="45.54583" lon="3.9465">
        <ele>1186.8000488281</ele>
        <time>2016-09-11T09:28:51.000Z</time>
      </trkpt>
      <trkpt lat="45.54584" lon="3.94651">
        <ele>1186.8000488281</ele>
        <time>2016-09-11T09:28:52.000Z</time>
      </trkpt>
      <trkpt lat="45.54588" lon="3.94654">
        <ele>1187</ele>
        <time>2016-09-11T09:28:56.000Z</time>
      </trkpt>
      <trkpt lat="45.54605" lon="3.94668">
        <ele>1187.4000244141</ele>
        <time>2016-09-11T09:29:11.000Z</time>
      </trkpt>
      <trkpt lat="45.54612" lon="3.94676">
        <ele>1187.5999755859</ele>
        <time>2016-09-11T09:29:17.000Z</time>
      </trkpt>
      <trkpt lat="45.54613" lon="3.94677">
        <ele>1187.5999755859</ele>
        <time>2016-09-11T09:29:18.000Z</time>
      </trkpt>
      <trkpt lat="45.54626" lon="3.94695">
        <ele>1188.4000244141</ele>
        <time>2016-09-11T09:29:26.000Z</time>
      </trkpt>
      <trkpt lat="45.54628" lon="3.94697">
        <ele>1188.4000244141</ele>
        <time>2016-09-11T09:29:27.000Z</time>
      </trkpt>
      <trkpt lat="45.54645" lon="3.9471">
        <ele>1188.8000488281</ele>
        <time>2016-09-11T09:29:35.000Z</time>
      </trkpt>
      <trkpt lat="45.5465" lon="3.94712">
        <ele>1189</ele>
        <time>2016-09-11T09:29:37.000Z</time>
      </trkpt>
      <trkpt lat="45.54654" lon="3.94715">
        <ele>1189.1999511719</ele>
        <time>2016-09-11T09:29:39.000Z</time>
      </trkpt>
      <trkpt lat="45.54672" lon="3.94729">
        <ele>1189.8000488281</ele>
        <time>2016-09-11T09:29:46.000Z</time>
      </trkpt>
      <trkpt lat="45.54689" lon="3.94743">
        <ele>1190.4000244141</ele>
        <time>2016-09-11T09:29:54.000Z</time>
      </trkpt>
      <trkpt lat="45.54705" lon="3.94755">
        <ele>1190.8000488281</ele>
        <time>2016-09-11T09:30:02.000Z</time>
      </trkpt>
      <trkpt lat="45.54723" lon="3.94767">
        <ele>1191.1999511719</ele>
        <time>2016-09-11T09:30:10.000Z</time>
      </trkpt>
      <trkpt lat="45.54726" lon="3.94769">
        <ele>1191.4000244141</ele>
        <time>2016-09-11T09:30:11.000Z</time>
      </trkpt>
      <trkpt lat="45.54743" lon="3.94776">
        <ele>1191.4000244141</ele>
        <time>2016-09-11T09:30:17.000Z</time>
      </trkpt>
      <trkpt lat="45.54747" lon="3.94778">
        <ele>1191.4000244141</ele>
        <time>2016-09-11T09:30:18.000Z</time>
      </trkpt>
      <trkpt lat="45.5475" lon="3.94779">
        <ele>1191.4000244141</ele>
        <time>2016-09-11T09:30:19.000Z</time>
      </trkpt>
      <trkpt lat="45.54769" lon="3.94786">
        <ele>1191</ele>
        <time>2016-09-11T09:30:24.000Z</time>
      </trkpt>
      <trkpt lat="45.54789" lon="3.948">
        <ele>1190.8000488281</ele>
        <time>2016-09-11T09:30:30.000Z</time>
      </trkpt>
      <trkpt lat="45.54802" lon="3.9481">
        <ele>1190.8000488281</ele>
        <time>2016-09-11T09:30:33.000Z</time>
      </trkpt>
      <trkpt lat="45.54811" lon="3.94817">
        <ele>1191.1999511719</ele>
        <time>2016-09-11T09:30:35.000Z</time>
      </trkpt>
      <trkpt lat="45.54833" lon="3.94833">
        <ele>1192.1999511719</ele>
        <time>2016-09-11T09:30:39.000Z</time>
      </trkpt>
      <trkpt lat="45.5485" lon="3.94846">
        <ele>1193</ele>
        <time>2016-09-11T09:30:42.000Z</time>
      </trkpt>
      <trkpt lat="45.54866" lon="3.94859">
        <ele>1193.5999755859</ele>
        <time>2016-09-11T09:30:45.000Z</time>
      </trkpt>
      <trkpt lat="45.54871" lon="3.94864">
        <ele>1193.5999755859</ele>
        <time>2016-09-11T09:30:46.000Z</time>
      </trkpt>
      <trkpt lat="45.54875" lon="3.94867">
        <ele>1193.8000488281</ele>
        <time>2016-09-11T09:30:47.000Z</time>
      </trkpt>
      <trkpt lat="45.5489" lon="3.94884">
        <ele>1194.4000244141</ele>
        <time>2016-09-11T09:30:52.000Z</time>
      </trkpt>
      <trkpt lat="45.54896" lon="3.94891">
        <ele>1194.5999755859</ele>
        <time>2016-09-11T09:30:55.000Z</time>
      </trkpt>
      <trkpt lat="45.54898" lon="3.94893">
        <ele>1194.8000488281</ele>
        <time>2016-09-11T09:30:56.000Z</time>
      </trkpt>
      <trkpt lat="45.54914" lon="3.94906">
        <ele>1195.8000488281</ele>
        <time>2016-09-11T09:31:04.000Z</time>
      </trkpt>
      <trkpt lat="45.5493" lon="3.94915">
        <ele>1196.8000488281</ele>
        <time>2016-09-11T09:31:09.000Z</time>
      </trkpt>
      <trkpt lat="45.54937" lon="3.94918">
        <ele>1197.1999511719</ele>
        <time>2016-09-11T09:31:11.000Z</time>
      </trkpt>
      <trkpt lat="45.54955" lon="3.94928">
        <ele>1198.1999511719</ele>
        <time>2016-09-11T09:31:17.000Z</time>
      </trkpt>
      <trkpt lat="45.54971" lon="3.94941">
        <ele>1199.1999511719</ele>
        <time>2016-09-11T09:31:22.000Z</time>
      </trkpt>
      <trkpt lat="45.54988" lon="3.94955">
        <ele>1199.8000488281</ele>
        <time>2016-09-11T09:31:28.000Z</time>
      </trkpt>
      <trkpt lat="45.5499" lon="3.94956">
        <ele>1199.8000488281</ele>
        <time>2016-09-11T09:31:29.000Z</time>
      </trkpt>
      <trkpt lat="45.54995" lon="3.9496">
        <ele>1200</ele>
        <time>2016-09-11T09:31:31.000Z</time>
      </trkpt>
      <trkpt lat="45.55013" lon="3.94977">
        <ele>1200.5999755859</ele>
        <time>2016-09-11T09:31:39.000Z</time>
      </trkpt>
      <trkpt lat="45.55032" lon="3.94989">
        <ele>1201.4000244141</ele>
        <time>2016-09-11T09:31:45.000Z</time>
      </trkpt>
      <trkpt lat="45.55044" lon="3.94997">
        <ele>1201.8000488281</ele>
        <time>2016-09-11T09:31:48.000Z</time>
      </trkpt>
      <trkpt lat="45.55048" lon="3.94999">
        <ele>1202</ele>
        <time>2016-09-11T09:31:49.000Z</time>
      </trkpt>
      <trkpt lat="45.55067" lon="3.95006">
        <ele>1202</ele>
        <time>2016-09-11T09:31:54.000Z</time>
      </trkpt>
      <trkpt lat="45.55079" lon="3.95009">
        <ele>1202</ele>
        <time>2016-09-11T09:31:58.000Z</time>
      </trkpt>
      <trkpt lat="45.55082" lon="3.9501">
        <ele>1202</ele>
        <time>2016-09-11T09:31:59.000Z</time>
      </trkpt>
      <trkpt lat="45.55099" lon="3.95019">
        <ele>1201.8000488281</ele>
        <time>2016-09-11T09:32:05.000Z</time>
      </trkpt>
      <trkpt lat="45.55101" lon="3.95021">
        <ele>1201.8000488281</ele>
        <time>2016-09-11T09:32:06.000Z</time>
      </trkpt>
      <trkpt lat="45.55103" lon="3.95023">
        <ele>1201.5999755859</ele>
        <time>2016-09-11T09:32:07.000Z</time>
      </trkpt>
      <trkpt lat="45.55119" lon="3.95036">
        <ele>1201.5999755859</ele>
        <time>2016-09-11T09:32:13.000Z</time>
      </trkpt>
      <trkpt lat="45.55122" lon="3.95039">
        <ele>1201.5999755859</ele>
        <time>2016-09-11T09:32:14.000Z</time>
      </trkpt>
      <trkpt lat="45.55125" lon="3.95041">
        <ele>1201.5999755859</ele>
        <time>2016-09-11T09:32:15.000Z</time>
      </trkpt>
      <trkpt lat="45.55143" lon="3.95054">
        <ele>1202.4000244141</ele>
        <time>2016-09-11T09:32:20.000Z</time>
      </trkpt>
      <trkpt lat="45.5516" lon="3.9507">
        <ele>1204</ele>
        <time>2016-09-11T09:32:27.000Z</time>
      </trkpt>
      <trkpt lat="45.55171" lon="3.9509">
        <ele>1204.8000488281</ele>
        <time>2016-09-11T09:32:34.000Z</time>
      </trkpt>
      <trkpt lat="45.55173" lon="3.95093">
        <ele>1204.8000488281</ele>
        <time>2016-09-11T09:32:35.000Z</time>
      </trkpt>
      <trkpt lat="45.55176" lon="3.95099">
        <ele>1205</ele>
        <time>2016-09-11T09:32:37.000Z</time>
      </trkpt>
      <trkpt lat="45.55182" lon="3.95111">
        <ele>1205.8000488281</ele>
        <time>2016-09-11T09:32:41.000Z</time>
      </trkpt>
      <trkpt lat="45.55192" lon="3.95135">
        <ele>1207.5999755859</ele>
        <time>2016-09-11T09:32:49.000Z</time>
      </trkpt>
      <trkpt lat="45.55199" lon="3.95159">
        <ele>1209</ele>
        <time>2016-09-11T09:32:57.000Z</time>
      </trkpt>
      <trkpt lat="45.55204" lon="3.95173">
        <ele>1210</ele>
        <time>2016-09-11T09:33:02.000Z</time>
      </trkpt>
      <trkpt lat="45.55205" lon="3.95175">
        <ele>1210.1999511719</ele>
        <time>2016-09-11T09:33:03.000Z</time>
      </trkpt>
      <trkpt lat="45.55217" lon="3.95194">
        <ele>1212</ele>
        <time>2016-09-11T09:33:14.000Z</time>
      </trkpt>
      <trkpt lat="45.5523" lon="3.95213">
        <ele>1214.8000488281</ele>
        <time>2016-09-11T09:33:30.000Z</time>
      </trkpt>
      <trkpt lat="45.55234" lon="3.95226">
        <ele>1215.8000488281</ele>
        <time>2016-09-11T09:33:37.000Z</time>
      </trkpt>
      <trkpt lat="45.55235" lon="3.95228">
        <ele>1216</ele>
        <time>2016-09-11T09:33:38.000Z</time>
      </trkpt>
      <trkpt lat="45.55243" lon="3.95246">
        <ele>1217.8000488281</ele>
        <time>2016-09-11T09:33:48.000Z</time>
      </trkpt>
      <trkpt lat="45.55243" lon="3.95248">
        <ele>1218</ele>
        <time>2016-09-11T09:33:49.000Z</time>
      </trkpt>
      <trkpt lat="45.55253" lon="3.95271">
        <ele>1220.4000244141</ele>
        <time>2016-09-11T09:34:01.000Z</time>
      </trkpt>
      <trkpt lat="45.55263" lon="3.95287">
        <ele>1222.5999755859</ele>
        <time>2016-09-11T09:34:12.000Z</time>
      </trkpt>
      <trkpt lat="45.55264" lon="3.95288">
        <ele>1222.8000488281</ele>
        <time>2016-09-11T09:34:13.000Z</time>
      </trkpt>
      <trkpt lat="45.55267" lon="3.95296">
        <ele>1223.8000488281</ele>
        <time>2016-09-11T09:34:18.000Z</time>
      </trkpt>
      <trkpt lat="45.55268" lon="3.95297">
        <ele>1223.8000488281</ele>
        <time>2016-09-11T09:34:19.000Z</time>
      </trkpt>
      <trkpt lat="45.55273" lon="3.95311">
        <ele>1225.4000244141</ele>
        <time>2016-09-11T09:34:27.000Z</time>
      </trkpt>
      <trkpt lat="45.55273" lon="3.95313">
        <ele>1225.5999755859</ele>
        <time>2016-09-11T09:34:28.000Z</time>
      </trkpt>
      <trkpt lat="45.55276" lon="3.95325">
        <ele>1226.4000244141</ele>
        <time>2016-09-11T09:34:33.000Z</time>
      </trkpt>
      <trkpt lat="45.55276" lon="3.95327">
        <ele>1226.5999755859</ele>
        <time>2016-09-11T09:34:34.000Z</time>
      </trkpt>
      <trkpt lat="45.55283" lon="3.95343">
        <ele>1228.4000244141</ele>
        <time>2016-09-11T09:34:43.000Z</time>
      </trkpt>
      <trkpt lat="45.55284" lon="3.95345">
        <ele>1228.5999755859</ele>
        <time>2016-09-11T09:34:44.000Z</time>
      </trkpt>
      <trkpt lat="45.55294" lon="3.95364">
        <ele>1230.8000488281</ele>
        <time>2016-09-11T09:34:56.000Z</time>
      </trkpt>
      <trkpt lat="45.55295" lon="3.95366">
        <ele>1231</ele>
        <time>2016-09-11T09:34:57.000Z</time>
      </trkpt>
      <trkpt lat="45.55297" lon="3.95372">
        <ele>1231.4000244141</ele>
        <time>2016-09-11T09:35:00.000Z</time>
      </trkpt>
      <trkpt lat="45.5531" lon="3.95393">
        <ele>1233.1999511719</ele>
        <time>2016-09-11T09:35:10.000Z</time>
      </trkpt>
      <trkpt lat="45.55324" lon="3.95411">
        <ele>1235</ele>
        <time>2016-09-11T09:35:20.000Z</time>
      </trkpt>
      <trkpt lat="45.55333" lon="3.95421">
        <ele>1236.1999511719</ele>
        <time>2016-09-11T09:35:26.000Z</time>
      </trkpt>
      <trkpt lat="45.55336" lon="3.95425">
        <ele>1236.5999755859</ele>
        <time>2016-09-11T09:35:28.000Z</time>
      </trkpt>
      <trkpt lat="45.55348" lon="3.95438">
        <ele>1238.1999511719</ele>
        <time>2016-09-11T09:35:36.000Z</time>
      </trkpt>
      <trkpt lat="45.55349" lon="3.9544">
        <ele>1238.4000244141</ele>
        <time>2016-09-11T09:35:37.000Z</time>
      </trkpt>
      <trkpt lat="45.55365" lon="3.95458">
        <ele>1239.8000488281</ele>
        <time>2016-09-11T09:35:47.000Z</time>
      </trkpt>
      <trkpt lat="45.55366" lon="3.95459">
        <ele>1240</ele>
        <time>2016-09-11T09:35:48.000Z</time>
      </trkpt>
      <trkpt lat="45.5537" lon="3.95462">
        <ele>1240.4000244141</ele>
        <time>2016-09-11T09:35:50.000Z</time>
      </trkpt>
      <trkpt lat="45.55387" lon="3.95472">
        <ele>1242</ele>
        <time>2016-09-11T09:36:01.000Z</time>
      </trkpt>
      <trkpt lat="45.55405" lon="3.95478">
        <ele>1242.1999511719</ele>
        <time>2016-09-11T09:36:11.000Z</time>
      </trkpt>
      <trkpt lat="45.55406" lon="3.95479">
        <ele>1242.1999511719</ele>
        <time>2016-09-11T09:36:12.000Z</time>
      </trkpt>
      <trkpt lat="45.55425" lon="3.95482">
        <ele>1242.4000244141</ele>
        <time>2016-09-11T09:36:23.000Z</time>
      </trkpt>
      <trkpt lat="45.55445" lon="3.95481">
        <ele>1244</ele>
        <time>2016-09-11T09:36:31.000Z</time>
      </trkpt>
      <trkpt lat="45.55465" lon="3.95476">
        <ele>1245.8000488281</ele>
        <time>2016-09-11T09:36:37.000Z</time>
      </trkpt>
      <trkpt lat="45.55472" lon="3.95474">
        <ele>1246.1999511719</ele>
        <time>2016-09-11T09:36:40.000Z</time>
      </trkpt>
      <trkpt lat="45.55475" lon="3.95474">
        <ele>1246.1999511719</ele>
        <time>2016-09-11T09:36:41.000Z</time>
      </trkpt>
      <trkpt lat="45.55488" lon="3.95473">
        <ele>1246</ele>
        <time>2016-09-11T09:36:45.000Z</time>
      </trkpt>
      <trkpt lat="45.55507" lon="3.9547">
        <ele>1245.8000488281</ele>
        <time>2016-09-11T09:36:49.000Z</time>
      </trkpt>
      <trkpt lat="45.55511" lon="3.9547">
        <ele>1245.8000488281</ele>
        <time>2016-09-11T09:36:50.000Z</time>
      </trkpt>
      <trkpt lat="45.55515" lon="3.95469">
        <ele>1245.5999755859</ele>
        <time>2016-09-11T09:36:51.000Z</time>
      </trkpt>
      <trkpt lat="45.55524" lon="3.95469">
        <ele>1245.1999511719</ele>
        <time>2016-09-11T09:36:54.000Z</time>
      </trkpt>
      <trkpt lat="45.55544" lon="3.95466">
        <ele>1244.8000488281</ele>
        <time>2016-09-11T09:37:00.000Z</time>
      </trkpt>
      <trkpt lat="45.55566" lon="3.95464">
        <ele>1243.1999511719</ele>
        <time>2016-09-11T09:37:05.000Z</time>
      </trkpt>
      <trkpt lat="45.55585" lon="3.95465">
        <ele>1241.5999755859</ele>
        <time>2016-09-11T09:37:12.000Z</time>
      </trkpt>
      <trkpt lat="45.55592" lon="3.95461">
        <ele>1241.4000244141</ele>
        <time>2016-09-11T09:37:15.000Z</time>
      </trkpt>
      <trkpt lat="45.55595" lon="3.9546">
        <ele>1241.1999511719</ele>
        <time>2016-09-11T09:37:16.000Z</time>
      </trkpt>
      <trkpt lat="45.55613" lon="3.95465">
        <ele>1239.5999755859</ele>
        <time>2016-09-11T09:37:32.000Z</time>
      </trkpt>
      <trkpt lat="45.55616" lon="3.95461">
        <ele>1239.5999755859</ele>
        <time>2016-09-11T09:37:41.000Z</time>
      </trkpt>
      <trkpt lat="45.55617" lon="3.95459">
        <ele>1239.5999755859</ele>
        <time>2016-09-11T09:37:46.000Z</time>
      </trkpt>
      <trkpt lat="45.55623" lon="3.95468">
        <ele>1238.5999755859</ele>
        <time>2016-09-11T09:39:55.000Z</time>
      </trkpt>
      <trkpt lat="45.55631" lon="3.95461">
        <ele>1238.4000244141</ele>
        <time>2016-09-11T09:41:31.000Z</time>
      </trkpt>
      <trkpt lat="45.55629" lon="3.9546">
        <ele>1238.8000488281</ele>
        <time>2016-09-11T09:42:54.000Z</time>
      </trkpt>
      <trkpt lat="45.5563" lon="3.95458">
        <ele>1238.8000488281</ele>
        <time>2016-09-11T09:42:59.000Z</time>
      </trkpt>
      <trkpt lat="45.55626" lon="3.95452">
        <ele>1239.5999755859</ele>
        <time>2016-09-11T09:43:38.000Z</time>
      </trkpt>
      <trkpt lat="45.55625" lon="3.95452">
        <ele>1239.8000488281</ele>
        <time>2016-09-11T09:43:40.000Z</time>
      </trkpt>
      <trkpt lat="45.55619" lon="3.95453">
        <ele>1240</ele>
        <time>2016-09-11T09:43:45.000Z</time>
      </trkpt>
      <trkpt lat="45.55607" lon="3.95463">
        <ele>1240.1999511719</ele>
        <time>2016-09-11T09:43:53.000Z</time>
      </trkpt>
      <trkpt lat="45.55606" lon="3.95464">
        <ele>1240.1999511719</ele>
        <time>2016-09-11T09:43:54.000Z</time>
      </trkpt>
      <trkpt lat="45.55597" lon="3.95468">
        <ele>1240.4000244141</ele>
        <time>2016-09-11T09:44:50.000Z</time>
      </trkpt>
      <trkpt lat="45.55595" lon="3.95469">
        <ele>1240.4000244141</ele>
        <time>2016-09-11T09:44:53.000Z</time>
      </trkpt>
      <trkpt lat="45.55578" lon="3.95483">
        <ele>1240.8000488281</ele>
        <time>2016-09-11T09:45:01.000Z</time>
      </trkpt>
      <trkpt lat="45.55575" lon="3.95485">
        <ele>1241</ele>
        <time>2016-09-11T09:45:02.000Z</time>
      </trkpt>
      <trkpt lat="45.55562" lon="3.95497">
        <ele>1241.5999755859</ele>
        <time>2016-09-11T09:45:06.000Z</time>
      </trkpt>
      <trkpt lat="45.55559" lon="3.95501">
        <ele>1241.5999755859</ele>
        <time>2016-09-11T09:45:07.000Z</time>
      </trkpt>
      <trkpt lat="45.55542" lon="3.95518">
        <ele>1241.5999755859</ele>
        <time>2016-09-11T09:45:11.000Z</time>
      </trkpt>
      <trkpt lat="45.55529" lon="3.95531">
        <ele>1240.5999755859</ele>
        <time>2016-09-11T09:45:14.000Z</time>
      </trkpt>
      <trkpt lat="45.55525" lon="3.95536">
        <ele>1240</ele>
        <time>2016-09-11T09:45:15.000Z</time>
      </trkpt>
      <trkpt lat="45.55515" lon="3.95545">
        <ele>1239.1999511719</ele>
        <time>2016-09-11T09:45:17.000Z</time>
      </trkpt>
      <trkpt lat="45.55502" lon="3.95557">
        <ele>1238</ele>
        <time>2016-09-11T09:45:20.000Z</time>
      </trkpt>
      <trkpt lat="45.55482" lon="3.95579">
        <ele>1236</ele>
        <time>2016-09-11T09:45:24.000Z</time>
      </trkpt>
      <trkpt lat="45.55466" lon="3.95593">
        <ele>1234.5999755859</ele>
        <time>2016-09-11T09:45:27.000Z</time>
      </trkpt>
      <trkpt lat="45.55461" lon="3.95596">
        <ele>1234</ele>
        <time>2016-09-11T09:45:28.000Z</time>
      </trkpt>
      <trkpt lat="45.55454" lon="3.95601">
        <ele>1233.4000244141</ele>
        <time>2016-09-11T09:45:30.000Z</time>
      </trkpt>
      <trkpt lat="45.55451" lon="3.95602">
        <ele>1233.1999511719</ele>
        <time>2016-09-11T09:45:35.000Z</time>
      </trkpt>
      <trkpt lat="45.55432" lon="3.95619">
        <ele>1231.4000244141</ele>
        <time>2016-09-11T09:45:42.000Z</time>
      </trkpt>
      <trkpt lat="45.55411" lon="3.95633">
        <ele>1230</ele>
        <time>2016-09-11T09:45:46.000Z</time>
      </trkpt>
      <trkpt lat="45.55392" lon="3.95648">
        <ele>1229.4000244141</ele>
        <time>2016-09-11T09:45:50.000Z</time>
      </trkpt>
      <trkpt lat="45.55381" lon="3.9566">
        <ele>1228.8000488281</ele>
        <time>2016-09-11T09:45:53.000Z</time>
      </trkpt>
      <trkpt lat="45.55376" lon="3.95664">
        <ele>1228.4000244141</ele>
        <time>2016-09-11T09:45:54.000Z</time>
      </trkpt>
      <trkpt lat="45.5536" lon="3.95676">
        <ele>1227.8000488281</ele>
        <time>2016-09-11T09:45:57.000Z</time>
      </trkpt>
      <trkpt lat="45.55354" lon="3.95681">
        <ele>1227.8000488281</ele>
        <time>2016-09-11T09:45:58.000Z</time>
      </trkpt>
      <trkpt lat="45.55349" lon="3.95685">
        <ele>1228</ele>
        <time>2016-09-11T09:45:59.000Z</time>
      </trkpt>
      <trkpt lat="45.55339" lon="3.95695">
        <ele>1228</ele>
        <time>2016-09-11T09:46:01.000Z</time>
      </trkpt>
      <trkpt lat="45.55324" lon="3.9571">
        <ele>1227.8000488281</ele>
        <time>2016-09-11T09:46:04.000Z</time>
      </trkpt>
      <trkpt lat="45.55319" lon="3.95715">
        <ele>1227.5999755859</ele>
        <time>2016-09-11T09:46:05.000Z</time>
      </trkpt>
      <trkpt lat="45.55303" lon="3.95728">
        <ele>1226.8000488281</ele>
        <time>2016-09-11T09:46:08.000Z</time>
      </trkpt>
      <trkpt lat="45.55297" lon="3.95732">
        <ele>1226</ele>
        <time>2016-09-11T09:46:09.000Z</time>
      </trkpt>
      <trkpt lat="45.55291" lon="3.95737">
        <ele>1225</ele>
        <time>2016-09-11T09:46:10.000Z</time>
      </trkpt>
      <trkpt lat="45.5528" lon="3.95763">
        <ele>1222</ele>
        <time>2016-09-11T09:46:13.000Z</time>
      </trkpt>
      <trkpt lat="45.55277" lon="3.95774">
        <ele>1221.1999511719</ele>
        <time>2016-09-11T09:46:14.000Z</time>
      </trkpt>
      <trkpt lat="45.55273" lon="3.95784">
        <ele>1220.1999511719</ele>
        <time>2016-09-11T09:46:15.000Z</time>
      </trkpt>
      <trkpt lat="45.55256" lon="3.95814">
        <ele>1217.1999511719</ele>
        <time>2016-09-11T09:46:18.000Z</time>
      </trkpt>
      <trkpt lat="45.55238" lon="3.95838">
        <ele>1214.5999755859</ele>
        <time>2016-09-11T09:46:21.000Z</time>
      </trkpt>
      <trkpt lat="45.55231" lon="3.95846">
        <ele>1213.8000488281</ele>
        <time>2016-09-11T09:46:22.000Z</time>
      </trkpt>
      <trkpt lat="45.55216" lon="3.9586">
        <ele>1211.5999755859</ele>
        <time>2016-09-11T09:46:24.000Z</time>
      </trkpt>
      <trkpt lat="45.55198" lon="3.95873">
        <ele>1208.5999755859</ele>
        <time>2016-09-11T09:46:26.000Z</time>
      </trkpt>
      <trkpt lat="45.5518" lon="3.95885">
        <ele>1205.4000244141</ele>
        <time>2016-09-11T09:46:28.000Z</time>
      </trkpt>
      <trkpt lat="45.55171" lon="3.95892">
        <ele>1203.8000488281</ele>
        <time>2016-09-11T09:46:29.000Z</time>
      </trkpt>
      <trkpt lat="45.55153" lon="3.95904">
        <ele>1202.5999755859</ele>
        <time>2016-09-11T09:46:31.000Z</time>
      </trkpt>
      <trkpt lat="45.55135" lon="3.95914">
        <ele>1201.4000244141</ele>
        <time>2016-09-11T09:46:33.000Z</time>
      </trkpt>
      <trkpt lat="45.55126" lon="3.95918">
        <ele>1200.8000488281</ele>
        <time>2016-09-11T09:46:34.000Z</time>
      </trkpt>
      <trkpt lat="45.55116" lon="3.95922">
        <ele>1200.1999511719</ele>
        <time>2016-09-11T09:46:35.000Z</time>
      </trkpt>
      <trkpt lat="45.55097" lon="3.95928">
        <ele>1199</ele>
        <time>2016-09-11T09:46:37.000Z</time>
      </trkpt>
      <trkpt lat="45.55076" lon="3.95931">
        <ele>1197.4000244141</ele>
        <time>2016-09-11T09:46:39.000Z</time>
      </trkpt>
      <trkpt lat="45.55055" lon="3.9593">
        <ele>1195.5999755859</ele>
        <time>2016-09-11T09:46:41.000Z</time>
      </trkpt>
      <trkpt lat="45.55036" lon="3.95926">
        <ele>1194.1999511719</ele>
        <time>2016-09-11T09:46:43.000Z</time>
      </trkpt>
      <trkpt lat="45.55018" lon="3.95922">
        <ele>1193.1999511719</ele>
        <time>2016-09-11T09:46:45.000Z</time>
      </trkpt>
      <trkpt lat="45.55011" lon="3.9592">
        <ele>1192.8000488281</ele>
        <time>2016-09-11T09:46:46.000Z</time>
      </trkpt>
      <trkpt lat="45.54988" lon="3.95905">
        <ele>1190.8000488281</ele>
        <time>2016-09-11T09:46:49.000Z</time>
      </trkpt>
      <trkpt lat="45.54967" lon="3.95893">
        <ele>1189</ele>
        <time>2016-09-11T09:46:52.000Z</time>
      </trkpt>
      <trkpt lat="45.54948" lon="3.95885">
        <ele>1187.5999755859</ele>
        <time>2016-09-11T09:46:56.000Z</time>
      </trkpt>
      <trkpt lat="45.5493" lon="3.95883">
        <ele>1186.8000488281</ele>
        <time>2016-09-11T09:47:01.000Z</time>
      </trkpt>
      <trkpt lat="45.54909" lon="3.95886">
        <ele>1186.1999511719</ele>
        <time>2016-09-11T09:47:06.000Z</time>
      </trkpt>
      <trkpt lat="45.54889" lon="3.95892">
        <ele>1185.8000488281</ele>
        <time>2016-09-11T09:47:09.000Z</time>
      </trkpt>
      <trkpt lat="45.54866" lon="3.95901">
        <ele>1184.4000244141</ele>
        <time>2016-09-11T09:47:12.000Z</time>
      </trkpt>
      <trkpt lat="45.54841" lon="3.95914">
        <ele>1182.5999755859</ele>
        <time>2016-09-11T09:47:15.000Z</time>
      </trkpt>
      <trkpt lat="45.54824" lon="3.95927">
        <ele>1181.1999511719</ele>
        <time>2016-09-11T09:47:17.000Z</time>
      </trkpt>
      <trkpt lat="45.54808" lon="3.95939">
        <ele>1179.8000488281</ele>
        <time>2016-09-11T09:47:19.000Z</time>
      </trkpt>
      <trkpt lat="45.54791" lon="3.95951">
        <ele>1178.5999755859</ele>
        <time>2016-09-11T09:47:21.000Z</time>
      </trkpt>
      <trkpt lat="45.54766" lon="3.95959">
        <ele>1176.1999511719</ele>
        <time>2016-09-11T09:47:24.000Z</time>
      </trkpt>
      <trkpt lat="45.54742" lon="3.95963">
        <ele>1173.4000244141</ele>
        <time>2016-09-11T09:47:27.000Z</time>
      </trkpt>
      <trkpt lat="45.54722" lon="3.95971">
        <ele>1170.8000488281</ele>
        <time>2016-09-11T09:47:30.000Z</time>
      </trkpt>
      <trkpt lat="45.54703" lon="3.95986">
        <ele>1169.4000244141</ele>
        <time>2016-09-11T09:47:33.000Z</time>
      </trkpt>
      <trkpt lat="45.54687" lon="3.96014">
        <ele>1168.1999511719</ele>
        <time>2016-09-11T09:47:36.000Z</time>
      </trkpt>
      <trkpt lat="45.54679" lon="3.96037">
        <ele>1166.8000488281</ele>
        <time>2016-09-11T09:47:38.000Z</time>
      </trkpt>
      <trkpt lat="45.54675" lon="3.96048">
        <ele>1166</ele>
        <time>2016-09-11T09:47:39.000Z</time>
      </trkpt>
      <trkpt lat="45.54668" lon="3.96065">
        <ele>1164.8000488281</ele>
        <time>2016-09-11T09:47:41.000Z</time>
      </trkpt>
      <trkpt lat="45.54657" lon="3.96086">
        <ele>1161.8000488281</ele>
        <time>2016-09-11T09:47:45.000Z</time>
      </trkpt>
      <trkpt lat="45.54659" lon="3.96114">
        <ele>1161</ele>
        <time>2016-09-11T09:47:49.000Z</time>
      </trkpt>
      <trkpt lat="45.54653" lon="3.96129">
        <ele>1159.8000488281</ele>
        <time>2016-09-11T09:48:00.000Z</time>
      </trkpt>
      <trkpt lat="45.5466" lon="3.96134">
        <ele>1160.8000488281</ele>
        <time>2016-09-11T09:48:11.000Z</time>
      </trkpt>
      <trkpt lat="45.54665" lon="3.9616">
        <ele>1161.1999511719</ele>
        <time>2016-09-11T09:48:19.000Z</time>
      </trkpt>
      <trkpt lat="45.5466" lon="3.96185">
        <ele>1160.1999511719</ele>
        <time>2016-09-11T09:48:24.000Z</time>
      </trkpt>
      <trkpt lat="45.54656" lon="3.96199">
        <ele>1159.5999755859</ele>
        <time>2016-09-11T09:48:26.000Z</time>
      </trkpt>
      <trkpt lat="45.54654" lon="3.96206">
        <ele>1159.5999755859</ele>
        <time>2016-09-11T09:48:27.000Z</time>
      </trkpt>
      <trkpt lat="45.54644" lon="3.96238">
        <ele>1159.1999511719</ele>
        <time>2016-09-11T09:48:31.000Z</time>
      </trkpt>
      <trkpt lat="45.54642" lon="3.96246">
        <ele>1159.1999511719</ele>
        <time>2016-09-11T09:48:32.000Z</time>
      </trkpt>
      <trkpt lat="45.54639" lon="3.96256">
        <ele>1159</ele>
        <time>2016-09-11T09:48:33.000Z</time>
      </trkpt>
      <trkpt lat="45.5463" lon="3.96282">
        <ele>1158.1999511719</ele>
        <time>2016-09-11T09:48:36.000Z</time>
      </trkpt>
      <trkpt lat="45.54627" lon="3.96292">
        <ele>1157.8000488281</ele>
        <time>2016-09-11T09:48:37.000Z</time>
      </trkpt>
      <trkpt lat="45.54623" lon="3.96301">
        <ele>1157.1999511719</ele>
        <time>2016-09-11T09:48:38.000Z</time>
      </trkpt>
      <trkpt lat="45.54613" lon="3.96329">
        <ele>1155.5999755859</ele>
        <time>2016-09-11T09:48:41.000Z</time>
      </trkpt>
      <trkpt lat="45.546" lon="3.96353">
        <ele>1154.8000488281</ele>
        <time>2016-09-11T09:48:44.000Z</time>
      </trkpt>
      <trkpt lat="45.5459" lon="3.96365">
        <ele>1153.5999755859</ele>
        <time>2016-09-11T09:48:46.000Z</time>
      </trkpt>
      <trkpt lat="45.54585" lon="3.9637">
        <ele>1152.8000488281</ele>
        <time>2016-09-11T09:48:47.000Z</time>
      </trkpt>
      <trkpt lat="45.54567" lon="3.96386">
        <ele>1151</ele>
        <time>2016-09-11T09:48:50.000Z</time>
      </trkpt>
      <trkpt lat="45.54561" lon="3.9639">
        <ele>1151</ele>
        <time>2016-09-11T09:48:51.000Z</time>
      </trkpt>
      <trkpt lat="45.54555" lon="3.96395">
        <ele>1151</ele>
        <time>2016-09-11T09:48:52.000Z</time>
      </trkpt>
      <trkpt lat="45.54543" lon="3.96403">
        <ele>1149.5999755859</ele>
        <time>2016-09-11T09:48:54.000Z</time>
      </trkpt>
      <trkpt lat="45.54531" lon="3.96412">
        <ele>1147.8000488281</ele>
        <time>2016-09-11T09:48:56.000Z</time>
      </trkpt>
      <trkpt lat="45.54514" lon="3.96429">
        <ele>1146.4000244141</ele>
        <time>2016-09-11T09:48:59.000Z</time>
      </trkpt>
      <trkpt lat="45.545" lon="3.96446">
        <ele>1145.4000244141</ele>
        <time>2016-09-11T09:49:02.000Z</time>
      </trkpt>
      <trkpt lat="45.54484" lon="3.96463">
        <ele>1142.8000488281</ele>
        <time>2016-09-11T09:49:05.000Z</time>
      </trkpt>
      <trkpt lat="45.54473" lon="3.96484">
        <ele>1142.1999511719</ele>
        <time>2016-09-11T09:49:08.000Z</time>
      </trkpt>
      <trkpt lat="45.54466" lon="3.96506">
        <ele>1142.1999511719</ele>
        <time>2016-09-11T09:49:11.000Z</time>
      </trkpt>
      <trkpt lat="45.54464" lon="3.96514">
        <ele>1142</ele>
        <time>2016-09-11T09:49:12.000Z</time>
      </trkpt>
      <trkpt lat="45.54454" lon="3.96544">
        <ele>1141.8000488281</ele>
        <time>2016-09-11T09:49:16.000Z</time>
      </trkpt>
      <trkpt lat="45.54449" lon="3.96559">
        <ele>1141.1999511719</ele>
        <time>2016-09-11T09:49:18.000Z</time>
      </trkpt>
      <trkpt lat="45.54447" lon="3.96567">
        <ele>1141</ele>
        <time>2016-09-11T09:49:19.000Z</time>
      </trkpt>
      <trkpt lat="45.54443" lon="3.96599">
        <ele>1141.4000244141</ele>
        <time>2016-09-11T09:49:23.000Z</time>
      </trkpt>
      <trkpt lat="45.5444" lon="3.96625">
        <ele>1140.8000488281</ele>
        <time>2016-09-11T09:49:26.000Z</time>
      </trkpt>
      <trkpt lat="45.54438" lon="3.96642">
        <ele>1140</ele>
        <time>2016-09-11T09:49:28.000Z</time>
      </trkpt>
      <trkpt lat="45.54437" lon="3.96652">
        <ele>1139.4000244141</ele>
        <time>2016-09-11T09:49:29.000Z</time>
      </trkpt>
      <trkpt lat="45.54442" lon="3.9668">
        <ele>1138.5999755859</ele>
        <time>2016-09-11T09:49:33.000Z</time>
      </trkpt>
      <trkpt lat="45.5445" lon="3.96708">
        <ele>1137.5999755859</ele>
        <time>2016-09-11T09:49:37.000Z</time>
      </trkpt>
      <trkpt lat="45.54457" lon="3.96735">
        <ele>1136.1999511719</ele>
        <time>2016-09-11T09:49:42.000Z</time>
      </trkpt>
      <trkpt lat="45.54451" lon="3.96765">
        <ele>1133.8000488281</ele>
        <time>2016-09-11T09:49:47.000Z</time>
      </trkpt>
      <trkpt lat="45.54449" lon="3.96793">
        <ele>1130.8000488281</ele>
        <time>2016-09-11T09:49:51.000Z</time>
      </trkpt>
      <trkpt lat="45.54445" lon="3.96826">
        <ele>1127.4000244141</ele>
        <time>2016-09-11T09:49:55.000Z</time>
      </trkpt>
      <trkpt lat="45.54444" lon="3.96832">
        <ele>1126.8000488281</ele>
        <time>2016-09-11T09:49:56.000Z</time>
      </trkpt>
      <trkpt lat="45.54444" lon="3.96839">
        <ele>1126.4000244141</ele>
        <time>2016-09-11T09:49:58.000Z</time>
      </trkpt>
      <trkpt lat="45.54463" lon="3.96844">
        <ele>1127</ele>
        <time>2016-09-11T09:50:07.000Z</time>
      </trkpt>
      <trkpt lat="45.54483" lon="3.96851">
        <ele>1126.1999511719</ele>
        <time>2016-09-11T09:50:12.000Z</time>
      </trkpt>
      <trkpt lat="45.54506" lon="3.9686">
        <ele>1124.8000488281</ele>
        <time>2016-09-11T09:50:16.000Z</time>
      </trkpt>
      <trkpt lat="45.54528" lon="3.9687">
        <ele>1123</ele>
        <time>2016-09-11T09:50:20.000Z</time>
      </trkpt>
      <trkpt lat="45.54548" lon="3.96871">
        <ele>1122.4000244141</ele>
        <time>2016-09-11T09:50:24.000Z</time>
      </trkpt>
      <trkpt lat="45.54553" lon="3.96871">
        <ele>1122.4000244141</ele>
        <time>2016-09-11T09:50:25.000Z</time>
      </trkpt>
      <trkpt lat="45.54573" lon="3.96869">
        <ele>1123.1999511719</ele>
        <time>2016-09-11T09:50:29.000Z</time>
      </trkpt>
      <trkpt lat="45.54589" lon="3.96848">
        <ele>1127.4000244141</ele>
        <time>2016-09-11T09:50:35.000Z</time>
      </trkpt>
      <trkpt lat="45.54609" lon="3.96845">
        <ele>1128.8000488281</ele>
        <time>2016-09-11T09:50:41.000Z</time>
      </trkpt>
      <trkpt lat="45.54625" lon="3.96858">
        <ele>1128.4000244141</ele>
        <time>2016-09-11T09:50:47.000Z</time>
      </trkpt>
      <trkpt lat="45.54639" lon="3.96875">
        <ele>1126</ele>
        <time>2016-09-11T09:50:52.000Z</time>
      </trkpt>
      <trkpt lat="45.54651" lon="3.96895">
        <ele>1123</ele>
        <time>2016-09-11T09:50:56.000Z</time>
      </trkpt>
      <trkpt lat="45.54666" lon="3.96916">
        <ele>1120.1999511719</ele>
        <time>2016-09-11T09:51:02.000Z</time>
      </trkpt>
      <trkpt lat="45.54686" lon="3.96934">
        <ele>1118.1999511719</ele>
        <time>2016-09-11T09:51:07.000Z</time>
      </trkpt>
      <trkpt lat="45.54706" lon="3.96944">
        <ele>1117.1999511719</ele>
        <time>2016-09-11T09:51:12.000Z</time>
      </trkpt>
      <trkpt lat="45.54719" lon="3.96951">
        <ele>1116</ele>
        <time>2016-09-11T09:51:15.000Z</time>
      </trkpt>
      <trkpt lat="45.54725" lon="3.96954">
        <ele>1115.5999755859</ele>
        <time>2016-09-11T09:51:16.000Z</time>
      </trkpt>
      <trkpt lat="45.54743" lon="3.96964">
        <ele>1114</ele>
        <time>2016-09-11T09:51:20.000Z</time>
      </trkpt>
      <trkpt lat="45.54762" lon="3.9697">
        <ele>1113.1999511719</ele>
        <time>2016-09-11T09:51:25.000Z</time>
      </trkpt>
      <trkpt lat="45.54765" lon="3.96971">
        <ele>1113</ele>
        <time>2016-09-11T09:51:26.000Z</time>
      </trkpt>
      <trkpt lat="45.54772" lon="3.96972">
        <ele>1113</ele>
        <time>2016-09-11T09:51:28.000Z</time>
      </trkpt>
      <trkpt lat="45.54788" lon="3.96984">
        <ele>1110.4000244141</ele>
        <time>2016-09-11T09:51:32.000Z</time>
      </trkpt>
      <trkpt lat="45.54807" lon="3.96996">
        <ele>1107.8000488281</ele>
        <time>2016-09-11T09:51:36.000Z</time>
      </trkpt>
      <trkpt lat="45.5481" lon="3.96998">
        <ele>1107.5999755859</ele>
        <time>2016-09-11T09:51:37.000Z</time>
      </trkpt>
      <trkpt lat="45.54815" lon="3.97">
        <ele>1107</ele>
        <time>2016-09-11T09:51:38.000Z</time>
      </trkpt>
      <trkpt lat="45.54834" lon="3.97008">
        <ele>1105</ele>
        <time>2016-09-11T09:51:43.000Z</time>
      </trkpt>
      <trkpt lat="45.54855" lon="3.97011">
        <ele>1104.4000244141</ele>
        <time>2016-09-11T09:51:49.000Z</time>
      </trkpt>
      <trkpt lat="45.54867" lon="3.97012">
        <ele>1104.1999511719</ele>
        <time>2016-09-11T09:51:52.000Z</time>
      </trkpt>
      <trkpt lat="45.54871" lon="3.97012">
        <ele>1104.1999511719</ele>
        <time>2016-09-11T09:51:53.000Z</time>
      </trkpt>
      <trkpt lat="45.54893" lon="3.97018">
        <ele>1104.4000244141</ele>
        <time>2016-09-11T09:51:58.000Z</time>
      </trkpt>
      <trkpt lat="45.54911" lon="3.97032">
        <ele>1104.8000488281</ele>
        <time>2016-09-11T09:52:02.000Z</time>
      </trkpt>
      <trkpt lat="45.54916" lon="3.97038">
        <ele>1104.8000488281</ele>
        <time>2016-09-11T09:52:03.000Z</time>
      </trkpt>
      <trkpt lat="45.5493" lon="3.97054">
        <ele>1105</ele>
        <time>2016-09-11T09:52:06.000Z</time>
      </trkpt>
      <trkpt lat="45.54943" lon="3.97074">
        <ele>1104.4000244141</ele>
        <time>2016-09-11T09:52:09.000Z</time>
      </trkpt>
      <trkpt lat="45.54956" lon="3.97101">
        <ele>1102.8000488281</ele>
        <time>2016-09-11T09:52:13.000Z</time>
      </trkpt>
      <trkpt lat="45.54969" lon="3.97122">
        <ele>1101.8000488281</ele>
        <time>2016-09-11T09:52:17.000Z</time>
      </trkpt>
      <trkpt lat="45.54977" lon="3.97131">
        <ele>1101.8000488281</ele>
        <time>2016-09-11T09:52:19.000Z</time>
      </trkpt>
      <trkpt lat="45.54991" lon="3.97147">
        <ele>1101.8000488281</ele>
        <time>2016-09-11T09:52:22.000Z</time>
      </trkpt>
      <trkpt lat="45.55001" lon="3.9716">
        <ele>1101.5999755859</ele>
        <time>2016-09-11T09:52:24.000Z</time>
      </trkpt>
      <trkpt lat="45.55016" lon="3.97183">
        <ele>1100.5999755859</ele>
        <time>2016-09-11T09:52:27.000Z</time>
      </trkpt>
      <trkpt lat="45.5502" lon="3.97191">
        <ele>1100.1999511719</ele>
        <time>2016-09-11T09:52:28.000Z</time>
      </trkpt>
      <trkpt lat="45.5503" lon="3.97218">
        <ele>1100.1999511719</ele>
        <time>2016-09-11T09:52:31.000Z</time>
      </trkpt>
      <trkpt lat="45.55034" lon="3.97247">
        <ele>1098.8000488281</ele>
        <time>2016-09-11T09:52:34.000Z</time>
      </trkpt>
      <trkpt lat="45.55035" lon="3.97256">
        <ele>1098.1999511719</ele>
        <time>2016-09-11T09:52:35.000Z</time>
      </trkpt>
      <trkpt lat="45.55035" lon="3.97263">
        <ele>1097.5999755859</ele>
        <time>2016-09-11T09:52:36.000Z</time>
      </trkpt>
      <trkpt lat="45.55031" lon="3.97291">
        <ele>1092.4000244141</ele>
        <time>2016-09-11T09:52:40.000Z</time>
      </trkpt>
      <trkpt lat="45.55028" lon="3.97311">
        <ele>1088.4000244141</ele>
        <time>2016-09-11T09:52:43.000Z</time>
      </trkpt>
      <trkpt lat="45.55027" lon="3.97318">
        <ele>1087</ele>
        <time>2016-09-11T09:52:44.000Z</time>
      </trkpt>
      <trkpt lat="45.55031" lon="3.97343">
        <ele>1084</ele>
        <time>2016-09-11T09:52:47.000Z</time>
      </trkpt>
      <trkpt lat="45.55036" lon="3.97361">
        <ele>1083.1999511719</ele>
        <time>2016-09-11T09:52:49.000Z</time>
      </trkpt>
      <trkpt lat="45.55039" lon="3.97369">
        <ele>1082.1999511719</ele>
        <time>2016-09-11T09:52:50.000Z</time>
      </trkpt>
      <trkpt lat="45.55046" lon="3.97393">
        <ele>1079.8000488281</ele>
        <time>2016-09-11T09:52:53.000Z</time>
      </trkpt>
      <trkpt lat="45.55062" lon="3.97409">
        <ele>1079</ele>
        <time>2016-09-11T09:52:56.000Z</time>
      </trkpt>
      <trkpt lat="45.55081" lon="3.97428">
        <ele>1078</ele>
        <time>2016-09-11T09:52:59.000Z</time>
      </trkpt>
      <trkpt lat="45.55099" lon="3.97451">
        <ele>1075.5999755859</ele>
        <time>2016-09-11T09:53:02.000Z</time>
      </trkpt>
      <trkpt lat="45.55108" lon="3.97466">
        <ele>1073.4000244141</ele>
        <time>2016-09-11T09:53:04.000Z</time>
      </trkpt>
      <trkpt lat="45.55114" lon="3.97473">
        <ele>1072.5999755859</ele>
        <time>2016-09-11T09:53:05.000Z</time>
      </trkpt>
      <trkpt lat="45.55129" lon="3.97497">
        <ele>1069</ele>
        <time>2016-09-11T09:53:08.000Z</time>
      </trkpt>
      <trkpt lat="45.55134" lon="3.97507">
        <ele>1067.5999755859</ele>
        <time>2016-09-11T09:53:09.000Z</time>
      </trkpt>
      <trkpt lat="45.5514" lon="3.97515">
        <ele>1066.1999511719</ele>
        <time>2016-09-11T09:53:10.000Z</time>
      </trkpt>
      <trkpt lat="45.55156" lon="3.9754">
        <ele>1062.4000244141</ele>
        <time>2016-09-11T09:53:13.000Z</time>
      </trkpt>
      <trkpt lat="45.55173" lon="3.97563">
        <ele>1059.4000244141</ele>
        <time>2016-09-11T09:53:16.000Z</time>
      </trkpt>
      <trkpt lat="45.5519" lon="3.97585">
        <ele>1056.8000488281</ele>
        <time>2016-09-11T09:53:19.000Z</time>
      </trkpt>
      <trkpt lat="45.55208" lon="3.97603">
        <ele>1054.8000488281</ele>
        <time>2016-09-11T09:53:24.000Z</time>
      </trkpt>
      <trkpt lat="45.55225" lon="3.97612">
        <ele>1053</ele>
        <time>2016-09-11T09:53:27.000Z</time>
      </trkpt>
      <trkpt lat="45.55232" lon="3.97616">
        <ele>1052</ele>
        <time>2016-09-11T09:53:28.000Z</time>
      </trkpt>
      <trkpt lat="45.55253" lon="3.97617">
        <ele>1051.1999511719</ele>
        <time>2016-09-11T09:53:31.000Z</time>
      </trkpt>
      <trkpt lat="45.55263" lon="3.97615">
        <ele>1051</ele>
        <time>2016-09-11T09:53:33.000Z</time>
      </trkpt>
      <trkpt lat="45.55267" lon="3.97615">
        <ele>1051</ele>
        <time>2016-09-11T09:53:34.000Z</time>
      </trkpt>
      <trkpt lat="45.55273" lon="3.97637">
        <ele>1046.8000488281</ele>
        <time>2016-09-11T09:53:39.000Z</time>
      </trkpt>
      <trkpt lat="45.55272" lon="3.97667">
        <ele>1041.5999755859</ele>
        <time>2016-09-11T09:53:42.000Z</time>
      </trkpt>
      <trkpt lat="45.55274" lon="3.97674">
        <ele>1040.5999755859</ele>
        <time>2016-09-11T09:53:43.000Z</time>
      </trkpt>
      <trkpt lat="45.55274" lon="3.97681">
        <ele>1039.5999755859</ele>
        <time>2016-09-11T09:53:44.000Z</time>
      </trkpt>
      <trkpt lat="45.55262" lon="3.97702">
        <ele>1037.5999755859</ele>
        <time>2016-09-11T09:53:47.000Z</time>
      </trkpt>
      <trkpt lat="45.55244" lon="3.97719">
        <ele>1036.1999511719</ele>
        <time>2016-09-11T09:53:50.000Z</time>
      </trkpt>
      <trkpt lat="45.55238" lon="3.97726">
        <ele>1035.8000488281</ele>
        <time>2016-09-11T09:53:51.000Z</time>
      </trkpt>
      <trkpt lat="45.55228" lon="3.97747">
        <ele>1033.8000488281</ele>
        <time>2016-09-11T09:53:55.000Z</time>
      </trkpt>
      <trkpt lat="45.55228" lon="3.9775">
        <ele>1033.4000244141</ele>
        <time>2016-09-11T09:53:56.000Z</time>
      </trkpt>
      <trkpt lat="45.55228" lon="3.97752">
        <ele>1033.1999511719</ele>
        <time>2016-09-11T09:53:57.000Z</time>
      </trkpt>
      <trkpt lat="45.55222" lon="3.97777">
        <ele>1030.1999511719</ele>
        <time>2016-09-11T09:54:03.000Z</time>
      </trkpt>
      <trkpt lat="45.55221" lon="3.97805">
        <ele>1026</ele>
        <time>2016-09-11T09:54:06.000Z</time>
      </trkpt>
      <trkpt lat="45.5522" lon="3.97834">
        <ele>1022</ele>
        <time>2016-09-11T09:54:09.000Z</time>
      </trkpt>
      <trkpt lat="45.55234" lon="3.97841">
        <ele>1018.5999755859</ele>
        <time>2016-09-11T09:54:16.000Z</time>
      </trkpt>
      <trkpt lat="45.55248" lon="3.97823">
        <ele>1018.5999755859</ele>
        <time>2016-09-11T09:54:20.000Z</time>
      </trkpt>
      <trkpt lat="45.55252" lon="3.97818">
        <ele>1018.5999755859</ele>
        <time>2016-09-11T09:54:21.000Z</time>
      </trkpt>
      <trkpt lat="45.55272" lon="3.97802">
        <ele>1019.200012207</ele>
        <time>2016-09-11T09:54:25.000Z</time>
      </trkpt>
      <trkpt lat="45.55277" lon="3.97799">
        <ele>1019.4000244141</ele>
        <time>2016-09-11T09:54:26.000Z</time>
      </trkpt>
      <trkpt lat="45.55295" lon="3.97787">
        <ele>1019.799987793</ele>
        <time>2016-09-11T09:54:31.000Z</time>
      </trkpt>
      <trkpt lat="45.55315" lon="3.97781">
        <ele>1018.4000244141</ele>
        <time>2016-09-11T09:54:35.000Z</time>
      </trkpt>
      <trkpt lat="45.55318" lon="3.9778">
        <ele>1017.799987793</ele>
        <time>2016-09-11T09:54:36.000Z</time>
      </trkpt>
      <trkpt lat="45.55342" lon="3.97776">
        <ele>1014</ele>
        <time>2016-09-11T09:54:41.000Z</time>
      </trkpt>
      <trkpt lat="45.55363" lon="3.97775">
        <ele>1010.200012207</ele>
        <time>2016-09-11T09:54:44.000Z</time>
      </trkpt>
      <trkpt lat="45.55382" lon="3.97769">
        <ele>1007.5999755859</ele>
        <time>2016-09-11T09:54:47.000Z</time>
      </trkpt>
      <trkpt lat="45.55401" lon="3.97756">
        <ele>1008</ele>
        <time>2016-09-11T09:54:50.000Z</time>
      </trkpt>
      <trkpt lat="45.55418" lon="3.97745">
        <ele>1008.200012207</ele>
        <time>2016-09-11T09:54:53.000Z</time>
      </trkpt>
      <trkpt lat="45.55427" lon="3.97733">
        <ele>1009.799987793</ele>
        <time>2016-09-11T09:54:55.000Z</time>
      </trkpt>
      <trkpt lat="45.55432" lon="3.97728">
        <ele>1010.4000244141</ele>
        <time>2016-09-11T09:54:56.000Z</time>
      </trkpt>
      <trkpt lat="45.5545" lon="3.97719">
        <ele>1010</ele>
        <time>2016-09-11T09:54:59.000Z</time>
      </trkpt>
      <trkpt lat="45.55464" lon="3.97713">
        <ele>1009.5999755859</ele>
        <time>2016-09-11T09:55:01.000Z</time>
      </trkpt>
      <trkpt lat="45.55485" lon="3.97714">
        <ele>1008</ele>
        <time>2016-09-11T09:55:04.000Z</time>
      </trkpt>
      <trkpt lat="45.55493" lon="3.97715">
        <ele>1007.200012207</ele>
        <time>2016-09-11T09:55:05.000Z</time>
      </trkpt>
      <trkpt lat="45.55499" lon="3.97716">
        <ele>1006</ele>
        <time>2016-09-11T09:55:06.000Z</time>
      </trkpt>
      <trkpt lat="45.55519" lon="3.97721">
        <ele>1001.5999755859</ele>
        <time>2016-09-11T09:55:10.000Z</time>
      </trkpt>
      <trkpt lat="45.55539" lon="3.97724">
        <ele>997.79998779297</ele>
        <time>2016-09-11T09:55:14.000Z</time>
      </trkpt>
      <trkpt lat="45.55556" lon="3.97719">
        <ele>996.59997558594</ele>
        <time>2016-09-11T09:55:18.000Z</time>
      </trkpt>
      <trkpt lat="45.55574" lon="3.97708">
        <ele>998.79998779297</ele>
        <time>2016-09-11T09:55:22.000Z</time>
      </trkpt>
      <trkpt lat="45.55589" lon="3.97694">
        <ele>1003.799987793</ele>
        <time>2016-09-11T09:55:26.000Z</time>
      </trkpt>
      <trkpt lat="45.55605" lon="3.97677">
        <ele>1009.200012207</ele>
        <time>2016-09-11T09:55:31.000Z</time>
      </trkpt>
      <trkpt lat="45.5562" lon="3.97688">
        <ele>1007.799987793</ele>
        <time>2016-09-11T09:55:35.000Z</time>
      </trkpt>
      <trkpt lat="45.55624" lon="3.97691">
        <ele>1007.4000244141</ele>
        <time>2016-09-11T09:55:36.000Z</time>
      </trkpt>
      <trkpt lat="45.55641" lon="3.97704">
        <ele>1004.799987793</ele>
        <time>2016-09-11T09:55:40.000Z</time>
      </trkpt>
      <trkpt lat="45.55654" lon="3.97721">
        <ele>1000.4000244141</ele>
        <time>2016-09-11T09:55:44.000Z</time>
      </trkpt>
      <trkpt lat="45.55665" lon="3.97734">
        <ele>997.20001220703</ele>
        <time>2016-09-11T09:55:47.000Z</time>
      </trkpt>
      <trkpt lat="45.55668" lon="3.97737">
        <ele>996.40002441406</ele>
        <time>2016-09-11T09:55:48.000Z</time>
      </trkpt>
      <trkpt lat="45.55689" lon="3.97742">
        <ele>996</ele>
        <time>2016-09-11T09:55:53.000Z</time>
      </trkpt>
      <trkpt lat="45.55708" lon="3.97732">
        <ele>999.79998779297</ele>
        <time>2016-09-11T09:55:56.000Z</time>
      </trkpt>
      <trkpt lat="45.55728" lon="3.97726">
        <ele>1001.4000244141</ele>
        <time>2016-09-11T09:55:59.000Z</time>
      </trkpt>
      <trkpt lat="45.55747" lon="3.97726">
        <ele>1000</ele>
        <time>2016-09-11T09:56:02.000Z</time>
      </trkpt>
      <trkpt lat="45.55767" lon="3.97728">
        <ele>996.20001220703</ele>
        <time>2016-09-11T09:56:06.000Z</time>
      </trkpt>
      <trkpt lat="45.55772" lon="3.97728">
        <ele>995.20001220703</ele>
        <time>2016-09-11T09:56:07.000Z</time>
      </trkpt>
      <trkpt lat="45.55777" lon="3.97728">
        <ele>994.20001220703</ele>
        <time>2016-09-11T09:56:08.000Z</time>
      </trkpt>
      <trkpt lat="45.55799" lon="3.97724">
        <ele>990.20001220703</ele>
        <time>2016-09-11T09:56:12.000Z</time>
      </trkpt>
      <trkpt lat="45.55818" lon="3.97721">
        <ele>988.20001220703</ele>
        <time>2016-09-11T09:56:15.000Z</time>
      </trkpt>
      <trkpt lat="45.55837" lon="3.97716">
        <ele>986</ele>
        <time>2016-09-11T09:56:18.000Z</time>
      </trkpt>
      <trkpt lat="45.55849" lon="3.97712">
        <ele>984</ele>
        <time>2016-09-11T09:56:20.000Z</time>
      </trkpt>
      <trkpt lat="45.55856" lon="3.97711">
        <ele>982.79998779297</ele>
        <time>2016-09-11T09:56:21.000Z</time>
      </trkpt>
      <trkpt lat="45.55869" lon="3.97707">
        <ele>980.59997558594</ele>
        <time>2016-09-11T09:56:23.000Z</time>
      </trkpt>
      <trkpt lat="45.55884" lon="3.97696">
        <ele>978.79998779297</ele>
        <time>2016-09-11T09:56:26.000Z</time>
      </trkpt>
      <trkpt lat="45.55899" lon="3.97679">
        <ele>981.20001220703</ele>
        <time>2016-09-11T09:56:29.000Z</time>
      </trkpt>
      <trkpt lat="45.55915" lon="3.97666">
        <ele>983.40002441406</ele>
        <time>2016-09-11T09:56:32.000Z</time>
      </trkpt>
      <trkpt lat="45.55935" lon="3.97655">
        <ele>985.40002441406</ele>
        <time>2016-09-11T09:56:35.000Z</time>
      </trkpt>
      <trkpt lat="45.5595" lon="3.97651">
        <ele>986.79998779297</ele>
        <time>2016-09-11T09:56:37.000Z</time>
      </trkpt>
      <trkpt lat="45.55958" lon="3.97649">
        <ele>987.40002441406</ele>
        <time>2016-09-11T09:56:38.000Z</time>
      </trkpt>
      <trkpt lat="45.55971" lon="3.97647">
        <ele>987.79998779297</ele>
        <time>2016-09-11T09:56:40.000Z</time>
      </trkpt>
      <trkpt lat="45.55989" lon="3.97647">
        <ele>986</ele>
        <time>2016-09-11T09:56:43.000Z</time>
      </trkpt>
      <trkpt lat="45.55995" lon="3.97646">
        <ele>985.40002441406</ele>
        <time>2016-09-11T09:56:44.000Z</time>
      </trkpt>
      <trkpt lat="45.56002" lon="3.97645">
        <ele>985</ele>
        <time>2016-09-11T09:56:45.000Z</time>
      </trkpt>
      <trkpt lat="45.56023" lon="3.97642">
        <ele>984</ele>
        <time>2016-09-11T09:56:48.000Z</time>
      </trkpt>
      <trkpt lat="45.5603" lon="3.97642">
        <ele>983.59997558594</ele>
        <time>2016-09-11T09:56:49.000Z</time>
      </trkpt>
      <trkpt lat="45.56051" lon="3.97645">
        <ele>980.59997558594</ele>
        <time>2016-09-11T09:56:52.000Z</time>
      </trkpt>
      <trkpt lat="45.56072" lon="3.97655">
        <ele>976.40002441406</ele>
        <time>2016-09-11T09:56:55.000Z</time>
      </trkpt>
      <trkpt lat="45.5608" lon="3.97658">
        <ele>974.79998779297</ele>
        <time>2016-09-11T09:56:56.000Z</time>
      </trkpt>
      <trkpt lat="45.56088" lon="3.97662">
        <ele>973</ele>
        <time>2016-09-11T09:56:57.000Z</time>
      </trkpt>
      <trkpt lat="45.56108" lon="3.97675">
        <ele>967.59997558594</ele>
        <time>2016-09-11T09:57:00.000Z</time>
      </trkpt>
      <trkpt lat="45.56116" lon="3.9768">
        <ele>965.59997558594</ele>
        <time>2016-09-11T09:57:01.000Z</time>
      </trkpt>
      <trkpt lat="45.56125" lon="3.97686">
        <ele>963.40002441406</ele>
        <time>2016-09-11T09:57:02.000Z</time>
      </trkpt>
      <trkpt lat="45.56148" lon="3.97697">
        <ele>959.20001220703</ele>
        <time>2016-09-11T09:57:05.000Z</time>
      </trkpt>
      <trkpt lat="45.56164" lon="3.97715">
        <ele>956.79998779297</ele>
        <time>2016-09-11T09:57:10.000Z</time>
      </trkpt>
      <trkpt lat="45.56162" lon="3.97744">
        <ele>953.40002441406</ele>
        <time>2016-09-11T09:57:15.000Z</time>
      </trkpt>
      <trkpt lat="45.56162" lon="3.97752">
        <ele>952.40002441406</ele>
        <time>2016-09-11T09:57:16.000Z</time>
      </trkpt>
      <trkpt lat="45.56162" lon="3.9776">
        <ele>951.20001220703</ele>
        <time>2016-09-11T09:57:17.000Z</time>
      </trkpt>
      <trkpt lat="45.56162" lon="3.97789">
        <ele>948.59997558594</ele>
        <time>2016-09-11T09:57:20.000Z</time>
      </trkpt>
      <trkpt lat="45.56162" lon="3.9781">
        <ele>947.40002441406</ele>
        <time>2016-09-11T09:57:22.000Z</time>
      </trkpt>
      <trkpt lat="45.56161" lon="3.9782">
        <ele>946.79998779297</ele>
        <time>2016-09-11T09:57:23.000Z</time>
      </trkpt>
      <trkpt lat="45.56159" lon="3.97849">
        <ele>944.59997558594</ele>
        <time>2016-09-11T09:57:26.000Z</time>
      </trkpt>
      <trkpt lat="45.56157" lon="3.97869">
        <ele>944.20001220703</ele>
        <time>2016-09-11T09:57:28.000Z</time>
      </trkpt>
      <trkpt lat="45.56154" lon="3.9789">
        <ele>944.59997558594</ele>
        <time>2016-09-11T09:57:30.000Z</time>
      </trkpt>
      <trkpt lat="45.56151" lon="3.97921">
        <ele>945</ele>
        <time>2016-09-11T09:57:33.000Z</time>
      </trkpt>
      <trkpt lat="45.56149" lon="3.97953">
        <ele>946.40002441406</ele>
        <time>2016-09-11T09:57:36.000Z</time>
      </trkpt>
      <trkpt lat="45.56149" lon="3.97964">
        <ele>947</ele>
        <time>2016-09-11T09:57:37.000Z</time>
      </trkpt>
      <trkpt lat="45.56148" lon="3.97974">
        <ele>947.59997558594</ele>
        <time>2016-09-11T09:57:38.000Z</time>
      </trkpt>
      <trkpt lat="45.56146" lon="3.98004">
        <ele>949.20001220703</ele>
        <time>2016-09-11T09:57:41.000Z</time>
      </trkpt>
      <trkpt lat="45.56142" lon="3.98034">
        <ele>950.40002441406</ele>
        <time>2016-09-11T09:57:44.000Z</time>
      </trkpt>
      <trkpt lat="45.5614" lon="3.98064">
        <ele>950.59997558594</ele>
        <time>2016-09-11T09:57:47.000Z</time>
      </trkpt>
      <trkpt lat="45.56139" lon="3.98083">
        <ele>950.79998779297</ele>
        <time>2016-09-11T09:57:49.000Z</time>
      </trkpt>
      <trkpt lat="45.56138" lon="3.98093">
        <ele>951</ele>
        <time>2016-09-11T09:57:50.000Z</time>
      </trkpt>
      <trkpt lat="45.56137" lon="3.98125">
        <ele>949.59997558594</ele>
        <time>2016-09-11T09:57:53.000Z</time>
      </trkpt>
      <trkpt lat="45.56137" lon="3.98135">
        <ele>949</ele>
        <time>2016-09-11T09:57:54.000Z</time>
      </trkpt>
      <trkpt lat="45.56136" lon="3.98156">
        <ele>947.40002441406</ele>
        <time>2016-09-11T09:57:56.000Z</time>
      </trkpt>
      <trkpt lat="45.56134" lon="3.98188">
        <ele>945.20001220703</ele>
        <time>2016-09-11T09:57:59.000Z</time>
      </trkpt>
      <trkpt lat="45.56134" lon="3.982">
        <ele>944</ele>
        <time>2016-09-11T09:58:00.000Z</time>
      </trkpt>
      <trkpt lat="45.56131" lon="3.98233">
        <ele>939.79998779297</ele>
        <time>2016-09-11T09:58:03.000Z</time>
      </trkpt>
      <trkpt lat="45.56125" lon="3.98258">
        <ele>936</ele>
        <time>2016-09-11T09:58:06.000Z</time>
      </trkpt>
      <trkpt lat="45.56123" lon="3.98265">
        <ele>934.79998779297</ele>
        <time>2016-09-11T09:58:07.000Z</time>
      </trkpt>
      <trkpt lat="45.5612" lon="3.98271">
        <ele>934.20001220703</ele>
        <time>2016-09-11T09:58:08.000Z</time>
      </trkpt>
      <trkpt lat="45.5611" lon="3.98297">
        <ele>932</ele>
        <time>2016-09-11T09:58:12.000Z</time>
      </trkpt>
      <trkpt lat="45.56107" lon="3.98305">
        <ele>931.40002441406</ele>
        <time>2016-09-11T09:58:13.000Z</time>
      </trkpt>
      <trkpt lat="45.56105" lon="3.98313">
        <ele>930.59997558594</ele>
        <time>2016-09-11T09:58:14.000Z</time>
      </trkpt>
      <trkpt lat="45.56101" lon="3.98339">
        <ele>930</ele>
        <time>2016-09-11T09:58:17.000Z</time>
      </trkpt>
      <trkpt lat="45.56099" lon="3.98357">
        <ele>930</ele>
        <time>2016-09-11T09:58:19.000Z</time>
      </trkpt>
      <trkpt lat="45.56098" lon="3.98367">
        <ele>929.40002441406</ele>
        <time>2016-09-11T09:58:20.000Z</time>
      </trkpt>
      <trkpt lat="45.56095" lon="3.98395">
        <ele>927.40002441406</ele>
        <time>2016-09-11T09:58:23.000Z</time>
      </trkpt>
      <trkpt lat="45.56092" lon="3.98421">
        <ele>926.79998779297</ele>
        <time>2016-09-11T09:58:26.000Z</time>
      </trkpt>
      <trkpt lat="45.56091" lon="3.98447">
        <ele>926.20001220703</ele>
        <time>2016-09-11T09:58:29.000Z</time>
      </trkpt>
      <trkpt lat="45.56092" lon="3.98481">
        <ele>925.59997558594</ele>
        <time>2016-09-11T09:58:33.000Z</time>
      </trkpt>
      <trkpt lat="45.56092" lon="3.9849">
        <ele>925.40002441406</ele>
        <time>2016-09-11T09:58:34.000Z</time>
      </trkpt>
      <trkpt lat="45.56094" lon="3.98517">
        <ele>924.79998779297</ele>
        <time>2016-09-11T09:58:37.000Z</time>
      </trkpt>
      <trkpt lat="45.56096" lon="3.98544">
        <ele>924.40002441406</ele>
        <time>2016-09-11T09:58:40.000Z</time>
      </trkpt>
      <trkpt lat="45.56098" lon="3.9857">
        <ele>924.20001220703</ele>
        <time>2016-09-11T09:58:43.000Z</time>
      </trkpt>
      <trkpt lat="45.56099" lon="3.98587">
        <ele>924</ele>
        <time>2016-09-11T09:58:45.000Z</time>
      </trkpt>
      <trkpt lat="45.56103" lon="3.98617">
        <ele>924</ele>
        <time>2016-09-11T09:58:49.000Z</time>
      </trkpt>
      <trkpt lat="45.56109" lon="3.98629">
        <ele>924.40002441406</ele>
        <time>2016-09-11T09:58:51.000Z</time>
      </trkpt>
      <trkpt lat="45.56112" lon="3.98634">
        <ele>924.40002441406</ele>
        <time>2016-09-11T09:58:52.000Z</time>
      </trkpt>
      <trkpt lat="45.56125" lon="3.98655">
        <ele>925.20001220703</ele>
        <time>2016-09-11T09:58:56.000Z</time>
      </trkpt>
      <trkpt lat="45.56143" lon="3.98673">
        <ele>925.79998779297</ele>
        <time>2016-09-11T09:59:00.000Z</time>
      </trkpt>
      <trkpt lat="45.56147" lon="3.98677">
        <ele>926</ele>
        <time>2016-09-11T09:59:01.000Z</time>
      </trkpt>
      <trkpt lat="45.56164" lon="3.98694">
        <ele>926.40002441406</ele>
        <time>2016-09-11T09:59:05.000Z</time>
      </trkpt>
      <trkpt lat="45.56168" lon="3.98698">
        <ele>926.40002441406</ele>
        <time>2016-09-11T09:59:06.000Z</time>
      </trkpt>
      <trkpt lat="45.56172" lon="3.98702">
        <ele>926.40002441406</ele>
        <time>2016-09-11T09:59:07.000Z</time>
      </trkpt>
      <trkpt lat="45.56191" lon="3.98716">
        <ele>926.59997558594</ele>
        <time>2016-09-11T09:59:12.000Z</time>
      </trkpt>
      <trkpt lat="45.56211" lon="3.98721">
        <ele>927</ele>
        <time>2016-09-11T09:59:17.000Z</time>
      </trkpt>
      <trkpt lat="45.56219" lon="3.9872">
        <ele>927</ele>
        <time>2016-09-11T09:59:19.000Z</time>
      </trkpt>
      <trkpt lat="45.56223" lon="3.98719">
        <ele>927.20001220703</ele>
        <time>2016-09-11T09:59:20.000Z</time>
      </trkpt>
      <trkpt lat="45.56238" lon="3.98716">
        <ele>928</ele>
        <time>2016-09-11T09:59:24.000Z</time>
      </trkpt>
      <trkpt lat="45.56254" lon="3.98712">
        <ele>928</ele>
        <time>2016-09-11T09:59:28.000Z</time>
      </trkpt>
      <trkpt lat="45.56257" lon="3.98711">
        <ele>928</ele>
        <time>2016-09-11T09:59:29.000Z</time>
      </trkpt>
      <trkpt lat="45.56276" lon="3.98702">
        <ele>927.59997558594</ele>
        <time>2016-09-11T09:59:35.000Z</time>
      </trkpt>
      <trkpt lat="45.56279" lon="3.987">
        <ele>927.40002441406</ele>
        <time>2016-09-11T09:59:36.000Z</time>
      </trkpt>
      <trkpt lat="45.56282" lon="3.98699">
        <ele>927.40002441406</ele>
        <time>2016-09-11T09:59:37.000Z</time>
      </trkpt>
      <trkpt lat="45.56293" lon="3.98695">
        <ele>927.20001220703</ele>
        <time>2016-09-11T09:59:41.000Z</time>
      </trkpt>
      <trkpt lat="45.56296" lon="3.98694">
        <ele>927.20001220703</ele>
        <time>2016-09-11T09:59:42.000Z</time>
      </trkpt>
      <trkpt lat="45.56314" lon="3.98686">
        <ele>926.40002441406</ele>
        <time>2016-09-11T09:59:54.000Z</time>
      </trkpt>
      <trkpt lat="45.56329" lon="3.98703">
        <ele>926.59997558594</ele>
        <time>2016-09-11T10:00:02.000Z</time>
      </trkpt>
      <trkpt lat="45.56341" lon="3.98726">
        <ele>926.79998779297</ele>
        <time>2016-09-11T10:00:07.000Z</time>
      </trkpt>
      <trkpt lat="45.56351" lon="3.98748">
        <ele>927.40002441406</ele>
        <time>2016-09-11T10:00:11.000Z</time>
      </trkpt>
      <trkpt lat="45.56354" lon="3.98754">
        <ele>927.40002441406</ele>
        <time>2016-09-11T10:00:12.000Z</time>
      </trkpt>
      <trkpt lat="45.56357" lon="3.9876">
        <ele>927.59997558594</ele>
        <time>2016-09-11T10:00:13.000Z</time>
      </trkpt>
      <trkpt lat="45.56369" lon="3.98785">
        <ele>927.59997558594</ele>
        <time>2016-09-11T10:00:17.000Z</time>
      </trkpt>
      <trkpt lat="45.56378" lon="3.98804">
        <ele>927</ele>
        <time>2016-09-11T10:00:20.000Z</time>
      </trkpt>
      <trkpt lat="45.5639" lon="3.98829">
        <ele>926.40002441406</ele>
        <time>2016-09-11T10:00:24.000Z</time>
      </trkpt>
      <trkpt lat="45.56401" lon="3.98852">
        <ele>926</ele>
        <time>2016-09-11T10:00:28.000Z</time>
      </trkpt>
      <trkpt lat="45.56414" lon="3.98875">
        <ele>925.59997558594</ele>
        <time>2016-09-11T10:00:32.000Z</time>
      </trkpt>
      <trkpt lat="45.56428" lon="3.98896">
        <ele>925</ele>
        <time>2016-09-11T10:00:36.000Z</time>
      </trkpt>
      <trkpt lat="45.56439" lon="3.98916">
        <ele>924.59997558594</ele>
        <time>2016-09-11T10:00:42.000Z</time>
      </trkpt>
      <trkpt lat="45.5644" lon="3.98919">
        <ele>924.40002441406</ele>
        <time>2016-09-11T10:00:43.000Z</time>
      </trkpt>
      <trkpt lat="45.56445" lon="3.98948">
        <ele>923.40002441406</ele>
        <time>2016-09-11T10:00:48.000Z</time>
      </trkpt>
      <trkpt lat="45.56451" lon="3.9898">
        <ele>922</ele>
        <time>2016-09-11T10:00:52.000Z</time>
      </trkpt>
      <trkpt lat="45.56459" lon="3.99006">
        <ele>920.79998779297</ele>
        <time>2016-09-11T10:00:56.000Z</time>
      </trkpt>
      <trkpt lat="45.56472" lon="3.99024">
        <ele>919</ele>
        <time>2016-09-11T10:01:00.000Z</time>
      </trkpt>
      <trkpt lat="45.56488" lon="3.99037">
        <ele>914.20001220703</ele>
        <time>2016-09-11T10:01:06.000Z</time>
      </trkpt>
      <trkpt lat="45.56504" lon="3.99062">
        <ele>908.59997558594</ele>
        <time>2016-09-11T10:01:10.000Z</time>
      </trkpt>
      <trkpt lat="45.56517" lon="3.9909">
        <ele>902.59997558594</ele>
        <time>2016-09-11T10:01:14.000Z</time>
      </trkpt>
      <trkpt lat="45.5652" lon="3.99097">
        <ele>901</ele>
        <time>2016-09-11T10:01:15.000Z</time>
      </trkpt>
      <trkpt lat="45.56532" lon="3.99123">
        <ele>897</ele>
        <time>2016-09-11T10:01:18.000Z</time>
      </trkpt>
      <trkpt lat="45.5654" lon="3.99141">
        <ele>894.79998779297</ele>
        <time>2016-09-11T10:01:20.000Z</time>
      </trkpt>
      <trkpt lat="45.56553" lon="3.99168">
        <ele>891.79998779297</ele>
        <time>2016-09-11T10:01:23.000Z</time>
      </trkpt>
      <trkpt lat="45.56568" lon="3.99195">
        <ele>891</ele>
        <time>2016-09-11T10:01:26.000Z</time>
      </trkpt>
      <trkpt lat="45.56573" lon="3.99203">
        <ele>890.79998779297</ele>
        <time>2016-09-11T10:01:27.000Z</time>
      </trkpt>
      <trkpt lat="45.56587" lon="3.99229">
        <ele>890.20001220703</ele>
        <time>2016-09-11T10:01:30.000Z</time>
      </trkpt>
      <trkpt lat="45.56591" lon="3.99236">
        <ele>890</ele>
        <time>2016-09-11T10:01:31.000Z</time>
      </trkpt>
      <trkpt lat="45.56604" lon="3.99259">
        <ele>889.59997558594</ele>
        <time>2016-09-11T10:01:34.000Z</time>
      </trkpt>
      <trkpt lat="45.56608" lon="3.99266">
        <ele>889.40002441406</ele>
        <time>2016-09-11T10:01:35.000Z</time>
      </trkpt>
      <trkpt lat="45.56611" lon="3.99273">
        <ele>889.40002441406</ele>
        <time>2016-09-11T10:01:36.000Z</time>
      </trkpt>
      <trkpt lat="45.56629" lon="3.99292">
        <ele>888</ele>
        <time>2016-09-11T10:01:40.000Z</time>
      </trkpt>
      <trkpt lat="45.56648" lon="3.99314">
        <ele>886.79998779297</ele>
        <time>2016-09-11T10:01:44.000Z</time>
      </trkpt>
      <trkpt lat="45.56659" lon="3.9934">
        <ele>885.40002441406</ele>
        <time>2016-09-11T10:01:47.000Z</time>
      </trkpt>
      <trkpt lat="45.56662" lon="3.99367">
        <ele>884.20001220703</ele>
        <time>2016-09-11T10:01:50.000Z</time>
      </trkpt>
      <trkpt lat="45.56658" lon="3.99395">
        <ele>883.20001220703</ele>
        <time>2016-09-11T10:01:53.000Z</time>
      </trkpt>
      <trkpt lat="45.56657" lon="3.99405">
        <ele>882.79998779297</ele>
        <time>2016-09-11T10:01:54.000Z</time>
      </trkpt>
      <trkpt lat="45.56652" lon="3.99434">
        <ele>881.79998779297</ele>
        <time>2016-09-11T10:01:57.000Z</time>
      </trkpt>
      <trkpt lat="45.56647" lon="3.99461">
        <ele>880.59997558594</ele>
        <time>2016-09-11T10:02:00.000Z</time>
      </trkpt>
      <trkpt lat="45.56645" lon="3.9947">
        <ele>880.59997558594</ele>
        <time>2016-09-11T10:02:01.000Z</time>
      </trkpt>
      <trkpt lat="45.56638" lon="3.99494">
        <ele>880.40002441406</ele>
        <time>2016-09-11T10:02:04.000Z</time>
      </trkpt>
      <trkpt lat="45.56632" lon="3.99518">
        <ele>880</ele>
        <time>2016-09-11T10:02:07.000Z</time>
      </trkpt>
      <trkpt lat="45.56629" lon="3.99534">
        <ele>880</ele>
        <time>2016-09-11T10:02:09.000Z</time>
      </trkpt>
      <trkpt lat="45.56624" lon="3.99558">
        <ele>880.20001220703</ele>
        <time>2016-09-11T10:02:12.000Z</time>
      </trkpt>
      <trkpt lat="45.56618" lon="3.99587">
        <ele>880.59997558594</ele>
        <time>2016-09-11T10:02:16.000Z</time>
      </trkpt>
      <trkpt lat="45.56616" lon="3.99594">
        <ele>880.59997558594</ele>
        <time>2016-09-11T10:02:17.000Z</time>
      </trkpt>
      <trkpt lat="45.56614" lon="3.99623">
        <ele>880.40002441406</ele>
        <time>2016-09-11T10:02:21.000Z</time>
      </trkpt>
      <trkpt lat="45.56619" lon="3.99644">
        <ele>880</ele>
        <time>2016-09-11T10:02:24.000Z</time>
      </trkpt>
      <trkpt lat="45.56624" lon="3.99665">
        <ele>879.59997558594</ele>
        <time>2016-09-11T10:02:27.000Z</time>
      </trkpt>
      <trkpt lat="45.56628" lon="3.99695">
        <ele>878.79998779297</ele>
        <time>2016-09-11T10:02:31.000Z</time>
      </trkpt>
      <trkpt lat="45.56621" lon="3.99723">
        <ele>877.79998779297</ele>
        <time>2016-09-11T10:02:36.000Z</time>
      </trkpt>
      <trkpt lat="45.56618" lon="3.99728">
        <ele>877.40002441406</ele>
        <time>2016-09-11T10:02:37.000Z</time>
      </trkpt>
      <trkpt lat="45.56601" lon="3.99749">
        <ele>876.59997558594</ele>
        <time>2016-09-11T10:02:41.000Z</time>
      </trkpt>
      <trkpt lat="45.56592" lon="3.9976">
        <ele>876.40002441406</ele>
        <time>2016-09-11T10:02:43.000Z</time>
      </trkpt>
      <trkpt lat="45.56587" lon="3.99766">
        <ele>876.20001220703</ele>
        <time>2016-09-11T10:02:44.000Z</time>
      </trkpt>
      <trkpt lat="45.56573" lon="3.99784">
        <ele>875</ele>
        <time>2016-09-11T10:02:47.000Z</time>
      </trkpt>
      <trkpt lat="45.56569" lon="3.9979">
        <ele>874.20001220703</ele>
        <time>2016-09-11T10:02:48.000Z</time>
      </trkpt>
      <trkpt lat="45.56565" lon="3.99795">
        <ele>873.40002441406</ele>
        <time>2016-09-11T10:02:49.000Z</time>
      </trkpt>
      <trkpt lat="45.56557" lon="3.99806">
        <ele>871.59997558594</ele>
        <time>2016-09-11T10:02:51.000Z</time>
      </trkpt>
      <trkpt lat="45.5655" lon="3.99833">
        <ele>867.59997558594</ele>
        <time>2016-09-11T10:02:55.000Z</time>
      </trkpt>
      <trkpt lat="45.56551" lon="3.99847">
        <ele>865.59997558594</ele>
        <time>2016-09-11T10:02:57.000Z</time>
      </trkpt>
      <trkpt lat="45.56552" lon="3.99854">
        <ele>864.59997558594</ele>
        <time>2016-09-11T10:02:58.000Z</time>
      </trkpt>
      <trkpt lat="45.5656" lon="3.99882">
        <ele>861</ele>
        <time>2016-09-11T10:03:02.000Z</time>
      </trkpt>
      <trkpt lat="45.56574" lon="3.99904">
        <ele>858.20001220703</ele>
        <time>2016-09-11T10:03:06.000Z</time>
      </trkpt>
      <trkpt lat="45.56578" lon="3.9991">
        <ele>857.40002441406</ele>
        <time>2016-09-11T10:03:07.000Z</time>
      </trkpt>
      <trkpt lat="45.56583" lon="3.99916">
        <ele>856.59997558594</ele>
        <time>2016-09-11T10:03:08.000Z</time>
      </trkpt>
      <trkpt lat="45.56596" lon="3.99938">
        <ele>853.79998779297</ele>
        <time>2016-09-11T10:03:11.000Z</time>
      </trkpt>
      <trkpt lat="45.56605" lon="3.99964">
        <ele>852</ele>
        <time>2016-09-11T10:03:14.000Z</time>
      </trkpt>
      <trkpt lat="45.56607" lon="3.99973">
        <ele>851.40002441406</ele>
        <time>2016-09-11T10:03:15.000Z</time>
      </trkpt>
      <trkpt lat="45.5661" lon="3.99983">
        <ele>851</ele>
        <time>2016-09-11T10:03:16.000Z</time>
      </trkpt>
      <trkpt lat="45.56617" lon="4.00011">
        <ele>849.20001220703</ele>
        <time>2016-09-11T10:03:19.000Z</time>
      </trkpt>
      <trkpt lat="45.56618" lon="4.00021">
        <ele>848.40002441406</ele>
        <time>2016-09-11T10:03:20.000Z</time>
      </trkpt>
      <trkpt lat="45.56622" lon="4.00049">
        <ele>847.79998779297</ele>
        <time>2016-09-11T10:03:23.000Z</time>
      </trkpt>
      <trkpt lat="45.56627" lon="4.00075">
        <ele>847.40002441406</ele>
        <time>2016-09-11T10:03:26.000Z</time>
      </trkpt>
      <trkpt lat="45.56632" lon="4.00091">
        <ele>847.20001220703</ele>
        <time>2016-09-11T10:03:28.000Z</time>
      </trkpt>
      <trkpt lat="45.56635" lon="4.00099">
        <ele>847.20001220703</ele>
        <time>2016-09-11T10:03:29.000Z</time>
      </trkpt>
      <trkpt lat="45.56643" lon="4.00122">
        <ele>846</ele>
        <time>2016-09-11T10:03:32.000Z</time>
      </trkpt>
      <trkpt lat="45.56644" lon="4.00147">
        <ele>845</ele>
        <time>2016-09-11T10:03:36.000Z</time>
      </trkpt>
      <trkpt lat="45.56627" lon="4.00158">
        <ele>845.20001220703</ele>
        <time>2016-09-11T10:03:43.000Z</time>
      </trkpt>
      <trkpt lat="45.56623" lon="4.00157">
        <ele>845.20001220703</ele>
        <time>2016-09-11T10:03:45.000Z</time>
      </trkpt>
      <trkpt lat="45.5662" lon="4.00156">
        <ele>845.20001220703</ele>
        <time>2016-09-11T10:03:46.000Z</time>
      </trkpt>
      <trkpt lat="45.56603" lon="4.00149">
        <ele>845.20001220703</ele>
        <time>2016-09-11T10:03:51.000Z</time>
      </trkpt>
      <trkpt lat="45.56584" lon="4.0016">
        <ele>843.79998779297</ele>
        <time>2016-09-11T10:03:56.000Z</time>
      </trkpt>
      <trkpt lat="45.56566" lon="4.00171">
        <ele>842.20001220703</ele>
        <time>2016-09-11T10:04:01.000Z</time>
      </trkpt>
      <trkpt lat="45.56548" lon="4.00161">
        <ele>842.20001220703</ele>
        <time>2016-09-11T10:04:06.000Z</time>
      </trkpt>
      <trkpt lat="45.56546" lon="4.00161">
        <ele>842.20001220703</ele>
        <time>2016-09-11T10:04:07.000Z</time>
      </trkpt>
      <trkpt lat="45.56557" lon="4.00184">
        <ele>840.79998779297</ele>
        <time>2016-09-11T10:04:14.000Z</time>
      </trkpt>
      <trkpt lat="45.5656" lon="4.00189">
        <ele>840.59997558594</ele>
        <time>2016-09-11T10:04:15.000Z</time>
      </trkpt>
      <trkpt lat="45.56575" lon="4.00209">
        <ele>839.20001220703</ele>
        <time>2016-09-11T10:04:20.000Z</time>
      </trkpt>
      <trkpt lat="45.56595" lon="4.00229">
        <ele>838</ele>
        <time>2016-09-11T10:04:24.000Z</time>
      </trkpt>
      <trkpt lat="45.56608" lon="4.00251">
        <ele>836.40002441406</ele>
        <time>2016-09-11T10:04:27.000Z</time>
      </trkpt>
      <trkpt lat="45.56612" lon="4.00257">
        <ele>836</ele>
        <time>2016-09-11T10:04:28.000Z</time>
      </trkpt>
      <trkpt lat="45.56616" lon="4.00263">
        <ele>835.40002441406</ele>
        <time>2016-09-11T10:04:29.000Z</time>
      </trkpt>
      <trkpt lat="45.56631" lon="4.00286">
        <ele>833.59997558594</ele>
        <time>2016-09-11T10:04:33.000Z</time>
      </trkpt>
      <trkpt lat="45.56636" lon="4.00292">
        <ele>833.20001220703</ele>
        <time>2016-09-11T10:04:34.000Z</time>
      </trkpt>
      <trkpt lat="45.5664" lon="4.00299">
        <ele>832.40002441406</ele>
        <time>2016-09-11T10:04:35.000Z</time>
      </trkpt>
      <trkpt lat="45.56655" lon="4.00319">
        <ele>830</ele>
        <time>2016-09-11T10:04:38.000Z</time>
      </trkpt>
      <trkpt lat="45.56667" lon="4.00347">
        <ele>826.79998779297</ele>
        <time>2016-09-11T10:04:42.000Z</time>
      </trkpt>
      <trkpt lat="45.56679" lon="4.00366">
        <ele>824.59997558594</ele>
        <time>2016-09-11T10:04:46.000Z</time>
      </trkpt>
      <trkpt lat="45.56696" lon="4.00378">
        <ele>823</ele>
        <time>2016-09-11T10:04:50.000Z</time>
      </trkpt>
      <trkpt lat="45.56709" lon="4.00403">
        <ele>819.79998779297</ele>
        <time>2016-09-11T10:04:54.000Z</time>
      </trkpt>
      <trkpt lat="45.56723" lon="4.00426">
        <ele>816.79998779297</ele>
        <time>2016-09-11T10:04:58.000Z</time>
      </trkpt>
      <trkpt lat="45.56742" lon="4.00437">
        <ele>814.79998779297</ele>
        <time>2016-09-11T10:05:01.000Z</time>
      </trkpt>
      <trkpt lat="45.56749" lon="4.0044">
        <ele>814.20001220703</ele>
        <time>2016-09-11T10:05:02.000Z</time>
      </trkpt>
      <trkpt lat="45.5677" lon="4.0045">
        <ele>812</ele>
        <time>2016-09-11T10:05:05.000Z</time>
      </trkpt>
      <trkpt lat="45.56781" lon="4.00456">
        <ele>811</ele>
        <time>2016-09-11T10:05:07.000Z</time>
      </trkpt>
      <trkpt lat="45.56781" lon="4.00473">
        <ele>808.59997558594</ele>
        <time>2016-09-11T10:05:13.000Z</time>
      </trkpt>
      <trkpt lat="45.56772" lon="4.00479">
        <ele>808.20001220703</ele>
        <time>2016-09-11T10:05:15.000Z</time>
      </trkpt>
      <trkpt lat="45.56768" lon="4.00482">
        <ele>807.79998779297</ele>
        <time>2016-09-11T10:05:16.000Z</time>
      </trkpt>
      <trkpt lat="45.56753" lon="4.00499">
        <ele>806.40002441406</ele>
        <time>2016-09-11T10:05:20.000Z</time>
      </trkpt>
      <trkpt lat="45.5675" lon="4.00504">
        <ele>806</ele>
        <time>2016-09-11T10:05:21.000Z</time>
      </trkpt>
      <trkpt lat="45.56746" lon="4.00534">
        <ele>802.59997558594</ele>
        <time>2016-09-11T10:05:26.000Z</time>
      </trkpt>
      <trkpt lat="45.56751" lon="4.00554">
        <ele>800</ele>
        <time>2016-09-11T10:05:29.000Z</time>
      </trkpt>
      <trkpt lat="45.56756" lon="4.00572">
        <ele>797.59997558594</ele>
        <time>2016-09-11T10:05:32.000Z</time>
      </trkpt>
      <trkpt lat="45.56765" lon="4.006">
        <ele>794</ele>
        <time>2016-09-11T10:05:37.000Z</time>
      </trkpt>
      <trkpt lat="45.56761" lon="4.00618">
        <ele>792.40002441406</ele>
        <time>2016-09-11T10:05:40.000Z</time>
      </trkpt>
      <trkpt lat="45.5676" lon="4.00624">
        <ele>792</ele>
        <time>2016-09-11T10:05:41.000Z</time>
      </trkpt>
      <trkpt lat="45.56764" lon="4.00649">
        <ele>789.40002441406</ele>
        <time>2016-09-11T10:05:45.000Z</time>
      </trkpt>
      <trkpt lat="45.56766" lon="4.00657">
        <ele>788.40002441406</ele>
        <time>2016-09-11T10:05:46.000Z</time>
      </trkpt>
      <trkpt lat="45.5677" lon="4.00673">
        <ele>787</ele>
        <time>2016-09-11T10:05:48.000Z</time>
      </trkpt>
      <trkpt lat="45.56774" lon="4.00702">
        <ele>784</ele>
        <time>2016-09-11T10:05:53.000Z</time>
      </trkpt>
      <trkpt lat="45.56776" lon="4.0071">
        <ele>782.79998779297</ele>
        <time>2016-09-11T10:05:55.000Z</time>
      </trkpt>
      <trkpt lat="45.56777" lon="4.00714">
        <ele>782.40002441406</ele>
        <time>2016-09-11T10:05:56.000Z</time>
      </trkpt>
      <trkpt lat="45.56791" lon="4.00737">
        <ele>778.40002441406</ele>
        <time>2016-09-11T10:06:02.000Z</time>
      </trkpt>
      <trkpt lat="45.56796" lon="4.00749">
        <ele>776.59997558594</ele>
        <time>2016-09-11T10:06:04.000Z</time>
      </trkpt>
      <trkpt lat="45.56798" lon="4.00754">
        <ele>775.79998779297</ele>
        <time>2016-09-11T10:06:05.000Z</time>
      </trkpt>
      <trkpt lat="45.56796" lon="4.00782">
        <ele>772.59997558594</ele>
        <time>2016-09-11T10:06:09.000Z</time>
      </trkpt>
      <trkpt lat="45.56795" lon="4.00812">
        <ele>769</ele>
        <time>2016-09-11T10:06:13.000Z</time>
      </trkpt>
      <trkpt lat="45.56805" lon="4.00834">
        <ele>765.79998779297</ele>
        <time>2016-09-11T10:06:17.000Z</time>
      </trkpt>
      <trkpt lat="45.56809" lon="4.00858">
        <ele>762.59997558594</ele>
        <time>2016-09-11T10:06:21.000Z</time>
      </trkpt>
      <trkpt lat="45.56806" lon="4.00887">
        <ele>760.20001220703</ele>
        <time>2016-09-11T10:06:26.000Z</time>
      </trkpt>
      <trkpt lat="45.56813" lon="4.00917">
        <ele>757.20001220703</ele>
        <time>2016-09-11T10:06:30.000Z</time>
      </trkpt>
      <trkpt lat="45.56819" lon="4.00944">
        <ele>754.59997558594</ele>
        <time>2016-09-11T10:06:33.000Z</time>
      </trkpt>
      <trkpt lat="45.56823" lon="4.00959">
        <ele>752.79998779297</ele>
        <time>2016-09-11T10:06:35.000Z</time>
      </trkpt>
      <trkpt lat="45.56826" lon="4.00987">
        <ele>750.20001220703</ele>
        <time>2016-09-11T10:06:39.000Z</time>
      </trkpt>
      <trkpt lat="45.5682" lon="4.01012">
        <ele>748.59997558594</ele>
        <time>2016-09-11T10:06:44.000Z</time>
      </trkpt>
      <trkpt lat="45.56806" lon="4.01015">
        <ele>749.40002441406</ele>
        <time>2016-09-11T10:06:48.000Z</time>
      </trkpt>
      <trkpt lat="45.56803" lon="4.01014">
        <ele>749.79998779297</ele>
        <time>2016-09-11T10:06:49.000Z</time>
      </trkpt>
      <trkpt lat="45.56785" lon="4.01009">
        <ele>750.59997558594</ele>
        <time>2016-09-11T10:06:55.000Z</time>
      </trkpt>
      <trkpt lat="45.56767" lon="4.01003">
        <ele>750.79998779297</ele>
        <time>2016-09-11T10:06:59.000Z</time>
      </trkpt>
      <trkpt lat="45.56762" lon="4.01002">
        <ele>750.79998779297</ele>
        <time>2016-09-11T10:07:00.000Z</time>
      </trkpt>
      <trkpt lat="45.56742" lon="4.00995">
        <ele>751.20001220703</ele>
        <time>2016-09-11T10:07:04.000Z</time>
      </trkpt>
      <trkpt lat="45.56719" lon="4.00991">
        <ele>751.20001220703</ele>
        <time>2016-09-11T10:07:08.000Z</time>
      </trkpt>
      <trkpt lat="45.56696" lon="4.00989">
        <ele>750.59997558594</ele>
        <time>2016-09-11T10:07:11.000Z</time>
      </trkpt>
      <trkpt lat="45.5667" lon="4.00992">
        <ele>749</ele>
        <time>2016-09-11T10:07:14.000Z</time>
      </trkpt>
      <trkpt lat="45.56661" lon="4.00994">
        <ele>748.20001220703</ele>
        <time>2016-09-11T10:07:15.000Z</time>
      </trkpt>
      <trkpt lat="45.56652" lon="4.00995">
        <ele>747.20001220703</ele>
        <time>2016-09-11T10:07:16.000Z</time>
      </trkpt>
      <trkpt lat="45.56632" lon="4.00998">
        <ele>745.79998779297</ele>
        <time>2016-09-11T10:07:18.000Z</time>
      </trkpt>
      <trkpt lat="45.56616" lon="4.0101">
        <ele>743.59997558594</ele>
        <time>2016-09-11T10:07:21.000Z</time>
      </trkpt>
      <trkpt lat="45.56622" lon="4.01033">
        <ele>742.59997558594</ele>
        <time>2016-09-11T10:07:25.000Z</time>
      </trkpt>
      <trkpt lat="45.56639" lon="4.01046">
        <ele>740.79998779297</ele>
        <time>2016-09-11T10:07:29.000Z</time>
      </trkpt>
      <trkpt lat="45.56649" lon="4.01054">
        <ele>739.40002441406</ele>
        <time>2016-09-11T10:07:31.000Z</time>
      </trkpt>
      <trkpt lat="45.56654" lon="4.01059">
        <ele>738.59997558594</ele>
        <time>2016-09-11T10:07:32.000Z</time>
      </trkpt>
      <trkpt lat="45.56671" lon="4.0108">
        <ele>735.79998779297</ele>
        <time>2016-09-11T10:07:36.000Z</time>
      </trkpt>
      <trkpt lat="45.56684" lon="4.01108">
        <ele>733.40002441406</ele>
        <time>2016-09-11T10:07:40.000Z</time>
      </trkpt>
      <trkpt lat="45.56687" lon="4.01135">
        <ele>730.20001220703</ele>
        <time>2016-09-11T10:07:43.000Z</time>
      </trkpt>
      <trkpt lat="45.56683" lon="4.01166">
        <ele>728.20001220703</ele>
        <time>2016-09-11T10:07:46.000Z</time>
      </trkpt>
      <trkpt lat="45.56675" lon="4.012">
        <ele>729</ele>
        <time>2016-09-11T10:07:49.000Z</time>
      </trkpt>
      <trkpt lat="45.56671" lon="4.01213">
        <ele>728.59997558594</ele>
        <time>2016-09-11T10:07:50.000Z</time>
      </trkpt>
      <trkpt lat="45.56666" lon="4.01238">
        <ele>726.79998779297</ele>
        <time>2016-09-11T10:07:52.000Z</time>
      </trkpt>
      <trkpt lat="45.56669" lon="4.01265">
        <ele>722.59997558594</ele>
        <time>2016-09-11T10:07:54.000Z</time>
      </trkpt>
      <trkpt lat="45.56676" lon="4.01294">
        <ele>717.79998779297</ele>
        <time>2016-09-11T10:07:56.000Z</time>
      </trkpt>
      <trkpt lat="45.56682" lon="4.01327">
        <ele>713.40002441406</ele>
        <time>2016-09-11T10:07:58.000Z</time>
      </trkpt>
      <trkpt lat="45.5668" lon="4.01363">
        <ele>710.79998779297</ele>
        <time>2016-09-11T10:08:00.000Z</time>
      </trkpt>
      <trkpt lat="45.56676" lon="4.01396">
        <ele>710.20001220703</ele>
        <time>2016-09-11T10:08:02.000Z</time>
      </trkpt>
      <trkpt lat="45.56681" lon="4.01421">
        <ele>707.59997558594</ele>
        <time>2016-09-11T10:08:04.000Z</time>
      </trkpt>
      <trkpt lat="45.56693" lon="4.01438">
        <ele>704</ele>
        <time>2016-09-11T10:08:06.000Z</time>
      </trkpt>
      <trkpt lat="45.56699" lon="4.01447">
        <ele>702.40002441406</ele>
        <time>2016-09-11T10:08:07.000Z</time>
      </trkpt>
      <trkpt lat="45.56704" lon="4.01477">
        <ele>700.79998779297</ele>
        <time>2016-09-11T10:08:10.000Z</time>
      </trkpt>
      <trkpt lat="45.56698" lon="4.01505">
        <ele>701.20001220703</ele>
        <time>2016-09-11T10:08:13.000Z</time>
      </trkpt>
      <trkpt lat="45.567" lon="4.01536">
        <ele>700.59997558594</ele>
        <time>2016-09-11T10:08:16.000Z</time>
      </trkpt>
      <trkpt lat="45.56704" lon="4.01567">
        <ele>699.59997558594</ele>
        <time>2016-09-11T10:08:19.000Z</time>
      </trkpt>
      <trkpt lat="45.56708" lon="4.01594">
        <ele>698.20001220703</ele>
        <time>2016-09-11T10:08:22.000Z</time>
      </trkpt>
      <trkpt lat="45.56709" lon="4.01601">
        <ele>698</ele>
        <time>2016-09-11T10:08:23.000Z</time>
      </trkpt>
      <trkpt lat="45.56711" lon="4.01627">
        <ele>697.59997558594</ele>
        <time>2016-09-11T10:08:27.000Z</time>
      </trkpt>
      <trkpt lat="45.56708" lon="4.01653">
        <ele>698.40002441406</ele>
        <time>2016-09-11T10:08:31.000Z</time>
      </trkpt>
      <trkpt lat="45.56699" lon="4.01676">
        <ele>700.59997558594</ele>
        <time>2016-09-11T10:08:35.000Z</time>
      </trkpt>
      <trkpt lat="45.56696" lon="4.01688">
        <ele>702.40002441406</ele>
        <time>2016-09-11T10:08:37.000Z</time>
      </trkpt>
      <trkpt lat="45.56694" lon="4.01694">
        <ele>703</ele>
        <time>2016-09-11T10:08:38.000Z</time>
      </trkpt>
      <trkpt lat="45.56692" lon="4.01707">
        <ele>703.20001220703</ele>
        <time>2016-09-11T10:08:40.000Z</time>
      </trkpt>
      <trkpt lat="45.56687" lon="4.01734">
        <ele>703.59997558594</ele>
        <time>2016-09-11T10:08:44.000Z</time>
      </trkpt>
      <trkpt lat="45.56685" lon="4.01747">
        <ele>703.79998779297</ele>
        <time>2016-09-11T10:08:46.000Z</time>
      </trkpt>
      <trkpt lat="45.56684" lon="4.01753">
        <ele>703.79998779297</ele>
        <time>2016-09-11T10:08:47.000Z</time>
      </trkpt>
      <trkpt lat="45.56681" lon="4.0178">
        <ele>702.59997558594</ele>
        <time>2016-09-11T10:08:51.000Z</time>
      </trkpt>
      <trkpt lat="45.56681" lon="4.01788">
        <ele>702</ele>
        <time>2016-09-11T10:08:52.000Z</time>
      </trkpt>
      <trkpt lat="45.56677" lon="4.01813">
        <ele>700.59997558594</ele>
        <time>2016-09-11T10:08:55.000Z</time>
      </trkpt>
      <trkpt lat="45.56676" lon="4.01821">
        <ele>700.20001220703</ele>
        <time>2016-09-11T10:08:56.000Z</time>
      </trkpt>
      <trkpt lat="45.56674" lon="4.01829">
        <ele>700.20001220703</ele>
        <time>2016-09-11T10:08:57.000Z</time>
      </trkpt>
      <trkpt lat="45.56656" lon="4.01852">
        <ele>703.20001220703</ele>
        <time>2016-09-11T10:09:01.000Z</time>
      </trkpt>
      <trkpt lat="45.5664" lon="4.01873">
        <ele>707.59997558594</ele>
        <time>2016-09-11T10:09:05.000Z</time>
      </trkpt>
      <trkpt lat="45.56637" lon="4.01902">
        <ele>706.59997558594</ele>
        <time>2016-09-11T10:09:10.000Z</time>
      </trkpt>
      <trkpt lat="45.56638" lon="4.01907">
        <ele>706.20001220703</ele>
        <time>2016-09-11T10:09:11.000Z</time>
      </trkpt>
      <trkpt lat="45.56637" lon="4.01912">
        <ele>706</ele>
        <time>2016-09-11T10:09:12.000Z</time>
      </trkpt>
      <trkpt lat="45.56635" lon="4.01926">
        <ele>705.59997558594</ele>
        <time>2016-09-11T10:09:15.000Z</time>
      </trkpt>
      <trkpt lat="45.56634" lon="4.01949">
        <ele>706</ele>
        <time>2016-09-11T10:09:19.000Z</time>
      </trkpt>
      <trkpt lat="45.56635" lon="4.01955">
        <ele>706.79998779297</ele>
        <time>2016-09-11T10:09:20.000Z</time>
      </trkpt>
      <trkpt lat="45.56642" lon="4.01983">
        <ele>709.79998779297</ele>
        <time>2016-09-11T10:09:24.000Z</time>
      </trkpt>
      <trkpt lat="45.56644" lon="4.01986">
        <ele>710</ele>
        <time>2016-09-11T10:09:25.000Z</time>
      </trkpt>
      <trkpt lat="45.56658" lon="4.02007">
        <ele>711.59997558594</ele>
        <time>2016-09-11T10:09:34.000Z</time>
      </trkpt>
      <trkpt lat="45.56662" lon="4.0201">
        <ele>711.59997558594</ele>
        <time>2016-09-11T10:09:36.000Z</time>
      </trkpt>
      <trkpt lat="45.56664" lon="4.02012">
        <ele>711.79998779297</ele>
        <time>2016-09-11T10:09:37.000Z</time>
      </trkpt>
      <trkpt lat="45.56676" lon="4.02031">
        <ele>713</ele>
        <time>2016-09-11T10:09:48.000Z</time>
      </trkpt>
      <trkpt lat="45.56687" lon="4.02054">
        <ele>713.59997558594</ele>
        <time>2016-09-11T10:09:58.000Z</time>
      </trkpt>
      <trkpt lat="45.56698" lon="4.02077">
        <ele>714.40002441406</ele>
        <time>2016-09-11T10:10:07.000Z</time>
      </trkpt>
      <trkpt lat="45.56705" lon="4.02093">
        <ele>715</ele>
        <time>2016-09-11T10:10:12.000Z</time>
      </trkpt>
      <trkpt lat="45.56707" lon="4.02096">
        <ele>715</ele>
        <time>2016-09-11T10:10:13.000Z</time>
      </trkpt>
      <trkpt lat="45.56711" lon="4.02107">
        <ele>715.79998779297</ele>
        <time>2016-09-11T10:10:16.000Z</time>
      </trkpt>
      <trkpt lat="45.56718" lon="4.02134">
        <ele>714.79998779297</ele>
        <time>2016-09-11T10:10:23.000Z</time>
      </trkpt>
      <trkpt lat="45.56718" lon="4.02138">
        <ele>714.40002441406</ele>
        <time>2016-09-11T10:10:24.000Z</time>
      </trkpt>
      <trkpt lat="45.56718" lon="4.02142">
        <ele>714.40002441406</ele>
        <time>2016-09-11T10:10:25.000Z</time>
      </trkpt>
      <trkpt lat="45.56719" lon="4.02154">
        <ele>714</ele>
        <time>2016-09-11T10:10:27.000Z</time>
      </trkpt>
      <trkpt lat="45.5672" lon="4.02184">
        <ele>713.20001220703</ele>
        <time>2016-09-11T10:10:31.000Z</time>
      </trkpt>
      <trkpt lat="45.56719" lon="4.02193">
        <ele>713.40002441406</ele>
        <time>2016-09-11T10:10:32.000Z</time>
      </trkpt>
      <trkpt lat="45.56717" lon="4.02218">
        <ele>712.79998779297</ele>
        <time>2016-09-11T10:10:35.000Z</time>
      </trkpt>
      <trkpt lat="45.5671" lon="4.02247">
        <ele>713</ele>
        <time>2016-09-11T10:10:39.000Z</time>
      </trkpt>
      <trkpt lat="45.56702" lon="4.02275">
        <ele>713.20001220703</ele>
        <time>2016-09-11T10:10:44.000Z</time>
      </trkpt>
      <trkpt lat="45.56701" lon="4.02279">
        <ele>713.40002441406</ele>
        <time>2016-09-11T10:10:45.000Z</time>
      </trkpt>
      <trkpt lat="45.567" lon="4.02284">
        <ele>713.79998779297</ele>
        <time>2016-09-11T10:10:46.000Z</time>
      </trkpt>
      <trkpt lat="45.567" lon="4.02313">
        <ele>714.59997558594</ele>
        <time>2016-09-11T10:10:51.000Z</time>
      </trkpt>
      <trkpt lat="45.56702" lon="4.02319">
        <ele>714.20001220703</ele>
        <time>2016-09-11T10:10:52.000Z</time>
      </trkpt>
      <trkpt lat="45.56704" lon="4.02326">
        <ele>714.20001220703</ele>
        <time>2016-09-11T10:10:53.000Z</time>
      </trkpt>
      <trkpt lat="45.56709" lon="4.02354">
        <ele>713.20001220703</ele>
        <time>2016-09-11T10:10:57.000Z</time>
      </trkpt>
      <trkpt lat="45.56723" lon="4.02372">
        <ele>711.20001220703</ele>
        <time>2016-09-11T10:11:01.000Z</time>
      </trkpt>
      <trkpt lat="45.56732" lon="4.02395">
        <ele>709.79998779297</ele>
        <time>2016-09-11T10:11:06.000Z</time>
      </trkpt>
      <trkpt lat="45.56743" lon="4.0242">
        <ele>708</ele>
        <time>2016-09-11T10:11:11.000Z</time>
      </trkpt>
      <trkpt lat="45.56755" lon="4.02445">
        <ele>706.20001220703</ele>
        <time>2016-09-11T10:11:15.000Z</time>
      </trkpt>
      <trkpt lat="45.56759" lon="4.02479">
        <ele>704.59997558594</ele>
        <time>2016-09-11T10:11:19.000Z</time>
      </trkpt>
      <trkpt lat="45.56764" lon="4.02506">
        <ele>702.20001220703</ele>
        <time>2016-09-11T10:11:22.000Z</time>
      </trkpt>
      <trkpt lat="45.5677" lon="4.02534">
        <ele>699.59997558594</ele>
        <time>2016-09-11T10:11:25.000Z</time>
      </trkpt>
      <trkpt lat="45.56778" lon="4.02564">
        <ele>698</ele>
        <time>2016-09-11T10:11:29.000Z</time>
      </trkpt>
      <trkpt lat="45.56779" lon="4.0257">
        <ele>697.59997558594</ele>
        <time>2016-09-11T10:11:30.000Z</time>
      </trkpt>
      <trkpt lat="45.56779" lon="4.02596">
        <ele>696</ele>
        <time>2016-09-11T10:11:34.000Z</time>
      </trkpt>
      <trkpt lat="45.56783" lon="4.02623">
        <ele>693.40002441406</ele>
        <time>2016-09-11T10:11:39.000Z</time>
      </trkpt>
      <trkpt lat="45.56796" lon="4.02644">
        <ele>691.59997558594</ele>
        <time>2016-09-11T10:11:43.000Z</time>
      </trkpt>
      <trkpt lat="45.56801" lon="4.02669">
        <ele>689.20001220703</ele>
        <time>2016-09-11T10:11:46.000Z</time>
      </trkpt>
      <trkpt lat="45.56804" lon="4.02685">
        <ele>687.40002441406</ele>
        <time>2016-09-11T10:11:48.000Z</time>
      </trkpt>
      <trkpt lat="45.56805" lon="4.02693">
        <ele>686.59997558594</ele>
        <time>2016-09-11T10:11:49.000Z</time>
      </trkpt>
      <trkpt lat="45.56809" lon="4.02725">
        <ele>684.79998779297</ele>
        <time>2016-09-11T10:11:53.000Z</time>
      </trkpt>
      <trkpt lat="45.56809" lon="4.02731">
        <ele>684.40002441406</ele>
        <time>2016-09-11T10:11:54.000Z</time>
      </trkpt>
      <trkpt lat="45.56799" lon="4.02749">
        <ele>684.20001220703</ele>
        <time>2016-09-11T10:12:00.000Z</time>
      </trkpt>
      <trkpt lat="45.56784" lon="4.02738">
        <ele>684.20001220703</ele>
        <time>2016-09-11T10:12:04.000Z</time>
      </trkpt>
      <trkpt lat="45.56781" lon="4.02736">
        <ele>684.20001220703</ele>
        <time>2016-09-11T10:12:05.000Z</time>
      </trkpt>
      <trkpt lat="45.56767" lon="4.02718">
        <ele>684.59997558594</ele>
        <time>2016-09-11T10:12:11.000Z</time>
      </trkpt>
      <trkpt lat="45.56763" lon="4.02714">
        <ele>684.59997558594</ele>
        <time>2016-09-11T10:12:12.000Z</time>
      </trkpt>
      <trkpt lat="45.56755" lon="4.02704">
        <ele>684.79998779297</ele>
        <time>2016-09-11T10:12:14.000Z</time>
      </trkpt>
      <trkpt lat="45.56746" lon="4.02693">
        <ele>685</ele>
        <time>2016-09-11T10:12:16.000Z</time>
      </trkpt>
      <trkpt lat="45.5673" lon="4.02678">
        <ele>686</ele>
        <time>2016-09-11T10:12:19.000Z</time>
      </trkpt>
      <trkpt lat="45.56711" lon="4.02665">
        <ele>686.40002441406</ele>
        <time>2016-09-11T10:12:22.000Z</time>
      </trkpt>
      <trkpt lat="45.56704" lon="4.02661">
        <ele>686.20001220703</ele>
        <time>2016-09-11T10:12:23.000Z</time>
      </trkpt>
      <trkpt lat="45.56684" lon="4.02649">
        <ele>685</ele>
        <time>2016-09-11T10:12:26.000Z</time>
      </trkpt>
      <trkpt lat="45.56667" lon="4.02637">
        <ele>684.40002441406</ele>
        <time>2016-09-11T10:12:30.000Z</time>
      </trkpt>
      <trkpt lat="45.56665" lon="4.02635">
        <ele>684.40002441406</ele>
        <time>2016-09-11T10:12:31.000Z</time>
      </trkpt>
      <trkpt lat="45.56646" lon="4.0264">
        <ele>681.79998779297</ele>
        <time>2016-09-11T10:12:37.000Z</time>
      </trkpt>
      <trkpt lat="45.56624" lon="4.02639">
        <ele>679.59997558594</ele>
        <time>2016-09-11T10:12:42.000Z</time>
      </trkpt>
      <trkpt lat="45.56605" lon="4.02637">
        <ele>677.79998779297</ele>
        <time>2016-09-11T10:12:45.000Z</time>
      </trkpt>
      <trkpt lat="45.56583" lon="4.02645">
        <ele>674.59997558594</ele>
        <time>2016-09-11T10:12:48.000Z</time>
      </trkpt>
      <trkpt lat="45.56569" lon="4.02665">
        <ele>671.79998779297</ele>
        <time>2016-09-11T10:12:52.000Z</time>
      </trkpt>
      <trkpt lat="45.56578" lon="4.02694">
        <ele>670</ele>
        <time>2016-09-11T10:12:57.000Z</time>
      </trkpt>
      <trkpt lat="45.5658" lon="4.02701">
        <ele>669.20001220703</ele>
        <time>2016-09-11T10:12:58.000Z</time>
      </trkpt>
      <trkpt lat="45.56581" lon="4.02707">
        <ele>668.59997558594</ele>
        <time>2016-09-11T10:12:59.000Z</time>
      </trkpt>
      <trkpt lat="45.56586" lon="4.02724">
        <ele>666.59997558594</ele>
        <time>2016-09-11T10:13:02.000Z</time>
      </trkpt>
      <trkpt lat="45.56591" lon="4.02752">
        <ele>664</ele>
        <time>2016-09-11T10:13:09.000Z</time>
      </trkpt>
      <trkpt lat="45.56591" lon="4.02778">
        <ele>661</ele>
        <time>2016-09-11T10:13:15.000Z</time>
      </trkpt>
      <trkpt lat="45.56592" lon="4.02802">
        <ele>657.59997558594</ele>
        <time>2016-09-11T10:13:22.000Z</time>
      </trkpt>
      <trkpt lat="45.56592" lon="4.02805">
        <ele>657.20001220703</ele>
        <time>2016-09-11T10:13:23.000Z</time>
      </trkpt>
      <trkpt lat="45.56588" lon="4.0283">
        <ele>653.40002441406</ele>
        <time>2016-09-11T10:13:31.000Z</time>
      </trkpt>
      <trkpt lat="45.56574" lon="4.02849">
        <ele>649.79998779297</ele>
        <time>2016-09-11T10:13:39.000Z</time>
      </trkpt>
      <trkpt lat="45.56556" lon="4.02858">
        <ele>647.40002441406</ele>
        <time>2016-09-11T10:13:48.000Z</time>
      </trkpt>
      <trkpt lat="45.56538" lon="4.02869">
        <ele>644.40002441406</ele>
        <time>2016-09-11T10:13:57.000Z</time>
      </trkpt>
      <trkpt lat="45.56519" lon="4.02876">
        <ele>642.79998779297</ele>
        <time>2016-09-11T10:14:05.000Z</time>
      </trkpt>
      <trkpt lat="45.56516" lon="4.02877">
        <ele>642.59997558594</ele>
        <time>2016-09-11T10:14:06.000Z</time>
      </trkpt>
      <trkpt lat="45.56513" lon="4.02878">
        <ele>642.20001220703</ele>
        <time>2016-09-11T10:14:07.000Z</time>
      </trkpt>
      <trkpt lat="45.56495" lon="4.02889">
        <ele>639.59997558594</ele>
        <time>2016-09-11T10:14:14.000Z</time>
      </trkpt>
      <trkpt lat="45.56479" lon="4.02901">
        <ele>638</ele>
        <time>2016-09-11T10:14:22.000Z</time>
      </trkpt>
      <trkpt lat="45.56464" lon="4.02914">
        <ele>636.40002441406</ele>
        <time>2016-09-11T10:14:39.000Z</time>
      </trkpt>
      <trkpt lat="45.56457" lon="4.02917">
        <ele>636.40002441406</ele>
        <time>2016-09-11T10:14:45.000Z</time>
      </trkpt>
      <trkpt lat="45.56455" lon="4.02918">
        <ele>636.40002441406</ele>
        <time>2016-09-11T10:14:46.000Z</time>
      </trkpt>
      <trkpt lat="45.56451" lon="4.02919">
        <ele>636.40002441406</ele>
        <time>2016-09-11T10:14:48.000Z</time>
      </trkpt>
      <trkpt lat="45.56437" lon="4.02923">
        <ele>637.20001220703</ele>
        <time>2016-09-11T10:15:00.000Z</time>
      </trkpt>
      <trkpt lat="45.56435" lon="4.02925">
        <ele>637.20001220703</ele>
        <time>2016-09-11T10:15:03.000Z</time>
      </trkpt>
      <trkpt lat="45.5643" lon="4.02929">
        <ele>637.40002441406</ele>
        <time>2016-09-11T10:15:10.000Z</time>
      </trkpt>
      <trkpt lat="45.56426" lon="4.02932">
        <ele>637.40002441406</ele>
        <time>2016-09-11T10:15:15.000Z</time>
      </trkpt>
      <trkpt lat="45.5642" lon="4.02938">
        <ele>637.20001220703</ele>
        <time>2016-09-11T10:15:23.000Z</time>
      </trkpt>
      <trkpt lat="45.56418" lon="4.02941">
        <ele>637.20001220703</ele>
        <time>2016-09-11T10:15:27.000Z</time>
      </trkpt>
      <trkpt lat="45.56411" lon="4.02945">
        <ele>637.79998779297</ele>
        <time>2016-09-11T10:15:36.000Z</time>
      </trkpt>
      <trkpt lat="45.56409" lon="4.02948">
        <ele>638</ele>
        <time>2016-09-11T10:15:40.000Z</time>
      </trkpt>
      <trkpt lat="45.56411" lon="4.02951">
        <ele>638</ele>
        <time>2016-09-11T10:15:50.000Z</time>
      </trkpt>
      <trkpt lat="45.56418" lon="4.02956">
        <ele>637.20001220703</ele>
        <time>2016-09-11T10:15:57.000Z</time>
      </trkpt>
      <trkpt lat="45.56419" lon="4.02956">
        <ele>637</ele>
        <time>2016-09-11T10:15:58.000Z</time>
      </trkpt>
      <trkpt lat="45.56422" lon="4.02958">
        <ele>636.59997558594</ele>
        <time>2016-09-11T10:16:01.000Z</time>
      </trkpt>
      <trkpt lat="45.56427" lon="4.02963">
        <ele>636</ele>
        <time>2016-09-11T10:16:05.000Z</time>
      </trkpt>
      <trkpt lat="45.56431" lon="4.02968">
        <ele>635.79998779297</ele>
        <time>2016-09-11T10:16:09.000Z</time>
      </trkpt>
      <trkpt lat="45.56432" lon="4.0297">
        <ele>635.59997558594</ele>
        <time>2016-09-11T10:16:10.000Z</time>
      </trkpt>
      <trkpt lat="45.56436" lon="4.02975">
        <ele>635.20001220703</ele>
        <time>2016-09-11T10:16:14.000Z</time>
      </trkpt>
      <trkpt lat="45.56445" lon="4.02992">
        <ele>634.20001220703</ele>
        <time>2016-09-11T10:16:22.000Z</time>
      </trkpt>
      <trkpt lat="45.56446" lon="4.02993">
        <ele>634.20001220703</ele>
        <time>2016-09-11T10:16:23.000Z</time>
      </trkpt>
      <trkpt lat="45.56454" lon="4.03012">
        <ele>633.59997558594</ele>
        <time>2016-09-11T10:16:31.000Z</time>
      </trkpt>
      <trkpt lat="45.56455" lon="4.03018">
        <ele>633.79998779297</ele>
        <time>2016-09-11T10:16:33.000Z</time>
      </trkpt>
      <trkpt lat="45.56466" lon="4.03039">
        <ele>635.79998779297</ele>
        <time>2016-09-11T10:16:47.000Z</time>
      </trkpt>
      <trkpt lat="45.56474" lon="4.0306">
        <ele>640</ele>
        <time>2016-09-11T10:17:01.000Z</time>
      </trkpt>
      <trkpt lat="45.56475" lon="4.03061">
        <ele>640.40002441406</ele>
        <time>2016-09-11T10:17:02.000Z</time>
      </trkpt>
      <trkpt lat="45.56481" lon="4.03069">
        <ele>641.79998779297</ele>
        <time>2016-09-11T10:17:07.000Z</time>
      </trkpt>
      <trkpt lat="45.56492" lon="4.03088">
        <ele>645.79998779297</ele>
        <time>2016-09-11T10:17:20.000Z</time>
      </trkpt>
      <trkpt lat="45.56493" lon="4.03091">
        <ele>646.20001220703</ele>
        <time>2016-09-11T10:17:22.000Z</time>
      </trkpt>
      <trkpt lat="45.56499" lon="4.03098">
        <ele>647.79998779297</ele>
        <time>2016-09-11T10:17:27.000Z</time>
      </trkpt>
      <trkpt lat="45.56499" lon="4.03099">
        <ele>647.79998779297</ele>
        <time>2016-09-11T10:17:28.000Z</time>
      </trkpt>
      <trkpt lat="45.56505" lon="4.03105">
        <ele>649</ele>
        <time>2016-09-11T10:17:33.000Z</time>
      </trkpt>
      <trkpt lat="45.56507" lon="4.03109">
        <ele>649.79998779297</ele>
        <time>2016-09-11T10:17:36.000Z</time>
      </trkpt>
      <trkpt lat="45.56513" lon="4.03116">
        <ele>650.40002441406</ele>
        <time>2016-09-11T10:17:42.000Z</time>
      </trkpt>
      <trkpt lat="45.56514" lon="4.03117">
        <ele>650.40002441406</ele>
        <time>2016-09-11T10:17:43.000Z</time>
      </trkpt>
      <trkpt lat="45.5653" lon="4.03132">
        <ele>651.40002441406</ele>
        <time>2016-09-11T10:17:59.000Z</time>
      </trkpt>
      <trkpt lat="45.56531" lon="4.03133">
        <ele>651.40002441406</ele>
        <time>2016-09-11T10:18:00.000Z</time>
      </trkpt>
      <trkpt lat="45.56546" lon="4.03148">
        <ele>652.59997558594</ele>
        <time>2016-09-11T10:18:13.000Z</time>
      </trkpt>
      <trkpt lat="45.56559" lon="4.03167">
        <ele>653.20001220703</ele>
        <time>2016-09-11T10:18:24.000Z</time>
      </trkpt>
      <trkpt lat="45.56572" lon="4.03186">
        <ele>653</ele>
        <time>2016-09-11T10:18:38.000Z</time>
      </trkpt>
      <trkpt lat="45.56575" lon="4.0319">
        <ele>653</ele>
        <time>2016-09-11T10:18:41.000Z</time>
      </trkpt>
      <trkpt lat="45.56576" lon="4.03192">
        <ele>653</ele>
        <time>2016-09-11T10:18:42.000Z</time>
      </trkpt>
      <trkpt lat="45.56578" lon="4.03195">
        <ele>653.20001220703</ele>
        <time>2016-09-11T10:18:44.000Z</time>
      </trkpt>
      <trkpt lat="45.56586" lon="4.03218">
        <ele>656</ele>
        <time>2016-09-11T10:18:57.000Z</time>
      </trkpt>
      <trkpt lat="45.56591" lon="4.03243">
        <ele>659.59997558594</ele>
        <time>2016-09-11T10:19:10.000Z</time>
      </trkpt>
      <trkpt lat="45.56595" lon="4.03253">
        <ele>660.59997558594</ele>
        <time>2016-09-11T10:19:15.000Z</time>
      </trkpt>
      <trkpt lat="45.56595" lon="4.03254">
        <ele>661</ele>
        <time>2016-09-11T10:19:16.000Z</time>
      </trkpt>
      <trkpt lat="45.56605" lon="4.03276">
        <ele>662.59997558594</ele>
        <time>2016-09-11T10:19:26.000Z</time>
      </trkpt>
      <trkpt lat="45.56606" lon="4.03278">
        <ele>662.79998779297</ele>
        <time>2016-09-11T10:19:27.000Z</time>
      </trkpt>
      <trkpt lat="45.56606" lon="4.0328">
        <ele>663</ele>
        <time>2016-09-11T10:19:28.000Z</time>
      </trkpt>
      <trkpt lat="45.56608" lon="4.03288">
        <ele>663.59997558594</ele>
        <time>2016-09-11T10:19:32.000Z</time>
      </trkpt>
      <trkpt lat="45.56611" lon="4.03293">
        <ele>663.59997558594</ele>
        <time>2016-09-11T10:19:35.000Z</time>
      </trkpt>
      <trkpt lat="45.56618" lon="4.03311">
        <ele>664.40002441406</ele>
        <time>2016-09-11T10:19:47.000Z</time>
      </trkpt>
      <trkpt lat="45.56619" lon="4.03313">
        <ele>664.59997558594</ele>
        <time>2016-09-11T10:19:48.000Z</time>
      </trkpt>
      <trkpt lat="45.56624" lon="4.03339">
        <ele>666.79998779297</ele>
        <time>2016-09-11T10:20:01.000Z</time>
      </trkpt>
      <trkpt lat="45.56634" lon="4.0336">
        <ele>667</ele>
        <time>2016-09-11T10:20:09.000Z</time>
      </trkpt>
      <trkpt lat="45.56648" lon="4.0338">
        <ele>664</ele>
        <time>2016-09-11T10:20:14.000Z</time>
      </trkpt>
      <trkpt lat="45.56659" lon="4.03394">
        <ele>661.79998779297</ele>
        <time>2016-09-11T10:20:17.000Z</time>
      </trkpt>
      <trkpt lat="45.56665" lon="4.03403">
        <ele>660.20001220703</ele>
        <time>2016-09-11T10:20:19.000Z</time>
      </trkpt>
      <trkpt lat="45.56673" lon="4.03412">
        <ele>658.59997558594</ele>
        <time>2016-09-11T10:20:21.000Z</time>
      </trkpt>
      <trkpt lat="45.56687" lon="4.03438">
        <ele>655.79998779297</ele>
        <time>2016-09-11T10:20:25.000Z</time>
      </trkpt>
      <trkpt lat="45.56691" lon="4.03467">
        <ele>655.40002441406</ele>
        <time>2016-09-11T10:20:29.000Z</time>
      </trkpt>
      <trkpt lat="45.56689" lon="4.03494">
        <ele>657.20001220703</ele>
        <time>2016-09-11T10:20:33.000Z</time>
      </trkpt>
      <trkpt lat="45.56686" lon="4.03523">
        <ele>657.59997558594</ele>
        <time>2016-09-11T10:20:38.000Z</time>
      </trkpt>
      <trkpt lat="45.56686" lon="4.03526">
        <ele>657.79998779297</ele>
        <time>2016-09-11T10:20:39.000Z</time>
      </trkpt>
      <trkpt lat="45.56685" lon="4.03529">
        <ele>658</ele>
        <time>2016-09-11T10:20:40.000Z</time>
      </trkpt>
      <trkpt lat="45.56685" lon="4.03559">
        <ele>658.59997558594</ele>
        <time>2016-09-11T10:20:46.000Z</time>
      </trkpt>
      <trkpt lat="45.56684" lon="4.03577">
        <ele>659.20001220703</ele>
        <time>2016-09-11T10:20:49.000Z</time>
      </trkpt>
      <trkpt lat="45.56684" lon="4.03584">
        <ele>659.20001220703</ele>
        <time>2016-09-11T10:20:50.000Z</time>
      </trkpt>
      <trkpt lat="45.56685" lon="4.03615">
        <ele>658.59997558594</ele>
        <time>2016-09-11T10:20:54.000Z</time>
      </trkpt>
      <trkpt lat="45.56685" lon="4.03623">
        <ele>658.20001220703</ele>
        <time>2016-09-11T10:20:55.000Z</time>
      </trkpt>
      <trkpt lat="45.56684" lon="4.03631">
        <ele>658</ele>
        <time>2016-09-11T10:20:56.000Z</time>
      </trkpt>
      <trkpt lat="45.56683" lon="4.03656">
        <ele>657.40002441406</ele>
        <time>2016-09-11T10:20:59.000Z</time>
      </trkpt>
      <trkpt lat="45.56672" lon="4.03687">
        <ele>657.20001220703</ele>
        <time>2016-09-11T10:21:03.000Z</time>
      </trkpt>
      <trkpt lat="45.56655" lon="4.03707">
        <ele>657.59997558594</ele>
        <time>2016-09-11T10:21:06.000Z</time>
      </trkpt>
      <trkpt lat="45.56635" lon="4.03716">
        <ele>657.79998779297</ele>
        <time>2016-09-11T10:21:09.000Z</time>
      </trkpt>
      <trkpt lat="45.56615" lon="4.03716">
        <ele>660</ele>
        <time>2016-09-11T10:21:12.000Z</time>
      </trkpt>
      <trkpt lat="45.56608" lon="4.03716">
        <ele>660.79998779297</ele>
        <time>2016-09-11T10:21:13.000Z</time>
      </trkpt>
      <trkpt lat="45.56601" lon="4.03716">
        <ele>661.59997558594</ele>
        <time>2016-09-11T10:21:14.000Z</time>
      </trkpt>
      <trkpt lat="45.56578" lon="4.03723">
        <ele>662.20001220703</ele>
        <time>2016-09-11T10:21:17.000Z</time>
      </trkpt>
      <trkpt lat="45.56557" lon="4.03738">
        <ele>658.59997558594</ele>
        <time>2016-09-11T10:21:20.000Z</time>
      </trkpt>
      <trkpt lat="45.56536" lon="4.03752">
        <ele>655.40002441406</ele>
        <time>2016-09-11T10:21:23.000Z</time>
      </trkpt>
      <trkpt lat="45.56523" lon="4.03762">
        <ele>653.59997558594</ele>
        <time>2016-09-11T10:21:25.000Z</time>
      </trkpt>
      <trkpt lat="45.56517" lon="4.03767">
        <ele>652.79998779297</ele>
        <time>2016-09-11T10:21:26.000Z</time>
      </trkpt>
      <trkpt lat="45.565" lon="4.03781">
        <ele>651.40002441406</ele>
        <time>2016-09-11T10:21:29.000Z</time>
      </trkpt>
      <trkpt lat="45.56484" lon="4.03795">
        <ele>650.59997558594</ele>
        <time>2016-09-11T10:21:32.000Z</time>
      </trkpt>
      <trkpt lat="45.5647" lon="4.03813">
        <ele>651.20001220703</ele>
        <time>2016-09-11T10:21:36.000Z</time>
      </trkpt>
      <trkpt lat="45.56469" lon="4.03826">
        <ele>650</ele>
        <time>2016-09-11T10:21:39.000Z</time>
      </trkpt>
      <trkpt lat="45.56469" lon="4.0383">
        <ele>649.59997558594</ele>
        <time>2016-09-11T10:21:40.000Z</time>
      </trkpt>
      <trkpt lat="45.56469" lon="4.03844">
        <ele>648.20001220703</ele>
        <time>2016-09-11T10:21:44.000Z</time>
      </trkpt>
      <trkpt lat="45.5647" lon="4.03847">
        <ele>647.79998779297</ele>
        <time>2016-09-11T10:21:45.000Z</time>
      </trkpt>
      <trkpt lat="45.56472" lon="4.03859">
        <ele>646.40002441406</ele>
        <time>2016-09-11T10:21:48.000Z</time>
      </trkpt>
      <trkpt lat="45.56475" lon="4.03873">
        <ele>646.20001220703</ele>
        <time>2016-09-11T10:21:51.000Z</time>
      </trkpt>
      <trkpt lat="45.56484" lon="4.03898">
        <ele>645.40002441406</ele>
        <time>2016-09-11T10:21:56.000Z</time>
      </trkpt>
      <trkpt lat="45.56489" lon="4.03923">
        <ele>645</ele>
        <time>2016-09-11T10:22:00.000Z</time>
      </trkpt>
      <trkpt lat="45.56492" lon="4.03933">
        <ele>644.59997558594</ele>
        <time>2016-09-11T10:22:02.000Z</time>
      </trkpt>
      <trkpt lat="45.56497" lon="4.03953">
        <ele>644</ele>
        <time>2016-09-11T10:22:06.000Z</time>
      </trkpt>
      <trkpt lat="45.565" lon="4.03965">
        <ele>643.79998779297</ele>
        <time>2016-09-11T10:22:08.000Z</time>
      </trkpt>
      <trkpt lat="45.56502" lon="4.03977">
        <ele>643.40002441406</ele>
        <time>2016-09-11T10:22:10.000Z</time>
      </trkpt>
      <trkpt lat="45.56504" lon="4.04004">
        <ele>643.20001220703</ele>
        <time>2016-09-11T10:22:14.000Z</time>
      </trkpt>
      <trkpt lat="45.56505" lon="4.04019">
        <ele>643.20001220703</ele>
        <time>2016-09-11T10:22:16.000Z</time>
      </trkpt>
      <trkpt lat="45.56505" lon="4.04034">
        <ele>642.59997558594</ele>
        <time>2016-09-11T10:22:18.000Z</time>
      </trkpt>
      <trkpt lat="45.56501" lon="4.04062">
        <ele>641.79998779297</ele>
        <time>2016-09-11T10:22:22.000Z</time>
      </trkpt>
      <trkpt lat="45.56487" lon="4.04078">
        <ele>643</ele>
        <time>2016-09-11T10:22:26.000Z</time>
      </trkpt>
      <trkpt lat="45.56476" lon="4.0409">
        <ele>643.79998779297</ele>
        <time>2016-09-11T10:22:30.000Z</time>
      </trkpt>
      <trkpt lat="45.56474" lon="4.04092">
        <ele>644</ele>
        <time>2016-09-11T10:22:31.000Z</time>
      </trkpt>
      <trkpt lat="45.56455" lon="4.04107">
        <ele>645.20001220703</ele>
        <time>2016-09-11T10:22:37.000Z</time>
      </trkpt>
      <trkpt lat="45.56451" lon="4.0411">
        <ele>645.40002441406</ele>
        <time>2016-09-11T10:22:38.000Z</time>
      </trkpt>
      <trkpt lat="45.56448" lon="4.04112">
        <ele>645.40002441406</ele>
        <time>2016-09-11T10:22:39.000Z</time>
      </trkpt>
      <trkpt lat="45.56436" lon="4.04117">
        <ele>646.20001220703</ele>
        <time>2016-09-11T10:22:42.000Z</time>
      </trkpt>
      <trkpt lat="45.56424" lon="4.04121">
        <ele>647</ele>
        <time>2016-09-11T10:22:45.000Z</time>
      </trkpt>
      <trkpt lat="45.56405" lon="4.04127">
        <ele>648.20001220703</ele>
        <time>2016-09-11T10:22:50.000Z</time>
      </trkpt>
      <trkpt lat="45.56385" lon="4.04133">
        <ele>648.59997558594</ele>
        <time>2016-09-11T10:22:55.000Z</time>
      </trkpt>
      <trkpt lat="45.56367" lon="4.04143">
        <ele>648.79998779297</ele>
        <time>2016-09-11T10:23:00.000Z</time>
      </trkpt>
      <trkpt lat="45.56357" lon="4.0415">
        <ele>648.79998779297</ele>
        <time>2016-09-11T10:23:03.000Z</time>
      </trkpt>
      <trkpt lat="45.56353" lon="4.04153">
        <ele>648.59997558594</ele>
        <time>2016-09-11T10:23:04.000Z</time>
      </trkpt>
      <trkpt lat="45.56345" lon="4.04165">
        <ele>648.59997558594</ele>
        <time>2016-09-11T10:23:13.000Z</time>
      </trkpt>
      <trkpt lat="45.56328" lon="4.04175">
        <ele>650</ele>
        <time>2016-09-11T10:23:22.000Z</time>
      </trkpt>
      <trkpt lat="45.56324" lon="4.04181">
        <ele>650</ele>
        <time>2016-09-11T10:23:24.000Z</time>
      </trkpt>
      <trkpt lat="45.56322" lon="4.04184">
        <ele>650.20001220703</ele>
        <time>2016-09-11T10:23:25.000Z</time>
      </trkpt>
      <trkpt lat="45.56319" lon="4.04189">
        <ele>650.20001220703</ele>
        <time>2016-09-11T10:23:27.000Z</time>
      </trkpt>
      <trkpt lat="45.56311" lon="4.04199">
        <ele>650.40002441406</ele>
        <time>2016-09-11T10:23:31.000Z</time>
      </trkpt>
      <trkpt lat="45.56309" lon="4.04203">
        <ele>650.40002441406</ele>
        <time>2016-09-11T10:23:32.000Z</time>
      </trkpt>
      <trkpt lat="45.56296" lon="4.04221">
        <ele>650.79998779297</ele>
        <time>2016-09-11T10:23:37.000Z</time>
      </trkpt>
      <trkpt lat="45.56287" lon="4.0423">
        <ele>651.20001220703</ele>
        <time>2016-09-11T10:23:40.000Z</time>
      </trkpt>
      <trkpt lat="45.56285" lon="4.04234">
        <ele>651.20001220703</ele>
        <time>2016-09-11T10:23:41.000Z</time>
      </trkpt>
      <trkpt lat="45.56275" lon="4.04257">
        <ele>650.79998779297</ele>
        <time>2016-09-11T10:23:47.000Z</time>
      </trkpt>
      <trkpt lat="45.56275" lon="4.04262">
        <ele>650.59997558594</ele>
        <time>2016-09-11T10:23:48.000Z</time>
      </trkpt>
      <trkpt lat="45.56275" lon="4.04268">
        <ele>650.20001220703</ele>
        <time>2016-09-11T10:23:49.000Z</time>
      </trkpt>
      <trkpt lat="45.56283" lon="4.04291">
        <ele>648.20001220703</ele>
        <time>2016-09-11T10:23:53.000Z</time>
      </trkpt>
      <trkpt lat="45.56286" lon="4.04299">
        <ele>647.59997558594</ele>
        <time>2016-09-11T10:23:54.000Z</time>
      </trkpt>
      <trkpt lat="45.56291" lon="4.04326">
        <ele>645.59997558594</ele>
        <time>2016-09-11T10:23:57.000Z</time>
      </trkpt>
      <trkpt lat="45.56292" lon="4.04355">
        <ele>644</ele>
        <time>2016-09-11T10:24:01.000Z</time>
      </trkpt>
      <trkpt lat="45.56293" lon="4.04359">
        <ele>643.59997558594</ele>
        <time>2016-09-11T10:24:02.000Z</time>
      </trkpt>
      <trkpt lat="45.56309" lon="4.0437">
        <ele>641.59997558594</ele>
        <time>2016-09-11T10:24:07.000Z</time>
      </trkpt>
      <trkpt lat="45.56315" lon="4.04371">
        <ele>641</ele>
        <time>2016-09-11T10:24:08.000Z</time>
      </trkpt>
      <trkpt lat="45.56321" lon="4.04371">
        <ele>640.40002441406</ele>
        <time>2016-09-11T10:24:09.000Z</time>
      </trkpt>
      <trkpt lat="45.56344" lon="4.0436">
        <ele>638.40002441406</ele>
        <time>2016-09-11T10:24:13.000Z</time>
      </trkpt>
      <trkpt lat="45.56358" lon="4.04341">
        <ele>637.59997558594</ele>
        <time>2016-09-11T10:24:16.000Z</time>
      </trkpt>
      <trkpt lat="45.56371" lon="4.0432">
        <ele>637</ele>
        <time>2016-09-11T10:24:19.000Z</time>
      </trkpt>
      <trkpt lat="45.56387" lon="4.04295">
        <ele>636</ele>
        <time>2016-09-11T10:24:23.000Z</time>
      </trkpt>
      <trkpt lat="45.56405" lon="4.04285">
        <ele>635</ele>
        <time>2016-09-11T10:24:26.000Z</time>
      </trkpt>
      <trkpt lat="45.56412" lon="4.04283">
        <ele>634.59997558594</ele>
        <time>2016-09-11T10:24:27.000Z</time>
      </trkpt>
      <trkpt lat="45.56426" lon="4.04278">
        <ele>634</ele>
        <time>2016-09-11T10:24:29.000Z</time>
      </trkpt>
      <trkpt lat="45.56444" lon="4.04273">
        <ele>633</ele>
        <time>2016-09-11T10:24:32.000Z</time>
      </trkpt>
      <trkpt lat="45.56458" lon="4.04287">
        <ele>631.20001220703</ele>
        <time>2016-09-11T10:24:36.000Z</time>
      </trkpt>
      <trkpt lat="45.56466" lon="4.043">
        <ele>630</ele>
        <time>2016-09-11T10:24:38.000Z</time>
      </trkpt>
      <trkpt lat="45.56481" lon="4.0432">
        <ele>628.20001220703</ele>
        <time>2016-09-11T10:24:41.000Z</time>
      </trkpt>
      <trkpt lat="45.56501" lon="4.04334">
        <ele>626.20001220703</ele>
        <time>2016-09-11T10:24:45.000Z</time>
      </trkpt>
      <trkpt lat="45.56521" lon="4.04335">
        <ele>625</ele>
        <time>2016-09-11T10:24:48.000Z</time>
      </trkpt>
      <trkpt lat="45.56541" lon="4.04332">
        <ele>624</ele>
        <time>2016-09-11T10:24:51.000Z</time>
      </trkpt>
      <trkpt lat="45.56549" lon="4.04331">
        <ele>623.79998779297</ele>
        <time>2016-09-11T10:24:52.000Z</time>
      </trkpt>
      <trkpt lat="45.56563" lon="4.04328">
        <ele>623.40002441406</ele>
        <time>2016-09-11T10:24:54.000Z</time>
      </trkpt>
      <trkpt lat="45.56583" lon="4.04321">
        <ele>622.79998779297</ele>
        <time>2016-09-11T10:24:57.000Z</time>
      </trkpt>
      <trkpt lat="45.56604" lon="4.04323">
        <ele>621.59997558594</ele>
        <time>2016-09-11T10:25:00.000Z</time>
      </trkpt>
      <trkpt lat="45.56624" lon="4.04328">
        <ele>619.79998779297</ele>
        <time>2016-09-11T10:25:03.000Z</time>
      </trkpt>
      <trkpt lat="45.56644" lon="4.04328">
        <ele>618.59997558594</ele>
        <time>2016-09-11T10:25:06.000Z</time>
      </trkpt>
      <trkpt lat="45.56656" lon="4.04329">
        <ele>617.79998779297</ele>
        <time>2016-09-11T10:25:08.000Z</time>
      </trkpt>
      <trkpt lat="45.56667" lon="4.04329">
        <ele>617</ele>
        <time>2016-09-11T10:25:10.000Z</time>
      </trkpt>
      <trkpt lat="45.56687" lon="4.04329">
        <ele>615.79998779297</ele>
        <time>2016-09-11T10:25:14.000Z</time>
      </trkpt>
      <trkpt lat="45.56698" lon="4.04329">
        <ele>615.20001220703</ele>
        <time>2016-09-11T10:25:16.000Z</time>
      </trkpt>
      <trkpt lat="45.56703" lon="4.04329">
        <ele>614.79998779297</ele>
        <time>2016-09-11T10:25:17.000Z</time>
      </trkpt>
      <trkpt lat="45.56726" lon="4.04333">
        <ele>613.20001220703</ele>
        <time>2016-09-11T10:25:21.000Z</time>
      </trkpt>
      <trkpt lat="45.56743" lon="4.04345">
        <ele>611.79998779297</ele>
        <time>2016-09-11T10:25:24.000Z</time>
      </trkpt>
      <trkpt lat="45.56748" lon="4.04349">
        <ele>611.40002441406</ele>
        <time>2016-09-11T10:25:25.000Z</time>
      </trkpt>
      <trkpt lat="45.56766" lon="4.0436">
        <ele>610</ele>
        <time>2016-09-11T10:25:28.000Z</time>
      </trkpt>
      <trkpt lat="45.56773" lon="4.04364">
        <ele>609.79998779297</ele>
        <time>2016-09-11T10:25:29.000Z</time>
      </trkpt>
      <trkpt lat="45.56785" lon="4.0437">
        <ele>609</ele>
        <time>2016-09-11T10:25:31.000Z</time>
      </trkpt>
      <trkpt lat="45.56804" lon="4.04377">
        <ele>607.79998779297</ele>
        <time>2016-09-11T10:25:34.000Z</time>
      </trkpt>
      <trkpt lat="45.5681" lon="4.04379">
        <ele>607.59997558594</ele>
        <time>2016-09-11T10:25:35.000Z</time>
      </trkpt>
      <trkpt lat="45.56815" lon="4.04381">
        <ele>607.40002441406</ele>
        <time>2016-09-11T10:25:36.000Z</time>
      </trkpt>
      <trkpt lat="45.56835" lon="4.0439">
        <ele>606.40002441406</ele>
        <time>2016-09-11T10:25:40.000Z</time>
      </trkpt>
      <trkpt lat="45.56854" lon="4.04404">
        <ele>605.40002441406</ele>
        <time>2016-09-11T10:25:44.000Z</time>
      </trkpt>
      <trkpt lat="45.56862" lon="4.04413">
        <ele>605</ele>
        <time>2016-09-11T10:25:46.000Z</time>
      </trkpt>
      <trkpt lat="45.56867" lon="4.04417">
        <ele>604.79998779297</ele>
        <time>2016-09-11T10:25:47.000Z</time>
      </trkpt>
      <trkpt lat="45.56889" lon="4.04429">
        <ele>603.59997558594</ele>
        <time>2016-09-11T10:25:51.000Z</time>
      </trkpt>
      <trkpt lat="45.56909" lon="4.04437">
        <ele>602.79998779297</ele>
        <time>2016-09-11T10:25:54.000Z</time>
      </trkpt>
      <trkpt lat="45.56923" lon="4.04443">
        <ele>602.20001220703</ele>
        <time>2016-09-11T10:25:56.000Z</time>
      </trkpt>
      <trkpt lat="45.56942" lon="4.04454">
        <ele>601</ele>
        <time>2016-09-11T10:25:59.000Z</time>
      </trkpt>
      <trkpt lat="45.5696" lon="4.04467">
        <ele>599.79998779297</ele>
        <time>2016-09-11T10:26:02.000Z</time>
      </trkpt>
      <trkpt lat="45.56966" lon="4.04471">
        <ele>599.40002441406</ele>
        <time>2016-09-11T10:26:03.000Z</time>
      </trkpt>
      <trkpt lat="45.56981" lon="4.04476">
        <ele>597.40002441406</ele>
        <time>2016-09-11T10:26:06.000Z</time>
      </trkpt>
      <trkpt lat="45.56991" lon="4.04479">
        <ele>596</ele>
        <time>2016-09-11T10:26:08.000Z</time>
      </trkpt>
      <trkpt lat="45.57011" lon="4.04489">
        <ele>593.20001220703</ele>
        <time>2016-09-11T10:26:12.000Z</time>
      </trkpt>
      <trkpt lat="45.57033" lon="4.045">
        <ele>589.59997558594</ele>
        <time>2016-09-11T10:26:16.000Z</time>
      </trkpt>
      <trkpt lat="45.57038" lon="4.04503">
        <ele>588.79998779297</ele>
        <time>2016-09-11T10:26:17.000Z</time>
      </trkpt>
      <trkpt lat="45.57055" lon="4.04519">
        <ele>585.59997558594</ele>
        <time>2016-09-11T10:26:21.000Z</time>
      </trkpt>
      <trkpt lat="45.57072" lon="4.04528">
        <ele>581.20001220703</ele>
        <time>2016-09-11T10:26:27.000Z</time>
      </trkpt>
      <trkpt lat="45.57086" lon="4.04508">
        <ele>576.59997558594</ele>
        <time>2016-09-11T10:26:34.000Z</time>
      </trkpt>
      <trkpt lat="45.57097" lon="4.04483">
        <ele>572.20001220703</ele>
        <time>2016-09-11T10:26:40.000Z</time>
      </trkpt>
      <trkpt lat="45.57104" lon="4.04466">
        <ele>568.59997558594</ele>
        <time>2016-09-11T10:26:43.000Z</time>
      </trkpt>
      <trkpt lat="45.57107" lon="4.04459">
        <ele>567.20001220703</ele>
        <time>2016-09-11T10:26:44.000Z</time>
      </trkpt>
      <trkpt lat="45.57114" lon="4.04431">
        <ele>561.79998779297</ele>
        <time>2016-09-11T10:26:48.000Z</time>
      </trkpt>
      <trkpt lat="45.57121" lon="4.04405">
        <ele>557.59997558594</ele>
        <time>2016-09-11T10:26:53.000Z</time>
      </trkpt>
      <trkpt lat="45.57126" lon="4.04377">
        <ele>554</ele>
        <time>2016-09-11T10:26:57.000Z</time>
      </trkpt>
      <trkpt lat="45.57128" lon="4.04348">
        <ele>551.59997558594</ele>
        <time>2016-09-11T10:27:01.000Z</time>
      </trkpt>
      <trkpt lat="45.57121" lon="4.04323">
        <ele>553</ele>
        <time>2016-09-11T10:27:06.000Z</time>
      </trkpt>
      <trkpt lat="45.57115" lon="4.04297">
        <ele>554</ele>
        <time>2016-09-11T10:27:11.000Z</time>
      </trkpt>
      <trkpt lat="45.57114" lon="4.04293">
        <ele>554.20001220703</ele>
        <time>2016-09-11T10:27:12.000Z</time>
      </trkpt>
      <trkpt lat="45.57124" lon="4.04276">
        <ele>551</ele>
        <time>2016-09-11T10:27:23.000Z</time>
      </trkpt>
      <trkpt lat="45.57135" lon="4.0428">
        <ele>548.20001220703</ele>
        <time>2016-09-11T10:27:27.000Z</time>
      </trkpt>
      <trkpt lat="45.57138" lon="4.04281">
        <ele>548.20001220703</ele>
        <time>2016-09-11T10:27:28.000Z</time>
      </trkpt>
      <trkpt lat="45.57154" lon="4.04294">
        <ele>549.40002441406</ele>
        <time>2016-09-11T10:27:37.000Z</time>
      </trkpt>
      <trkpt lat="45.57174" lon="4.04298">
        <ele>551.40002441406</ele>
        <time>2016-09-11T10:27:49.000Z</time>
      </trkpt>
      <trkpt lat="45.57182" lon="4.04304">
        <ele>552.20001220703</ele>
        <time>2016-09-11T10:27:59.000Z</time>
      </trkpt>
      <trkpt lat="45.57184" lon="4.04305">
        <ele>552.20001220703</ele>
        <time>2016-09-11T10:28:01.000Z</time>
      </trkpt>
      <trkpt lat="45.57193" lon="4.04311">
        <ele>553</ele>
        <time>2016-09-11T10:28:06.000Z</time>
      </trkpt>
      <trkpt lat="45.57195" lon="4.04312">
        <ele>553.20001220703</ele>
        <time>2016-09-11T10:28:07.000Z</time>
      </trkpt>
      <trkpt lat="45.57215" lon="4.04315">
        <ele>555.20001220703</ele>
        <time>2016-09-11T10:28:15.000Z</time>
      </trkpt>
      <trkpt lat="45.57232" lon="4.04322">
        <ele>558.59997558594</ele>
        <time>2016-09-11T10:28:25.000Z</time>
      </trkpt>
      <trkpt lat="45.57242" lon="4.04332">
        <ele>560.40002441406</ele>
        <time>2016-09-11T10:28:32.000Z</time>
      </trkpt>
      <trkpt lat="45.57243" lon="4.04334">
        <ele>560.59997558594</ele>
        <time>2016-09-11T10:28:33.000Z</time>
      </trkpt>
      <trkpt lat="45.57247" lon="4.04341">
        <ele>561.40002441406</ele>
        <time>2016-09-11T10:28:37.000Z</time>
      </trkpt>
      <trkpt lat="45.57254" lon="4.04366">
        <ele>561.59997558594</ele>
        <time>2016-09-11T10:28:47.000Z</time>
      </trkpt>
      <trkpt lat="45.57262" lon="4.04391">
        <ele>561.40002441406</ele>
        <time>2016-09-11T10:28:56.000Z</time>
      </trkpt>
      <trkpt lat="45.57266" lon="4.04403">
        <ele>561.20001220703</ele>
        <time>2016-09-11T10:28:59.000Z</time>
      </trkpt>
      <trkpt lat="45.57268" lon="4.04408">
        <ele>561.20001220703</ele>
        <time>2016-09-11T10:29:00.000Z</time>
      </trkpt>
      <trkpt lat="45.57278" lon="4.04435">
        <ele>562.20001220703</ele>
        <time>2016-09-11T10:29:06.000Z</time>
      </trkpt>
      <trkpt lat="45.57289" lon="4.04461">
        <ele>561.79998779297</ele>
        <time>2016-09-11T10:29:11.000Z</time>
      </trkpt>
      <trkpt lat="45.573" lon="4.04484">
        <ele>561.20001220703</ele>
        <time>2016-09-11T10:29:15.000Z</time>
      </trkpt>
      <trkpt lat="45.57302" lon="4.04488">
        <ele>561.20001220703</ele>
        <time>2016-09-11T10:29:16.000Z</time>
      </trkpt>
      <trkpt lat="45.5731" lon="4.04511">
        <ele>559.79998779297</ele>
        <time>2016-09-11T10:29:20.000Z</time>
      </trkpt>
      <trkpt lat="45.57311" lon="4.04518">
        <ele>559.40002441406</ele>
        <time>2016-09-11T10:29:21.000Z</time>
      </trkpt>
      <trkpt lat="45.57322" lon="4.04545">
        <ele>559</ele>
        <time>2016-09-11T10:29:26.000Z</time>
      </trkpt>
      <trkpt lat="45.57326" lon="4.04557">
        <ele>558.59997558594</ele>
        <time>2016-09-11T10:29:28.000Z</time>
      </trkpt>
      <trkpt lat="45.57329" lon="4.04564">
        <ele>558.40002441406</ele>
        <time>2016-09-11T10:29:29.000Z</time>
      </trkpt>
      <trkpt lat="45.57336" lon="4.0459">
        <ele>557.20001220703</ele>
        <time>2016-09-11T10:29:32.000Z</time>
      </trkpt>
      <trkpt lat="45.57344" lon="4.04611">
        <ele>556.79998779297</ele>
        <time>2016-09-11T10:29:35.000Z</time>
      </trkpt>
      <trkpt lat="45.57347" lon="4.04616">
        <ele>557</ele>
        <time>2016-09-11T10:29:36.000Z</time>
      </trkpt>
      <trkpt lat="45.57358" lon="4.04638">
        <ele>559</ele>
        <time>2016-09-11T10:29:44.000Z</time>
      </trkpt>
      <trkpt lat="45.57369" lon="4.0466">
        <ele>560.59997558594</ele>
        <time>2016-09-11T10:30:00.000Z</time>
      </trkpt>
      <trkpt lat="45.5737" lon="4.04662">
        <ele>560.79998779297</ele>
        <time>2016-09-11T10:30:02.000Z</time>
      </trkpt>
      <trkpt lat="45.57371" lon="4.04664">
        <ele>560.79998779297</ele>
        <time>2016-09-11T10:30:03.000Z</time>
      </trkpt>
      <trkpt lat="45.57373" lon="4.04669">
        <ele>561.20001220703</ele>
        <time>2016-09-11T10:30:08.000Z</time>
      </trkpt>
      <trkpt lat="45.57374" lon="4.0467">
        <ele>561.20001220703</ele>
        <time>2016-09-11T10:30:09.000Z</time>
      </trkpt>
      <trkpt lat="45.57376" lon="4.04675">
        <ele>561.59997558594</ele>
        <time>2016-09-11T10:30:15.000Z</time>
      </trkpt>
      <trkpt lat="45.57379" lon="4.04682">
        <ele>562</ele>
        <time>2016-09-11T10:30:22.000Z</time>
      </trkpt>
      <trkpt lat="45.5738" lon="4.04687">
        <ele>562.20001220703</ele>
        <time>2016-09-11T10:30:32.000Z</time>
      </trkpt>
      <trkpt lat="45.57389" lon="4.04711">
        <ele>563.79998779297</ele>
        <time>2016-09-11T10:30:45.000Z</time>
      </trkpt>
      <trkpt lat="45.57398" lon="4.04732">
        <ele>565.79998779297</ele>
        <time>2016-09-11T10:30:57.000Z</time>
      </trkpt>
      <trkpt lat="45.57399" lon="4.04735">
        <ele>565.79998779297</ele>
        <time>2016-09-11T10:30:58.000Z</time>
      </trkpt>
      <trkpt lat="45.574" lon="4.04739">
        <ele>566.20001220703</ele>
        <time>2016-09-11T10:31:00.000Z</time>
      </trkpt>
      <trkpt lat="45.57408" lon="4.04762">
        <ele>567.79998779297</ele>
        <time>2016-09-11T10:31:12.000Z</time>
      </trkpt>
      <trkpt lat="45.57415" lon="4.04774">
        <ele>569</ele>
        <time>2016-09-11T10:31:18.000Z</time>
      </trkpt>
      <trkpt lat="45.57416" lon="4.04776">
        <ele>569.20001220703</ele>
        <time>2016-09-11T10:31:19.000Z</time>
      </trkpt>
      <trkpt lat="45.57428" lon="4.04794">
        <ele>570.79998779297</ele>
        <time>2016-09-11T10:31:30.000Z</time>
      </trkpt>
      <trkpt lat="45.57432" lon="4.04801">
        <ele>571.40002441406</ele>
        <time>2016-09-11T10:31:33.000Z</time>
      </trkpt>
      <trkpt lat="45.57434" lon="4.04805">
        <ele>571.59997558594</ele>
        <time>2016-09-11T10:31:35.000Z</time>
      </trkpt>
      <trkpt lat="45.57438" lon="4.04814">
        <ele>572</ele>
        <time>2016-09-11T10:31:38.000Z</time>
      </trkpt>
      <trkpt lat="45.5744" lon="4.04823">
        <ele>572.20001220703</ele>
        <time>2016-09-11T10:31:41.000Z</time>
      </trkpt>
      <trkpt lat="45.57443" lon="4.04851">
        <ele>572.79998779297</ele>
        <time>2016-09-11T10:31:50.000Z</time>
      </trkpt>
      <trkpt lat="45.57443" lon="4.04854">
        <ele>573</ele>
        <time>2016-09-11T10:31:51.000Z</time>
      </trkpt>
      <trkpt lat="45.57443" lon="4.04857">
        <ele>573</ele>
        <time>2016-09-11T10:31:52.000Z</time>
      </trkpt>
      <trkpt lat="45.57435" lon="4.04879">
        <ele>573</ele>
        <time>2016-09-11T10:32:02.000Z</time>
      </trkpt>
      <trkpt lat="45.57418" lon="4.04892">
        <ele>571.59997558594</ele>
        <time>2016-09-11T10:32:12.000Z</time>
      </trkpt>
      <trkpt lat="45.57406" lon="4.04906">
        <ele>571.79998779297</ele>
        <time>2016-09-11T10:32:21.000Z</time>
      </trkpt>
      <trkpt lat="45.57405" lon="4.04908">
        <ele>571.79998779297</ele>
        <time>2016-09-11T10:32:22.000Z</time>
      </trkpt>
      <trkpt lat="45.57392" lon="4.04922">
        <ele>571.79998779297</ele>
        <time>2016-09-11T10:32:32.000Z</time>
      </trkpt>
      <trkpt lat="45.57389" lon="4.04923">
        <ele>571.79998779297</ele>
        <time>2016-09-11T10:32:34.000Z</time>
      </trkpt>
      <trkpt lat="45.57372" lon="4.04932">
        <ele>571</ele>
        <time>2016-09-11T10:32:45.000Z</time>
      </trkpt>
      <trkpt lat="45.57354" lon="4.04943">
        <ele>571.20001220703</ele>
        <time>2016-09-11T10:32:54.000Z</time>
      </trkpt>
      <trkpt lat="45.57369" lon="4.04949">
        <ele>572.20001220703</ele>
        <time>2016-09-11T10:33:06.000Z</time>
      </trkpt>
      <trkpt lat="45.57377" lon="4.04949">
        <ele>572.59997558594</ele>
        <time>2016-09-11T10:33:10.000Z</time>
      </trkpt>
      <trkpt lat="45.57378" lon="4.04949">
        <ele>572.79998779297</ele>
        <time>2016-09-11T10:33:11.000Z</time>
      </trkpt>
      <trkpt lat="45.57396" lon="4.04955">
        <ele>573.79998779297</ele>
        <time>2016-09-11T10:33:22.000Z</time>
      </trkpt>
      <trkpt lat="45.574" lon="4.04955">
        <ele>574.20001220703</ele>
        <time>2016-09-11T10:33:24.000Z</time>
      </trkpt>
      <trkpt lat="45.57402" lon="4.04956">
        <ele>574.20001220703</ele>
        <time>2016-09-11T10:33:25.000Z</time>
      </trkpt>
      <trkpt lat="45.5741" lon="4.04958">
        <ele>575</ele>
        <time>2016-09-11T10:33:29.000Z</time>
      </trkpt>
      <trkpt lat="45.57428" lon="4.04963">
        <ele>576.40002441406</ele>
        <time>2016-09-11T10:33:36.000Z</time>
      </trkpt>
      <trkpt lat="45.5743" lon="4.04963">
        <ele>576.59997558594</ele>
        <time>2016-09-11T10:33:37.000Z</time>
      </trkpt>
      <trkpt lat="45.57443" lon="4.04961">
        <ele>577.79998779297</ele>
        <time>2016-09-11T10:33:45.000Z</time>
      </trkpt>
      <trkpt lat="45.57445" lon="4.0496">
        <ele>577.79998779297</ele>
        <time>2016-09-11T10:33:46.000Z</time>
      </trkpt>
      <trkpt lat="45.57451" lon="4.04959">
        <ele>578.40002441406</ele>
        <time>2016-09-11T10:33:49.000Z</time>
      </trkpt>
      <trkpt lat="45.57466" lon="4.04958">
        <ele>579.59997558594</ele>
        <time>2016-09-11T10:33:56.000Z</time>
      </trkpt>
      <trkpt lat="45.57468" lon="4.04959">
        <ele>579.79998779297</ele>
        <time>2016-09-11T10:33:57.000Z</time>
      </trkpt>
      <trkpt lat="45.57475" lon="4.0496">
        <ele>580.59997558594</ele>
        <time>2016-09-11T10:34:00.000Z</time>
      </trkpt>
      <trkpt lat="45.57484" lon="4.04964">
        <ele>581.79998779297</ele>
        <time>2016-09-11T10:34:05.000Z</time>
      </trkpt>
      <trkpt lat="45.57486" lon="4.04964">
        <ele>582</ele>
        <time>2016-09-11T10:34:06.000Z</time>
      </trkpt>
      <trkpt lat="45.57493" lon="4.04966">
        <ele>582.79998779297</ele>
        <time>2016-09-11T10:34:10.000Z</time>
      </trkpt>
      <trkpt lat="45.57504" lon="4.04966">
        <ele>584</ele>
        <time>2016-09-11T10:34:16.000Z</time>
      </trkpt>
      <trkpt lat="45.57509" lon="4.04966">
        <ele>584.40002441406</ele>
        <time>2016-09-11T10:34:18.000Z</time>
      </trkpt>
      <trkpt lat="45.57519" lon="4.04966">
        <ele>585.40002441406</ele>
        <time>2016-09-11T10:34:22.000Z</time>
      </trkpt>
      <trkpt lat="45.5752" lon="4.04966">
        <ele>585.59997558594</ele>
        <time>2016-09-11T10:34:23.000Z</time>
      </trkpt>
      <trkpt lat="45.57539" lon="4.04972">
        <ele>587.59997558594</ele>
        <time>2016-09-11T10:34:32.000Z</time>
      </trkpt>
      <trkpt lat="45.57548" lon="4.04978">
        <ele>588.59997558594</ele>
        <time>2016-09-11T10:34:37.000Z</time>
      </trkpt>
      <trkpt lat="45.5755" lon="4.04979">
        <ele>588.79998779297</ele>
        <time>2016-09-11T10:34:38.000Z</time>
      </trkpt>
      <trkpt lat="45.57558" lon="4.04979">
        <ele>589.40002441406</ele>
        <time>2016-09-11T10:34:43.000Z</time>
      </trkpt>
      <trkpt lat="45.57559" lon="4.04978">
        <ele>589.59997558594</ele>
        <time>2016-09-11T10:34:44.000Z</time>
      </trkpt>
      <trkpt lat="45.57575" lon="4.04962">
        <ele>590.79998779297</ele>
        <time>2016-09-11T10:34:56.000Z</time>
      </trkpt>
      <trkpt lat="45.57591" lon="4.04969">
        <ele>592</ele>
        <time>2016-09-11T10:35:08.000Z</time>
      </trkpt>
      <trkpt lat="45.57598" lon="4.04991">
        <ele>592.40002441406</ele>
        <time>2016-09-11T10:35:20.000Z</time>
      </trkpt>
      <trkpt lat="45.57615" lon="4.04997">
        <ele>593.79998779297</ele>
        <time>2016-09-11T10:35:31.000Z</time>
      </trkpt>
      <trkpt lat="45.57617" lon="4.04998">
        <ele>593.79998779297</ele>
        <time>2016-09-11T10:35:32.000Z</time>
      </trkpt>
      <trkpt lat="45.57636" lon="4.05006">
        <ele>595.20001220703</ele>
        <time>2016-09-11T10:35:41.000Z</time>
      </trkpt>
      <trkpt lat="45.57646" lon="4.0501">
        <ele>595.40002441406</ele>
        <time>2016-09-11T10:35:45.000Z</time>
      </trkpt>
      <trkpt lat="45.57649" lon="4.05011">
        <ele>595.59997558594</ele>
        <time>2016-09-11T10:35:46.000Z</time>
      </trkpt>
      <trkpt lat="45.57654" lon="4.05013">
        <ele>595.59997558594</ele>
        <time>2016-09-11T10:35:48.000Z</time>
      </trkpt>
      <trkpt lat="45.5767" lon="4.0502">
        <ele>596</ele>
        <time>2016-09-11T10:35:54.000Z</time>
      </trkpt>
      <trkpt lat="45.57673" lon="4.05022">
        <ele>596</ele>
        <time>2016-09-11T10:35:55.000Z</time>
      </trkpt>
      <trkpt lat="45.57683" lon="4.05026">
        <ele>596.20001220703</ele>
        <time>2016-09-11T10:35:58.000Z</time>
      </trkpt>
      <trkpt lat="45.57697" lon="4.05033">
        <ele>595.79998779297</ele>
        <time>2016-09-11T10:36:02.000Z</time>
      </trkpt>
      <trkpt lat="45.57715" lon="4.05041">
        <ele>595.59997558594</ele>
        <time>2016-09-11T10:36:07.000Z</time>
      </trkpt>
      <trkpt lat="45.57729" lon="4.05047">
        <ele>594.59997558594</ele>
        <time>2016-09-11T10:36:11.000Z</time>
      </trkpt>
      <trkpt lat="45.57733" lon="4.05049">
        <ele>594.20001220703</ele>
        <time>2016-09-11T10:36:12.000Z</time>
      </trkpt>
      <trkpt lat="45.57746" lon="4.05056">
        <ele>592.79998779297</ele>
        <time>2016-09-11T10:36:15.000Z</time>
      </trkpt>
      <trkpt lat="45.57765" lon="4.05066">
        <ele>590.20001220703</ele>
        <time>2016-09-11T10:36:19.000Z</time>
      </trkpt>
      <trkpt lat="45.57787" lon="4.05074">
        <ele>586.79998779297</ele>
        <time>2016-09-11T10:36:24.000Z</time>
      </trkpt>
      <trkpt lat="45.57792" lon="4.05076">
        <ele>586</ele>
        <time>2016-09-11T10:36:25.000Z</time>
      </trkpt>
      <trkpt lat="45.57803" lon="4.0508">
        <ele>584.59997558594</ele>
        <time>2016-09-11T10:36:27.000Z</time>
      </trkpt>
      <trkpt lat="45.57817" lon="4.05085">
        <ele>583.40002441406</ele>
        <time>2016-09-11T10:36:30.000Z</time>
      </trkpt>
      <trkpt lat="45.57832" lon="4.05083">
        <ele>582</ele>
        <time>2016-09-11T10:36:34.000Z</time>
      </trkpt>
      <trkpt lat="45.57835" lon="4.05081">
        <ele>581.79998779297</ele>
        <time>2016-09-11T10:36:35.000Z</time>
      </trkpt>
      <trkpt lat="45.57852" lon="4.05084">
        <ele>580.40002441406</ele>
        <time>2016-09-11T10:36:42.000Z</time>
      </trkpt>
      <trkpt lat="45.57865" lon="4.051">
        <ele>579.59997558594</ele>
        <time>2016-09-11T10:36:46.000Z</time>
      </trkpt>
      <trkpt lat="45.57868" lon="4.05105">
        <ele>579.40002441406</ele>
        <time>2016-09-11T10:36:47.000Z</time>
      </trkpt>
      <trkpt lat="45.5788" lon="4.05118">
        <ele>577.79998779297</ele>
        <time>2016-09-11T10:36:50.000Z</time>
      </trkpt>
      <trkpt lat="45.57899" lon="4.05125">
        <ele>575.59997558594</ele>
        <time>2016-09-11T10:36:54.000Z</time>
      </trkpt>
      <trkpt lat="45.57903" lon="4.05127">
        <ele>575.20001220703</ele>
        <time>2016-09-11T10:36:55.000Z</time>
      </trkpt>
      <trkpt lat="45.57906" lon="4.05129">
        <ele>574.59997558594</ele>
        <time>2016-09-11T10:36:56.000Z</time>
      </trkpt>
      <trkpt lat="45.57924" lon="4.05142">
        <ele>571.79998779297</ele>
        <time>2016-09-11T10:37:02.000Z</time>
      </trkpt>
      <trkpt lat="45.57927" lon="4.05145">
        <ele>571.59997558594</ele>
        <time>2016-09-11T10:37:03.000Z</time>
      </trkpt>
      <trkpt lat="45.57928" lon="4.05147">
        <ele>571.20001220703</ele>
        <time>2016-09-11T10:37:04.000Z</time>
      </trkpt>
      <trkpt lat="45.57947" lon="4.05163">
        <ele>568.40002441406</ele>
        <time>2016-09-11T10:37:10.000Z</time>
      </trkpt>
      <trkpt lat="45.57965" lon="4.05165">
        <ele>565.79998779297</ele>
        <time>2016-09-11T10:37:14.000Z</time>
      </trkpt>
      <trkpt lat="45.5797" lon="4.05166">
        <ele>565</ele>
        <time>2016-09-11T10:37:15.000Z</time>
      </trkpt>
      <trkpt lat="45.57989" lon="4.05161">
        <ele>562.40002441406</ele>
        <time>2016-09-11T10:37:22.000Z</time>
      </trkpt>
      <trkpt lat="45.58009" lon="4.05153">
        <ele>559.59997558594</ele>
        <time>2016-09-11T10:37:29.000Z</time>
      </trkpt>
      <trkpt lat="45.58029" lon="4.05171">
        <ele>556.59997558594</ele>
        <time>2016-09-11T10:37:34.000Z</time>
      </trkpt>
      <trkpt lat="45.58045" lon="4.05186">
        <ele>554</ele>
        <time>2016-09-11T10:37:39.000Z</time>
      </trkpt>
      <trkpt lat="45.58061" lon="4.05201">
        <ele>550.79998779297</ele>
        <time>2016-09-11T10:37:46.000Z</time>
      </trkpt>
      <trkpt lat="45.58077" lon="4.05219">
        <ele>547</ele>
        <time>2016-09-11T10:37:54.000Z</time>
      </trkpt>
      <trkpt lat="45.5809" lon="4.0524">
        <ele>544</ele>
        <time>2016-09-11T10:38:02.000Z</time>
      </trkpt>
      <trkpt lat="45.58101" lon="4.05263">
        <ele>541.20001220703</ele>
        <time>2016-09-11T10:38:10.000Z</time>
      </trkpt>
      <trkpt lat="45.58107" lon="4.05291">
        <ele>539.20001220703</ele>
        <time>2016-09-11T10:38:19.000Z</time>
      </trkpt>
      <trkpt lat="45.58113" lon="4.05317">
        <ele>537</ele>
        <time>2016-09-11T10:38:25.000Z</time>
      </trkpt>
      <trkpt lat="45.58118" lon="4.05338">
        <ele>535.20001220703</ele>
        <time>2016-09-11T10:38:31.000Z</time>
      </trkpt>
      <trkpt lat="45.58119" lon="4.05342">
        <ele>534.79998779297</ele>
        <time>2016-09-11T10:38:32.000Z</time>
      </trkpt>
      <trkpt lat="45.58121" lon="4.05369">
        <ele>532.59997558594</ele>
        <time>2016-09-11T10:38:38.000Z</time>
      </trkpt>
      <trkpt lat="45.58129" lon="4.05394">
        <ele>529.79998779297</ele>
        <time>2016-09-11T10:38:45.000Z</time>
      </trkpt>
      <trkpt lat="45.58136" lon="4.0542">
        <ele>526.79998779297</ele>
        <time>2016-09-11T10:38:50.000Z</time>
      </trkpt>
      <trkpt lat="45.58143" lon="4.05449">
        <ele>523</ele>
        <time>2016-09-11T10:38:55.000Z</time>
      </trkpt>
      <trkpt lat="45.58151" lon="4.05476">
        <ele>518.79998779297</ele>
        <time>2016-09-11T10:39:00.000Z</time>
      </trkpt>
      <trkpt lat="45.58158" lon="4.055">
        <ele>515.40002441406</ele>
        <time>2016-09-11T10:39:07.000Z</time>
      </trkpt>
      <trkpt lat="45.58158" lon="4.05503">
        <ele>515</ele>
        <time>2016-09-11T10:39:08.000Z</time>
      </trkpt>
      <trkpt lat="45.58159" lon="4.05506">
        <ele>514.59997558594</ele>
        <time>2016-09-11T10:39:09.000Z</time>
      </trkpt>
      <trkpt lat="45.58163" lon="4.05533">
        <ele>511.20001220703</ele>
        <time>2016-09-11T10:39:16.000Z</time>
      </trkpt>
      <trkpt lat="45.58162" lon="4.05548">
        <ele>509.60000610352</ele>
        <time>2016-09-11T10:39:20.000Z</time>
      </trkpt>
      <trkpt lat="45.58162" lon="4.05552">
        <ele>509.20001220703</ele>
        <time>2016-09-11T10:39:21.000Z</time>
      </trkpt>
      <trkpt lat="45.58165" lon="4.05566">
        <ele>505.79998779297</ele>
        <time>2016-09-11T10:39:25.000Z</time>
      </trkpt>
      <trkpt lat="45.58166" lon="4.05569">
        <ele>505</ele>
        <time>2016-09-11T10:39:26.000Z</time>
      </trkpt>
      <trkpt lat="45.58184" lon="4.05573">
        <ele>498.60000610352</ele>
        <time>2016-09-11T10:39:38.000Z</time>
      </trkpt>
      <trkpt lat="45.58199" lon="4.05555">
        <ele>495.79998779297</ele>
        <time>2016-09-11T10:39:47.000Z</time>
      </trkpt>
      <trkpt lat="45.5821" lon="4.05532">
        <ele>495</ele>
        <time>2016-09-11T10:39:52.000Z</time>
      </trkpt>
      <trkpt lat="45.58212" lon="4.05528">
        <ele>494.79998779297</ele>
        <time>2016-09-11T10:39:53.000Z</time>
      </trkpt>
      <trkpt lat="45.58215" lon="4.0552">
        <ele>494.39999389648</ele>
        <time>2016-09-11T10:39:55.000Z</time>
      </trkpt>
      <trkpt lat="45.58219" lon="4.05507">
        <ele>494</ele>
        <time>2016-09-11T10:39:58.000Z</time>
      </trkpt>
      <trkpt lat="45.5823" lon="4.05485">
        <ele>491.39999389648</ele>
        <time>2016-09-11T10:40:04.000Z</time>
      </trkpt>
      <trkpt lat="45.58237" lon="4.05469">
        <ele>489.60000610352</ele>
        <time>2016-09-11T10:40:08.000Z</time>
      </trkpt>
      <trkpt lat="45.58239" lon="4.05466">
        <ele>489</ele>
        <time>2016-09-11T10:40:09.000Z</time>
      </trkpt>
      <trkpt lat="45.58253" lon="4.05446">
        <ele>486.79998779297</ele>
        <time>2016-09-11T10:40:15.000Z</time>
      </trkpt>
      <trkpt lat="45.58265" lon="4.05428">
        <ele>484.79998779297</ele>
        <time>2016-09-11T10:40:21.000Z</time>
      </trkpt>
      <trkpt lat="45.58268" lon="4.05425">
        <ele>484.20001220703</ele>
        <time>2016-09-11T10:40:22.000Z</time>
      </trkpt>
      <trkpt lat="45.58285" lon="4.0541">
        <ele>479.60000610352</ele>
        <time>2016-09-11T10:40:28.000Z</time>
      </trkpt>
      <trkpt lat="45.58304" lon="4.05405">
        <ele>473.79998779297</ele>
        <time>2016-09-11T10:40:37.000Z</time>
      </trkpt>
      <trkpt lat="45.58323" lon="4.05399">
        <ele>471.79998779297</ele>
        <time>2016-09-11T10:40:57.000Z</time>
      </trkpt>
      <trkpt lat="45.58322" lon="4.054">
        <ele>471.79998779297</ele>
        <time>2016-09-11T10:40:58.000Z</time>
      </trkpt>
      <trkpt lat="45.58317" lon="4.05405">
        <ele>472</ele>
        <time>2016-09-11T10:41:01.000Z</time>
      </trkpt>
      <trkpt lat="45.58307" lon="4.05432">
        <ele>471.20001220703</ele>
        <time>2016-09-11T10:41:07.000Z</time>
      </trkpt>
      <trkpt lat="45.58304" lon="4.05461">
        <ele>468.39999389648</ele>
        <time>2016-09-11T10:41:12.000Z</time>
      </trkpt>
      <trkpt lat="45.58303" lon="4.05468">
        <ele>467.60000610352</ele>
        <time>2016-09-11T10:41:13.000Z</time>
      </trkpt>
      <trkpt lat="45.58303" lon="4.05482">
        <ele>465.79998779297</ele>
        <time>2016-09-11T10:41:15.000Z</time>
      </trkpt>
      <trkpt lat="45.58292" lon="4.05503">
        <ele>466.20001220703</ele>
        <time>2016-09-11T10:41:19.000Z</time>
      </trkpt>
      <trkpt lat="45.58287" lon="4.05516">
        <ele>466.60000610352</ele>
        <time>2016-09-11T10:41:21.000Z</time>
      </trkpt>
      <trkpt lat="45.58283" lon="4.05533">
        <ele>466.60000610352</ele>
        <time>2016-09-11T10:41:24.000Z</time>
      </trkpt>
      <trkpt lat="45.5828" lon="4.05564">
        <ele>464.20001220703</ele>
        <time>2016-09-11T10:41:31.000Z</time>
      </trkpt>
      <trkpt lat="45.58282" lon="4.05595">
        <ele>460.20001220703</ele>
        <time>2016-09-11T10:41:35.000Z</time>
      </trkpt>
      <trkpt lat="45.58282" lon="4.05603">
        <ele>459.20001220703</ele>
        <time>2016-09-11T10:41:36.000Z</time>
      </trkpt>
      <trkpt lat="45.58282" lon="4.05609">
        <ele>458.20001220703</ele>
        <time>2016-09-11T10:41:37.000Z</time>
      </trkpt>
      <trkpt lat="45.58283" lon="4.05628">
        <ele>457.60000610352</ele>
        <time>2016-09-11T10:41:40.000Z</time>
      </trkpt>
      <trkpt lat="45.58281" lon="4.05655">
        <ele>458</ele>
        <time>2016-09-11T10:41:45.000Z</time>
      </trkpt>
      <trkpt lat="45.58275" lon="4.05679">
        <ele>459</ele>
        <time>2016-09-11T10:41:53.000Z</time>
      </trkpt>
      <trkpt lat="45.58256" lon="4.0569">
        <ele>462.79998779297</ele>
        <time>2016-09-11T10:41:58.000Z</time>
      </trkpt>
      <trkpt lat="45.58238" lon="4.05692">
        <ele>467.60000610352</ele>
        <time>2016-09-11T10:42:03.000Z</time>
      </trkpt>
      <trkpt lat="45.58216" lon="4.05697">
        <ele>473</ele>
        <time>2016-09-11T10:42:09.000Z</time>
      </trkpt>
      <trkpt lat="45.58196" lon="4.057">
        <ele>475.79998779297</ele>
        <time>2016-09-11T10:42:14.000Z</time>
      </trkpt>
      <trkpt lat="45.58182" lon="4.05702">
        <ele>478</ele>
        <time>2016-09-11T10:42:17.000Z</time>
      </trkpt>
      <trkpt lat="45.58177" lon="4.05703">
        <ele>478.60000610352</ele>
        <time>2016-09-11T10:42:18.000Z</time>
      </trkpt>
      <trkpt lat="45.58169" lon="4.05706">
        <ele>479.79998779297</ele>
        <time>2016-09-11T10:42:20.000Z</time>
      </trkpt>
      <trkpt lat="45.58154" lon="4.05715">
        <ele>481.20001220703</ele>
        <time>2016-09-11T10:42:23.000Z</time>
      </trkpt>
      <trkpt lat="45.58135" lon="4.05727">
        <ele>480.60000610352</ele>
        <time>2016-09-11T10:42:28.000Z</time>
      </trkpt>
      <trkpt lat="45.58133" lon="4.05728">
        <ele>480.60000610352</ele>
        <time>2016-09-11T10:42:29.000Z</time>
      </trkpt>
      <trkpt lat="45.58125" lon="4.05731">
        <ele>480.79998779297</ele>
        <time>2016-09-11T10:42:33.000Z</time>
      </trkpt>
      <trkpt lat="45.58123" lon="4.05732">
        <ele>480.60000610352</ele>
        <time>2016-09-11T10:42:34.000Z</time>
      </trkpt>
      <trkpt lat="45.58114" lon="4.05743">
        <ele>479.60000610352</ele>
        <time>2016-09-11T10:42:41.000Z</time>
      </trkpt>
      <trkpt lat="45.58113" lon="4.05743">
        <ele>479.79998779297</ele>
        <time>2016-09-11T10:42:42.000Z</time>
      </trkpt>
      <trkpt lat="45.58096" lon="4.05754">
        <ele>479.20001220703</ele>
        <time>2016-09-11T10:42:56.000Z</time>
      </trkpt>
      <trkpt lat="45.5809" lon="4.05758">
        <ele>479</ele>
        <time>2016-09-11T10:43:02.000Z</time>
      </trkpt>
      <trkpt lat="45.58088" lon="4.05759">
        <ele>479</ele>
        <time>2016-09-11T10:43:04.000Z</time>
      </trkpt>
      <trkpt lat="45.58081" lon="4.05762">
        <ele>479</ele>
        <time>2016-09-11T10:43:20.000Z</time>
      </trkpt>
      <trkpt lat="45.58074" lon="4.05772">
        <ele>478</ele>
        <time>2016-09-11T10:43:28.000Z</time>
      </trkpt>
      <trkpt lat="45.58073" lon="4.05773">
        <ele>478</ele>
        <time>2016-09-11T10:43:29.000Z</time>
      </trkpt>
      <trkpt lat="45.58069" lon="4.05777">
        <ele>477.79998779297</ele>
        <time>2016-09-11T10:43:32.000Z</time>
      </trkpt>
      <trkpt lat="45.58053" lon="4.0579">
        <ele>480.60000610352</ele>
        <time>2016-09-11T10:43:46.000Z</time>
      </trkpt>
      <trkpt lat="45.58038" lon="4.05804">
        <ele>484.60000610352</ele>
        <time>2016-09-11T10:43:59.000Z</time>
      </trkpt>
      <trkpt lat="45.58025" lon="4.05821">
        <ele>489</ele>
        <time>2016-09-11T10:44:13.000Z</time>
      </trkpt>
      <trkpt lat="45.58013" lon="4.05843">
        <ele>488.39999389648</ele>
        <time>2016-09-11T10:44:28.000Z</time>
      </trkpt>
      <trkpt lat="45.5801" lon="4.05847">
        <ele>487.60000610352</ele>
        <time>2016-09-11T10:44:32.000Z</time>
      </trkpt>
      <trkpt lat="45.58009" lon="4.0585">
        <ele>487.20001220703</ele>
        <time>2016-09-11T10:44:34.000Z</time>
      </trkpt>
      <trkpt lat="45.58003" lon="4.05877">
        <ele>488.79998779297</ele>
        <time>2016-09-11T10:44:43.000Z</time>
      </trkpt>
      <trkpt lat="45.58003" lon="4.05892">
        <ele>491.60000610352</ele>
        <time>2016-09-11T10:44:48.000Z</time>
      </trkpt>
      <trkpt lat="45.58002" lon="4.05895">
        <ele>491.79998779297</ele>
        <time>2016-09-11T10:44:49.000Z</time>
      </trkpt>
      <trkpt lat="45.58" lon="4.05917">
        <ele>491.60000610352</ele>
        <time>2016-09-11T10:44:57.000Z</time>
      </trkpt>
      <trkpt lat="45.58" lon="4.0592">
        <ele>491.60000610352</ele>
        <time>2016-09-11T10:44:58.000Z</time>
      </trkpt>
      <trkpt lat="45.57999" lon="4.05935">
        <ele>491.60000610352</ele>
        <time>2016-09-11T10:45:02.000Z</time>
      </trkpt>
      <trkpt lat="45.57998" lon="4.05947">
        <ele>491.39999389648</ele>
        <time>2016-09-11T10:45:06.000Z</time>
      </trkpt>
      <trkpt lat="45.58" lon="4.05975">
        <ele>490.39999389648</ele>
        <time>2016-09-11T10:45:17.000Z</time>
      </trkpt>
      <trkpt lat="45.58006" lon="4.05994">
        <ele>491.20001220703</ele>
        <time>2016-09-11T10:45:24.000Z</time>
      </trkpt>
      <trkpt lat="45.58007" lon="4.05997">
        <ele>491.39999389648</ele>
        <time>2016-09-11T10:45:25.000Z</time>
      </trkpt>
      <trkpt lat="45.58018" lon="4.06017">
        <ele>493</ele>
        <time>2016-09-11T10:45:33.000Z</time>
      </trkpt>
      <trkpt lat="45.58027" lon="4.06038">
        <ele>493.60000610352</ele>
        <time>2016-09-11T10:45:40.000Z</time>
      </trkpt>
      <trkpt lat="45.58028" lon="4.06042">
        <ele>493.39999389648</ele>
        <time>2016-09-11T10:45:41.000Z</time>
      </trkpt>
      <trkpt lat="45.58028" lon="4.06065">
        <ele>491.60000610352</ele>
        <time>2016-09-11T10:45:46.000Z</time>
      </trkpt>
      <trkpt lat="45.58027" lon="4.06072">
        <ele>490.79998779297</ele>
        <time>2016-09-11T10:45:48.000Z</time>
      </trkpt>
      <trkpt lat="45.58024" lon="4.061">
        <ele>489.60000610352</ele>
        <time>2016-09-11T10:45:54.000Z</time>
      </trkpt>
      <trkpt lat="45.58014" lon="4.06126">
        <ele>488.79998779297</ele>
        <time>2016-09-11T10:46:01.000Z</time>
      </trkpt>
      <trkpt lat="45.57998" lon="4.06144">
        <ele>487.39999389648</ele>
        <time>2016-09-11T10:46:07.000Z</time>
      </trkpt>
      <trkpt lat="45.57988" lon="4.06168">
        <ele>486.60000610352</ele>
        <time>2016-09-11T10:46:13.000Z</time>
      </trkpt>
      <trkpt lat="45.57994" lon="4.06191">
        <ele>487.20001220703</ele>
        <time>2016-09-11T10:46:19.000Z</time>
      </trkpt>
      <trkpt lat="45.57997" lon="4.06197">
        <ele>487.39999389648</ele>
        <time>2016-09-11T10:46:21.000Z</time>
      </trkpt>
      <trkpt lat="45.58009" lon="4.06216">
        <ele>487.60000610352</ele>
        <time>2016-09-11T10:46:29.000Z</time>
      </trkpt>
      <trkpt lat="45.5801" lon="4.06218">
        <ele>487.60000610352</ele>
        <time>2016-09-11T10:46:30.000Z</time>
      </trkpt>
      <trkpt lat="45.58017" lon="4.06229">
        <ele>487.79998779297</ele>
        <time>2016-09-11T10:46:35.000Z</time>
      </trkpt>
      <trkpt lat="45.58018" lon="4.06232">
        <ele>487.79998779297</ele>
        <time>2016-09-11T10:46:36.000Z</time>
      </trkpt>
      <trkpt lat="45.58029" lon="4.06255">
        <ele>488</ele>
        <time>2016-09-11T10:46:45.000Z</time>
      </trkpt>
      <trkpt lat="45.58033" lon="4.06264">
        <ele>488.20001220703</ele>
        <time>2016-09-11T10:46:49.000Z</time>
      </trkpt>
      <trkpt lat="45.58042" lon="4.06273">
        <ele>488.60000610352</ele>
        <time>2016-09-11T10:46:55.000Z</time>
      </trkpt>
      <trkpt lat="45.58043" lon="4.06274">
        <ele>488.79998779297</ele>
        <time>2016-09-11T10:46:56.000Z</time>
      </trkpt>
      <trkpt lat="45.58055" lon="4.06284">
        <ele>488.20001220703</ele>
        <time>2016-09-11T10:47:01.000Z</time>
      </trkpt>
      <trkpt lat="45.58064" lon="4.06291">
        <ele>487.20001220703</ele>
        <time>2016-09-11T10:47:04.000Z</time>
      </trkpt>
      <trkpt lat="45.58082" lon="4.06304">
        <ele>485.20001220703</ele>
        <time>2016-09-11T10:47:09.000Z</time>
      </trkpt>
      <trkpt lat="45.58086" lon="4.06307">
        <ele>484.79998779297</ele>
        <time>2016-09-11T10:47:10.000Z</time>
      </trkpt>
      <trkpt lat="45.5809" lon="4.0631">
        <ele>484.60000610352</ele>
        <time>2016-09-11T10:47:11.000Z</time>
      </trkpt>
      <trkpt lat="45.58098" lon="4.06315">
        <ele>483.79998779297</ele>
        <time>2016-09-11T10:47:13.000Z</time>
      </trkpt>
      <trkpt lat="45.58118" lon="4.06325">
        <ele>482.20001220703</ele>
        <time>2016-09-11T10:47:17.000Z</time>
      </trkpt>
      <trkpt lat="45.58131" lon="4.06331">
        <ele>481.39999389648</ele>
        <time>2016-09-11T10:47:19.000Z</time>
      </trkpt>
      <trkpt lat="45.58138" lon="4.06333">
        <ele>480.79998779297</ele>
        <time>2016-09-11T10:47:20.000Z</time>
      </trkpt>
      <trkpt lat="45.58152" lon="4.06339">
        <ele>479.20001220703</ele>
        <time>2016-09-11T10:47:22.000Z</time>
      </trkpt>
      <trkpt lat="45.58172" lon="4.0635">
        <ele>476.39999389648</ele>
        <time>2016-09-11T10:47:25.000Z</time>
      </trkpt>
      <trkpt lat="45.58186" lon="4.06361">
        <ele>474.20001220703</ele>
        <time>2016-09-11T10:47:27.000Z</time>
      </trkpt>
      <trkpt lat="45.58193" lon="4.06367">
        <ele>473.20001220703</ele>
        <time>2016-09-11T10:47:28.000Z</time>
      </trkpt>
      <trkpt lat="45.58215" lon="4.0639">
        <ele>470</ele>
        <time>2016-09-11T10:47:31.000Z</time>
      </trkpt>
      <trkpt lat="45.58223" lon="4.06398">
        <ele>469</ele>
        <time>2016-09-11T10:47:32.000Z</time>
      </trkpt>
      <trkpt lat="45.58238" lon="4.06416">
        <ele>466.60000610352</ele>
        <time>2016-09-11T10:47:34.000Z</time>
      </trkpt>
      <trkpt lat="45.58254" lon="4.06435">
        <ele>464.39999389648</ele>
        <time>2016-09-11T10:47:36.000Z</time>
      </trkpt>
      <trkpt lat="45.58276" lon="4.06455">
        <ele>462</ele>
        <time>2016-09-11T10:47:39.000Z</time>
      </trkpt>
      <trkpt lat="45.58281" lon="4.0646">
        <ele>461.39999389648</ele>
        <time>2016-09-11T10:47:40.000Z</time>
      </trkpt>
      <trkpt lat="45.58297" lon="4.06475">
        <ele>459.79998779297</ele>
        <time>2016-09-11T10:47:43.000Z</time>
      </trkpt>
      <trkpt lat="45.58302" lon="4.06481">
        <ele>459.20001220703</ele>
        <time>2016-09-11T10:47:44.000Z</time>
      </trkpt>
      <trkpt lat="45.58312" lon="4.06491">
        <ele>458.20001220703</ele>
        <time>2016-09-11T10:47:46.000Z</time>
      </trkpt>
      <trkpt lat="45.58329" lon="4.06503">
        <ele>456.79998779297</ele>
        <time>2016-09-11T10:47:49.000Z</time>
      </trkpt>
      <trkpt lat="45.58335" lon="4.06507">
        <ele>456.20001220703</ele>
        <time>2016-09-11T10:47:50.000Z</time>
      </trkpt>
      <trkpt lat="45.58341" lon="4.06512">
        <ele>455.79998779297</ele>
        <time>2016-09-11T10:47:51.000Z</time>
      </trkpt>
      <trkpt lat="45.58361" lon="4.06528">
        <ele>454.20001220703</ele>
        <time>2016-09-11T10:47:54.000Z</time>
      </trkpt>
      <trkpt lat="45.58367" lon="4.06534">
        <ele>453.60000610352</ele>
        <time>2016-09-11T10:47:55.000Z</time>
      </trkpt>
      <trkpt lat="45.58381" lon="4.06546">
        <ele>452.60000610352</ele>
        <time>2016-09-11T10:47:57.000Z</time>
      </trkpt>
      <trkpt lat="45.58403" lon="4.06566">
        <ele>452</ele>
        <time>2016-09-11T10:48:00.000Z</time>
      </trkpt>
      <trkpt lat="45.58425" lon="4.06586">
        <ele>451.60000610352</ele>
        <time>2016-09-11T10:48:03.000Z</time>
      </trkpt>
      <trkpt lat="45.58447" lon="4.06605">
        <ele>451</ele>
        <time>2016-09-11T10:48:06.000Z</time>
      </trkpt>
      <trkpt lat="45.58467" lon="4.06625">
        <ele>450.60000610352</ele>
        <time>2016-09-11T10:48:09.000Z</time>
      </trkpt>
      <trkpt lat="45.58481" lon="4.06638">
        <ele>449.60000610352</ele>
        <time>2016-09-11T10:48:11.000Z</time>
      </trkpt>
      <trkpt lat="45.58487" lon="4.06644">
        <ele>449</ele>
        <time>2016-09-11T10:48:12.000Z</time>
      </trkpt>
      <trkpt lat="45.58504" lon="4.06662">
        <ele>447.60000610352</ele>
        <time>2016-09-11T10:48:15.000Z</time>
      </trkpt>
      <trkpt lat="45.58518" lon="4.06686">
        <ele>446.20001220703</ele>
        <time>2016-09-11T10:48:18.000Z</time>
      </trkpt>
      <trkpt lat="45.58527" lon="4.06707">
        <ele>445.39999389648</ele>
        <time>2016-09-11T10:48:20.000Z</time>
      </trkpt>
      <trkpt lat="45.58532" lon="4.06718">
        <ele>445.20001220703</ele>
        <time>2016-09-11T10:48:21.000Z</time>
      </trkpt>
      <trkpt lat="45.58542" lon="4.06742">
        <ele>444.60000610352</ele>
        <time>2016-09-11T10:48:23.000Z</time>
      </trkpt>
      <trkpt lat="45.58556" lon="4.06764">
        <ele>444</ele>
        <time>2016-09-11T10:48:25.000Z</time>
      </trkpt>
      <trkpt lat="45.5857" lon="4.06784">
        <ele>443.60000610352</ele>
        <time>2016-09-11T10:48:27.000Z</time>
      </trkpt>
      <trkpt lat="45.58577" lon="4.06795">
        <ele>443.39999389648</ele>
        <time>2016-09-11T10:48:28.000Z</time>
      </trkpt>
      <trkpt lat="45.58584" lon="4.06805">
        <ele>443.20001220703</ele>
        <time>2016-09-11T10:48:29.000Z</time>
      </trkpt>
      <trkpt lat="45.58601" lon="4.06825">
        <ele>442.79998779297</ele>
        <time>2016-09-11T10:48:31.000Z</time>
      </trkpt>
      <trkpt lat="45.58619" lon="4.06842">
        <ele>442.39999389648</ele>
        <time>2016-09-11T10:48:33.000Z</time>
      </trkpt>
      <trkpt lat="45.58637" lon="4.06859">
        <ele>442</ele>
        <time>2016-09-11T10:48:35.000Z</time>
      </trkpt>
      <trkpt lat="45.58646" lon="4.06868">
        <ele>441</ele>
        <time>2016-09-11T10:48:36.000Z</time>
      </trkpt>
      <trkpt lat="45.58664" lon="4.06888">
        <ele>439.20001220703</ele>
        <time>2016-09-11T10:48:38.000Z</time>
      </trkpt>
      <trkpt lat="45.58681" lon="4.06908">
        <ele>437.39999389648</ele>
        <time>2016-09-11T10:48:40.000Z</time>
      </trkpt>
      <trkpt lat="45.58689" lon="4.06919">
        <ele>436.20001220703</ele>
        <time>2016-09-11T10:48:41.000Z</time>
      </trkpt>
      <trkpt lat="45.58702" lon="4.06943">
        <ele>434</ele>
        <time>2016-09-11T10:48:43.000Z</time>
      </trkpt>
      <trkpt lat="45.58714" lon="4.0697">
        <ele>431.39999389648</ele>
        <time>2016-09-11T10:48:45.000Z</time>
      </trkpt>
      <trkpt lat="45.58726" lon="4.06996">
        <ele>427.20001220703</ele>
        <time>2016-09-11T10:48:47.000Z</time>
      </trkpt>
      <trkpt lat="45.58741" lon="4.07018">
        <ele>421.79998779297</ele>
        <time>2016-09-11T10:48:49.000Z</time>
      </trkpt>
      <trkpt lat="45.58758" lon="4.0704">
        <ele>417.39999389648</ele>
        <time>2016-09-11T10:48:51.000Z</time>
      </trkpt>
      <trkpt lat="45.58767" lon="4.07051">
        <ele>415.39999389648</ele>
        <time>2016-09-11T10:48:52.000Z</time>
      </trkpt>
      <trkpt lat="45.58787" lon="4.07072">
        <ele>411.20001220703</ele>
        <time>2016-09-11T10:48:54.000Z</time>
      </trkpt>
      <trkpt lat="45.58808" lon="4.0709">
        <ele>407.79998779297</ele>
        <time>2016-09-11T10:48:56.000Z</time>
      </trkpt>
      <trkpt lat="45.58819" lon="4.07099">
        <ele>407.39999389648</ele>
        <time>2016-09-11T10:48:57.000Z</time>
      </trkpt>
      <trkpt lat="45.5883" lon="4.07108">
        <ele>407</ele>
        <time>2016-09-11T10:48:58.000Z</time>
      </trkpt>
      <trkpt lat="45.58853" lon="4.07124">
        <ele>406.20001220703</ele>
        <time>2016-09-11T10:49:00.000Z</time>
      </trkpt>
      <trkpt lat="45.58873" lon="4.0714">
        <ele>405.39999389648</ele>
        <time>2016-09-11T10:49:02.000Z</time>
      </trkpt>
      <trkpt lat="45.58882" lon="4.07147">
        <ele>405.20001220703</ele>
        <time>2016-09-11T10:49:03.000Z</time>
      </trkpt>
      <trkpt lat="45.58899" lon="4.07157">
        <ele>404.60000610352</ele>
        <time>2016-09-11T10:49:05.000Z</time>
      </trkpt>
      <trkpt lat="45.58917" lon="4.07167">
        <ele>404.20001220703</ele>
        <time>2016-09-11T10:49:07.000Z</time>
      </trkpt>
      <trkpt lat="45.58935" lon="4.07174">
        <ele>403.79998779297</ele>
        <time>2016-09-11T10:49:09.000Z</time>
      </trkpt>
      <trkpt lat="45.58944" lon="4.07179">
        <ele>403.60000610352</ele>
        <time>2016-09-11T10:49:10.000Z</time>
      </trkpt>
      <trkpt lat="45.58952" lon="4.07184">
        <ele>403.39999389648</ele>
        <time>2016-09-11T10:49:11.000Z</time>
      </trkpt>
      <trkpt lat="45.58969" lon="4.07195">
        <ele>403</ele>
        <time>2016-09-11T10:49:13.000Z</time>
      </trkpt>
      <trkpt lat="45.58985" lon="4.07209">
        <ele>403.39999389648</ele>
        <time>2016-09-11T10:49:15.000Z</time>
      </trkpt>
      <trkpt lat="45.58997" lon="4.07224">
        <ele>403.79998779297</ele>
        <time>2016-09-11T10:49:17.000Z</time>
      </trkpt>
      <trkpt lat="45.59003" lon="4.07232">
        <ele>403.79998779297</ele>
        <time>2016-09-11T10:49:18.000Z</time>
      </trkpt>
      <trkpt lat="45.59021" lon="4.07248">
        <ele>404.20001220703</ele>
        <time>2016-09-11T10:49:21.000Z</time>
      </trkpt>
      <trkpt lat="45.59026" lon="4.07252">
        <ele>404.39999389648</ele>
        <time>2016-09-11T10:49:22.000Z</time>
      </trkpt>
      <trkpt lat="45.59032" lon="4.07258">
        <ele>404.60000610352</ele>
        <time>2016-09-11T10:49:24.000Z</time>
      </trkpt>
      <trkpt lat="45.59048" lon="4.07268">
        <ele>405</ele>
        <time>2016-09-11T10:49:34.000Z</time>
      </trkpt>
      <trkpt lat="45.5905" lon="4.0727">
        <ele>405.20001220703</ele>
        <time>2016-09-11T10:49:35.000Z</time>
      </trkpt>
      <trkpt lat="45.59053" lon="4.07273">
        <ele>405</ele>
        <time>2016-09-11T10:49:36.000Z</time>
      </trkpt>
      <trkpt lat="45.5907" lon="4.07287">
        <ele>404.60000610352</ele>
        <time>2016-09-11T10:49:41.000Z</time>
      </trkpt>
      <trkpt lat="45.59074" lon="4.0729">
        <ele>404.60000610352</ele>
        <time>2016-09-11T10:49:42.000Z</time>
      </trkpt>
      <trkpt lat="45.59077" lon="4.07294">
        <ele>404.39999389648</ele>
        <time>2016-09-11T10:49:43.000Z</time>
      </trkpt>
      <trkpt lat="45.59096" lon="4.07303">
        <ele>404.20001220703</ele>
        <time>2016-09-11T10:49:48.000Z</time>
      </trkpt>
      <trkpt lat="45.59116" lon="4.07305">
        <ele>403.79998779297</ele>
        <time>2016-09-11T10:49:53.000Z</time>
      </trkpt>
      <trkpt lat="45.59137" lon="4.07306">
        <ele>403.60000610352</ele>
        <time>2016-09-11T10:49:58.000Z</time>
      </trkpt>
      <trkpt lat="45.59156" lon="4.07303">
        <ele>403.39999389648</ele>
        <time>2016-09-11T10:50:02.000Z</time>
      </trkpt>
      <trkpt lat="45.59178" lon="4.07299">
        <ele>403</ele>
        <time>2016-09-11T10:50:06.000Z</time>
      </trkpt>
      <trkpt lat="45.59199" lon="4.07296">
        <ele>402.39999389648</ele>
        <time>2016-09-11T10:50:10.000Z</time>
      </trkpt>
      <trkpt lat="45.5922" lon="4.07309">
        <ele>402</ele>
        <time>2016-09-11T10:50:14.000Z</time>
      </trkpt>
      <trkpt lat="45.59239" lon="4.07319">
        <ele>401.20001220703</ele>
        <time>2016-09-11T10:50:17.000Z</time>
      </trkpt>
      <trkpt lat="45.59256" lon="4.07325">
        <ele>400.60000610352</ele>
        <time>2016-09-11T10:50:20.000Z</time>
      </trkpt>
      <trkpt lat="45.59274" lon="4.07324">
        <ele>400</ele>
        <time>2016-09-11T10:50:24.000Z</time>
      </trkpt>
      <trkpt lat="45.59293" lon="4.07307">
        <ele>399.79998779297</ele>
        <time>2016-09-11T10:50:28.000Z</time>
      </trkpt>
      <trkpt lat="45.59309" lon="4.07293">
        <ele>399.60000610352</ele>
        <time>2016-09-11T10:50:31.000Z</time>
      </trkpt>
      <trkpt lat="45.59327" lon="4.07279">
        <ele>399.39999389648</ele>
        <time>2016-09-11T10:50:34.000Z</time>
      </trkpt>
      <trkpt lat="45.59346" lon="4.07268">
        <ele>399</ele>
        <time>2016-09-11T10:50:37.000Z</time>
      </trkpt>
      <trkpt lat="45.5936" lon="4.07262">
        <ele>398.79998779297</ele>
        <time>2016-09-11T10:50:39.000Z</time>
      </trkpt>
      <trkpt lat="45.59367" lon="4.07258">
        <ele>398.60000610352</ele>
        <time>2016-09-11T10:50:40.000Z</time>
      </trkpt>
      <trkpt lat="45.59386" lon="4.07246">
        <ele>398.39999389648</ele>
        <time>2016-09-11T10:50:43.000Z</time>
      </trkpt>
      <trkpt lat="45.59392" lon="4.07241">
        <ele>398.20001220703</ele>
        <time>2016-09-11T10:50:44.000Z</time>
      </trkpt>
      <trkpt lat="45.59411" lon="4.07239">
        <ele>397.79998779297</ele>
        <time>2016-09-11T10:50:49.000Z</time>
      </trkpt>
      <trkpt lat="45.59412" lon="4.07263">
        <ele>397.60000610352</ele>
        <time>2016-09-11T10:50:53.000Z</time>
      </trkpt>
      <trkpt lat="45.59412" lon="4.0727">
        <ele>397.39999389648</ele>
        <time>2016-09-11T10:50:54.000Z</time>
      </trkpt>
      <trkpt lat="45.59413" lon="4.07295">
        <ele>396.79998779297</ele>
        <time>2016-09-11T10:50:57.000Z</time>
      </trkpt>
      <trkpt lat="45.59416" lon="4.07329">
        <ele>396.20001220703</ele>
        <time>2016-09-11T10:51:01.000Z</time>
      </trkpt>
      <trkpt lat="45.59418" lon="4.07345">
        <ele>396</ele>
        <time>2016-09-11T10:51:03.000Z</time>
      </trkpt>
      <trkpt lat="45.59419" lon="4.07354">
        <ele>395.79998779297</ele>
        <time>2016-09-11T10:51:04.000Z</time>
      </trkpt>
      <trkpt lat="45.59423" lon="4.07379">
        <ele>395.60000610352</ele>
        <time>2016-09-11T10:51:07.000Z</time>
      </trkpt>
      <trkpt lat="45.59425" lon="4.07387">
        <ele>395.60000610352</ele>
        <time>2016-09-11T10:51:08.000Z</time>
      </trkpt>
      <trkpt lat="45.59428" lon="4.07412">
        <ele>395.39999389648</ele>
        <time>2016-09-11T10:51:11.000Z</time>
      </trkpt>
      <trkpt lat="45.59431" lon="4.07429">
        <ele>395.39999389648</ele>
        <time>2016-09-11T10:51:13.000Z</time>
      </trkpt>
      <trkpt lat="45.59435" lon="4.07461">
        <ele>395.39999389648</ele>
        <time>2016-09-11T10:51:17.000Z</time>
      </trkpt>
      <trkpt lat="45.59447" lon="4.07482">
        <ele>395.20001220703</ele>
        <time>2016-09-11T10:51:21.000Z</time>
      </trkpt>
      <trkpt lat="45.59458" lon="4.07482">
        <ele>394.79998779297</ele>
        <time>2016-09-11T10:51:23.000Z</time>
      </trkpt>
      <trkpt lat="45.59463" lon="4.07481">
        <ele>394.60000610352</ele>
        <time>2016-09-11T10:51:24.000Z</time>
      </trkpt>
      <trkpt lat="45.59487" lon="4.07478">
        <ele>394.20001220703</ele>
        <time>2016-09-11T10:51:28.000Z</time>
      </trkpt>
      <trkpt lat="45.59499" lon="4.07477">
        <ele>394</ele>
        <time>2016-09-11T10:51:30.000Z</time>
      </trkpt>
      <trkpt lat="45.59505" lon="4.07476">
        <ele>394</ele>
        <time>2016-09-11T10:51:31.000Z</time>
      </trkpt>
      <trkpt lat="45.59523" lon="4.07472">
        <ele>393.60000610352</ele>
        <time>2016-09-11T10:51:34.000Z</time>
      </trkpt>
      <trkpt lat="45.59542" lon="4.07469">
        <ele>393.39999389648</ele>
        <time>2016-09-11T10:51:37.000Z</time>
      </trkpt>
      <trkpt lat="45.59549" lon="4.07468">
        <ele>393.39999389648</ele>
        <time>2016-09-11T10:51:38.000Z</time>
      </trkpt>
      <trkpt lat="45.59567" lon="4.07465">
        <ele>393.39999389648</ele>
        <time>2016-09-11T10:51:41.000Z</time>
      </trkpt>
      <trkpt lat="45.59573" lon="4.07464">
        <ele>393.60000610352</ele>
        <time>2016-09-11T10:51:42.000Z</time>
      </trkpt>
      <trkpt lat="45.59596" lon="4.07467">
        <ele>393.79998779297</ele>
        <time>2016-09-11T10:51:46.000Z</time>
      </trkpt>
      <trkpt lat="45.5961" lon="4.07481">
        <ele>394.20001220703</ele>
        <time>2016-09-11T10:51:49.000Z</time>
      </trkpt>
      <trkpt lat="45.59615" lon="4.07486">
        <ele>394.20001220703</ele>
        <time>2016-09-11T10:51:50.000Z</time>
      </trkpt>
      <trkpt lat="45.5963" lon="4.075">
        <ele>394.60000610352</ele>
        <time>2016-09-11T10:51:53.000Z</time>
      </trkpt>
      <trkpt lat="45.59648" lon="4.07518">
        <ele>395.39999389648</ele>
        <time>2016-09-11T10:51:57.000Z</time>
      </trkpt>
      <trkpt lat="45.59653" lon="4.07522">
        <ele>395.60000610352</ele>
        <time>2016-09-11T10:51:58.000Z</time>
      </trkpt>
      <trkpt lat="45.59662" lon="4.0753">
        <ele>396</ele>
        <time>2016-09-11T10:52:00.000Z</time>
      </trkpt>
      <trkpt lat="45.59681" lon="4.07543">
        <ele>396.60000610352</ele>
        <time>2016-09-11T10:52:04.000Z</time>
      </trkpt>
      <trkpt lat="45.597" lon="4.07556">
        <ele>397.39999389648</ele>
        <time>2016-09-11T10:52:08.000Z</time>
      </trkpt>
      <trkpt lat="45.59705" lon="4.07559">
        <ele>397.60000610352</ele>
        <time>2016-09-11T10:52:09.000Z</time>
      </trkpt>
      <trkpt lat="45.5971" lon="4.07563">
        <ele>397.79998779297</ele>
        <time>2016-09-11T10:52:10.000Z</time>
      </trkpt>
      <trkpt lat="45.5972" lon="4.07569">
        <ele>398</ele>
        <time>2016-09-11T10:52:12.000Z</time>
      </trkpt>
      <trkpt lat="45.5974" lon="4.07581">
        <ele>398.20001220703</ele>
        <time>2016-09-11T10:52:16.000Z</time>
      </trkpt>
      <trkpt lat="45.59749" lon="4.07587">
        <ele>398.39999389648</ele>
        <time>2016-09-11T10:52:18.000Z</time>
      </trkpt>
      <trkpt lat="45.59754" lon="4.0759">
        <ele>398.39999389648</ele>
        <time>2016-09-11T10:52:19.000Z</time>
      </trkpt>
      <trkpt lat="45.5977" lon="4.07604">
        <ele>398.60000610352</ele>
        <time>2016-09-11T10:52:23.000Z</time>
      </trkpt>
      <trkpt lat="45.59774" lon="4.07607">
        <ele>398.60000610352</ele>
        <time>2016-09-11T10:52:24.000Z</time>
      </trkpt>
      <trkpt lat="45.59778" lon="4.0761">
        <ele>398.60000610352</ele>
        <time>2016-09-11T10:52:25.000Z</time>
      </trkpt>
      <trkpt lat="45.59794" lon="4.07628">
        <ele>398.39999389648</ele>
        <time>2016-09-11T10:52:31.000Z</time>
      </trkpt>
      <trkpt lat="45.59795" lon="4.07631">
        <ele>398.39999389648</ele>
        <time>2016-09-11T10:52:32.000Z</time>
      </trkpt>
      <trkpt lat="45.59799" lon="4.07636">
        <ele>398.39999389648</ele>
        <time>2016-09-11T10:52:34.000Z</time>
      </trkpt>
      <trkpt lat="45.59819" lon="4.07644">
        <ele>398.60000610352</ele>
        <time>2016-09-11T10:52:40.000Z</time>
      </trkpt>
      <trkpt lat="45.59823" lon="4.07646">
        <ele>398.60000610352</ele>
        <time>2016-09-11T10:52:41.000Z</time>
      </trkpt>
      <trkpt lat="45.59827" lon="4.07649">
        <ele>398.60000610352</ele>
        <time>2016-09-11T10:52:42.000Z</time>
      </trkpt>
      <trkpt lat="45.59846" lon="4.07663">
        <ele>398.79998779297</ele>
        <time>2016-09-11T10:52:47.000Z</time>
      </trkpt>
      <trkpt lat="45.59849" lon="4.07665">
        <ele>398.79998779297</ele>
        <time>2016-09-11T10:52:48.000Z</time>
      </trkpt>
      <trkpt lat="45.59853" lon="4.07667">
        <ele>398.79998779297</ele>
        <time>2016-09-11T10:52:49.000Z</time>
      </trkpt>
      <trkpt lat="45.59872" lon="4.0768">
        <ele>399</ele>
        <time>2016-09-11T10:52:54.000Z</time>
      </trkpt>
      <trkpt lat="45.59888" lon="4.07692">
        <ele>399</ele>
        <time>2016-09-11T10:52:59.000Z</time>
      </trkpt>
      <trkpt lat="45.59908" lon="4.07705">
        <ele>399.20001220703</ele>
        <time>2016-09-11T10:53:04.000Z</time>
      </trkpt>
      <trkpt lat="45.59924" lon="4.07716">
        <ele>399.39999389648</ele>
        <time>2016-09-11T10:53:08.000Z</time>
      </trkpt>
      <trkpt lat="45.59928" lon="4.07719">
        <ele>399.60000610352</ele>
        <time>2016-09-11T10:53:09.000Z</time>
      </trkpt>
      <trkpt lat="45.59941" lon="4.07727">
        <ele>399.60000610352</ele>
        <time>2016-09-11T10:53:12.000Z</time>
      </trkpt>
      <trkpt lat="45.59959" lon="4.07739">
        <ele>399.79998779297</ele>
        <time>2016-09-11T10:53:17.000Z</time>
      </trkpt>
      <trkpt lat="45.59974" lon="4.07749">
        <ele>400</ele>
        <time>2016-09-11T10:53:21.000Z</time>
      </trkpt>
      <trkpt lat="45.59979" lon="4.07752">
        <ele>399.79998779297</ele>
        <time>2016-09-11T10:53:22.000Z</time>
      </trkpt>
      <trkpt lat="45.59996" lon="4.07764">
        <ele>399.60000610352</ele>
        <time>2016-09-11T10:53:26.000Z</time>
      </trkpt>
      <trkpt lat="45.60017" lon="4.07777">
        <ele>399.39999389648</ele>
        <time>2016-09-11T10:53:30.000Z</time>
      </trkpt>
      <trkpt lat="45.60028" lon="4.07785">
        <ele>399.20001220703</ele>
        <time>2016-09-11T10:53:32.000Z</time>
      </trkpt>
      <trkpt lat="45.60047" lon="4.07796">
        <ele>398.79998779297</ele>
        <time>2016-09-11T10:53:35.000Z</time>
      </trkpt>
      <trkpt lat="45.60059" lon="4.07804">
        <ele>398.39999389648</ele>
        <time>2016-09-11T10:53:37.000Z</time>
      </trkpt>
      <trkpt lat="45.60078" lon="4.07815">
        <ele>397.79998779297</ele>
        <time>2016-09-11T10:53:40.000Z</time>
      </trkpt>
      <trkpt lat="45.60096" lon="4.07825">
        <ele>397.39999389648</ele>
        <time>2016-09-11T10:53:43.000Z</time>
      </trkpt>
      <trkpt lat="45.60114" lon="4.07835">
        <ele>396.79998779297</ele>
        <time>2016-09-11T10:53:46.000Z</time>
      </trkpt>
      <trkpt lat="45.60129" lon="4.07843">
        <ele>396.39999389648</ele>
        <time>2016-09-11T10:53:49.000Z</time>
      </trkpt>
      <trkpt lat="45.60148" lon="4.07853">
        <ele>395.79998779297</ele>
        <time>2016-09-11T10:53:54.000Z</time>
      </trkpt>
      <trkpt lat="45.60162" lon="4.0786">
        <ele>395.39999389648</ele>
        <time>2016-09-11T10:53:57.000Z</time>
      </trkpt>
      <trkpt lat="45.60166" lon="4.07862">
        <ele>395.20001220703</ele>
        <time>2016-09-11T10:53:58.000Z</time>
      </trkpt>
      <trkpt lat="45.60186" lon="4.07873">
        <ele>394.39999389648</ele>
        <time>2016-09-11T10:54:02.000Z</time>
      </trkpt>
      <trkpt lat="45.60203" lon="4.07884">
        <ele>393.60000610352</ele>
        <time>2016-09-11T10:54:06.000Z</time>
      </trkpt>
      <trkpt lat="45.6022" lon="4.07897">
        <ele>392.60000610352</ele>
        <time>2016-09-11T10:54:11.000Z</time>
      </trkpt>
      <trkpt lat="45.60241" lon="4.07888">
        <ele>393</ele>
        <time>2016-09-11T10:54:15.000Z</time>
      </trkpt>
      <trkpt lat="45.60257" lon="4.07874">
        <ele>393</ele>
        <time>2016-09-11T10:54:18.000Z</time>
      </trkpt>
      <trkpt lat="45.60268" lon="4.07864">
        <ele>392.79998779297</ele>
        <time>2016-09-11T10:54:20.000Z</time>
      </trkpt>
      <trkpt lat="45.60284" lon="4.07847">
        <ele>392.60000610352</ele>
        <time>2016-09-11T10:54:23.000Z</time>
      </trkpt>
      <trkpt lat="45.60296" lon="4.07836">
        <ele>392.60000610352</ele>
        <time>2016-09-11T10:54:25.000Z</time>
      </trkpt>
      <trkpt lat="45.60314" lon="4.0782">
        <ele>392.60000610352</ele>
        <time>2016-09-11T10:54:28.000Z</time>
      </trkpt>
      <trkpt lat="45.60327" lon="4.07811">
        <ele>392.20001220703</ele>
        <time>2016-09-11T10:54:30.000Z</time>
      </trkpt>
      <trkpt lat="45.60346" lon="4.078">
        <ele>391.60000610352</ele>
        <time>2016-09-11T10:54:33.000Z</time>
      </trkpt>
      <trkpt lat="45.60366" lon="4.07796">
        <ele>390.79998779297</ele>
        <time>2016-09-11T10:54:36.000Z</time>
      </trkpt>
      <trkpt lat="45.60385" lon="4.07797">
        <ele>389.79998779297</ele>
        <time>2016-09-11T10:54:39.000Z</time>
      </trkpt>
      <trkpt lat="45.60392" lon="4.07799">
        <ele>389.60000610352</ele>
        <time>2016-09-11T10:54:40.000Z</time>
      </trkpt>
      <trkpt lat="45.60412" lon="4.07805">
        <ele>389</ele>
        <time>2016-09-11T10:54:43.000Z</time>
      </trkpt>
      <trkpt lat="45.60431" lon="4.07803">
        <ele>388.39999389648</ele>
        <time>2016-09-11T10:54:46.000Z</time>
      </trkpt>
      <trkpt lat="45.60443" lon="4.07799">
        <ele>388</ele>
        <time>2016-09-11T10:54:48.000Z</time>
      </trkpt>
      <trkpt lat="45.60448" lon="4.07796">
        <ele>387.79998779297</ele>
        <time>2016-09-11T10:54:49.000Z</time>
      </trkpt>
      <trkpt lat="45.60466" lon="4.07789">
        <ele>387</ele>
        <time>2016-09-11T10:54:54.000Z</time>
      </trkpt>
      <trkpt lat="45.60487" lon="4.07781">
        <ele>386.20001220703</ele>
        <time>2016-09-11T10:55:00.000Z</time>
      </trkpt>
      <trkpt lat="45.60497" lon="4.07777">
        <ele>385.60000610352</ele>
        <time>2016-09-11T10:55:02.000Z</time>
      </trkpt>
      <trkpt lat="45.60502" lon="4.07775">
        <ele>385.39999389648</ele>
        <time>2016-09-11T10:55:03.000Z</time>
      </trkpt>
      <trkpt lat="45.60524" lon="4.07768">
        <ele>384</ele>
        <time>2016-09-11T10:55:07.000Z</time>
      </trkpt>
      <trkpt lat="45.60543" lon="4.07763">
        <ele>383</ele>
        <time>2016-09-11T10:55:10.000Z</time>
      </trkpt>
      <trkpt lat="45.6055" lon="4.07761">
        <ele>382.79998779297</ele>
        <time>2016-09-11T10:55:11.000Z</time>
      </trkpt>
      <trkpt lat="45.60563" lon="4.07757">
        <ele>382.39999389648</ele>
        <time>2016-09-11T10:55:13.000Z</time>
      </trkpt>
      <trkpt lat="45.60581" lon="4.0775">
        <ele>381.60000610352</ele>
        <time>2016-09-11T10:55:16.000Z</time>
      </trkpt>
      <trkpt lat="45.60599" lon="4.07748">
        <ele>381</ele>
        <time>2016-09-11T10:55:20.000Z</time>
      </trkpt>
      <trkpt lat="45.60611" lon="4.07772">
        <ele>380.79998779297</ele>
        <time>2016-09-11T10:55:24.000Z</time>
      </trkpt>
      <trkpt lat="45.60611" lon="4.07786">
        <ele>380.79998779297</ele>
        <time>2016-09-11T10:55:26.000Z</time>
      </trkpt>
      <trkpt lat="45.60611" lon="4.07793">
        <ele>380.79998779297</ele>
        <time>2016-09-11T10:55:27.000Z</time>
      </trkpt>
      <trkpt lat="45.6061" lon="4.07824">
        <ele>381</ele>
        <time>2016-09-11T10:55:31.000Z</time>
      </trkpt>
      <trkpt lat="45.6061" lon="4.07832">
        <ele>381</ele>
        <time>2016-09-11T10:55:32.000Z</time>
      </trkpt>
      <trkpt lat="45.6061" lon="4.07862">
        <ele>381.20001220703</ele>
        <time>2016-09-11T10:55:36.000Z</time>
      </trkpt>
      <trkpt lat="45.60612" lon="4.07892">
        <ele>381.20001220703</ele>
        <time>2016-09-11T10:55:40.000Z</time>
      </trkpt>
      <trkpt lat="45.6061" lon="4.07919">
        <ele>381.20001220703</ele>
        <time>2016-09-11T10:55:44.000Z</time>
      </trkpt>
      <trkpt lat="45.6061" lon="4.07946">
        <ele>382.20001220703</ele>
        <time>2016-09-11T10:55:48.000Z</time>
      </trkpt>
      <trkpt lat="45.6061" lon="4.07952">
        <ele>382.60000610352</ele>
        <time>2016-09-11T10:55:49.000Z</time>
      </trkpt>
      <trkpt lat="45.6061" lon="4.07958">
        <ele>382.79998779297</ele>
        <time>2016-09-11T10:55:50.000Z</time>
      </trkpt>
      <trkpt lat="45.6061" lon="4.07984">
        <ele>384</ele>
        <time>2016-09-11T10:55:54.000Z</time>
      </trkpt>
      <trkpt lat="45.6061" lon="4.0799">
        <ele>384.39999389648</ele>
        <time>2016-09-11T10:55:55.000Z</time>
      </trkpt>
      <trkpt lat="45.6061" lon="4.07997">
        <ele>384.79998779297</ele>
        <time>2016-09-11T10:55:56.000Z</time>
      </trkpt>
      <trkpt lat="45.6061" lon="4.08017">
        <ele>385.20001220703</ele>
        <time>2016-09-11T10:55:59.000Z</time>
      </trkpt>
      <trkpt lat="45.60611" lon="4.08042">
        <ele>385.79998779297</ele>
        <time>2016-09-11T10:56:03.000Z</time>
      </trkpt>
      <trkpt lat="45.60611" lon="4.08048">
        <ele>386</ele>
        <time>2016-09-11T10:56:04.000Z</time>
      </trkpt>
      <trkpt lat="45.60617" lon="4.08073">
        <ele>386.20001220703</ele>
        <time>2016-09-11T10:56:08.000Z</time>
      </trkpt>
      <trkpt lat="45.60622" lon="4.08099">
        <ele>386.39999389648</ele>
        <time>2016-09-11T10:56:12.000Z</time>
      </trkpt>
      <trkpt lat="45.60626" lon="4.08112">
        <ele>386.20001220703</ele>
        <time>2016-09-11T10:56:14.000Z</time>
      </trkpt>
      <trkpt lat="45.60631" lon="4.08131">
        <ele>386</ele>
        <time>2016-09-11T10:56:17.000Z</time>
      </trkpt>
      <trkpt lat="45.60639" lon="4.08153">
        <ele>386</ele>
        <time>2016-09-11T10:56:21.000Z</time>
      </trkpt>
      <trkpt lat="45.60655" lon="4.08173">
        <ele>385.79998779297</ele>
        <time>2016-09-11T10:56:26.000Z</time>
      </trkpt>
      <trkpt lat="45.60658" lon="4.08176">
        <ele>385.79998779297</ele>
        <time>2016-09-11T10:56:27.000Z</time>
      </trkpt>
      <trkpt lat="45.60662" lon="4.08178">
        <ele>385.60000610352</ele>
        <time>2016-09-11T10:56:28.000Z</time>
      </trkpt>
      <trkpt lat="45.60681" lon="4.08191">
        <ele>385.39999389648</ele>
        <time>2016-09-11T10:56:35.000Z</time>
      </trkpt>
      <trkpt lat="45.60684" lon="4.08194">
        <ele>385.39999389648</ele>
        <time>2016-09-11T10:56:36.000Z</time>
      </trkpt>
      <trkpt lat="45.60701" lon="4.08207">
        <ele>385</ele>
        <time>2016-09-11T10:56:41.000Z</time>
      </trkpt>
      <trkpt lat="45.6072" lon="4.08217">
        <ele>384.79998779297</ele>
        <time>2016-09-11T10:56:46.000Z</time>
      </trkpt>
      <trkpt lat="45.60724" lon="4.0822">
        <ele>384.79998779297</ele>
        <time>2016-09-11T10:56:47.000Z</time>
      </trkpt>
      <trkpt lat="45.60738" lon="4.08228">
        <ele>384.79998779297</ele>
        <time>2016-09-11T10:56:51.000Z</time>
      </trkpt>
      <trkpt lat="45.60741" lon="4.0823">
        <ele>384.79998779297</ele>
        <time>2016-09-11T10:56:52.000Z</time>
      </trkpt>
      <trkpt lat="45.60751" lon="4.08238">
        <ele>384.79998779297</ele>
        <time>2016-09-11T10:56:56.000Z</time>
      </trkpt>
      <trkpt lat="45.60767" lon="4.08251">
        <ele>384.79998779297</ele>
        <time>2016-09-11T10:57:01.000Z</time>
      </trkpt>
      <trkpt lat="45.60774" lon="4.08255">
        <ele>385</ele>
        <time>2016-09-11T10:57:03.000Z</time>
      </trkpt>
      <trkpt lat="45.60778" lon="4.08257">
        <ele>385</ele>
        <time>2016-09-11T10:57:04.000Z</time>
      </trkpt>
      <trkpt lat="45.60795" lon="4.0827">
        <ele>385</ele>
        <time>2016-09-11T10:57:09.000Z</time>
      </trkpt>
      <trkpt lat="45.60808" lon="4.08281">
        <ele>385</ele>
        <time>2016-09-11T10:57:12.000Z</time>
      </trkpt>
      <trkpt lat="45.60813" lon="4.08284">
        <ele>385</ele>
        <time>2016-09-11T10:57:13.000Z</time>
      </trkpt>
      <trkpt lat="45.60827" lon="4.08294">
        <ele>385</ele>
        <time>2016-09-11T10:57:16.000Z</time>
      </trkpt>
      <trkpt lat="45.60847" lon="4.08309">
        <ele>384.79998779297</ele>
        <time>2016-09-11T10:57:20.000Z</time>
      </trkpt>
      <trkpt lat="45.60857" lon="4.08316">
        <ele>384.79998779297</ele>
        <time>2016-09-11T10:57:22.000Z</time>
      </trkpt>
      <trkpt lat="45.60867" lon="4.08324">
        <ele>384.79998779297</ele>
        <time>2016-09-11T10:57:24.000Z</time>
      </trkpt>
      <trkpt lat="45.60888" lon="4.08338">
        <ele>384.79998779297</ele>
        <time>2016-09-11T10:57:28.000Z</time>
      </trkpt>
      <trkpt lat="45.60897" lon="4.08345">
        <ele>384.60000610352</ele>
        <time>2016-09-11T10:57:30.000Z</time>
      </trkpt>
      <trkpt lat="45.60916" lon="4.08358">
        <ele>384.60000610352</ele>
        <time>2016-09-11T10:57:34.000Z</time>
      </trkpt>
      <trkpt lat="45.60933" lon="4.08369">
        <ele>384.60000610352</ele>
        <time>2016-09-11T10:57:38.000Z</time>
      </trkpt>
      <trkpt lat="45.60941" lon="4.08375">
        <ele>384.60000610352</ele>
        <time>2016-09-11T10:57:40.000Z</time>
      </trkpt>
      <trkpt lat="45.6096" lon="4.08389">
        <ele>384.39999389648</ele>
        <time>2016-09-11T10:57:44.000Z</time>
      </trkpt>
      <trkpt lat="45.60964" lon="4.08393">
        <ele>384.39999389648</ele>
        <time>2016-09-11T10:57:45.000Z</time>
      </trkpt>
      <trkpt lat="45.60982" lon="4.08408">
        <ele>384.39999389648</ele>
        <time>2016-09-11T10:57:49.000Z</time>
      </trkpt>
      <trkpt lat="45.60987" lon="4.08412">
        <ele>384.39999389648</ele>
        <time>2016-09-11T10:57:50.000Z</time>
      </trkpt>
      <trkpt lat="45.61001" lon="4.08424">
        <ele>384.39999389648</ele>
        <time>2016-09-11T10:57:53.000Z</time>
      </trkpt>
      <trkpt lat="45.6101" lon="4.08433">
        <ele>384.39999389648</ele>
        <time>2016-09-11T10:57:55.000Z</time>
      </trkpt>
      <trkpt lat="45.61026" lon="4.08447">
        <ele>384.20001220703</ele>
        <time>2016-09-11T10:57:58.000Z</time>
      </trkpt>
      <trkpt lat="45.61042" lon="4.08461">
        <ele>384</ele>
        <time>2016-09-11T10:58:01.000Z</time>
      </trkpt>
      <trkpt lat="45.61047" lon="4.08466">
        <ele>383.79998779297</ele>
        <time>2016-09-11T10:58:02.000Z</time>
      </trkpt>
      <trkpt lat="45.61062" lon="4.0848">
        <ele>383.39999389648</ele>
        <time>2016-09-11T10:58:05.000Z</time>
      </trkpt>
      <trkpt lat="45.61073" lon="4.08489">
        <ele>383</ele>
        <time>2016-09-11T10:58:07.000Z</time>
      </trkpt>
      <trkpt lat="45.61089" lon="4.08502">
        <ele>382.39999389648</ele>
        <time>2016-09-11T10:58:10.000Z</time>
      </trkpt>
      <trkpt lat="45.61105" lon="4.08514">
        <ele>381.79998779297</ele>
        <time>2016-09-11T10:58:13.000Z</time>
      </trkpt>
      <trkpt lat="45.61119" lon="4.08526">
        <ele>381.39999389648</ele>
        <time>2016-09-11T10:58:16.000Z</time>
      </trkpt>
      <trkpt lat="45.61138" lon="4.08539">
        <ele>380.79998779297</ele>
        <time>2016-09-11T10:58:21.000Z</time>
      </trkpt>
      <trkpt lat="45.61158" lon="4.08551">
        <ele>380.20001220703</ele>
        <time>2016-09-11T10:58:26.000Z</time>
      </trkpt>
      <trkpt lat="45.61173" lon="4.08559">
        <ele>379.60000610352</ele>
        <time>2016-09-11T10:58:29.000Z</time>
      </trkpt>
      <trkpt lat="45.61193" lon="4.08572">
        <ele>378.79998779297</ele>
        <time>2016-09-11T10:58:33.000Z</time>
      </trkpt>
      <trkpt lat="45.61198" lon="4.08575">
        <ele>378.60000610352</ele>
        <time>2016-09-11T10:58:34.000Z</time>
      </trkpt>
      <trkpt lat="45.61219" lon="4.08589">
        <ele>377.79998779297</ele>
        <time>2016-09-11T10:58:38.000Z</time>
      </trkpt>
      <trkpt lat="45.61224" lon="4.08593">
        <ele>377.79998779297</ele>
        <time>2016-09-11T10:58:39.000Z</time>
      </trkpt>
      <trkpt lat="45.61244" lon="4.08612">
        <ele>377.60000610352</ele>
        <time>2016-09-11T10:58:43.000Z</time>
      </trkpt>
      <trkpt lat="45.61253" lon="4.08621">
        <ele>377.60000610352</ele>
        <time>2016-09-11T10:59:02.000Z</time>
      </trkpt>
      <trkpt lat="45.61247" lon="4.08614">
        <ele>377.60000610352</ele>
        <time>2016-09-11T10:59:06.000Z</time>
      </trkpt>
      <trkpt lat="45.61245" lon="4.08611">
        <ele>377.60000610352</ele>
        <time>2016-09-11T10:59:07.000Z</time>
      </trkpt>
      <trkpt lat="45.61227" lon="4.08593">
        <ele>377.60000610352</ele>
        <time>2016-09-11T10:59:13.000Z</time>
      </trkpt>
      <trkpt lat="45.61219" lon="4.08586">
        <ele>377.79998779297</ele>
        <time>2016-09-11T10:59:15.000Z</time>
      </trkpt>
      <trkpt lat="45.61215" lon="4.08583">
        <ele>377.79998779297</ele>
        <time>2016-09-11T10:59:16.000Z</time>
      </trkpt>
      <trkpt lat="45.61202" lon="4.08574">
        <ele>378.39999389648</ele>
        <time>2016-09-11T10:59:19.000Z</time>
      </trkpt>
      <trkpt lat="45.61193" lon="4.08568">
        <ele>378.79998779297</ele>
        <time>2016-09-11T10:59:21.000Z</time>
      </trkpt>
      <trkpt lat="45.6118" lon="4.0856">
        <ele>379.20001220703</ele>
        <time>2016-09-11T10:59:24.000Z</time>
      </trkpt>
      <trkpt lat="45.61163" lon="4.0855">
        <ele>380</ele>
        <time>2016-09-11T10:59:28.000Z</time>
      </trkpt>
      <trkpt lat="45.61159" lon="4.08548">
        <ele>380.20001220703</ele>
        <time>2016-09-11T10:59:29.000Z</time>
      </trkpt>
      <trkpt lat="45.61155" lon="4.08545">
        <ele>380.20001220703</ele>
        <time>2016-09-11T10:59:30.000Z</time>
      </trkpt>
      <trkpt lat="45.61142" lon="4.08538">
        <ele>380.79998779297</ele>
        <time>2016-09-11T10:59:33.000Z</time>
      </trkpt>
      <trkpt lat="45.61122" lon="4.08538">
        <ele>381.39999389648</ele>
        <time>2016-09-11T10:59:38.000Z</time>
      </trkpt>
      <trkpt lat="45.61106" lon="4.08555">
        <ele>381.60000610352</ele>
        <time>2016-09-11T10:59:42.000Z</time>
      </trkpt>
      <trkpt lat="45.61102" lon="4.08559">
        <ele>381.79998779297</ele>
        <time>2016-09-11T10:59:43.000Z</time>
      </trkpt>
      <trkpt lat="45.61098" lon="4.08563">
        <ele>382</ele>
        <time>2016-09-11T10:59:44.000Z</time>
      </trkpt>
      <trkpt lat="45.61079" lon="4.08579">
        <ele>382.39999389648</ele>
        <time>2016-09-11T10:59:48.000Z</time>
      </trkpt>
      <trkpt lat="45.61066" lon="4.08591">
        <ele>382.60000610352</ele>
        <time>2016-09-11T10:59:51.000Z</time>
      </trkpt>
      <trkpt lat="45.61052" lon="4.08603">
        <ele>383</ele>
        <time>2016-09-11T10:59:54.000Z</time>
      </trkpt>
      <trkpt lat="45.61036" lon="4.08616">
        <ele>383</ele>
        <time>2016-09-11T10:59:57.000Z</time>
      </trkpt>
      <trkpt lat="45.6103" lon="4.0862">
        <ele>383</ele>
        <time>2016-09-11T10:59:58.000Z</time>
      </trkpt>
      <trkpt lat="45.61025" lon="4.08625">
        <ele>383</ele>
        <time>2016-09-11T10:59:59.000Z</time>
      </trkpt>
      <trkpt lat="45.61013" lon="4.08634">
        <ele>382.79998779297</ele>
        <time>2016-09-11T11:00:01.000Z</time>
      </trkpt>
      <trkpt lat="45.60996" lon="4.08649">
        <ele>382.60000610352</ele>
        <time>2016-09-11T11:00:04.000Z</time>
      </trkpt>
      <trkpt lat="45.60984" lon="4.08658">
        <ele>382.20001220703</ele>
        <time>2016-09-11T11:00:06.000Z</time>
      </trkpt>
      <trkpt lat="45.60978" lon="4.08663">
        <ele>382</ele>
        <time>2016-09-11T11:00:07.000Z</time>
      </trkpt>
      <trkpt lat="45.60959" lon="4.08677">
        <ele>381.60000610352</ele>
        <time>2016-09-11T11:00:10.000Z</time>
      </trkpt>
      <trkpt lat="45.60953" lon="4.08682">
        <ele>381.39999389648</ele>
        <time>2016-09-11T11:00:11.000Z</time>
      </trkpt>
      <trkpt lat="45.60936" lon="4.08696">
        <ele>381.20001220703</ele>
        <time>2016-09-11T11:00:14.000Z</time>
      </trkpt>
      <trkpt lat="45.6092" lon="4.0871">
        <ele>381</ele>
        <time>2016-09-11T11:00:17.000Z</time>
      </trkpt>
      <trkpt lat="45.60909" lon="4.08718">
        <ele>380.79998779297</ele>
        <time>2016-09-11T11:00:19.000Z</time>
      </trkpt>
      <trkpt lat="45.60899" lon="4.08725">
        <ele>380.60000610352</ele>
        <time>2016-09-11T11:00:21.000Z</time>
      </trkpt>
      <trkpt lat="45.60889" lon="4.08733">
        <ele>380.60000610352</ele>
        <time>2016-09-11T11:00:23.000Z</time>
      </trkpt>
      <trkpt lat="45.60875" lon="4.08745">
        <ele>380.60000610352</ele>
        <time>2016-09-11T11:00:26.000Z</time>
      </trkpt>
      <trkpt lat="45.60862" lon="4.08757">
        <ele>381</ele>
        <time>2016-09-11T11:00:29.000Z</time>
      </trkpt>
      <trkpt lat="45.60853" lon="4.08766">
        <ele>382</ele>
        <time>2016-09-11T11:00:31.000Z</time>
      </trkpt>
      <trkpt lat="45.6084" lon="4.08782">
        <ele>383.39999389648</ele>
        <time>2016-09-11T11:00:34.000Z</time>
      </trkpt>
      <trkpt lat="45.60833" lon="4.08792">
        <ele>384.20001220703</ele>
        <time>2016-09-11T11:00:36.000Z</time>
      </trkpt>
      <trkpt lat="45.60819" lon="4.08813">
        <ele>385.20001220703</ele>
        <time>2016-09-11T11:00:40.000Z</time>
      </trkpt>
      <trkpt lat="45.60805" lon="4.0883">
        <ele>385.60000610352</ele>
        <time>2016-09-11T11:00:44.000Z</time>
      </trkpt>
      <trkpt lat="45.60815" lon="4.08858">
        <ele>384.20001220703</ele>
        <time>2016-09-11T11:00:49.000Z</time>
      </trkpt>
      <trkpt lat="45.60817" lon="4.08864">
        <ele>384</ele>
        <time>2016-09-11T11:00:50.000Z</time>
      </trkpt>
      <trkpt lat="45.60823" lon="4.08884">
        <ele>383.39999389648</ele>
        <time>2016-09-11T11:00:53.000Z</time>
      </trkpt>
      <trkpt lat="45.60828" lon="4.08906">
        <ele>382.20001220703</ele>
        <time>2016-09-11T11:00:56.000Z</time>
      </trkpt>
      <trkpt lat="45.60833" lon="4.08936">
        <ele>380.60000610352</ele>
        <time>2016-09-11T11:01:00.000Z</time>
      </trkpt>
      <trkpt lat="45.60839" lon="4.08968">
        <ele>380.20001220703</ele>
        <time>2016-09-11T11:01:04.000Z</time>
      </trkpt>
      <trkpt lat="45.60838" lon="4.08999">
        <ele>380</ele>
        <time>2016-09-11T11:01:08.000Z</time>
      </trkpt>
      <trkpt lat="45.60824" lon="4.09008">
        <ele>380</ele>
        <time>2016-09-11T11:01:11.000Z</time>
      </trkpt>
      <trkpt lat="45.60815" lon="4.09014">
        <ele>380</ele>
        <time>2016-09-11T11:01:13.000Z</time>
      </trkpt>
      <trkpt lat="45.60805" lon="4.09019">
        <ele>380</ele>
        <time>2016-09-11T11:01:15.000Z</time>
      </trkpt>
      <trkpt lat="45.60797" lon="4.09025">
        <ele>380.20001220703</ele>
        <time>2016-09-11T11:01:17.000Z</time>
      </trkpt>
    </trkseg>
  </trk>
</gpx>